<?xml version="1.0" encoding="ISO-8859-1" standalone="yes"?>
<gpx xmlns="http://www.topografix.com/GPX/1/1" creator="www.gps-tour.info" version="1.1" xmlns:xsi="http://www.w3.org/2001/XMLSchema-instance" xsi:schemaLocation="http://www.topografix.com/GPX/1/1 http://www.topografix.com/GPX/1/1/gpx.xsd">

  <metadata>
    <author>
      <name>Wilhelm Pistel</name>      
    </author>
    <link href="http://www.gps-tour.info/tours/view.php/action.view/entity.detail/key.10782/">
      <text>Seealpen on www.gps-tour.info</text>
    </link>
    <time>2008-06-05T19:08:32Z</time>
    <bounds minlat="43.7111083333" minlon="5.82811944444" maxlat="47.6290472222" maxlon="10.2776055556"/>
  </metadata>
  


  <trk>
    <name>ACTIVE LOG</name>
    <trkseg>
      <trkpt lat="47.6281527778" lon="10.2722027778">
        <ele>717.281006</ele>
        <time>2008-06-05T19:08:32Z</time>
      </trkpt>
      <trkpt lat="47.6290472222" lon="10.2731583333">
        <ele>739.391113</ele>
        <time>2008-06-05T19:09:06Z</time>
      </trkpt>
      <trkpt lat="47.6273722222" lon="10.2743305556">
        <ele>740.833008</ele>
        <time>2008-06-05T19:10:03Z</time>
      </trkpt>
      <trkpt lat="47.6269833333" lon="10.2769055556">
        <ele>745.639648</ele>
        <time>2008-06-05T19:10:58Z</time>
      </trkpt>
      <trkpt lat="47.617775" lon="10.2737805556">
        <ele>745.639648</ele>
        <time>2008-06-05T19:15:49Z</time>
      </trkpt>
      <trkpt lat="47.6143916667" lon="10.2741944444">
        <ele>730.739258</ele>
        <time>2008-06-05T19:17:34Z</time>
      </trkpt>
      <trkpt lat="47.6108888889" lon="10.2721638889">
        <ele>720.164795</ele>
        <time>2008-06-05T19:19:30Z</time>
      </trkpt>
      <trkpt lat="47.6083527778" lon="10.2683777778">
        <ele>711.512939</ele>
        <time>2008-06-05T19:21:22Z</time>
      </trkpt>
      <trkpt lat="47.6069333333" lon="10.2605722222">
        <ele>711.512939</ele>
        <time>2008-06-05T19:24:10Z</time>
      </trkpt>
      <trkpt lat="47.6041194444" lon="10.256775">
        <ele>710.070801</ele>
        <time>2008-06-05T19:26:07Z</time>
      </trkpt>
      <trkpt lat="47.5955111111" lon="10.25155">
        <ele>710.070801</ele>
        <time>2008-06-05T19:30:55Z</time>
      </trkpt>
      <trkpt lat="47.5842972222" lon="10.2409638889">
        <ele>716.800293</ele>
        <time>2008-06-05T19:37:45Z</time>
      </trkpt>
      <trkpt lat="47.5785861111" lon="10.2414611111">
        <ele>713.435547</ele>
        <time>2008-06-05T19:40:42Z</time>
      </trkpt>
      <trkpt lat="47.573375" lon="10.2379805556">
        <ele>734.104004</ele>
        <time>2008-06-05T19:43:39Z</time>
      </trkpt>
      <trkpt lat="47.5615833333" lon="10.2243972222">
        <ele>717.761475</ele>
        <time>2008-06-05T19:51:20Z</time>
      </trkpt>
      <trkpt lat="47.5614555556" lon="10.2117194444">
        <ele>723.529541</ele>
        <time>2008-06-05T19:55:44Z</time>
      </trkpt>
      <trkpt lat="47.5600083333" lon="10.2115444444">
        <ele>727.374756</ele>
        <time>2008-06-05T19:56:29Z</time>
      </trkpt>
      <trkpt lat="47.5609194444" lon="10.2062666667">
        <ele>728.81665</ele>
        <time>2008-06-05T19:58:23Z</time>
      </trkpt>
      <trkpt lat="47.5643083333" lon="10.1968027778">
        <ele>736.507324</ele>
        <time>2008-06-05T20:02:06Z</time>
      </trkpt>
      <trkpt lat="47.5683361111" lon="10.1912972222">
        <ele>742.755859</ele>
        <time>2008-06-05T20:04:55Z</time>
      </trkpt>
      <trkpt lat="47.5693583333" lon="10.1860333333">
        <ele>732.181396</ele>
        <time>2008-06-05T20:06:49Z</time>
      </trkpt>
      <trkpt lat="47.5658638889" lon="10.1552">
        <ele>732.181396</ele>
        <time>2008-06-05T20:17:41Z</time>
      </trkpt>
      <trkpt lat="47.5568138889" lon="10.1184472222">
        <ele>736.987793</ele>
        <time>2008-06-05T20:31:16Z</time>
      </trkpt>
      <trkpt lat="47.5581166667" lon="10.1045666667">
        <ele>736.026611</ele>
        <time>2008-06-05T20:36:08Z</time>
      </trkpt>
      <trkpt lat="47.5560861111" lon="10.079425">
        <ele>744.197754</ele>
        <time>2008-06-05T20:44:56Z</time>
      </trkpt>
      <trkpt lat="47.5541138889" lon="10.0713638889">
        <ele>747.562256</ele>
        <time>2008-06-05T20:47:55Z</time>
      </trkpt>
      <trkpt lat="47.5547222222" lon="10.0578527778">
        <ele>753.811035</ele>
        <time>2008-06-05T20:52:37Z</time>
      </trkpt>
      <trkpt lat="47.5536972222" lon="10.0525305556">
        <ele>752.849609</ele>
        <time>2008-06-05T20:54:32Z</time>
      </trkpt>
      <trkpt lat="47.5511277778" lon="10.0483777778">
        <ele>768.230713</ele>
        <time>2008-06-05T20:56:30Z</time>
      </trkpt>
      <trkpt lat="47.5514527778" lon="10.0429583333">
        <ele>784.573242</ele>
        <time>2008-06-05T20:58:23Z</time>
      </trkpt>
      <trkpt lat="47.5491027778" lon="10.0323972222">
        <ele>797.070313</ele>
        <time>2008-06-05T21:02:15Z</time>
      </trkpt>
      <trkpt lat="47.54985" lon="10.0271888889">
        <ele>788.418457</ele>
        <time>2008-06-05T21:04:06Z</time>
      </trkpt>
      <trkpt lat="47.5527805556" lon="10.0245638889">
        <ele>781.20874</ele>
        <time>2008-06-05T21:05:52Z</time>
      </trkpt>
      <trkpt lat="47.5491277778" lon="10.0159527778">
        <ele>740.833008</ele>
        <time>2008-06-05T21:09:24Z</time>
      </trkpt>
      <trkpt lat="47.5473527778" lon="10.0153277778">
        <ele>732.181396</ele>
        <time>2008-06-05T21:10:20Z</time>
      </trkpt>
      <trkpt lat="47.5486361111" lon="10.0212388889">
        <ele>699.496338</ele>
        <time>2008-06-05T21:12:30Z</time>
      </trkpt>
      <trkpt lat="47.5471333333" lon="10.0217527778">
        <ele>690.364014</ele>
        <time>2008-06-05T21:13:17Z</time>
      </trkpt>
      <trkpt lat="47.54435" lon="10.0188027778">
        <ele>668.734375</ele>
        <time>2008-06-05T21:15:03Z</time>
      </trkpt>
      <trkpt lat="47.5298138889" lon="9.98212222222">
        <ele>656.237061</ele>
        <time>2008-06-05T21:29:50Z</time>
      </trkpt>
      <trkpt lat="47.5185611111" lon="9.96832222222">
        <ele>645.662598</ele>
        <time>2008-06-05T21:37:21Z</time>
      </trkpt>
      <trkpt lat="47.5174361111" lon="9.96308611111">
        <ele>625.955566</ele>
        <time>2008-06-05T21:39:16Z</time>
      </trkpt>
      <trkpt lat="47.5115666667" lon="9.95622777778">
        <ele>633.165283</ele>
        <time>2008-06-05T21:43:07Z</time>
      </trkpt>
      <trkpt lat="47.5102277778" lon="9.95181388889">
        <ele>641.33667</ele>
        <time>2008-06-05T21:44:48Z</time>
      </trkpt>
      <trkpt lat="47.5059777778" lon="9.94634166667">
        <ele>656.237061</ele>
        <time>2008-06-05T21:47:42Z</time>
      </trkpt>
      <trkpt lat="47.4910888889" lon="9.94518333333">
        <ele>679.308594</ele>
        <time>2008-06-05T21:55:22Z</time>
      </trkpt>
      <trkpt lat="47.4882055556" lon="9.94207777778">
        <ele>675.944092</ele>
        <time>2008-06-05T21:57:13Z</time>
      </trkpt>
      <trkpt lat="47.4902" lon="9.93716111111">
        <ele>679.308594</ele>
        <time>2008-06-05T21:59:12Z</time>
      </trkpt>
      <trkpt lat="47.4893527778" lon="9.93554166667">
        <ele>690.844482</ele>
        <time>2008-06-05T21:59:55Z</time>
      </trkpt>
      <trkpt lat="47.4828055556" lon="9.93398333333">
        <ele>727.855225</ele>
        <time>2008-06-05T22:03:20Z</time>
      </trkpt>
      <trkpt lat="47.4799305556" lon="9.92116944444">
        <ele>729.297119</ele>
        <time>2008-06-05T22:08:02Z</time>
      </trkpt>
      <trkpt lat="47.4800611111" lon="9.90741666667">
        <ele>706.706299</ele>
        <time>2008-06-05T22:12:49Z</time>
      </trkpt>
      <trkpt lat="47.4696861111" lon="9.89720833333">
        <ele>691.325195</ele>
        <time>2008-06-05T22:19:14Z</time>
      </trkpt>
      <trkpt lat="47.4661527778" lon="9.89739444444">
        <ele>689.883301</ele>
        <time>2008-06-05T22:21:03Z</time>
      </trkpt>
      <trkpt lat="47.4612861111" lon="9.893725">
        <ele>658.640381</ele>
        <time>2008-06-05T22:23:52Z</time>
      </trkpt>
      <trkpt lat="47.4646861111" lon="9.88318611111">
        <ele>586.541504</ele>
        <time>2008-06-05T22:27:55Z</time>
      </trkpt>
      <trkpt lat="47.4621361111" lon="9.87972777778">
        <ele>560.105225</ele>
        <time>2008-06-05T22:29:42Z</time>
      </trkpt>
      <trkpt lat="47.4626638889" lon="9.87749722222">
        <ele>541.359497</ele>
        <time>2008-06-05T22:30:32Z</time>
      </trkpt>
      <trkpt lat="47.4607972222" lon="9.87752777778">
        <ele>525.017212</ele>
        <time>2008-06-05T22:31:29Z</time>
      </trkpt>
      <trkpt lat="47.4615611111" lon="9.87674722222">
        <ele>504.829468</ele>
        <time>2008-06-05T22:31:58Z</time>
      </trkpt>
      <trkpt lat="47.4599361111" lon="9.87796388889">
        <ele>489.448364</ele>
        <time>2008-06-05T22:32:54Z</time>
      </trkpt>
      <trkpt lat="47.4591888889" lon="9.87665277778">
        <ele>503.387451</ele>
        <time>2008-06-05T22:33:30Z</time>
      </trkpt>
      <trkpt lat="47.4585861111" lon="9.88110555556">
        <ele>538.956299</ele>
        <time>2008-06-05T22:35:05Z</time>
      </trkpt>
      <trkpt lat="47.4569777778" lon="9.882475">
        <ele>549.050049</ele>
        <time>2008-06-05T22:36:02Z</time>
      </trkpt>
      <trkpt lat="47.4553638889" lon="9.88181388889">
        <ele>563.950439</ele>
        <time>2008-06-05T22:36:54Z</time>
      </trkpt>
      <trkpt lat="47.4552527778" lon="9.87738333333">
        <ele>582.696289</ele>
        <time>2008-06-05T22:38:26Z</time>
      </trkpt>
      <trkpt lat="47.4525472222" lon="9.87904722222">
        <ele>617.78418</ele>
        <time>2008-06-05T22:39:57Z</time>
      </trkpt>
      <trkpt lat="47.45385" lon="9.87157222222">
        <ele>642.298096</ele>
        <time>2008-06-05T22:42:38Z</time>
      </trkpt>
      <trkpt lat="47.4562138889" lon="9.86951388889">
        <ele>658.159912</ele>
        <time>2008-06-05T22:44:03Z</time>
      </trkpt>
      <trkpt lat="47.4584333333" lon="9.86178055556">
        <ele>678.828125</ele>
        <time>2008-06-05T22:46:58Z</time>
      </trkpt>
      <trkpt lat="47.4621027778" lon="9.85545555556">
        <ele>695.17041</ele>
        <time>2008-06-05T22:49:52Z</time>
      </trkpt>
      <trkpt lat="47.456875" lon="9.84821111111">
        <ele>716.800293</ele>
        <time>2008-06-05T22:53:34Z</time>
      </trkpt>
      <trkpt lat="47.4396666667" lon="9.80501388889">
        <ele>699.015625</ele>
        <time>2008-06-05T23:11:01Z</time>
      </trkpt>
      <trkpt lat="47.4374444444" lon="9.78764444444">
        <ele>682.192627</ele>
        <time>2008-06-05T23:17:10Z</time>
      </trkpt>
      <trkpt lat="47.4387027778" lon="9.78290833333">
        <ele>662.005127</ele>
        <time>2008-06-05T23:18:56Z</time>
      </trkpt>
      <trkpt lat="47.4404694444" lon="9.78280277778">
        <ele>657.198486</ele>
        <time>2008-06-05T23:19:51Z</time>
      </trkpt>
      <trkpt lat="47.4423916667" lon="9.77589722222">
        <ele>621.629639</ele>
        <time>2008-06-05T23:22:27Z</time>
      </trkpt>
      <trkpt lat="47.4399777778" lon="9.76846388889">
        <ele>579.812256</ele>
        <time>2008-06-05T23:25:19Z</time>
      </trkpt>
      <trkpt lat="47.4368861111" lon="9.765525">
        <ele>550.011475</ele>
        <time>2008-06-05T23:27:13Z</time>
      </trkpt>
      <trkpt lat="47.4382083333" lon="9.76416111111">
        <ele>536.553101</ele>
        <time>2008-06-05T23:28:03Z</time>
      </trkpt>
      <trkpt lat="47.4370166667" lon="9.76196944444">
        <ele>524.536499</ele>
        <time>2008-06-05T23:29:01Z</time>
      </trkpt>
      <trkpt lat="47.43395" lon="9.75901111111">
        <ele>492.812988</ele>
        <time>2008-06-05T23:30:54Z</time>
      </trkpt>
      <trkpt lat="47.4326111111" lon="9.76136944444">
        <ele>465.896118</ele>
        <time>2008-06-05T23:31:59Z</time>
      </trkpt>
      <trkpt lat="47.4313194444" lon="9.756225">
        <ele>438.498535</ele>
        <time>2008-06-05T23:33:53Z</time>
      </trkpt>
      <trkpt lat="47.4349" lon="9.73812777778">
        <ele>412.062256</ele>
        <time>2008-06-05T23:40:27Z</time>
      </trkpt>
      <trkpt lat="47.4151" lon="9.74401111111">
        <ele>435.133911</ele>
        <time>2008-06-05T23:50:51Z</time>
      </trkpt>
      <trkpt lat="47.4060805556" lon="9.74227222222">
        <ele>444.74707</ele>
        <time>2008-06-05T23:55:32Z</time>
      </trkpt>
      <trkpt lat="47.3976027778" lon="9.73215833333">
        <ele>435.133911</ele>
        <time>2008-06-06T00:01:09Z</time>
      </trkpt>
      <trkpt lat="47.3908555556" lon="9.72687222222">
        <ele>427.443359</ele>
        <time>2008-06-06T00:05:05Z</time>
      </trkpt>
      <trkpt lat="47.3853638889" lon="9.71244722222">
        <ele>418.791504</ele>
        <time>2008-06-06T00:10:51Z</time>
      </trkpt>
      <trkpt lat="47.3720138889" lon="9.69253888889">
        <ele>411.100952</ele>
        <time>2008-06-06T00:20:37Z</time>
      </trkpt>
      <trkpt lat="47.3673666667" lon="9.68879722222">
        <ele>420.233398</ele>
        <time>2008-06-06T00:23:20Z</time>
      </trkpt>
      <trkpt lat="47.3898277778" lon="9.64957222222">
        <ele>419.272217</ele>
        <time>2008-06-06T00:41:15Z</time>
      </trkpt>
      <trkpt lat="47.3910694444" lon="9.64446388889">
        <ele>420.714111</ele>
        <time>2008-06-06T00:43:08Z</time>
      </trkpt>
      <trkpt lat="47.3927527778" lon="9.64336944444">
        <ele>420.233398</ele>
        <time>2008-06-06T00:44:05Z</time>
      </trkpt>
      <trkpt lat="47.3872666667" lon="9.64133055556">
        <ele>417.8302</ele>
        <time>2008-06-06T00:47:00Z</time>
      </trkpt>
      <trkpt lat="47.3771861111" lon="9.63350277778">
        <ele>421.194824</ele>
        <time>2008-06-06T00:52:51Z</time>
      </trkpt>
      <trkpt lat="47.3698611111" lon="9.62523888889">
        <ele>425.040161</ele>
        <time>2008-06-06T00:57:36Z</time>
      </trkpt>
      <trkpt lat="47.3560305556" lon="9.60529444444">
        <ele>428.885376</ele>
        <time>2008-06-06T01:07:33Z</time>
      </trkpt>
      <trkpt lat="47.3461277778" lon="9.59679166667">
        <ele>429.365967</ele>
        <time>2008-06-06T01:13:27Z</time>
      </trkpt>
      <trkpt lat="47.3210888889" lon="9.58669444444">
        <ele>431.288574</ele>
        <time>2008-06-06T01:26:49Z</time>
      </trkpt>
      <trkpt lat="47.3158666667" lon="9.58316388889">
        <ele>430.807983</ele>
        <time>2008-06-06T01:29:46Z</time>
      </trkpt>
      <trkpt lat="47.2992083333" lon="9.555375">
        <ele>439.94043</ele>
        <time>2008-06-06T01:42:43Z</time>
      </trkpt>
      <trkpt lat="47.2822638889" lon="9.54595">
        <ele>439.94043</ele>
        <time>2008-06-06T01:52:03Z</time>
      </trkpt>
      <trkpt lat="47.2724777778" lon="9.529725">
        <ele>449.553711</ele>
        <time>2008-06-06T01:59:38Z</time>
      </trkpt>
      <trkpt lat="47.2597972222" lon="9.526975">
        <ele>441.382446</ele>
        <time>2008-06-06T02:06:13Z</time>
      </trkpt>
      <trkpt lat="47.2402083333" lon="9.51510555556">
        <ele>448.592407</ele>
        <time>2008-06-06T02:17:08Z</time>
      </trkpt>
      <trkpt lat="47.2213972222" lon="9.50043333333">
        <ele>451.957031</ele>
        <time>2008-06-06T02:28:05Z</time>
      </trkpt>
      <trkpt lat="47.2084166667" lon="9.49546944444">
        <ele>451.476318</ele>
        <time>2008-06-06T02:34:59Z</time>
      </trkpt>
      <trkpt lat="47.1941472222" lon="9.48659166667">
        <ele>454.360229</ele>
        <time>2008-06-06T02:42:58Z</time>
      </trkpt>
      <trkpt lat="47.1867666667" lon="9.4843">
        <ele>454.84082</ele>
        <time>2008-06-06T02:46:51Z</time>
      </trkpt>
      <trkpt lat="47.1771972222" lon="9.48461388889">
        <ele>460.608765</ele>
        <time>2008-06-06T02:51:47Z</time>
      </trkpt>
      <trkpt lat="47.1642833333" lon="9.48880833333">
        <ele>457.244263</ele>
        <time>2008-06-06T02:58:35Z</time>
      </trkpt>
      <trkpt lat="47.1390444444" lon="9.50540277778">
        <ele>464.454102</ele>
        <time>2008-06-06T03:12:49Z</time>
      </trkpt>
      <trkpt lat="47.1282916667" lon="9.510525">
        <ele>467.818726</ele>
        <time>2008-06-06T03:18:38Z</time>
      </trkpt>
      <trkpt lat="47.107775" lon="9.51663055556">
        <ele>473.106079</ele>
        <time>2008-06-06T03:29:25Z</time>
      </trkpt>
      <trkpt lat="47.0967055556" lon="9.51762777778">
        <ele>477.431885</ele>
        <time>2008-06-06T03:35:07Z</time>
      </trkpt>
      <trkpt lat="47.0912638889" lon="9.51540277778">
        <ele>482.719238</ele>
        <time>2008-06-06T03:38:02Z</time>
      </trkpt>
      <trkpt lat="47.0851638889" lon="9.50933333333">
        <ele>478.873901</ele>
        <time>2008-06-06T03:41:49Z</time>
      </trkpt>
      <trkpt lat="47.0661194444" lon="9.47110833333">
        <ele>491.851685</ele>
        <time>2008-06-06T03:58:26Z</time>
      </trkpt>
      <trkpt lat="47.0624222222" lon="9.4687">
        <ele>491.851685</ele>
        <time>2008-06-06T04:00:30Z</time>
      </trkpt>
      <trkpt lat="47.0490138889" lon="9.47042222222">
        <ele>494.255005</ele>
        <time>2008-06-06T04:07:26Z</time>
      </trkpt>
      <trkpt lat="47.0368194444" lon="9.46112777778">
        <ele>488.967773</ele>
        <time>2008-06-06T04:14:31Z</time>
      </trkpt>
      <trkpt lat="47.0176" lon="9.49171666667">
        <ele>501.464844</ele>
        <time>2008-06-06T04:29:06Z</time>
      </trkpt>
      <trkpt lat="47.0150111111" lon="9.49889444444">
        <ele>504.348877</ele>
        <time>2008-06-06T04:31:57Z</time>
      </trkpt>
      <trkpt lat="47.0133972222" lon="9.509575">
        <ele>515.404053</ele>
        <time>2008-06-06T04:35:48Z</time>
      </trkpt>
      <trkpt lat="47.0110416667" lon="9.51378055556">
        <ele>507.232788</ele>
        <time>2008-06-06T04:37:42Z</time>
      </trkpt>
      <trkpt lat="46.9989527778" lon="9.52328611111">
        <ele>514.92334</ele>
        <time>2008-06-06T04:44:46Z</time>
      </trkpt>
      <trkpt lat="46.9764083333" lon="9.54928333333">
        <ele>525.497803</ele>
        <time>2008-06-06T04:59:32Z</time>
      </trkpt>
      <trkpt lat="46.9688305556" lon="9.55233055556">
        <ele>530.785156</ele>
        <time>2008-06-06T05:03:35Z</time>
      </trkpt>
      <trkpt lat="46.95215" lon="9.54574166667">
        <ele>531.746338</ele>
        <time>2008-06-06T05:12:28Z</time>
      </trkpt>
      <trkpt lat="46.9448111111" lon="9.545675">
        <ele>536.553101</ele>
        <time>2008-06-06T05:16:15Z</time>
      </trkpt>
      <trkpt lat="46.939475" lon="9.54864166667">
        <ele>537.033691</ele>
        <time>2008-06-06T05:19:11Z</time>
      </trkpt>
      <trkpt lat="46.9320305556" lon="9.55898055556">
        <ele>543.762817</ele>
        <time>2008-06-06T05:24:28Z</time>
      </trkpt>
      <trkpt lat="46.9283861111" lon="9.56135277778">
        <ele>552.895264</ele>
        <time>2008-06-06T05:26:32Z</time>
      </trkpt>
      <trkpt lat="46.9211194444" lon="9.56216666667">
        <ele>542.320923</ele>
        <time>2008-06-06T05:30:17Z</time>
      </trkpt>
      <trkpt lat="46.9151944444" lon="9.56059722222">
        <ele>543.282104</ele>
        <time>2008-06-06T05:33:23Z</time>
      </trkpt>
      <trkpt lat="46.9030972222" lon="9.54715277778">
        <ele>551.934082</ele>
        <time>2008-06-06T05:41:12Z</time>
      </trkpt>
      <trkpt lat="46.883575" lon="9.53573888889">
        <ele>569.718506</ele>
        <time>2008-06-06T05:52:01Z</time>
      </trkpt>
      <trkpt lat="46.8740861111" lon="9.53209444444">
        <ele>563.469971</ele>
        <time>2008-06-06T05:57:04Z</time>
      </trkpt>
      <trkpt lat="46.871125" lon="9.52843888889">
        <ele>562.989258</ele>
        <time>2008-06-06T05:59:04Z</time>
      </trkpt>
      <trkpt lat="46.8638638889" lon="9.51172222222">
        <ele>570.198975</ele>
        <time>2008-06-06T06:06:02Z</time>
      </trkpt>
      <trkpt lat="46.8608611111" lon="9.50820833333">
        <ele>572.602539</ele>
        <time>2008-06-06T06:08:01Z</time>
      </trkpt>
      <trkpt lat="46.8496638889" lon="9.50586388889">
        <ele>572.121826</ele>
        <time>2008-06-06T06:13:50Z</time>
      </trkpt>
      <trkpt lat="46.8465972222" lon="9.50278888889">
        <ele>571.1604</ele>
        <time>2008-06-06T06:15:45Z</time>
      </trkpt>
      <trkpt lat="46.8422277778" lon="9.472375">
        <ele>578.851074</ele>
        <time>2008-06-06T06:26:42Z</time>
      </trkpt>
      <trkpt lat="46.8375416667" lon="9.45744444444">
        <ele>582.696289</ele>
        <time>2008-06-06T06:32:29Z</time>
      </trkpt>
      <trkpt lat="46.8378444444" lon="9.44911944444">
        <ele>586.060791</ele>
        <time>2008-06-06T06:35:25Z</time>
      </trkpt>
      <trkpt lat="46.8301722222" lon="9.42100277778">
        <ele>612.49707</ele>
        <time>2008-06-06T06:46:04Z</time>
      </trkpt>
      <trkpt lat="46.8281916667" lon="9.41130277778">
        <ele>620.668457</ele>
        <time>2008-06-06T06:49:38Z</time>
      </trkpt>
      <trkpt lat="46.8268527778" lon="9.38408055556">
        <ele>775.921143</ele>
        <time>2008-06-06T06:59:15Z</time>
      </trkpt>
      <trkpt lat="46.8284083333" lon="9.37637222222">
        <ele>837.445557</ele>
        <time>2008-06-06T07:02:05Z</time>
      </trkpt>
      <trkpt lat="46.827475" lon="9.36828055556">
        <ele>857.633301</ele>
        <time>2008-06-06T07:04:58Z</time>
      </trkpt>
      <trkpt lat="46.8342083333" lon="9.34159722222">
        <ele>827.832275</ele>
        <time>2008-06-06T07:14:59Z</time>
      </trkpt>
      <trkpt lat="46.8341777778" lon="9.32516111111">
        <ele>860.998047</ele>
        <time>2008-06-06T07:20:47Z</time>
      </trkpt>
      <trkpt lat="46.8363333333" lon="9.31756111111">
        <ele>909.063965</ele>
        <time>2008-06-06T07:23:41Z</time>
      </trkpt>
      <trkpt lat="46.8345722222" lon="9.30459722222">
        <ele>992.218018</ele>
        <time>2008-06-06T07:28:20Z</time>
      </trkpt>
      <trkpt lat="46.8367472222" lon="9.28602777778">
        <ele>1072.007324</ele>
        <time>2008-06-06T07:34:58Z</time>
      </trkpt>
      <trkpt lat="46.8344694444" lon="9.28228333333">
        <ele>1076.333252</ele>
        <time>2008-06-06T07:36:44Z</time>
      </trkpt>
      <trkpt lat="46.8267222222" lon="9.28848888889">
        <ele>1102.288818</ele>
        <time>2008-06-06T07:41:17Z</time>
      </trkpt>
      <trkpt lat="46.8248444444" lon="9.28430277778">
        <ele>1107.095459</ele>
        <time>2008-06-06T07:43:02Z</time>
      </trkpt>
      <trkpt lat="46.8248888889" lon="9.273775">
        <ele>1107.576172</ele>
        <time>2008-06-06T07:46:45Z</time>
      </trkpt>
      <trkpt lat="46.8204388889" lon="9.26848611111">
        <ele>1092.195068</ele>
        <time>2008-06-06T07:49:42Z</time>
      </trkpt>
      <trkpt lat="46.8150888889" lon="9.26598333333">
        <ele>1046.532471</ele>
        <time>2008-06-06T07:52:36Z</time>
      </trkpt>
      <trkpt lat="46.812" lon="9.26256388889">
        <ele>1028.267334</ele>
        <time>2008-06-06T07:54:35Z</time>
      </trkpt>
      <trkpt lat="46.8017333333" lon="9.25607777778">
        <ele>987.891846</ele>
        <time>2008-06-06T08:00:21Z</time>
      </trkpt>
      <trkpt lat="46.7979555556" lon="9.25686388889">
        <ele>963.858887</ele>
        <time>2008-06-06T08:02:19Z</time>
      </trkpt>
      <trkpt lat="46.7943638889" lon="9.25138055556">
        <ele>926.367676</ele>
        <time>2008-06-06T08:04:59Z</time>
      </trkpt>
      <trkpt lat="46.7908666667" lon="9.24201111111">
        <ele>852.82666</ele>
        <time>2008-06-06T08:08:45Z</time>
      </trkpt>
      <trkpt lat="46.7884861111" lon="9.22641666667">
        <ele>761.501465</ele>
        <time>2008-06-06T08:14:23Z</time>
      </trkpt>
      <trkpt lat="46.7807055556" lon="9.21958888889">
        <ele>712.954834</ele>
        <time>2008-06-06T08:19:03Z</time>
      </trkpt>
      <trkpt lat="46.77755" lon="9.21286944444">
        <ele>704.783691</ele>
        <time>2008-06-06T08:21:55Z</time>
      </trkpt>
      <trkpt lat="46.77325" lon="9.1824">
        <ele>718.7229</ele>
        <time>2008-06-06T08:32:54Z</time>
      </trkpt>
      <trkpt lat="46.7769638889" lon="9.16977222222">
        <ele>738.910645</ele>
        <time>2008-06-06T08:37:44Z</time>
      </trkpt>
      <trkpt lat="46.7771194444" lon="9.15358333333">
        <ele>745.158936</ele>
        <time>2008-06-06T08:43:27Z</time>
      </trkpt>
      <trkpt lat="46.7755361111" lon="9.14862222222">
        <ele>748.043213</ele>
        <time>2008-06-06T08:45:22Z</time>
      </trkpt>
      <trkpt lat="46.776525" lon="9.13785555556">
        <ele>747.081543</ele>
        <time>2008-06-06T08:49:12Z</time>
      </trkpt>
      <trkpt lat="46.7712305556" lon="9.11737777778">
        <ele>758.617432</ele>
        <time>2008-06-06T08:56:55Z</time>
      </trkpt>
      <trkpt lat="46.7582861111" lon="9.08641388889">
        <ele>773.037354</ele>
        <time>2008-06-06T09:09:43Z</time>
      </trkpt>
      <trkpt lat="46.7570722222" lon="9.06228055556">
        <ele>792.263672</ele>
        <time>2008-06-06T09:18:15Z</time>
      </trkpt>
      <trkpt lat="46.753025" lon="9.05643611111">
        <ele>809.08667</ele>
        <time>2008-06-06T09:21:11Z</time>
      </trkpt>
      <trkpt lat="46.7484083333" lon="9.03604166667">
        <ele>836.484375</ele>
        <time>2008-06-06T09:28:45Z</time>
      </trkpt>
      <trkpt lat="46.7445333333" lon="9.02654444444">
        <ele>838.406982</ele>
        <time>2008-06-06T09:32:39Z</time>
      </trkpt>
      <trkpt lat="46.7445416667" lon="9.0214">
        <ele>833.600342</ele>
        <time>2008-06-06T09:34:28Z</time>
      </trkpt>
      <trkpt lat="46.7430277778" lon="9.01974444444">
        <ele>832.63916</ele>
        <time>2008-06-06T09:35:26Z</time>
      </trkpt>
      <trkpt lat="46.7448833333" lon="9.001275">
        <ele>852.345947</ele>
        <time>2008-06-06T09:42:02Z</time>
      </trkpt>
      <trkpt lat="46.7433305556" lon="8.99627777778">
        <ele>855.710693</ele>
        <time>2008-06-06T09:43:58Z</time>
      </trkpt>
      <trkpt lat="46.7423694444" lon="8.98020555556">
        <ele>876.859863</ele>
        <time>2008-06-06T09:49:39Z</time>
      </trkpt>
      <trkpt lat="46.7341472222" lon="8.96623611111">
        <ele>935.980713</ele>
        <time>2008-06-06T09:56:09Z</time>
      </trkpt>
      <trkpt lat="46.73445" lon="8.95579166667">
        <ele>966.74292</ele>
        <time>2008-06-06T09:59:50Z</time>
      </trkpt>
      <trkpt lat="46.7302055556" lon="8.94701111111">
        <ele>1015.770264</ele>
        <time>2008-06-06T10:03:38Z</time>
      </trkpt>
      <trkpt lat="46.7273888889" lon="8.93705">
        <ele>1044.12915</ele>
        <time>2008-06-06T10:07:26Z</time>
      </trkpt>
      <trkpt lat="46.7213305556" lon="8.89662777778">
        <ele>1033.554443</ele>
        <time>2008-06-06T10:22:02Z</time>
      </trkpt>
      <trkpt lat="46.716425" lon="8.88838888889">
        <ele>1059.510254</ele>
        <time>2008-06-06T10:25:53Z</time>
      </trkpt>
      <trkpt lat="46.7125138889" lon="8.87231388889">
        <ele>1102.288818</ele>
        <time>2008-06-06T10:31:54Z</time>
      </trkpt>
      <trkpt lat="46.7080527778" lon="8.864075">
        <ele>1132.089844</ele>
        <time>2008-06-06T10:35:37Z</time>
      </trkpt>
      <trkpt lat="46.7049388889" lon="8.85173611111">
        <ele>1155.64209</ele>
        <time>2008-06-06T10:40:15Z</time>
      </trkpt>
      <trkpt lat="46.7002111111" lon="8.84438611111">
        <ele>1196.498291</ele>
        <time>2008-06-06T10:43:49Z</time>
      </trkpt>
      <trkpt lat="46.6983055556" lon="8.84453888889">
        <ele>1208.033936</ele>
        <time>2008-06-06T10:44:48Z</time>
      </trkpt>
      <trkpt lat="46.6951305556" lon="8.84220833333">
        <ele>1225.818115</ele>
        <time>2008-06-06T10:46:37Z</time>
      </trkpt>
      <trkpt lat="46.6949555556" lon="8.83944166667">
        <ele>1229.663574</ele>
        <time>2008-06-06T10:47:36Z</time>
      </trkpt>
      <trkpt lat="46.6906694444" lon="8.83689166667">
        <ele>1246.006104</ele>
        <time>2008-06-06T10:49:59Z</time>
      </trkpt>
      <trkpt lat="46.6884888889" lon="8.83263611111">
        <ele>1252.735107</ele>
        <time>2008-06-06T10:51:52Z</time>
      </trkpt>
      <trkpt lat="46.6872694444" lon="8.83175277778">
        <ele>1255.619141</ele>
        <time>2008-06-06T10:52:34Z</time>
      </trkpt>
      <trkpt lat="46.6869777778" lon="8.83435833333">
        <ele>1267.155029</ele>
        <time>2008-06-06T10:53:30Z</time>
      </trkpt>
      <trkpt lat="46.6854694444" lon="8.83515">
        <ele>1277.249023</ele>
        <time>2008-06-06T10:54:19Z</time>
      </trkpt>
      <trkpt lat="46.6817305556" lon="8.82776388889">
        <ele>1307.049561</ele>
        <time>2008-06-06T10:57:34Z</time>
      </trkpt>
      <trkpt lat="46.6807444444" lon="8.78535277778">
        <ele>1408.46875</ele>
        <time>2008-06-06T11:12:33Z</time>
      </trkpt>
      <trkpt lat="46.6821777778" lon="8.78361666667">
        <ele>1404.143066</ele>
        <time>2008-06-06T11:13:31Z</time>
      </trkpt>
      <trkpt lat="46.6808388889" lon="8.78209444444">
        <ele>1403.662109</ele>
        <time>2008-06-06T11:14:23Z</time>
      </trkpt>
      <trkpt lat="46.6812361111" lon="8.77705">
        <ele>1403.181396</ele>
        <time>2008-06-06T11:16:11Z</time>
      </trkpt>
      <trkpt lat="46.6789805556" lon="8.77007222222">
        <ele>1408.949463</ele>
        <time>2008-06-06T11:18:54Z</time>
      </trkpt>
      <trkpt lat="46.6805555556" lon="8.76247777778">
        <ele>1415.678711</ele>
        <time>2008-06-06T11:21:42Z</time>
      </trkpt>
      <trkpt lat="46.6771333333" lon="8.75963333333">
        <ele>1410.87207</ele>
        <time>2008-06-06T11:23:44Z</time>
      </trkpt>
      <trkpt lat="46.676075" lon="8.75205555556">
        <ele>1405.104248</ele>
        <time>2008-06-06T11:26:28Z</time>
      </trkpt>
      <trkpt lat="46.6723111111" lon="8.74574444444">
        <ele>1424.811279</ele>
        <time>2008-06-06T11:29:25Z</time>
      </trkpt>
      <trkpt lat="46.66915" lon="8.744">
        <ele>1441.634277</ele>
        <time>2008-06-06T11:31:09Z</time>
      </trkpt>
      <trkpt lat="46.66815" lon="8.74599722222">
        <ele>1447.4021</ele>
        <time>2008-06-06T11:32:02Z</time>
      </trkpt>
      <trkpt lat="46.6654944444" lon="8.74199166667">
        <ele>1463.744385</ele>
        <time>2008-06-06T11:34:00Z</time>
      </trkpt>
      <trkpt lat="46.6613277778" lon="8.72095555556">
        <ele>1566.125</ele>
        <time>2008-06-06T11:41:44Z</time>
      </trkpt>
      <trkpt lat="46.6557416667" lon="8.70970277778">
        <ele>1631.01416</ele>
        <time>2008-06-06T11:46:38Z</time>
      </trkpt>
      <trkpt lat="46.6537833333" lon="8.69957777778">
        <ele>1681.483154</ele>
        <time>2008-06-06T11:50:21Z</time>
      </trkpt>
      <trkpt lat="46.6490777778" lon="8.69168888889">
        <ele>1745.410889</ele>
        <time>2008-06-06T11:54:03Z</time>
      </trkpt>
      <trkpt lat="46.6485861111" lon="8.68664722222">
        <ele>1779.537598</ele>
        <time>2008-06-06T11:55:51Z</time>
      </trkpt>
      <trkpt lat="46.6498305556" lon="8.68739722222">
        <ele>1795.880127</ele>
        <time>2008-06-06T11:56:33Z</time>
      </trkpt>
      <trkpt lat="46.6507027778" lon="8.68188333333">
        <ele>1855.962402</ele>
        <time>2008-06-06T11:58:32Z</time>
      </trkpt>
      <trkpt lat="46.65135" lon="8.68296666667">
        <ele>1885.763428</ele>
        <time>2008-06-06T11:59:03Z</time>
      </trkpt>
      <trkpt lat="46.6546388889" lon="8.67647777778">
        <ele>1977.088623</ele>
        <time>2008-06-06T12:01:54Z</time>
      </trkpt>
      <trkpt lat="46.6610333333" lon="8.67001666667">
        <ele>2024.193115</ele>
        <time>2008-06-06T12:05:54Z</time>
      </trkpt>
      <trkpt lat="46.662075" lon="8.66221666667">
        <ele>2019.386719</ele>
        <time>2008-06-06T12:08:43Z</time>
      </trkpt>
      <trkpt lat="46.6551138889" lon="8.63832222222">
        <ele>1973.723877</ele>
        <time>2008-06-06T12:17:53Z</time>
      </trkpt>
      <trkpt lat="46.6432194444" lon="8.62105277778">
        <ele>1859.807617</ele>
        <time>2008-06-06T12:26:32Z</time>
      </trkpt>
      <trkpt lat="46.6411444444" lon="8.60810833333">
        <ele>1794.918701</ele>
        <time>2008-06-06T12:31:14Z</time>
      </trkpt>
      <trkpt lat="46.6401472222" lon="8.61145277778">
        <ele>1764.637207</ele>
        <time>2008-06-06T12:32:31Z</time>
      </trkpt>
      <trkpt lat="46.64005" lon="8.60313611111">
        <ele>1716.090576</ele>
        <time>2008-06-06T12:35:27Z</time>
      </trkpt>
      <trkpt lat="46.6376611111" lon="8.60980277778">
        <ele>1668.505371</ele>
        <time>2008-06-06T12:38:07Z</time>
      </trkpt>
      <trkpt lat="46.6375194444" lon="8.60458333333">
        <ele>1639.665771</ele>
        <time>2008-06-06T12:39:57Z</time>
      </trkpt>
      <trkpt lat="46.6393166667" lon="8.60105">
        <ele>1612.268311</ele>
        <time>2008-06-06T12:41:31Z</time>
      </trkpt>
      <trkpt lat="46.6357638889" lon="8.606925">
        <ele>1571.412109</ele>
        <time>2008-06-06T12:44:17Z</time>
      </trkpt>
      <trkpt lat="46.6375" lon="8.5998">
        <ele>1528.633545</ele>
        <time>2008-06-06T12:46:57Z</time>
      </trkpt>
      <trkpt lat="46.6353444444" lon="8.60142777778">
        <ele>1498.351807</ele>
        <time>2008-06-06T12:48:12Z</time>
      </trkpt>
      <trkpt lat="46.6347444444" lon="8.59631666667">
        <ele>1451.728027</ele>
        <time>2008-06-06T12:50:02Z</time>
      </trkpt>
      <trkpt lat="46.6335944444" lon="8.59701666667">
        <ele>1452.689453</ele>
        <time>2008-06-06T12:50:41Z</time>
      </trkpt>
      <trkpt lat="46.6305027778" lon="8.58714444444">
        <ele>1443.076172</ele>
        <time>2008-06-06T12:54:31Z</time>
      </trkpt>
      <trkpt lat="46.6190305556" lon="8.56954444444">
        <ele>1482.970703</ele>
        <time>2008-06-06T13:03:05Z</time>
      </trkpt>
      <trkpt lat="46.6113055556" lon="8.54204722222">
        <ele>1507.965332</ele>
        <time>2008-06-06T13:13:36Z</time>
      </trkpt>
      <trkpt lat="46.6109333333" lon="8.53680277778">
        <ele>1506.523193</ele>
        <time>2008-06-06T13:15:28Z</time>
      </trkpt>
      <trkpt lat="46.6027888889" lon="8.51518055556">
        <ele>1523.826904</ele>
        <time>2008-06-06T13:24:11Z</time>
      </trkpt>
      <trkpt lat="46.6006777778" lon="8.50474166667">
        <ele>1544.495117</ele>
        <time>2008-06-06T13:28:02Z</time>
      </trkpt>
      <trkpt lat="46.5905472222" lon="8.493175">
        <ele>1657.930908</ele>
        <time>2008-06-06T13:34:39Z</time>
      </trkpt>
      <trkpt lat="46.5896333333" lon="8.49184166667">
        <ele>1677.637939</ele>
        <time>2008-06-06T13:35:19Z</time>
      </trkpt>
      <trkpt lat="46.5915027778" lon="8.49134722222">
        <ele>1694.460938</ele>
        <time>2008-06-06T13:36:18Z</time>
      </trkpt>
      <trkpt lat="46.5882055556" lon="8.49042222222">
        <ele>1732.433105</ele>
        <time>2008-06-06T13:38:02Z</time>
      </trkpt>
      <trkpt lat="46.5917222222" lon="8.48833333333">
        <ele>1782.421631</ele>
        <time>2008-06-06T13:39:59Z</time>
      </trkpt>
      <trkpt lat="46.5897333333" lon="8.48868888889">
        <ele>1816.54834</ele>
        <time>2008-06-06T13:41:01Z</time>
      </trkpt>
      <trkpt lat="46.5871111111" lon="8.48556944444">
        <ele>1850.19458</ele>
        <time>2008-06-06T13:42:46Z</time>
      </trkpt>
      <trkpt lat="46.5892444444" lon="8.487025">
        <ele>1885.282715</ele>
        <time>2008-06-06T13:43:58Z</time>
      </trkpt>
      <trkpt lat="46.5898361111" lon="8.48574722222">
        <ele>1900.18335</ele>
        <time>2008-06-06T13:44:31Z</time>
      </trkpt>
      <trkpt lat="46.5873972222" lon="8.48253333333">
        <ele>1931.425781</ele>
        <time>2008-06-06T13:46:13Z</time>
      </trkpt>
      <trkpt lat="46.587225" lon="8.47988055556">
        <ele>1951.61377</ele>
        <time>2008-06-06T13:47:09Z</time>
      </trkpt>
      <trkpt lat="46.5878972222" lon="8.47790833333">
        <ele>1967.956055</ele>
        <time>2008-06-06T13:47:56Z</time>
      </trkpt>
      <trkpt lat="46.5892055556" lon="8.48005">
        <ele>1986.70166</ele>
        <time>2008-06-06T13:48:57Z</time>
      </trkpt>
      <trkpt lat="46.59265" lon="8.46168888889">
        <ele>2094.369385</ele>
        <time>2008-06-06T13:55:41Z</time>
      </trkpt>
      <trkpt lat="46.594825" lon="8.45734166667">
        <ele>2117.921631</ele>
        <time>2008-06-06T13:57:35Z</time>
      </trkpt>
      <trkpt lat="46.5909972222" lon="8.45195">
        <ele>2146.280762</ele>
        <time>2008-06-06T14:00:20Z</time>
      </trkpt>
      <trkpt lat="46.5879416667" lon="8.44189722222">
        <ele>2202.517578</ele>
        <time>2008-06-06T14:04:13Z</time>
      </trkpt>
      <trkpt lat="46.5874333333" lon="8.43149444444">
        <ele>2279.423096</ele>
        <time>2008-06-06T14:07:54Z</time>
      </trkpt>
      <trkpt lat="46.5782083333" lon="8.42447222222">
        <ele>2402.471924</ele>
        <time>2008-06-06T14:13:16Z</time>
      </trkpt>
      <trkpt lat="46.5722361111" lon="8.41440277778">
        <ele>2417.853027</ele>
        <time>2008-06-06T14:17:58Z</time>
      </trkpt>
      <trkpt lat="46.5716833333" lon="8.40946111111">
        <ele>2414.007813</ele>
        <time>2008-06-06T14:19:45Z</time>
      </trkpt>
      <trkpt lat="46.5746388889" lon="8.40311388889">
        <ele>2397.665527</ele>
        <time>2008-06-06T14:22:27Z</time>
      </trkpt>
      <trkpt lat="46.5759583333" lon="8.39084166667">
        <ele>2315.953125</ele>
        <time>2008-06-06T14:26:51Z</time>
      </trkpt>
      <trkpt lat="46.5749138889" lon="8.39278333333">
        <ele>2296.726807</ele>
        <time>2008-06-06T14:27:43Z</time>
      </trkpt>
      <trkpt lat="46.5768361111" lon="8.388375">
        <ele>2265.003418</ele>
        <time>2008-06-06T14:29:34Z</time>
      </trkpt>
      <trkpt lat="46.5743916667" lon="8.39043888889">
        <ele>2235.683105</ele>
        <time>2008-06-06T14:31:02Z</time>
      </trkpt>
      <trkpt lat="46.5762361111" lon="8.38669166667">
        <ele>2199.633789</ele>
        <time>2008-06-06T14:32:40Z</time>
      </trkpt>
      <trkpt lat="46.5735611111" lon="8.39002777778">
        <ele>2156.855225</ele>
        <time>2008-06-06T14:34:28Z</time>
      </trkpt>
      <trkpt lat="46.5727916667" lon="8.39541111111">
        <ele>2124.17041</ele>
        <time>2008-06-06T14:36:25Z</time>
      </trkpt>
      <trkpt lat="46.5727222222" lon="8.38970555556">
        <ele>2089.082031</ele>
        <time>2008-06-06T14:38:26Z</time>
      </trkpt>
      <trkpt lat="46.5706027778" lon="8.39685833333">
        <ele>2049.668213</ele>
        <time>2008-06-06T14:41:12Z</time>
      </trkpt>
      <trkpt lat="46.5699805556" lon="8.38893333333">
        <ele>2026.115723</ele>
        <time>2008-06-06T14:44:01Z</time>
      </trkpt>
      <trkpt lat="46.5653555556" lon="8.38026388889">
        <ele>1974.685303</ele>
        <time>2008-06-06T14:47:54Z</time>
      </trkpt>
      <trkpt lat="46.5610388889" lon="8.36532777778">
        <ele>1888.647461</ele>
        <time>2008-06-06T14:53:38Z</time>
      </trkpt>
      <trkpt lat="46.5623194444" lon="8.36724444444">
        <ele>1855.481934</ele>
        <time>2008-06-06T14:54:35Z</time>
      </trkpt>
      <trkpt lat="46.5603138889" lon="8.35928055556">
        <ele>1798.283203</ele>
        <time>2008-06-06T14:57:35Z</time>
      </trkpt>
      <trkpt lat="46.5610222222" lon="8.36180833333">
        <ele>1785.30542</ele>
        <time>2008-06-06T14:58:33Z</time>
      </trkpt>
      <trkpt lat="46.5625166667" lon="8.36228888889">
        <ele>1771.846924</ele>
        <time>2008-06-06T14:59:20Z</time>
      </trkpt>
      <trkpt lat="46.55905" lon="8.35615">
        <ele>1756.946777</ele>
        <time>2008-06-06T15:02:09Z</time>
      </trkpt>
      <trkpt lat="46.5565972222" lon="8.35524166667">
        <ele>1714.648682</ele>
        <time>2008-06-06T15:03:27Z</time>
      </trkpt>
      <trkpt lat="46.5484416667" lon="8.36121388889">
        <ele>1617.55542</ele>
        <time>2008-06-06T15:08:09Z</time>
      </trkpt>
      <trkpt lat="46.5445222222" lon="8.35499722222">
        <ele>1592.080566</ele>
        <time>2008-06-06T15:11:08Z</time>
      </trkpt>
      <trkpt lat="46.5428027778" lon="8.35717777778">
        <ele>1563.240967</ele>
        <time>2008-06-06T15:12:19Z</time>
      </trkpt>
      <trkpt lat="46.5385166667" lon="8.35107222222">
        <ele>1507.484619</ele>
        <time>2008-06-06T15:15:24Z</time>
      </trkpt>
      <trkpt lat="46.5410111111" lon="8.358825">
        <ele>1462.30249</ele>
        <time>2008-06-06T15:18:26Z</time>
      </trkpt>
      <trkpt lat="46.5274222222" lon="8.33706111111">
        <ele>1389.723145</ele>
        <time>2008-06-06T15:28:51Z</time>
      </trkpt>
      <trkpt lat="46.5143" lon="8.32492777778">
        <ele>1380.590576</ele>
        <time>2008-06-06T15:36:51Z</time>
      </trkpt>
      <trkpt lat="46.5130861111" lon="8.317225">
        <ele>1375.303223</ele>
        <time>2008-06-06T15:39:39Z</time>
      </trkpt>
      <trkpt lat="46.5063888889" lon="8.30453611111">
        <ele>1368.573975</ele>
        <time>2008-06-06T15:45:19Z</time>
      </trkpt>
      <trkpt lat="46.5042722222" lon="8.29681944444">
        <ele>1373.861328</ele>
        <time>2008-06-06T15:48:15Z</time>
      </trkpt>
      <trkpt lat="46.5013722222" lon="8.29353888889">
        <ele>1378.187256</ele>
        <time>2008-06-06T15:50:09Z</time>
      </trkpt>
      <trkpt lat="46.500675" lon="8.28852222222">
        <ele>1372.419434</ele>
        <time>2008-06-06T15:51:58Z</time>
      </trkpt>
      <trkpt lat="46.4975833333" lon="8.28592777778">
        <ele>1377.706543</ele>
        <time>2008-06-06T15:53:48Z</time>
      </trkpt>
      <trkpt lat="46.4960305556" lon="8.28128333333">
        <ele>1375.783936</ele>
        <time>2008-06-06T15:55:38Z</time>
      </trkpt>
      <trkpt lat="46.4912916667" lon="8.27720833333">
        <ele>1398.855469</ele>
        <time>2008-06-06T15:58:28Z</time>
      </trkpt>
      <trkpt lat="46.4889527778" lon="8.27278055556">
        <ele>1415.678711</ele>
        <time>2008-06-06T16:00:27Z</time>
      </trkpt>
      <trkpt lat="46.4871277778" lon="8.26254722222">
        <ele>1400.778076</ele>
        <time>2008-06-06T16:04:11Z</time>
      </trkpt>
      <trkpt lat="46.4792861111" lon="8.25593611111">
        <ele>1352.231445</ele>
        <time>2008-06-06T16:08:52Z</time>
      </trkpt>
      <trkpt lat="46.4735583333" lon="8.24859166667">
        <ele>1370.977295</ele>
        <time>2008-06-06T16:12:48Z</time>
      </trkpt>
      <trkpt lat="46.4672333333" lon="8.23848333333">
        <ele>1356.076904</ele>
        <time>2008-06-06T16:17:38Z</time>
      </trkpt>
      <trkpt lat="46.4656972222" lon="8.23365833333">
        <ele>1343.099121</ele>
        <time>2008-06-06T16:19:31Z</time>
      </trkpt>
      <trkpt lat="46.4621277778" lon="8.23216666667">
        <ele>1348.866943</ele>
        <time>2008-06-06T16:21:26Z</time>
      </trkpt>
      <trkpt lat="46.459125" lon="8.22890277778">
        <ele>1349.347656</ele>
        <time>2008-06-06T16:23:22Z</time>
      </trkpt>
      <trkpt lat="46.4560194444" lon="8.21680555556">
        <ele>1336.369873</ele>
        <time>2008-06-06T16:27:56Z</time>
      </trkpt>
      <trkpt lat="46.4543861111" lon="8.21629166667">
        <ele>1338.773193</ele>
        <time>2008-06-06T16:28:48Z</time>
      </trkpt>
      <trkpt lat="46.4525833333" lon="8.21176666667">
        <ele>1332.043945</ele>
        <time>2008-06-06T16:30:39Z</time>
      </trkpt>
      <trkpt lat="46.4399666667" lon="8.20056111111">
        <ele>1304.64624</ele>
        <time>2008-06-06T16:38:16Z</time>
      </trkpt>
      <trkpt lat="46.4306416667" lon="8.18120277778">
        <ele>1274.364746</ele>
        <time>2008-06-06T16:46:39Z</time>
      </trkpt>
      <trkpt lat="46.4203472222" lon="8.16864444444">
        <ele>1251.773926</ele>
        <time>2008-06-06T16:53:34Z</time>
      </trkpt>
      <trkpt lat="46.4098277778" lon="8.14959722222">
        <ele>1208.033936</ele>
        <time>2008-06-06T17:02:14Z</time>
      </trkpt>
      <trkpt lat="46.4040027778" lon="8.14235555556">
        <ele>1166.216553</ele>
        <time>2008-06-06T17:06:11Z</time>
      </trkpt>
      <trkpt lat="46.4035638889" lon="8.13800277778">
        <ele>1134.493164</ele>
        <time>2008-06-06T17:07:45Z</time>
      </trkpt>
      <trkpt lat="46.3998638889" lon="8.13688333333">
        <ele>1092.195068</ele>
        <time>2008-06-06T17:09:41Z</time>
      </trkpt>
      <trkpt lat="46.3918805556" lon="8.12198888889">
        <ele>1047.493652</ele>
        <time>2008-06-06T17:16:23Z</time>
      </trkpt>
      <trkpt lat="46.3889583333" lon="8.12038055556">
        <ele>1061.913574</ele>
        <time>2008-06-06T17:18:00Z</time>
      </trkpt>
      <trkpt lat="46.3864722222" lon="8.11328055556">
        <ele>1078.736572</ele>
        <time>2008-06-06T17:20:50Z</time>
      </trkpt>
      <trkpt lat="46.3820638889" lon="8.10833611111">
        <ele>1076.813965</ele>
        <time>2008-06-06T17:23:42Z</time>
      </trkpt>
      <trkpt lat="46.3771527778" lon="8.09743611111">
        <ele>995.101807</ele>
        <time>2008-06-06T17:28:19Z</time>
      </trkpt>
      <trkpt lat="46.3764277778" lon="8.09841944444">
        <ele>967.704102</ele>
        <time>2008-06-06T17:28:50Z</time>
      </trkpt>
      <trkpt lat="46.3790083333" lon="8.09229444444">
        <ele>914.831787</ele>
        <time>2008-06-06T17:31:23Z</time>
      </trkpt>
      <trkpt lat="46.3734861111" lon="8.08668333333">
        <ele>864.362549</ele>
        <time>2008-06-06T17:34:51Z</time>
      </trkpt>
      <trkpt lat="46.3707833333" lon="8.07971388889">
        <ele>853.788086</ele>
        <time>2008-06-06T17:37:41Z</time>
      </trkpt>
      <trkpt lat="46.3716138889" lon="8.07723333333">
        <ele>851.384766</ele>
        <time>2008-06-06T17:38:40Z</time>
      </trkpt>
      <trkpt lat="46.3694527778" lon="8.07027777778">
        <ele>834.081055</ele>
        <time>2008-06-06T17:41:23Z</time>
      </trkpt>
      <trkpt lat="46.3624361111" lon="8.05509166667">
        <ele>801.39624</ele>
        <time>2008-06-06T17:47:52Z</time>
      </trkpt>
      <trkpt lat="46.3471277778" lon="8.03232777778">
        <ele>752.368896</ele>
        <time>2008-06-06T17:59:10Z</time>
      </trkpt>
      <trkpt lat="46.3453694444" lon="8.02763055556">
        <ele>742.755859</ele>
        <time>2008-06-06T18:01:04Z</time>
      </trkpt>
      <trkpt lat="46.3390944444" lon="8.02138888889">
        <ele>726.894043</ele>
        <time>2008-06-06T18:04:59Z</time>
      </trkpt>
      <trkpt lat="46.3342277778" lon="8.01360555556">
        <ele>715.358154</ele>
        <time>2008-06-06T18:08:43Z</time>
      </trkpt>
      <trkpt lat="46.3270527778" lon="8.01171666667">
        <ele>712.954834</ele>
        <time>2008-06-06T18:12:28Z</time>
      </trkpt>
      <trkpt lat="46.3257138889" lon="8.00989166667">
        <ele>708.148438</ele>
        <time>2008-06-06T18:13:25Z</time>
      </trkpt>
      <trkpt lat="46.3189527778" lon="7.98022222222">
        <ele>686.518799</ele>
        <time>2008-06-06T18:24:31Z</time>
      </trkpt>
      <trkpt lat="46.31555" lon="7.97764166667">
        <ele>686.518799</ele>
        <time>2008-06-06T18:26:30Z</time>
      </trkpt>
      <trkpt lat="46.3123027778" lon="7.96799166667">
        <ele>687.47998</ele>
        <time>2008-06-06T18:30:19Z</time>
      </trkpt>
      <trkpt lat="46.3046805556" lon="7.96315">
        <ele>680.27002</ele>
        <time>2008-06-06T18:34:36Z</time>
      </trkpt>
      <trkpt lat="46.3004666667" lon="7.94978055556">
        <ele>689.402588</ele>
        <time>2008-06-06T18:39:50Z</time>
      </trkpt>
      <trkpt lat="46.3031333333" lon="7.94416388889">
        <ele>684.115479</ele>
        <time>2008-06-06T18:42:15Z</time>
      </trkpt>
      <trkpt lat="46.3029055556" lon="7.94135833333">
        <ele>686.038086</ele>
        <time>2008-06-06T18:43:15Z</time>
      </trkpt>
      <trkpt lat="46.2969694444" lon="7.92855555556">
        <ele>670.656982</ele>
        <time>2008-06-06T18:48:44Z</time>
      </trkpt>
      <trkpt lat="46.2976166667" lon="7.92567222222">
        <ele>668.734375</ele>
        <time>2008-06-06T18:49:49Z</time>
      </trkpt>
      <trkpt lat="46.2920611111" lon="7.88621666667">
        <ele>658.640381</ele>
        <time>2008-06-06T19:04:08Z</time>
      </trkpt>
      <trkpt lat="46.2924722222" lon="7.87827777778">
        <ele>664.408203</ele>
        <time>2008-06-06T19:06:58Z</time>
      </trkpt>
      <trkpt lat="46.2975138889" lon="7.85840833333">
        <ele>659.121094</ele>
        <time>2008-06-06T19:14:30Z</time>
      </trkpt>
      <trkpt lat="46.3001944444" lon="7.82317777778">
        <ele>649.0271</ele>
        <time>2008-06-06T19:27:06Z</time>
      </trkpt>
      <trkpt lat="46.3076666667" lon="7.76094722222">
        <ele>647.104492</ele>
        <time>2008-06-06T19:49:34Z</time>
      </trkpt>
      <trkpt lat="46.2981416667" lon="7.66695555556">
        <ele>627.878174</ele>
        <time>2008-06-06T20:23:21Z</time>
      </trkpt>
      <trkpt lat="46.3003111111" lon="7.65965">
        <ele>632.684814</ele>
        <time>2008-06-06T20:26:11Z</time>
      </trkpt>
      <trkpt lat="46.3080305556" lon="7.65225833333">
        <ele>633.165283</ele>
        <time>2008-06-06T20:30:57Z</time>
      </trkpt>
      <trkpt lat="46.3103444444" lon="7.64800555556">
        <ele>630.281494</ele>
        <time>2008-06-06T20:32:52Z</time>
      </trkpt>
      <trkpt lat="46.3119416667" lon="7.64048055556">
        <ele>629.800781</ele>
        <time>2008-06-06T20:35:40Z</time>
      </trkpt>
      <trkpt lat="46.3097805556" lon="7.62782222222">
        <ele>637.010742</ele>
        <time>2008-06-06T20:40:18Z</time>
      </trkpt>
      <trkpt lat="46.3098388889" lon="7.61966111111">
        <ele>620.187744</ele>
        <time>2008-06-06T20:43:13Z</time>
      </trkpt>
      <trkpt lat="46.3060833333" lon="7.60996111111">
        <ele>602.403076</ele>
        <time>2008-06-06T20:47:10Z</time>
      </trkpt>
      <trkpt lat="46.2980611111" lon="7.59838055556">
        <ele>569.718506</ele>
        <time>2008-06-06T20:53:00Z</time>
      </trkpt>
      <trkpt lat="46.2966416667" lon="7.58778888889">
        <ele>577.40918</ele>
        <time>2008-06-06T20:56:50Z</time>
      </trkpt>
      <trkpt lat="46.2942333333" lon="7.58362777778">
        <ele>585.580078</ele>
        <time>2008-06-06T20:58:46Z</time>
      </trkpt>
      <trkpt lat="46.2899944444" lon="7.56295833333">
        <ele>567.315186</ele>
        <time>2008-06-06T21:06:26Z</time>
      </trkpt>
      <trkpt lat="46.2854722222" lon="7.551675">
        <ele>556.26001</ele>
        <time>2008-06-06T21:11:04Z</time>
      </trkpt>
      <trkpt lat="46.2804305556" lon="7.51681944444">
        <ele>527.901001</ele>
        <time>2008-06-06T21:23:45Z</time>
      </trkpt>
      <trkpt lat="46.2652388889" lon="7.458675">
        <ele>522.613892</ele>
        <time>2008-06-06T21:45:52Z</time>
      </trkpt>
      <trkpt lat="46.2482972222" lon="7.42786111111">
        <ele>511.078003</ele>
        <time>2008-06-06T21:59:53Z</time>
      </trkpt>
      <trkpt lat="46.2386333333" lon="7.38844444444">
        <ele>512.52002</ele>
        <time>2008-06-06T22:14:46Z</time>
      </trkpt>
      <trkpt lat="46.2242861111" lon="7.36461944444">
        <ele>503.868164</ele>
        <time>2008-06-06T22:26:01Z</time>
      </trkpt>
      <trkpt lat="46.2141305556" lon="7.3196">
        <ele>490.40979</ele>
        <time>2008-06-06T22:42:53Z</time>
      </trkpt>
      <trkpt lat="46.2125527778" lon="7.29150833333">
        <ele>488.00647</ele>
        <time>2008-06-06T22:52:55Z</time>
      </trkpt>
      <trkpt lat="46.2091138889" lon="7.27546944444">
        <ele>498.580933</ele>
        <time>2008-06-06T22:58:54Z</time>
      </trkpt>
      <trkpt lat="46.2040694444" lon="7.26414722222">
        <ele>492.332397</ele>
        <time>2008-06-06T23:03:42Z</time>
      </trkpt>
      <trkpt lat="46.1900333333" lon="7.24524166667">
        <ele>491.851685</ele>
        <time>2008-06-06T23:13:35Z</time>
      </trkpt>
      <trkpt lat="46.1783194444" lon="7.22289722222">
        <ele>484.641846</ele>
        <time>2008-06-06T23:23:34Z</time>
      </trkpt>
      <trkpt lat="46.1628138889" lon="7.19883888889">
        <ele>480.315918</ele>
        <time>2008-06-06T23:35:17Z</time>
      </trkpt>
      <trkpt lat="46.1538777778" lon="7.16341944444">
        <ele>477.912476</ele>
        <time>2008-06-06T23:48:43Z</time>
      </trkpt>
      <trkpt lat="46.1191777778" lon="7.10752222222">
        <ele>465.415527</ele>
        <time>2008-06-07T00:15:30Z</time>
      </trkpt>
      <trkpt lat="46.1151277778" lon="7.09770277778">
        <ele>462.050781</ele>
        <time>2008-06-07T00:19:34Z</time>
      </trkpt>
      <trkpt lat="46.1142166667" lon="7.09257222222">
        <ele>459.16687</ele>
        <time>2008-06-07T00:21:28Z</time>
      </trkpt>
      <trkpt lat="46.1153944444" lon="7.09325277778">
        <ele>461.089478</ele>
        <time>2008-06-07T00:22:07Z</time>
      </trkpt>
      <trkpt lat="46.1127972222" lon="7.09704166667">
        <ele>471.66394</ele>
        <time>2008-06-07T00:24:01Z</time>
      </trkpt>
      <trkpt lat="46.1090027778" lon="7.09728333333">
        <ele>467.818726</ele>
        <time>2008-06-07T00:25:58Z</time>
      </trkpt>
      <trkpt lat="46.1020444444" lon="7.09243333333">
        <ele>464.454102</ele>
        <time>2008-06-07T00:29:57Z</time>
      </trkpt>
      <trkpt lat="46.0970305556" lon="7.08090555556">
        <ele>468.780029</ele>
        <time>2008-06-07T00:34:48Z</time>
      </trkpt>
      <trkpt lat="46.0931027778" lon="7.07545555556">
        <ele>477.431885</ele>
        <time>2008-06-07T00:37:37Z</time>
      </trkpt>
      <trkpt lat="46.0881944444" lon="7.05401666667">
        <ele>500.50354</ele>
        <time>2008-06-07T00:45:40Z</time>
      </trkpt>
      <trkpt lat="46.0794361111" lon="7.05359444444">
        <ele>545.685547</ele>
        <time>2008-06-07T00:50:11Z</time>
      </trkpt>
      <trkpt lat="46.0759805556" lon="7.05158888889">
        <ele>566.35376</ele>
        <time>2008-06-07T00:52:06Z</time>
      </trkpt>
      <trkpt lat="46.0732527778" lon="7.05496666667">
        <ele>585.580078</ele>
        <time>2008-06-07T00:53:57Z</time>
      </trkpt>
      <trkpt lat="46.0729055556" lon="7.05770833333">
        <ele>594.712646</ele>
        <time>2008-06-07T00:54:57Z</time>
      </trkpt>
      <trkpt lat="46.0735777778" lon="7.06581388889">
        <ele>607.209961</ele>
        <time>2008-06-07T00:57:52Z</time>
      </trkpt>
      <trkpt lat="46.0771916667" lon="7.07472777778">
        <ele>622.110352</ele>
        <time>2008-06-07T01:01:33Z</time>
      </trkpt>
      <trkpt lat="46.0792194444" lon="7.08536388889">
        <ele>618.264893</ele>
        <time>2008-06-07T01:05:29Z</time>
      </trkpt>
      <trkpt lat="46.0806833333" lon="7.08686944444">
        <ele>616.822998</ele>
        <time>2008-06-07T01:06:25Z</time>
      </trkpt>
      <trkpt lat="46.0825027778" lon="7.09726388889">
        <ele>626.916992</ele>
        <time>2008-06-07T01:10:15Z</time>
      </trkpt>
      <trkpt lat="46.08125" lon="7.11095833333">
        <ele>645.181885</ele>
        <time>2008-06-07T01:15:11Z</time>
      </trkpt>
      <trkpt lat="46.0782527778" lon="7.12451111111">
        <ele>680.27002</ele>
        <time>2008-06-07T01:20:15Z</time>
      </trkpt>
      <trkpt lat="46.0794694444" lon="7.12977777778">
        <ele>692.767334</ele>
        <time>2008-06-07T01:22:14Z</time>
      </trkpt>
      <trkpt lat="46.0778916667" lon="7.13753611111">
        <ele>694.689697</ele>
        <time>2008-06-07T01:25:07Z</time>
      </trkpt>
      <trkpt lat="46.078725" lon="7.15338055556">
        <ele>717.281006</ele>
        <time>2008-06-07T01:30:48Z</time>
      </trkpt>
      <trkpt lat="46.0771361111" lon="7.15476111111">
        <ele>727.374756</ele>
        <time>2008-06-07T01:31:45Z</time>
      </trkpt>
      <trkpt lat="46.0711861111" lon="7.15445">
        <ele>745.639648</ele>
        <time>2008-06-07T01:34:49Z</time>
      </trkpt>
      <trkpt lat="46.0643111111" lon="7.15115555556">
        <ele>766.788818</ele>
        <time>2008-06-07T01:38:33Z</time>
      </trkpt>
      <trkpt lat="46.0611694444" lon="7.14821944444">
        <ele>780.728027</ele>
        <time>2008-06-07T01:40:29Z</time>
      </trkpt>
      <trkpt lat="46.0553527778" lon="7.14975277778">
        <ele>797.070313</ele>
        <time>2008-06-07T01:43:31Z</time>
      </trkpt>
      <trkpt lat="46.0479916667" lon="7.14777222222">
        <ele>820.141846</ele>
        <time>2008-06-07T01:47:23Z</time>
      </trkpt>
      <trkpt lat="46.0441833333" lon="7.148775">
        <ele>829.755127</ele>
        <time>2008-06-07T01:49:22Z</time>
      </trkpt>
      <trkpt lat="46.038925" lon="7.14683888889">
        <ele>851.384766</ele>
        <time>2008-06-07T01:52:10Z</time>
      </trkpt>
      <trkpt lat="46.0242138889" lon="7.14672222222">
        <ele>938.384033</ele>
        <time>2008-06-07T01:59:44Z</time>
      </trkpt>
      <trkpt lat="46.0227388889" lon="7.14766666667">
        <ele>949.439209</ele>
        <time>2008-06-07T02:00:34Z</time>
      </trkpt>
      <trkpt lat="46.0278555556" lon="7.14968333333">
        <ele>980.682129</ele>
        <time>2008-06-07T02:03:18Z</time>
      </trkpt>
      <trkpt lat="46.0207694444" lon="7.15303055556">
        <ele>1039.803223</ele>
        <time>2008-06-07T02:07:08Z</time>
      </trkpt>
      <trkpt lat="46.0169833333" lon="7.16170833333">
        <ele>1095.078857</ele>
        <time>2008-06-07T02:10:48Z</time>
      </trkpt>
      <trkpt lat="46.0120638889" lon="7.16769444444">
        <ele>1140.260986</ele>
        <time>2008-06-07T02:14:07Z</time>
      </trkpt>
      <trkpt lat="46.0086111111" lon="7.16946666667">
        <ele>1163.812988</ele>
        <time>2008-06-07T02:16:00Z</time>
      </trkpt>
      <trkpt lat="46.0104416667" lon="7.16946666667">
        <ele>1181.117188</ele>
        <time>2008-06-07T02:16:57Z</time>
      </trkpt>
      <trkpt lat="46.0090916667" lon="7.17105833333">
        <ele>1192.172119</ele>
        <time>2008-06-07T02:17:51Z</time>
      </trkpt>
      <trkpt lat="46.0059666667" lon="7.16995833333">
        <ele>1219.569824</ele>
        <time>2008-06-07T02:19:30Z</time>
      </trkpt>
      <trkpt lat="46.0032944444" lon="7.17348055556">
        <ele>1243.121826</ele>
        <time>2008-06-07T02:21:22Z</time>
      </trkpt>
      <trkpt lat="45.9956333333" lon="7.17858611111">
        <ele>1291.668457</ele>
        <time>2008-06-07T02:25:43Z</time>
      </trkpt>
      <trkpt lat="45.9936611111" lon="7.18325">
        <ele>1305.126953</ele>
        <time>2008-06-07T02:27:40Z</time>
      </trkpt>
      <trkpt lat="45.9844694444" lon="7.19137777778">
        <ele>1385.396973</ele>
        <time>2008-06-07T02:33:13Z</time>
      </trkpt>
      <trkpt lat="45.9724027778" lon="7.20781944444">
        <ele>1493.54541</ele>
        <time>2008-06-07T02:41:46Z</time>
      </trkpt>
      <trkpt lat="45.9636722222" lon="7.20945">
        <ele>1553.147217</ele>
        <time>2008-06-07T02:46:18Z</time>
      </trkpt>
      <trkpt lat="45.9487583333" lon="7.20971666667">
        <ele>1640.146484</ele>
        <time>2008-06-07T02:53:59Z</time>
      </trkpt>
      <trkpt lat="45.9340194444" lon="7.20762222222">
        <ele>1751.178711</ele>
        <time>2008-06-07T03:01:36Z</time>
      </trkpt>
      <trkpt lat="45.921275" lon="7.20112777778">
        <ele>1831.929443</ele>
        <time>2008-06-07T03:08:34Z</time>
      </trkpt>
      <trkpt lat="45.9118694444" lon="7.20171111111">
        <ele>1861.730469</ele>
        <time>2008-06-07T03:13:25Z</time>
      </trkpt>
      <trkpt lat="45.9043111111" lon="7.20058055556">
        <ele>1886.724609</ele>
        <time>2008-06-07T03:17:20Z</time>
      </trkpt>
      <trkpt lat="45.9032861111" lon="7.19665833333">
        <ele>1892.973145</ele>
        <time>2008-06-07T03:18:50Z</time>
      </trkpt>
      <trkpt lat="45.8986083333" lon="7.19523333333">
        <ele>1932.387451</ele>
        <time>2008-06-07T03:21:17Z</time>
      </trkpt>
      <trkpt lat="45.8984083333" lon="7.18798055556">
        <ele>1971.80127</ele>
        <time>2008-06-07T03:23:53Z</time>
      </trkpt>
      <trkpt lat="45.8929666667" lon="7.18645277778">
        <ele>2027.557617</ele>
        <time>2008-06-07T03:26:45Z</time>
      </trkpt>
      <trkpt lat="45.8876638889" lon="7.18880277778">
        <ele>2088.12085</ele>
        <time>2008-06-07T03:29:36Z</time>
      </trkpt>
      <trkpt lat="45.8843027778" lon="7.185275">
        <ele>2140.032227</ele>
        <time>2008-06-07T03:31:45Z</time>
      </trkpt>
      <trkpt lat="45.8748694444" lon="7.18121388889">
        <ele>2254.428955</ele>
        <time>2008-06-07T03:36:49Z</time>
      </trkpt>
      <trkpt lat="45.8746138889" lon="7.18008333333">
        <ele>2273.655273</ele>
        <time>2008-06-07T03:37:14Z</time>
      </trkpt>
      <trkpt lat="45.87645" lon="7.18023055556">
        <ele>2291.92041</ele>
        <time>2008-06-07T03:38:11Z</time>
      </trkpt>
      <trkpt lat="45.8755944444" lon="7.17928888889">
        <ele>2309.70459</ele>
        <time>2008-06-07T03:38:44Z</time>
      </trkpt>
      <trkpt lat="45.8721222222" lon="7.17949444444">
        <ele>2345.75415</ele>
        <time>2008-06-07T03:40:32Z</time>
      </trkpt>
      <trkpt lat="45.8694027778" lon="7.17269722222">
        <ele>2437.079346</ele>
        <time>2008-06-07T03:43:20Z</time>
      </trkpt>
      <trkpt lat="45.8689305556" lon="7.16548611111">
        <ele>2439.963379</ele>
        <time>2008-06-07T03:45:56Z</time>
      </trkpt>
      <trkpt lat="45.8672694444" lon="7.16469444444">
        <ele>2434.195557</ele>
        <time>2008-06-07T03:46:50Z</time>
      </trkpt>
      <trkpt lat="45.8707277778" lon="7.15791111111">
        <ele>2387.09082</ele>
        <time>2008-06-07T03:49:51Z</time>
      </trkpt>
      <trkpt lat="45.8691916667" lon="7.15685555556">
        <ele>2370.267822</ele>
        <time>2008-06-07T03:50:44Z</time>
      </trkpt>
      <trkpt lat="45.8692611111" lon="7.15424444444">
        <ele>2355.367432</ele>
        <time>2008-06-07T03:51:40Z</time>
      </trkpt>
      <trkpt lat="45.8673916667" lon="7.15154722222">
        <ele>2323.643799</ele>
        <time>2008-06-07T03:53:02Z</time>
      </trkpt>
      <trkpt lat="45.8638972222" lon="7.15552777778">
        <ele>2281.345703</ele>
        <time>2008-06-07T03:55:19Z</time>
      </trkpt>
      <trkpt lat="45.8655111111" lon="7.15861111111">
        <ele>2253.948486</ele>
        <time>2008-06-07T03:56:42Z</time>
      </trkpt>
      <trkpt lat="45.8627222222" lon="7.16067777778">
        <ele>2223.186279</ele>
        <time>2008-06-07T03:58:19Z</time>
      </trkpt>
      <trkpt lat="45.8612416667" lon="7.16001666667">
        <ele>2212.130859</ele>
        <time>2008-06-07T03:59:07Z</time>
      </trkpt>
      <trkpt lat="45.8613527778" lon="7.15672777778">
        <ele>2182.330078</ele>
        <time>2008-06-07T04:00:18Z</time>
      </trkpt>
      <trkpt lat="45.858825" lon="7.15350277778">
        <ele>2153.490479</ele>
        <time>2008-06-07T04:02:03Z</time>
      </trkpt>
      <trkpt lat="45.8574166667" lon="7.14606666667">
        <ele>2110.231201</ele>
        <time>2008-06-07T04:04:48Z</time>
      </trkpt>
      <trkpt lat="45.8559111111" lon="7.14467222222">
        <ele>2091.966064</ele>
        <time>2008-06-07T04:05:44Z</time>
      </trkpt>
      <trkpt lat="45.8570666667" lon="7.15463611111">
        <ele>2013.618652</ele>
        <time>2008-06-07T04:09:21Z</time>
      </trkpt>
      <trkpt lat="45.8559444444" lon="7.15100277778">
        <ele>1986.221191</ele>
        <time>2008-06-07T04:10:46Z</time>
      </trkpt>
      <trkpt lat="45.8543555556" lon="7.150575">
        <ele>1973.723877</ele>
        <time>2008-06-07T04:11:36Z</time>
      </trkpt>
      <trkpt lat="45.8520777778" lon="7.15403333333">
        <ele>1944.884277</ele>
        <time>2008-06-07T04:13:19Z</time>
      </trkpt>
      <trkpt lat="45.8461805556" lon="7.17012777778">
        <ele>1854.520508</ele>
        <time>2008-06-07T04:19:50Z</time>
      </trkpt>
      <trkpt lat="45.8412305556" lon="7.17787777778">
        <ele>1793.95752</ele>
        <time>2008-06-07T04:23:36Z</time>
      </trkpt>
      <trkpt lat="45.8456888889" lon="7.17566111111">
        <ele>1750.217529</ele>
        <time>2008-06-07T04:26:02Z</time>
      </trkpt>
      <trkpt lat="45.8333777778" lon="7.18678333333">
        <ele>1655.046875</ele>
        <time>2008-06-07T04:33:31Z</time>
      </trkpt>
      <trkpt lat="45.8339694444" lon="7.18527777778">
        <ele>1635.339844</ele>
        <time>2008-06-07T04:34:09Z</time>
      </trkpt>
      <trkpt lat="45.8307416667" lon="7.18789722222">
        <ele>1613.229736</ele>
        <time>2008-06-07T04:36:03Z</time>
      </trkpt>
      <trkpt lat="45.8248138889" lon="7.18753055556">
        <ele>1544.495117</ele>
        <time>2008-06-07T04:39:06Z</time>
      </trkpt>
      <trkpt lat="45.8233972222" lon="7.189025">
        <ele>1529.114014</ele>
        <time>2008-06-07T04:40:01Z</time>
      </trkpt>
      <trkpt lat="45.8221055556" lon="7.19665555556">
        <ele>1486.816162</ele>
        <time>2008-06-07T04:42:50Z</time>
      </trkpt>
      <trkpt lat="45.82505" lon="7.21483611111">
        <ele>1399.816895</ele>
        <time>2008-06-07T04:49:31Z</time>
      </trkpt>
      <trkpt lat="45.8214861111" lon="7.22934444444">
        <ele>1317.624023</ele>
        <time>2008-06-07T04:55:03Z</time>
      </trkpt>
      <trkpt lat="45.8198222222" lon="7.22995555556">
        <ele>1297.436523</ele>
        <time>2008-06-07T04:55:56Z</time>
      </trkpt>
      <trkpt lat="45.8170027778" lon="7.23666388889">
        <ele>1294.072021</ele>
        <time>2008-06-07T04:58:44Z</time>
      </trkpt>
      <trkpt lat="45.8103111111" lon="7.23979444444">
        <ele>1275.806641</ele>
        <time>2008-06-07T05:02:22Z</time>
      </trkpt>
      <trkpt lat="45.8000138889" lon="7.27385">
        <ele>1210.437012</ele>
        <time>2008-06-07T05:15:41Z</time>
      </trkpt>
      <trkpt lat="45.7936888889" lon="7.28683333333">
        <ele>1146.509521</ele>
        <time>2008-06-07T05:21:22Z</time>
      </trkpt>
      <trkpt lat="45.7912722222" lon="7.28469166667">
        <ele>1123.437988</ele>
        <time>2008-06-07T05:22:50Z</time>
      </trkpt>
      <trkpt lat="45.7911805556" lon="7.29245277778">
        <ele>1086.427246</ele>
        <time>2008-06-07T05:25:37Z</time>
      </trkpt>
      <trkpt lat="45.7826722222" lon="7.29755833333">
        <ele>1023.941406</ele>
        <time>2008-06-07T05:30:22Z</time>
      </trkpt>
      <trkpt lat="45.7810555556" lon="7.29731388889">
        <ele>1013.366943</ele>
        <time>2008-06-07T05:31:12Z</time>
      </trkpt>
      <trkpt lat="45.7805027778" lon="7.295225">
        <ele>999.427734</ele>
        <time>2008-06-07T05:32:00Z</time>
      </trkpt>
      <trkpt lat="45.7770027778" lon="7.29639444444">
        <ele>983.085205</ele>
        <time>2008-06-07T05:33:51Z</time>
      </trkpt>
      <trkpt lat="45.7677055556" lon="7.30525277778">
        <ele>932.616211</ele>
        <time>2008-06-07T05:39:36Z</time>
      </trkpt>
      <trkpt lat="45.7679111111" lon="7.30656944444">
        <ele>925.40625</ele>
        <time>2008-06-07T05:40:05Z</time>
      </trkpt>
      <trkpt lat="45.7713416667" lon="7.30447222222">
        <ele>913.389893</ele>
        <time>2008-06-07T05:42:00Z</time>
      </trkpt>
      <trkpt lat="45.7718" lon="7.30647222222">
        <ele>907.621826</ele>
        <time>2008-06-07T05:42:46Z</time>
      </trkpt>
      <trkpt lat="45.7701472222" lon="7.30718888889">
        <ele>898.969971</ele>
        <time>2008-06-07T05:43:39Z</time>
      </trkpt>
      <trkpt lat="45.7735333333" lon="7.30701388889">
        <ele>875.898193</ele>
        <time>2008-06-07T05:45:24Z</time>
      </trkpt>
      <trkpt lat="45.7566" lon="7.31685833333">
        <ele>768.711426</ele>
        <time>2008-06-07T05:54:48Z</time>
      </trkpt>
      <trkpt lat="45.749575" lon="7.31908055556">
        <ele>732.662109</ele>
        <time>2008-06-07T05:58:30Z</time>
      </trkpt>
      <trkpt lat="45.7480666667" lon="7.31838055556">
        <ele>722.087402</ele>
        <time>2008-06-07T05:59:19Z</time>
      </trkpt>
      <trkpt lat="45.7485944444" lon="7.31924444444">
        <ele>724.971436</ele>
        <time>2008-06-07T05:59:44Z</time>
      </trkpt>
      <trkpt lat="45.7503694444" lon="7.31879166667">
        <ele>733.623291</ele>
        <time>2008-06-07T06:00:39Z</time>
      </trkpt>
      <trkpt lat="45.7483222222" lon="7.31881111111">
        <ele>716.31958</ele>
        <time>2008-06-07T06:01:43Z</time>
      </trkpt>
      <trkpt lat="45.7471694444" lon="7.31677222222">
        <ele>704.783691</ele>
        <time>2008-06-07T06:02:39Z</time>
      </trkpt>
      <trkpt lat="45.746775" lon="7.32144722222">
        <ele>683.634521</ele>
        <time>2008-06-07T06:04:21Z</time>
      </trkpt>
      <trkpt lat="45.7450527778" lon="7.32233333333">
        <ele>674.98291</ele>
        <time>2008-06-07T06:05:17Z</time>
      </trkpt>
      <trkpt lat="45.7422777778" lon="7.31444722222">
        <ele>625.955566</ele>
        <time>2008-06-07T06:08:28Z</time>
      </trkpt>
      <trkpt lat="45.7421333333" lon="7.31448333333">
        <ele>595.193359</ele>
        <time>2008-06-07T06:08:32Z</time>
      </trkpt>
      <trkpt lat="45.7391805556" lon="7.30846944444">
        <ele>590.867432</ele>
        <time>2008-06-07T06:11:11Z</time>
      </trkpt>
      <trkpt lat="45.7350638889" lon="7.29416666667">
        <ele>591.348145</ele>
        <time>2008-06-07T06:16:44Z</time>
      </trkpt>
      <trkpt lat="45.7306777778" lon="7.28922222222">
        <ele>606.248535</ele>
        <time>2008-06-07T06:19:37Z</time>
      </trkpt>
      <trkpt lat="45.7297111111" lon="7.28705">
        <ele>600.480713</ele>
        <time>2008-06-07T06:20:32Z</time>
      </trkpt>
      <trkpt lat="45.729675" lon="7.28431666667">
        <ele>594.232178</ele>
        <time>2008-06-07T06:21:31Z</time>
      </trkpt>
      <trkpt lat="45.7250611111" lon="7.27608611111">
        <ele>605.768066</ele>
        <time>2008-06-07T06:25:19Z</time>
      </trkpt>
      <trkpt lat="45.7238916667" lon="7.271225">
        <ele>608.171387</ele>
        <time>2008-06-07T06:27:10Z</time>
      </trkpt>
      <trkpt lat="45.720575" lon="7.2649">
        <ele>606.729248</ele>
        <time>2008-06-07T06:30:00Z</time>
      </trkpt>
      <trkpt lat="45.7120861111" lon="7.25448055556">
        <ele>625.474854</ele>
        <time>2008-06-07T06:35:46Z</time>
      </trkpt>
      <trkpt lat="45.7122305556" lon="7.24656388889">
        <ele>645.181885</ele>
        <time>2008-06-07T06:38:36Z</time>
      </trkpt>
      <trkpt lat="45.7099527778" lon="7.242075">
        <ele>659.121094</ele>
        <time>2008-06-07T06:40:36Z</time>
      </trkpt>
      <trkpt lat="45.7082111111" lon="7.24133333333">
        <ele>664.888916</ele>
        <time>2008-06-07T06:41:32Z</time>
      </trkpt>
      <trkpt lat="45.7080444444" lon="7.23858333333">
        <ele>673.060303</ele>
        <time>2008-06-07T06:42:32Z</time>
      </trkpt>
      <trkpt lat="45.7101638889" lon="7.23127777778">
        <ele>682.192627</ele>
        <time>2008-06-07T06:45:22Z</time>
      </trkpt>
      <trkpt lat="45.7097277778" lon="7.22831388889">
        <ele>684.115479</ele>
        <time>2008-06-07T06:46:28Z</time>
      </trkpt>
      <trkpt lat="45.7059972222" lon="7.22260277778">
        <ele>685.076904</ele>
        <time>2008-06-07T06:49:16Z</time>
      </trkpt>
      <trkpt lat="45.7058" lon="7.21202222222">
        <ele>660.562988</ele>
        <time>2008-06-07T06:53:05Z</time>
      </trkpt>
      <trkpt lat="45.7044944444" lon="7.21003888889">
        <ele>664.888916</ele>
        <time>2008-06-07T06:54:03Z</time>
      </trkpt>
      <trkpt lat="45.7036611111" lon="7.204875">
        <ele>675.944092</ele>
        <time>2008-06-07T06:55:58Z</time>
      </trkpt>
      <trkpt lat="45.7024583333" lon="7.20284722222">
        <ele>677.38623</ele>
        <time>2008-06-07T06:56:55Z</time>
      </trkpt>
      <trkpt lat="45.6998694444" lon="7.19289444444">
        <ele>687.960693</ele>
        <time>2008-06-07T07:00:44Z</time>
      </trkpt>
      <trkpt lat="45.7000555556" lon="7.19026944444">
        <ele>689.402588</ele>
        <time>2008-06-07T07:01:41Z</time>
      </trkpt>
      <trkpt lat="45.7024444444" lon="7.186075">
        <ele>707.187012</ele>
        <time>2008-06-07T07:03:38Z</time>
      </trkpt>
      <trkpt lat="45.7036361111" lon="7.18116388889">
        <ele>726.41333</ele>
        <time>2008-06-07T07:05:30Z</time>
      </trkpt>
      <trkpt lat="45.7059638889" lon="7.17727222222">
        <ele>741.313721</ele>
        <time>2008-06-07T07:07:21Z</time>
      </trkpt>
      <trkpt lat="45.7035" lon="7.170125">
        <ele>754.772217</ele>
        <time>2008-06-07T07:10:13Z</time>
      </trkpt>
      <trkpt lat="45.7039444444" lon="7.16495555556">
        <ele>757.175537</ele>
        <time>2008-06-07T07:12:05Z</time>
      </trkpt>
      <trkpt lat="45.7019388889" lon="7.16070277778">
        <ele>748.523682</ele>
        <time>2008-06-07T07:13:56Z</time>
      </trkpt>
      <trkpt lat="45.7067527778" lon="7.13742777778">
        <ele>782.650635</ele>
        <time>2008-06-07T07:22:39Z</time>
      </trkpt>
      <trkpt lat="45.7056527778" lon="7.12978888889">
        <ele>800.435059</ele>
        <time>2008-06-07T07:25:28Z</time>
      </trkpt>
      <trkpt lat="45.7070944444" lon="7.12493333333">
        <ele>802.838135</ele>
        <time>2008-06-07T07:27:21Z</time>
      </trkpt>
      <trkpt lat="45.7127888889" lon="7.11483611111">
        <ele>795.628174</ele>
        <time>2008-06-07T07:32:01Z</time>
      </trkpt>
      <trkpt lat="45.7154694444" lon="7.11110833333">
        <ele>789.379639</ele>
        <time>2008-06-07T07:33:57Z</time>
      </trkpt>
      <trkpt lat="45.7171638889" lon="7.11000555556">
        <ele>790.821533</ele>
        <time>2008-06-07T07:34:54Z</time>
      </trkpt>
      <trkpt lat="45.720175" lon="7.10350277778">
        <ele>801.876953</ele>
        <time>2008-06-07T07:37:42Z</time>
      </trkpt>
      <trkpt lat="45.7290111111" lon="7.08895277778">
        <ele>825.909668</ele>
        <time>2008-06-07T07:44:38Z</time>
      </trkpt>
      <trkpt lat="45.7306916667" lon="7.08411666667">
        <ele>835.522949</ele>
        <time>2008-06-07T07:46:35Z</time>
      </trkpt>
      <trkpt lat="45.7318916667" lon="7.07626388889">
        <ele>844.655518</ele>
        <time>2008-06-07T07:49:28Z</time>
      </trkpt>
      <trkpt lat="45.7347333333" lon="7.07270555556">
        <ele>852.345947</ele>
        <time>2008-06-07T07:51:25Z</time>
      </trkpt>
      <trkpt lat="45.7409833333" lon="7.06743888889">
        <ele>882.146973</ele>
        <time>2008-06-07T07:55:09Z</time>
      </trkpt>
      <trkpt lat="45.7424944444" lon="7.06258055556">
        <ele>897.528076</ele>
        <time>2008-06-07T07:57:03Z</time>
      </trkpt>
      <trkpt lat="45.7459555556" lon="7.060625">
        <ele>899.450684</ele>
        <time>2008-06-07T07:58:58Z</time>
      </trkpt>
      <trkpt lat="45.7472138889" lon="7.05872222222">
        <ele>901.373291</ele>
        <time>2008-06-07T07:59:55Z</time>
      </trkpt>
      <trkpt lat="45.7562305556" lon="7.03836944444">
        <ele>925.40625</ele>
        <time>2008-06-07T08:08:34Z</time>
      </trkpt>
      <trkpt lat="45.7587555556" lon="7.03452777778">
        <ele>932.616211</ele>
        <time>2008-06-07T08:10:28Z</time>
      </trkpt>
      <trkpt lat="45.7601777778" lon="7.02951111111">
        <ele>940.306885</ele>
        <time>2008-06-07T08:12:25Z</time>
      </trkpt>
      <trkpt lat="45.7614472222" lon="7.0083">
        <ele>969.626953</ele>
        <time>2008-06-07T08:20:03Z</time>
      </trkpt>
      <trkpt lat="45.7636583333" lon="6.99814166667">
        <ele>1003.753662</ele>
        <time>2008-06-07T08:23:53Z</time>
      </trkpt>
      <trkpt lat="45.7623888889" lon="6.99073055556">
        <ele>1007.118408</ele>
        <time>2008-06-07T08:26:37Z</time>
      </trkpt>
      <trkpt lat="45.76455" lon="6.98638611111">
        <ele>1017.212158</ele>
        <time>2008-06-07T08:28:32Z</time>
      </trkpt>
      <trkpt lat="45.7655916667" lon="6.98695555556">
        <ele>1027.786621</ele>
        <time>2008-06-07T08:29:07Z</time>
      </trkpt>
      <trkpt lat="45.7650583333" lon="6.98956388889">
        <ele>1036.919189</ele>
        <time>2008-06-07T08:30:05Z</time>
      </trkpt>
      <trkpt lat="45.7655055556" lon="6.99686111111">
        <ele>1061.913574</ele>
        <time>2008-06-07T08:32:43Z</time>
      </trkpt>
      <trkpt lat="45.7666722222" lon="6.99488055556">
        <ele>1069.123535</ele>
        <time>2008-06-07T08:33:39Z</time>
      </trkpt>
      <trkpt lat="45.7670333333" lon="6.98961388889">
        <ele>1087.869141</ele>
        <time>2008-06-07T08:35:33Z</time>
      </trkpt>
      <trkpt lat="45.7679861111" lon="6.98740555556">
        <ele>1097.482178</ele>
        <time>2008-06-07T08:36:29Z</time>
      </trkpt>
      <trkpt lat="45.76945" lon="6.98581666667">
        <ele>1106.134033</ele>
        <time>2008-06-07T08:37:26Z</time>
      </trkpt>
      <trkpt lat="45.7730194444" lon="6.98405555556">
        <ele>1127.283203</ele>
        <time>2008-06-07T08:39:22Z</time>
      </trkpt>
      <trkpt lat="45.7738416667" lon="6.978875">
        <ele>1150.35498</ele>
        <time>2008-06-07T08:41:17Z</time>
      </trkpt>
      <trkpt lat="45.7804388889" lon="6.97250833333">
        <ele>1179.674805</ele>
        <time>2008-06-07T08:45:22Z</time>
      </trkpt>
      <trkpt lat="45.7837444444" lon="6.97039444444">
        <ele>1192.652832</ele>
        <time>2008-06-07T08:47:14Z</time>
      </trkpt>
      <trkpt lat="45.7907722222" lon="6.97048333333">
        <ele>1198.901367</ele>
        <time>2008-06-07T08:50:51Z</time>
      </trkpt>
      <trkpt lat="45.7943666667" lon="6.96805">
        <ele>1206.111084</ele>
        <time>2008-06-07T08:52:54Z</time>
      </trkpt>
      <trkpt lat="45.8019861111" lon="6.96829166667">
        <ele>1232.547607</ele>
        <time>2008-06-07T08:56:49Z</time>
      </trkpt>
      <trkpt lat="45.8038611111" lon="6.96769722222">
        <ele>1241.679932</ele>
        <time>2008-06-07T08:57:49Z</time>
      </trkpt>
      <trkpt lat="45.8094277778" lon="6.96534722222">
        <ele>1268.116211</ele>
        <time>2008-06-07T09:00:48Z</time>
      </trkpt>
      <trkpt lat="45.8153555556" lon="6.954925">
        <ele>1306.088135</ele>
        <time>2008-06-07T09:05:37Z</time>
      </trkpt>
      <trkpt lat="45.8165222222" lon="6.95546388889">
        <ele>1315.70166</ele>
        <time>2008-06-07T09:06:15Z</time>
      </trkpt>
      <trkpt lat="45.8166694444" lon="6.95818333333">
        <ele>1325.314697</ele>
        <time>2008-06-07T09:07:14Z</time>
      </trkpt>
      <trkpt lat="45.8173027778" lon="6.96350555556">
        <ele>1351.750977</ele>
        <time>2008-06-07T09:09:10Z</time>
      </trkpt>
      <trkpt lat="45.8158388889" lon="6.95324722222">
        <ele>1319.546875</ele>
        <time>2008-06-07T09:12:56Z</time>
      </trkpt>
      <trkpt lat="45.8138277778" lon="6.95835">
        <ele>1299.839844</ele>
        <time>2008-06-07T09:15:02Z</time>
      </trkpt>
      <trkpt lat="45.8099555556" lon="6.96411388889">
        <ele>1283.497314</ele>
        <time>2008-06-07T09:17:54Z</time>
      </trkpt>
      <trkpt lat="45.8064194444" lon="6.96630555556">
        <ele>1266.193604</ele>
        <time>2008-06-07T09:19:53Z</time>
      </trkpt>
      <trkpt lat="45.8023027778" lon="6.96811944444">
        <ele>1242.641357</ele>
        <time>2008-06-07T09:22:06Z</time>
      </trkpt>
      <trkpt lat="45.7948083333" lon="6.967875">
        <ele>1215.724609</ele>
        <time>2008-06-07T09:25:58Z</time>
      </trkpt>
      <trkpt lat="45.7894111111" lon="6.97028888889">
        <ele>1211.398438</ele>
        <time>2008-06-07T09:28:52Z</time>
      </trkpt>
      <trkpt lat="45.7838888889" lon="6.97026111111">
        <ele>1203.708008</ele>
        <time>2008-06-07T09:31:43Z</time>
      </trkpt>
      <trkpt lat="45.7806138889" lon="6.97234166667">
        <ele>1192.652832</ele>
        <time>2008-06-07T09:33:33Z</time>
      </trkpt>
      <trkpt lat="45.7743555556" lon="6.97829166667">
        <ele>1163.33252</ele>
        <time>2008-06-07T09:37:25Z</time>
      </trkpt>
      <trkpt lat="45.7733361111" lon="6.98320277778">
        <ele>1144.58667</ele>
        <time>2008-06-07T09:39:16Z</time>
      </trkpt>
      <trkpt lat="45.7719083333" lon="6.98484444444">
        <ele>1134.012451</ele>
        <time>2008-06-07T09:40:12Z</time>
      </trkpt>
      <trkpt lat="45.768425" lon="6.98663055556">
        <ele>1116.228027</ele>
        <time>2008-06-07T09:42:07Z</time>
      </trkpt>
      <trkpt lat="45.7673444444" lon="6.98873333333">
        <ele>1104.692139</ele>
        <time>2008-06-07T09:43:03Z</time>
      </trkpt>
      <trkpt lat="45.7658777778" lon="6.996325">
        <ele>1075.852539</ele>
        <time>2008-06-07T09:45:53Z</time>
      </trkpt>
      <trkpt lat="45.7651166667" lon="6.99548333333">
        <ele>1067.200684</ele>
        <time>2008-06-07T09:46:22Z</time>
      </trkpt>
      <trkpt lat="45.7655361111" lon="6.98321388889">
        <ele>1057.587646</ele>
        <time>2008-06-07T09:50:47Z</time>
      </trkpt>
      <trkpt lat="45.7612444444" lon="6.98383888889">
        <ele>1092.675781</ele>
        <time>2008-06-07T09:53:00Z</time>
      </trkpt>
      <trkpt lat="45.7615111111" lon="6.98272222222">
        <ele>1118.150635</ele>
        <time>2008-06-07T09:53:26Z</time>
      </trkpt>
      <trkpt lat="45.7599361111" lon="6.98375">
        <ele>1140.741455</ele>
        <time>2008-06-07T09:54:19Z</time>
      </trkpt>
      <trkpt lat="45.7613805556" lon="6.98201111111">
        <ele>1150.35498</ele>
        <time>2008-06-07T09:55:17Z</time>
      </trkpt>
      <trkpt lat="45.7600583333" lon="6.98253611111">
        <ele>1159.487305</ele>
        <time>2008-06-07T09:56:00Z</time>
      </trkpt>
      <trkpt lat="45.7593638889" lon="6.98393888889">
        <ele>1170.54248</ele>
        <time>2008-06-07T09:56:37Z</time>
      </trkpt>
      <trkpt lat="45.7604888889" lon="6.98194722222">
        <ele>1179.674805</ele>
        <time>2008-06-07T09:57:32Z</time>
      </trkpt>
      <trkpt lat="45.759075" lon="6.98311111111">
        <ele>1193.133301</ele>
        <time>2008-06-07T09:58:22Z</time>
      </trkpt>
      <trkpt lat="45.7568972222" lon="6.98345833333">
        <ele>1204.188721</ele>
        <time>2008-06-07T09:59:30Z</time>
      </trkpt>
      <trkpt lat="45.7454638889" lon="6.96698888889">
        <ele>1276.768311</ele>
        <time>2008-06-07T10:07:51Z</time>
      </trkpt>
      <trkpt lat="45.7432777778" lon="6.96641944444">
        <ele>1284.45874</ele>
        <time>2008-06-07T10:08:59Z</time>
      </trkpt>
      <trkpt lat="45.7372138889" lon="6.95984444444">
        <ele>1313.29834</ele>
        <time>2008-06-07T10:12:54Z</time>
      </trkpt>
      <trkpt lat="45.735275" lon="6.95965">
        <ele>1313.778809</ele>
        <time>2008-06-07T10:13:54Z</time>
      </trkpt>
      <trkpt lat="45.7356861111" lon="6.961375">
        <ele>1323.39209</ele>
        <time>2008-06-07T10:14:34Z</time>
      </trkpt>
      <trkpt lat="45.7300055556" lon="6.95823055556">
        <ele>1364.72876</ele>
        <time>2008-06-07T10:17:42Z</time>
      </trkpt>
      <trkpt lat="45.7290055556" lon="6.95621111111">
        <ele>1373.861328</ele>
        <time>2008-06-07T10:18:35Z</time>
      </trkpt>
      <trkpt lat="45.7291583333" lon="6.95793611111">
        <ele>1386.838867</ele>
        <time>2008-06-07T10:19:13Z</time>
      </trkpt>
      <trkpt lat="45.7282472222" lon="6.955225">
        <ele>1403.181396</ele>
        <time>2008-06-07T10:20:18Z</time>
      </trkpt>
      <trkpt lat="45.7210166667" lon="6.94583333333">
        <ele>1439.71167</ele>
        <time>2008-06-07T10:25:19Z</time>
      </trkpt>
      <trkpt lat="45.7165694444" lon="6.94846666667">
        <ele>1446.921387</ele>
        <time>2008-06-07T10:27:48Z</time>
      </trkpt>
      <trkpt lat="45.7164361111" lon="6.94606944444">
        <ele>1460.379883</ele>
        <time>2008-06-07T10:28:40Z</time>
      </trkpt>
      <trkpt lat="45.7132" lon="6.94342222222">
        <ele>1480.086914</ele>
        <time>2008-06-07T10:30:35Z</time>
      </trkpt>
      <trkpt lat="45.7150833333" lon="6.94202222222">
        <ele>1501.716797</ele>
        <time>2008-06-07T10:31:40Z</time>
      </trkpt>
      <trkpt lat="45.7136333333" lon="6.94035555556">
        <ele>1511.810547</ele>
        <time>2008-06-07T10:32:38Z</time>
      </trkpt>
      <trkpt lat="45.7156472222" lon="6.94099722222">
        <ele>1533.920898</ele>
        <time>2008-06-07T10:33:41Z</time>
      </trkpt>
      <trkpt lat="45.7127805556" lon="6.93727222222">
        <ele>1560.356934</ele>
        <time>2008-06-07T10:35:41Z</time>
      </trkpt>
      <trkpt lat="45.7132" lon="6.93631388889">
        <ele>1582.467529</ele>
        <time>2008-06-07T10:36:05Z</time>
      </trkpt>
      <trkpt lat="45.7111444444" lon="6.93167222222">
        <ele>1603.135742</ele>
        <time>2008-06-07T10:38:04Z</time>
      </trkpt>
      <trkpt lat="45.7094611111" lon="6.93395555556">
        <ele>1629.572021</ele>
        <time>2008-06-07T10:39:16Z</time>
      </trkpt>
      <trkpt lat="45.7097222222" lon="6.93114722222">
        <ele>1646.875732</ele>
        <time>2008-06-07T10:40:17Z</time>
      </trkpt>
      <trkpt lat="45.7086555556" lon="6.93286944444">
        <ele>1672.831299</ele>
        <time>2008-06-07T10:41:06Z</time>
      </trkpt>
      <trkpt lat="45.7089944444" lon="6.93023611111">
        <ele>1687.250977</ele>
        <time>2008-06-07T10:42:04Z</time>
      </trkpt>
      <trkpt lat="45.7076888889" lon="6.93313333333">
        <ele>1711.28418</ele>
        <time>2008-06-07T10:43:18Z</time>
      </trkpt>
      <trkpt lat="45.7077638889" lon="6.92205833333">
        <ele>1784.824951</ele>
        <time>2008-06-07T10:47:17Z</time>
      </trkpt>
      <trkpt lat="45.7067833333" lon="6.92051944444">
        <ele>1797.802734</ele>
        <time>2008-06-07T10:48:02Z</time>
      </trkpt>
      <trkpt lat="45.7075833333" lon="6.91822222222">
        <ele>1811.26123</ele>
        <time>2008-06-07T10:48:58Z</time>
      </trkpt>
      <trkpt lat="45.7092583333" lon="6.91693888889">
        <ele>1828.084229</ele>
        <time>2008-06-07T10:49:56Z</time>
      </trkpt>
      <trkpt lat="45.7097722222" lon="6.90947222222">
        <ele>1849.233154</ele>
        <time>2008-06-07T10:52:38Z</time>
      </trkpt>
      <trkpt lat="45.7092833333" lon="6.91148611111">
        <ele>1862.210938</ele>
        <time>2008-06-07T10:53:24Z</time>
      </trkpt>
      <trkpt lat="45.7068972222" lon="6.91488055556">
        <ele>1889.608643</ele>
        <time>2008-06-07T10:55:08Z</time>
      </trkpt>
      <trkpt lat="45.7079916667" lon="6.91141944444">
        <ele>1923.254883</ele>
        <time>2008-06-07T10:56:30Z</time>
      </trkpt>
      <trkpt lat="45.70645" lon="6.91283333333">
        <ele>1935.27124</ele>
        <time>2008-06-07T10:57:27Z</time>
      </trkpt>
      <trkpt lat="45.7048722222" lon="6.91165277778">
        <ele>1949.691162</ele>
        <time>2008-06-07T10:58:22Z</time>
      </trkpt>
      <trkpt lat="45.7026611111" lon="6.90739166667">
        <ele>1979.010986</ele>
        <time>2008-06-07T11:00:16Z</time>
      </trkpt>
      <trkpt lat="45.6997277778" lon="6.90549444444">
        <ele>2009.292725</ele>
        <time>2008-06-07T11:01:55Z</time>
      </trkpt>
      <trkpt lat="45.6949805556" lon="6.89783333333">
        <ele>2051.110107</ele>
        <time>2008-06-07T11:05:36Z</time>
      </trkpt>
      <trkpt lat="45.6927805556" lon="6.89065277778">
        <ele>2080.911133</ele>
        <time>2008-06-07T11:08:26Z</time>
      </trkpt>
      <trkpt lat="45.6908277778" lon="6.88988055556">
        <ele>2106.866455</ele>
        <time>2008-06-07T11:09:28Z</time>
      </trkpt>
      <trkpt lat="45.6904972222" lon="6.89126944444">
        <ele>2123.208984</ele>
        <time>2008-06-07T11:10:00Z</time>
      </trkpt>
      <trkpt lat="45.6894277778" lon="6.88921388889">
        <ele>2139.55127</ele>
        <time>2008-06-07T11:10:55Z</time>
      </trkpt>
      <trkpt lat="45.6858916667" lon="6.88809166667">
        <ele>2162.623047</ele>
        <time>2008-06-07T11:12:47Z</time>
      </trkpt>
      <trkpt lat="45.6776694444" lon="6.88201666667">
        <ele>2171.755371</ele>
        <time>2008-06-07T11:17:33Z</time>
      </trkpt>
      <trkpt lat="45.6701388889" lon="6.87416388889">
        <ele>2134.26416</ele>
        <time>2008-06-07T11:22:21Z</time>
      </trkpt>
      <trkpt lat="45.6695194444" lon="6.87253333333">
        <ele>2112.634521</ele>
        <time>2008-06-07T11:23:01Z</time>
      </trkpt>
      <trkpt lat="45.6625777778" lon="6.87069166667">
        <ele>2064.087891</ele>
        <time>2008-06-07T11:26:39Z</time>
      </trkpt>
      <trkpt lat="45.6593333333" lon="6.86480277778">
        <ele>2032.844971</ele>
        <time>2008-06-07T11:29:21Z</time>
      </trkpt>
      <trkpt lat="45.6504388889" lon="6.85609166667">
        <ele>1983.817871</ele>
        <time>2008-06-07T11:34:54Z</time>
      </trkpt>
      <trkpt lat="45.6494861111" lon="6.85377222222">
        <ele>1974.20459</ele>
        <time>2008-06-07T11:35:52Z</time>
      </trkpt>
      <trkpt lat="45.6410111111" lon="6.84485">
        <ele>1923.254883</ele>
        <time>2008-06-07T11:41:17Z</time>
      </trkpt>
      <trkpt lat="45.6377527778" lon="6.84723055556">
        <ele>1906.431641</ele>
        <time>2008-06-07T11:43:10Z</time>
      </trkpt>
      <trkpt lat="45.6372027778" lon="6.84927222222">
        <ele>1896.818359</ele>
        <time>2008-06-07T11:43:57Z</time>
      </trkpt>
      <trkpt lat="45.6356055556" lon="6.8504">
        <ele>1889.12793</ele>
        <time>2008-06-07T11:44:52Z</time>
      </trkpt>
      <trkpt lat="45.6307" lon="6.84705277778">
        <ele>1862.210938</ele>
        <time>2008-06-07T11:47:40Z</time>
      </trkpt>
      <trkpt lat="45.6276111111" lon="6.84906666667">
        <ele>1844.907227</ele>
        <time>2008-06-07T11:49:25Z</time>
      </trkpt>
      <trkpt lat="45.624175" lon="6.85791111111">
        <ele>1812.703125</ele>
        <time>2008-06-07T11:53:03Z</time>
      </trkpt>
      <trkpt lat="45.624" lon="6.864975">
        <ele>1780.499023</ele>
        <time>2008-06-07T11:55:36Z</time>
      </trkpt>
      <trkpt lat="45.6227444444" lon="6.85976111111">
        <ele>1759.830566</ele>
        <time>2008-06-07T11:57:35Z</time>
      </trkpt>
      <trkpt lat="45.62315" lon="6.851975">
        <ele>1732.433105</ele>
        <time>2008-06-07T12:00:24Z</time>
      </trkpt>
      <trkpt lat="45.6212944444" lon="6.85920833333">
        <ele>1695.422363</ele>
        <time>2008-06-07T12:03:10Z</time>
      </trkpt>
      <trkpt lat="45.6218305556" lon="6.84713888889">
        <ele>1654.085693</ele>
        <time>2008-06-07T12:07:31Z</time>
      </trkpt>
      <trkpt lat="45.6237" lon="6.84178333333">
        <ele>1638.223877</ele>
        <time>2008-06-07T12:09:41Z</time>
      </trkpt>
      <trkpt lat="45.6277611111" lon="6.83580833333">
        <ele>1591.599854</ele>
        <time>2008-06-07T12:12:41Z</time>
      </trkpt>
      <trkpt lat="45.6215861111" lon="6.84150277778">
        <ele>1556.031006</ele>
        <time>2008-06-07T12:16:28Z</time>
      </trkpt>
      <trkpt lat="45.619725" lon="6.84455">
        <ele>1540.649902</ele>
        <time>2008-06-07T12:17:55Z</time>
      </trkpt>
      <trkpt lat="45.6266777778" lon="6.83206388889">
        <ele>1488.258301</ele>
        <time>2008-06-07T12:23:40Z</time>
      </trkpt>
      <trkpt lat="45.6270388889" lon="6.82751111111">
        <ele>1464.705811</ele>
        <time>2008-06-07T12:25:19Z</time>
      </trkpt>
      <trkpt lat="45.6277666667" lon="6.82661388889">
        <ele>1458.457275</ele>
        <time>2008-06-07T12:25:48Z</time>
      </trkpt>
      <trkpt lat="45.6258555556" lon="6.82736111111">
        <ele>1446.440918</ele>
        <time>2008-06-07T12:26:50Z</time>
      </trkpt>
      <trkpt lat="45.6250916667" lon="6.83196944444">
        <ele>1424.330566</ele>
        <time>2008-06-07T12:28:32Z</time>
      </trkpt>
      <trkpt lat="45.624925" lon="6.82692777778">
        <ele>1406.546143</ele>
        <time>2008-06-07T12:30:21Z</time>
      </trkpt>
      <trkpt lat="45.6261" lon="6.8249">
        <ele>1397.413574</ele>
        <time>2008-06-07T12:31:18Z</time>
      </trkpt>
      <trkpt lat="45.6293138889" lon="6.82291388889">
        <ele>1373.861328</ele>
        <time>2008-06-07T12:33:06Z</time>
      </trkpt>
      <trkpt lat="45.624675" lon="6.82385277778">
        <ele>1342.618652</ele>
        <time>2008-06-07T12:35:31Z</time>
      </trkpt>
      <trkpt lat="45.6232944444" lon="6.82526944444">
        <ele>1331.563232</ele>
        <time>2008-06-07T12:36:23Z</time>
      </trkpt>
      <trkpt lat="45.6230416667" lon="6.82783888889">
        <ele>1321.469238</ele>
        <time>2008-06-07T12:37:19Z</time>
      </trkpt>
      <trkpt lat="45.6234" lon="6.82394722222">
        <ele>1302.723633</ele>
        <time>2008-06-07T12:38:44Z</time>
      </trkpt>
      <trkpt lat="45.6247916667" lon="6.82211666667">
        <ele>1289.265137</ele>
        <time>2008-06-07T12:39:43Z</time>
      </trkpt>
      <trkpt lat="45.6282361111" lon="6.82028333333">
        <ele>1266.674316</ele>
        <time>2008-06-07T12:41:36Z</time>
      </trkpt>
      <trkpt lat="45.6240083333" lon="6.82123611111">
        <ele>1237.354004</ele>
        <time>2008-06-07T12:43:48Z</time>
      </trkpt>
      <trkpt lat="45.6207222222" lon="6.82457777778">
        <ele>1210.917725</ele>
        <time>2008-06-07T12:45:53Z</time>
      </trkpt>
      <trkpt lat="45.6230861111" lon="6.82039722222">
        <ele>1189.288086</ele>
        <time>2008-06-07T12:47:49Z</time>
      </trkpt>
      <trkpt lat="45.6261638889" lon="6.81778333333">
        <ele>1166.697266</ele>
        <time>2008-06-07T12:49:40Z</time>
      </trkpt>
      <trkpt lat="45.6269361111" lon="6.815925">
        <ele>1157.083984</ele>
        <time>2008-06-07T12:50:26Z</time>
      </trkpt>
      <trkpt lat="45.623375" lon="6.81787222222">
        <ele>1135.935059</ele>
        <time>2008-06-07T12:52:24Z</time>
      </trkpt>
      <trkpt lat="45.6191222222" lon="6.82287222222">
        <ele>1107.095459</ele>
        <time>2008-06-07T12:55:14Z</time>
      </trkpt>
      <trkpt lat="45.6215916667" lon="6.81683888889">
        <ele>1076.813965</ele>
        <time>2008-06-07T12:57:45Z</time>
      </trkpt>
      <trkpt lat="45.6244277778" lon="6.81350555556">
        <ele>1055.665039</ele>
        <time>2008-06-07T12:59:38Z</time>
      </trkpt>
      <trkpt lat="45.6262" lon="6.813">
        <ele>1041.72583</ele>
        <time>2008-06-07T13:00:34Z</time>
      </trkpt>
      <trkpt lat="45.6268" lon="6.81088333333">
        <ele>1032.593262</ele>
        <time>2008-06-07T13:01:24Z</time>
      </trkpt>
      <trkpt lat="45.6262944444" lon="6.80930277778">
        <ele>1021.538086</ele>
        <time>2008-06-07T13:02:01Z</time>
      </trkpt>
      <trkpt lat="45.62535" lon="6.81160555556">
        <ele>1010.002197</ele>
        <time>2008-06-07T13:02:59Z</time>
      </trkpt>
      <trkpt lat="45.6248138889" lon="6.80884444444">
        <ele>997.98584</ele>
        <time>2008-06-07T13:04:01Z</time>
      </trkpt>
      <trkpt lat="45.6228722222" lon="6.81047777778">
        <ele>972.991699</ele>
        <time>2008-06-07T13:05:10Z</time>
      </trkpt>
      <trkpt lat="45.6224" lon="6.80801388889">
        <ele>960.494385</ele>
        <time>2008-06-07T13:06:06Z</time>
      </trkpt>
      <trkpt lat="45.6217027778" lon="6.81055555556">
        <ele>952.322998</ele>
        <time>2008-06-07T13:07:05Z</time>
      </trkpt>
      <trkpt lat="45.62095" lon="6.80551388889">
        <ele>935.019531</ele>
        <time>2008-06-07T13:08:56Z</time>
      </trkpt>
      <trkpt lat="45.6215916667" lon="6.80156111111">
        <ele>916.754395</ele>
        <time>2008-06-07T13:10:24Z</time>
      </trkpt>
      <trkpt lat="45.6180805556" lon="6.80778055556">
        <ele>904.737793</ele>
        <time>2008-06-07T13:13:16Z</time>
      </trkpt>
      <trkpt lat="45.6165166667" lon="6.81823611111">
        <ele>880.705078</ele>
        <time>2008-06-07T13:17:07Z</time>
      </trkpt>
      <trkpt lat="45.6132222222" lon="6.82473611111">
        <ele>879.743652</ele>
        <time>2008-06-07T13:20:01Z</time>
      </trkpt>
      <trkpt lat="45.6117944444" lon="6.83241388889">
        <ele>884.06958</ele>
        <time>2008-06-07T13:22:52Z</time>
      </trkpt>
      <trkpt lat="45.6087444444" lon="6.83930277778">
        <ele>889.837402</ele>
        <time>2008-06-07T13:25:48Z</time>
      </trkpt>
      <trkpt lat="45.6024805556" lon="6.86528611111">
        <ele>912.428467</ele>
        <time>2008-06-07T13:35:42Z</time>
      </trkpt>
      <trkpt lat="45.5995722222" lon="6.86883611111">
        <ele>916.754395</ele>
        <time>2008-06-07T13:37:40Z</time>
      </trkpt>
      <trkpt lat="45.5973277778" lon="6.87894722222">
        <ele>943.190674</ele>
        <time>2008-06-07T13:41:30Z</time>
      </trkpt>
      <trkpt lat="45.5959638889" lon="6.88085">
        <ele>957.610596</ele>
        <time>2008-06-07T13:42:29Z</time>
      </trkpt>
      <trkpt lat="45.5923083333" lon="6.88059722222">
        <ele>984.527344</ele>
        <time>2008-06-07T13:44:22Z</time>
      </trkpt>
      <trkpt lat="45.5954611111" lon="6.88234444444">
        <ele>1010.963623</ele>
        <time>2008-06-07T13:46:06Z</time>
      </trkpt>
      <trkpt lat="45.5914805556" lon="6.88249722222">
        <ele>1048.935547</ele>
        <time>2008-06-07T13:48:09Z</time>
      </trkpt>
      <trkpt lat="45.5902138889" lon="6.88406388889">
        <ele>1059.510254</ele>
        <time>2008-06-07T13:49:01Z</time>
      </trkpt>
      <trkpt lat="45.5885666667" lon="6.88374444444">
        <ele>1076.813965</ele>
        <time>2008-06-07T13:49:52Z</time>
      </trkpt>
      <trkpt lat="45.5853694444" lon="6.88495833333">
        <ele>1106.134033</ele>
        <time>2008-06-07T13:51:34Z</time>
      </trkpt>
      <trkpt lat="45.5799555556" lon="6.88384722222">
        <ele>1154.200195</ele>
        <time>2008-06-07T13:54:23Z</time>
      </trkpt>
      <trkpt lat="45.5785333333" lon="6.88225833333">
        <ele>1168.619873</ele>
        <time>2008-06-07T13:55:19Z</time>
      </trkpt>
      <trkpt lat="45.5794055556" lon="6.88424166667">
        <ele>1173.906982</ele>
        <time>2008-06-07T13:56:10Z</time>
      </trkpt>
      <trkpt lat="45.5771472222" lon="6.88287222222">
        <ele>1209.47583</ele>
        <time>2008-06-07T13:57:26Z</time>
      </trkpt>
      <trkpt lat="45.5688305556" lon="6.88880277778">
        <ele>1283.016602</ele>
        <time>2008-06-07T14:02:13Z</time>
      </trkpt>
      <trkpt lat="45.5669916667" lon="6.88932777778">
        <ele>1299.839844</ele>
        <time>2008-06-07T14:03:11Z</time>
      </trkpt>
      <trkpt lat="45.5605444444" lon="6.89456388889">
        <ele>1344.541016</ele>
        <time>2008-06-07T14:07:00Z</time>
      </trkpt>
      <trkpt lat="45.5567027778" lon="6.90000277778">
        <ele>1357.03833</ele>
        <time>2008-06-07T14:09:47Z</time>
      </trkpt>
      <trkpt lat="45.5507138889" lon="6.90289166667">
        <ele>1394.049072</ele>
        <time>2008-06-07T14:13:02Z</time>
      </trkpt>
      <trkpt lat="45.5480111111" lon="6.906725">
        <ele>1412.794678</ele>
        <time>2008-06-07T14:15:00Z</time>
      </trkpt>
      <trkpt lat="45.5414777778" lon="6.910825">
        <ele>1451.728027</ele>
        <time>2008-06-07T14:18:40Z</time>
      </trkpt>
      <trkpt lat="45.5378472222" lon="6.91175833333">
        <ele>1476.722412</ele>
        <time>2008-06-07T14:20:34Z</time>
      </trkpt>
      <trkpt lat="45.5366305556" lon="6.91364166667">
        <ele>1485.374268</ele>
        <time>2008-06-07T14:21:29Z</time>
      </trkpt>
      <trkpt lat="45.5327333333" lon="6.91501944444">
        <ele>1514.694336</ele>
        <time>2008-06-07T14:23:33Z</time>
      </trkpt>
      <trkpt lat="45.5246222222" lon="6.912575">
        <ele>1563.240967</ele>
        <time>2008-06-07T14:27:50Z</time>
      </trkpt>
      <trkpt lat="45.5211" lon="6.91356388889">
        <ele>1570.450928</ele>
        <time>2008-06-07T14:29:40Z</time>
      </trkpt>
      <trkpt lat="45.5140027778" lon="6.91734722222">
        <ele>1627.64917</ele>
        <time>2008-06-07T14:33:34Z</time>
      </trkpt>
      <trkpt lat="45.5100055556" lon="6.92315833333">
        <ele>1681.483154</ele>
        <time>2008-06-07T14:36:31Z</time>
      </trkpt>
      <trkpt lat="45.5037333333" lon="6.92986111111">
        <ele>1739.162109</ele>
        <time>2008-06-07T14:40:33Z</time>
      </trkpt>
      <trkpt lat="45.4985388889" lon="6.93183333333">
        <ele>1789.631592</ele>
        <time>2008-06-07T14:43:19Z</time>
      </trkpt>
      <trkpt lat="45.4848805556" lon="6.94603333333">
        <ele>1807.416016</ele>
        <time>2008-06-07T14:52:01Z</time>
      </trkpt>
      <trkpt lat="45.4855166667" lon="6.94429166667">
        <ele>1810.780518</ele>
        <time>2008-06-07T14:52:43Z</time>
      </trkpt>
      <trkpt lat="45.4531166667" lon="6.97256388889">
        <ele>1812.222412</ele>
        <time>2008-06-07T15:12:17Z</time>
      </trkpt>
      <trkpt lat="45.4496083333" lon="6.97839722222">
        <ele>1824.239014</ele>
        <time>2008-06-07T15:15:03Z</time>
      </trkpt>
      <trkpt lat="45.4464777778" lon="6.98783333333">
        <ele>1851.636475</ele>
        <time>2008-06-07T15:18:49Z</time>
      </trkpt>
      <trkpt lat="45.4482583333" lon="7.006275">
        <ele>1912.199463</ele>
        <time>2008-06-07T15:25:33Z</time>
      </trkpt>
      <trkpt lat="45.4526944444" lon="7.01799444444">
        <ele>1985.740479</ele>
        <time>2008-06-07T15:30:21Z</time>
      </trkpt>
      <trkpt lat="45.4516472222" lon="7.02500277778">
        <ele>2023.712402</ele>
        <time>2008-06-07T15:32:56Z</time>
      </trkpt>
      <trkpt lat="45.4548944444" lon="7.03464166667">
        <ele>2044.380859</ele>
        <time>2008-06-07T15:36:48Z</time>
      </trkpt>
      <trkpt lat="45.4544027778" lon="7.03674722222">
        <ele>2054.955322</ele>
        <time>2008-06-07T15:37:36Z</time>
      </trkpt>
      <trkpt lat="45.4531777778" lon="7.03529166667">
        <ele>2063.607178</ele>
        <time>2008-06-07T15:38:25Z</time>
      </trkpt>
      <trkpt lat="45.4536333333" lon="7.03925277778">
        <ele>2091.966064</ele>
        <time>2008-06-07T15:39:52Z</time>
      </trkpt>
      <trkpt lat="45.4473416667" lon="7.02283888889">
        <ele>2189.540039</ele>
        <time>2008-06-07T15:46:38Z</time>
      </trkpt>
      <trkpt lat="45.4450722222" lon="7.018775">
        <ele>2215.014893</ele>
        <time>2008-06-07T15:48:30Z</time>
      </trkpt>
      <trkpt lat="45.4463722222" lon="7.02345">
        <ele>2250.103027</ele>
        <time>2008-06-07T15:50:19Z</time>
      </trkpt>
      <trkpt lat="45.4417472222" lon="7.01629166667">
        <ele>2301.533691</ele>
        <time>2008-06-07T15:53:50Z</time>
      </trkpt>
      <trkpt lat="45.4417861111" lon="7.01095555556">
        <ele>2319.798584</ele>
        <time>2008-06-07T15:55:46Z</time>
      </trkpt>
      <trkpt lat="45.4401888889" lon="7.00635277778">
        <ele>2317.875977</ele>
        <time>2008-06-07T15:57:37Z</time>
      </trkpt>
      <trkpt lat="45.4354305556" lon="7.0024">
        <ele>2368.825928</ele>
        <time>2008-06-07T16:00:27Z</time>
      </trkpt>
      <trkpt lat="45.4319527778" lon="7.00185555556">
        <ele>2399.588135</ele>
        <time>2008-06-07T16:02:15Z</time>
      </trkpt>
      <trkpt lat="45.4316194444" lon="7.00291111111">
        <ele>2410.162354</ele>
        <time>2008-06-07T16:02:40Z</time>
      </trkpt>
      <trkpt lat="45.4334638889" lon="7.00329444444">
        <ele>2422.659668</ele>
        <time>2008-06-07T16:03:38Z</time>
      </trkpt>
      <trkpt lat="45.4364777778" lon="7.00582777778">
        <ele>2450.057373</ele>
        <time>2008-06-07T16:05:26Z</time>
      </trkpt>
      <trkpt lat="45.4343611111" lon="7.00591944444">
        <ele>2475.531982</ele>
        <time>2008-06-07T16:06:32Z</time>
      </trkpt>
      <trkpt lat="45.4384444444" lon="7.00986666667">
        <ele>2515.427002</ele>
        <time>2008-06-07T16:09:04Z</time>
      </trkpt>
      <trkpt lat="45.4363611111" lon="7.01353611111">
        <ele>2542.824463</ele>
        <time>2008-06-07T16:10:46Z</time>
      </trkpt>
      <trkpt lat="45.4288888889" lon="7.02102777778">
        <ele>2599.541992</ele>
        <time>2008-06-07T16:15:28Z</time>
      </trkpt>
      <trkpt lat="45.4235777778" lon="7.023275">
        <ele>2643.281738</ele>
        <time>2008-06-07T16:18:20Z</time>
      </trkpt>
      <trkpt lat="45.4227777778" lon="7.02831388889">
        <ele>2675.005371</ele>
        <time>2008-06-07T16:20:12Z</time>
      </trkpt>
      <trkpt lat="45.4213055556" lon="7.02775277778">
        <ele>2692.30957</ele>
        <time>2008-06-07T16:20:59Z</time>
      </trkpt>
      <trkpt lat="45.41695" lon="7.031275">
        <ele>2755.756348</ele>
        <time>2008-06-07T16:23:33Z</time>
      </trkpt>
      <trkpt lat="45.4202916667" lon="7.03681388889">
        <ele>2707.69043</ele>
        <time>2008-06-07T16:26:12Z</time>
      </trkpt>
      <trkpt lat="45.4149277778" lon="7.03281111111">
        <ele>2635.591309</ele>
        <time>2008-06-07T16:29:19Z</time>
      </trkpt>
      <trkpt lat="45.4103222222" lon="7.02801111111">
        <ele>2572.144775</ele>
        <time>2008-06-07T16:32:15Z</time>
      </trkpt>
      <trkpt lat="45.4066305556" lon="7.02771666667">
        <ele>2532.25</ele>
        <time>2008-06-07T16:34:09Z</time>
      </trkpt>
      <trkpt lat="45.4030444444" lon="7.03317777778">
        <ele>2507.255615</ele>
        <time>2008-06-07T16:36:51Z</time>
      </trkpt>
      <trkpt lat="45.3998694444" lon="7.04261111111">
        <ele>2481.780762</ele>
        <time>2008-06-07T16:40:38Z</time>
      </trkpt>
      <trkpt lat="45.3982972222" lon="7.04324166667">
        <ele>2474.090088</ele>
        <time>2008-06-07T16:41:29Z</time>
      </trkpt>
      <trkpt lat="45.3964555556" lon="7.0426">
        <ele>2454.86377</ele>
        <time>2008-06-07T16:42:27Z</time>
      </trkpt>
      <trkpt lat="45.3902" lon="7.04758055556">
        <ele>2378.919434</ele>
        <time>2008-06-07T16:46:09Z</time>
      </trkpt>
      <trkpt lat="45.3903472222" lon="7.04573888889">
        <ele>2359.693115</ele>
        <time>2008-06-07T16:46:49Z</time>
      </trkpt>
      <trkpt lat="45.3916722222" lon="7.04383611111">
        <ele>2342.389648</ele>
        <time>2008-06-07T16:47:47Z</time>
      </trkpt>
      <trkpt lat="45.396375" lon="7.03969444444">
        <ele>2285.671875</ele>
        <time>2008-06-07T16:50:38Z</time>
      </trkpt>
      <trkpt lat="45.3934861111" lon="7.04015">
        <ele>2261.638916</ele>
        <time>2008-06-07T16:52:07Z</time>
      </trkpt>
      <trkpt lat="45.3899777778" lon="7.04212777778">
        <ele>2226.550781</ele>
        <time>2008-06-07T16:54:04Z</time>
      </trkpt>
      <trkpt lat="45.3851972222" lon="7.04610833333">
        <ele>2171.274658</ele>
        <time>2008-06-07T16:56:55Z</time>
      </trkpt>
      <trkpt lat="45.3854" lon="7.04386388889">
        <ele>2156.374512</ele>
        <time>2008-06-07T16:57:44Z</time>
      </trkpt>
      <trkpt lat="45.3842694444" lon="7.04314722222">
        <ele>2149.645264</ele>
        <time>2008-06-07T16:58:22Z</time>
      </trkpt>
      <trkpt lat="45.3808666667" lon="7.04909444444">
        <ele>2135.225342</ele>
        <time>2008-06-07T17:01:09Z</time>
      </trkpt>
      <trkpt lat="45.3793583333" lon="7.05007222222">
        <ele>2130.418945</ele>
        <time>2008-06-07T17:02:00Z</time>
      </trkpt>
      <trkpt lat="45.3778777778" lon="7.04848888889">
        <ele>2116.479736</ele>
        <time>2008-06-07T17:02:57Z</time>
      </trkpt>
      <trkpt lat="45.372975" lon="7.03446944444">
        <ele>2013.138184</ele>
        <time>2008-06-07T17:08:37Z</time>
      </trkpt>
      <trkpt lat="45.3698166667" lon="7.03171388889">
        <ele>1975.165771</ele>
        <time>2008-06-07T17:10:31Z</time>
      </trkpt>
      <trkpt lat="45.3717055556" lon="7.03506388889">
        <ele>1946.326416</ele>
        <time>2008-06-07T17:12:05Z</time>
      </trkpt>
      <trkpt lat="45.3733638889" lon="7.042675">
        <ele>1897.779785</ele>
        <time>2008-06-07T17:14:58Z</time>
      </trkpt>
      <trkpt lat="45.3739166667" lon="7.05276111111">
        <ele>1831.929443</ele>
        <time>2008-06-07T17:18:37Z</time>
      </trkpt>
      <trkpt lat="45.3724638889" lon="7.051375">
        <ele>1821.35498</ele>
        <time>2008-06-07T17:19:31Z</time>
      </trkpt>
      <trkpt lat="45.3688" lon="7.042">
        <ele>1804.531982</ele>
        <time>2008-06-07T17:23:24Z</time>
      </trkpt>
      <trkpt lat="45.3598444444" lon="7.03209444444">
        <ele>1783.382813</ele>
        <time>2008-06-07T17:29:14Z</time>
      </trkpt>
      <trkpt lat="45.3564555556" lon="7.02968611111">
        <ele>1780.979736</ele>
        <time>2008-06-07T17:31:11Z</time>
      </trkpt>
      <trkpt lat="45.3469972222" lon="7.02955">
        <ele>1768.963135</ele>
        <time>2008-06-07T17:36:03Z</time>
      </trkpt>
      <trkpt lat="45.3433694444" lon="7.02803333333">
        <ele>1767.040527</ele>
        <time>2008-06-07T17:38:00Z</time>
      </trkpt>
      <trkpt lat="45.3400444444" lon="7.02543055556">
        <ele>1766.079102</ele>
        <time>2008-06-07T17:39:57Z</time>
      </trkpt>
      <trkpt lat="45.3306" lon="7.01485">
        <ele>1755.985107</ele>
        <time>2008-06-07T17:46:09Z</time>
      </trkpt>
      <trkpt lat="45.325525" lon="7.003675">
        <ele>1755.023926</ele>
        <time>2008-06-07T17:50:58Z</time>
      </trkpt>
      <trkpt lat="45.3130388889" lon="6.99150833333">
        <ele>1759.830566</ele>
        <time>2008-06-07T17:58:45Z</time>
      </trkpt>
      <trkpt lat="45.3121027778" lon="6.98920833333">
        <ele>1757.908203</ele>
        <time>2008-06-07T17:59:43Z</time>
      </trkpt>
      <trkpt lat="45.312175" lon="6.98646111111">
        <ele>1756.946777</ele>
        <time>2008-06-07T18:00:43Z</time>
      </trkpt>
      <trkpt lat="45.3083722222" lon="6.97727222222">
        <ele>1715.610107</ele>
        <time>2008-06-07T18:04:34Z</time>
      </trkpt>
      <trkpt lat="45.308925" lon="6.97223611111">
        <ele>1703.112793</ele>
        <time>2008-06-07T18:06:25Z</time>
      </trkpt>
      <trkpt lat="45.3068277778" lon="6.96801111111">
        <ele>1699.267578</ele>
        <time>2008-06-07T18:08:17Z</time>
      </trkpt>
      <trkpt lat="45.3057305556" lon="6.95753888889">
        <ele>1706.477295</ele>
        <time>2008-06-07T18:12:07Z</time>
      </trkpt>
      <trkpt lat="45.3004277778" lon="6.95133888889">
        <ele>1752.139893</ele>
        <time>2008-06-07T18:15:39Z</time>
      </trkpt>
      <trkpt lat="45.3008111111" lon="6.94338611111">
        <ele>1744.449463</ele>
        <time>2008-06-07T18:18:32Z</time>
      </trkpt>
      <trkpt lat="45.2998055556" lon="6.94110833333">
        <ele>1734.355713</ele>
        <time>2008-06-07T18:19:31Z</time>
      </trkpt>
      <trkpt lat="45.2996083333" lon="6.93612777778">
        <ele>1711.764893</ele>
        <time>2008-06-07T18:21:19Z</time>
      </trkpt>
      <trkpt lat="45.2968972222" lon="6.93611388889">
        <ele>1679.079834</ele>
        <time>2008-06-07T18:22:43Z</time>
      </trkpt>
      <trkpt lat="45.2980027778" lon="6.93425277778">
        <ele>1668.024658</ele>
        <time>2008-06-07T18:23:36Z</time>
      </trkpt>
      <trkpt lat="45.2949944444" lon="6.93362777778">
        <ele>1641.588379</ele>
        <time>2008-06-07T18:25:10Z</time>
      </trkpt>
      <trkpt lat="45.2939166667" lon="6.93138333333">
        <ele>1628.61084</ele>
        <time>2008-06-07T18:26:09Z</time>
      </trkpt>
      <trkpt lat="45.2938527778" lon="6.92893333333">
        <ele>1610.826172</ele>
        <time>2008-06-07T18:27:02Z</time>
      </trkpt>
      <trkpt lat="45.2948472222" lon="6.926775">
        <ele>1589.196533</ele>
        <time>2008-06-07T18:27:58Z</time>
      </trkpt>
      <trkpt lat="45.2917972222" lon="6.91924722222">
        <ele>1511.329834</ele>
        <time>2008-06-07T18:31:07Z</time>
      </trkpt>
      <trkpt lat="45.2904305556" lon="6.911925">
        <ele>1481.04834</ele>
        <time>2008-06-07T18:33:52Z</time>
      </trkpt>
      <trkpt lat="45.289475" lon="6.91418055556">
        <ele>1500.755371</ele>
        <time>2008-06-07T18:34:49Z</time>
      </trkpt>
      <trkpt lat="45.2890638889" lon="6.91157222222">
        <ele>1503.639404</ele>
        <time>2008-06-07T18:35:47Z</time>
      </trkpt>
      <trkpt lat="45.2882416667" lon="6.91261388889">
        <ele>1514.213623</ele>
        <time>2008-06-07T18:36:21Z</time>
      </trkpt>
      <trkpt lat="45.2874472222" lon="6.91218888889">
        <ele>1525.268799</ele>
        <time>2008-06-07T18:36:47Z</time>
      </trkpt>
      <trkpt lat="45.2866666667" lon="6.90980833333">
        <ele>1530.075439</ele>
        <time>2008-06-07T18:37:44Z</time>
      </trkpt>
      <trkpt lat="45.2840611111" lon="6.90680833333">
        <ele>1545.456543</ele>
        <time>2008-06-07T18:39:28Z</time>
      </trkpt>
      <trkpt lat="45.2810055556" lon="6.89726666667">
        <ele>1587.273926</ele>
        <time>2008-06-07T18:43:15Z</time>
      </trkpt>
      <trkpt lat="45.2810527778" lon="6.91181944444">
        <ele>1678.599365</ele>
        <time>2008-06-07T18:48:32Z</time>
      </trkpt>
      <trkpt lat="45.2762111111" lon="6.897675">
        <ele>1773.769775</ele>
        <time>2008-06-07T18:54:14Z</time>
      </trkpt>
      <trkpt lat="45.2762694444" lon="6.90721388889">
        <ele>1837.216797</ele>
        <time>2008-06-07T18:57:41Z</time>
      </trkpt>
      <trkpt lat="45.2771" lon="6.91201388889">
        <ele>1874.708252</ele>
        <time>2008-06-07T18:59:28Z</time>
      </trkpt>
      <trkpt lat="45.2742944444" lon="6.90738055556">
        <ele>1921.812744</ele>
        <time>2008-06-07T19:01:41Z</time>
      </trkpt>
      <trkpt lat="45.2717138889" lon="6.90009722222">
        <ele>1974.20459</ele>
        <time>2008-06-07T19:04:39Z</time>
      </trkpt>
      <trkpt lat="45.2689111111" lon="6.89704166667">
        <ele>2005.927979</ele>
        <time>2008-06-07T19:06:28Z</time>
      </trkpt>
      <trkpt lat="45.2620777778" lon="6.90148888889">
        <ele>2062.645996</ele>
        <time>2008-06-07T19:10:20Z</time>
      </trkpt>
      <trkpt lat="45.260975" lon="6.89988055556">
        <ele>2076.585205</ele>
        <time>2008-06-07T19:11:09Z</time>
      </trkpt>
      <trkpt lat="45.2572138889" lon="6.90545555556">
        <ele>2066.010498</ele>
        <time>2008-06-07T19:13:57Z</time>
      </trkpt>
      <trkpt lat="45.2535833333" lon="6.90734444444">
        <ele>2057.839355</ele>
        <time>2008-06-07T19:15:56Z</time>
      </trkpt>
      <trkpt lat="45.2511277778" lon="6.92273888889">
        <ele>2057.839355</ele>
        <time>2008-06-07T19:21:39Z</time>
      </trkpt>
      <trkpt lat="45.2435277778" lon="6.94353333333">
        <ele>2084.756348</ele>
        <time>2008-06-07T19:30:09Z</time>
      </trkpt>
      <trkpt lat="45.2429527778" lon="6.94605555556">
        <ele>2088.12085</ele>
        <time>2008-06-07T19:31:06Z</time>
      </trkpt>
      <trkpt lat="45.2434" lon="6.94853611111">
        <ele>2092.92749</ele>
        <time>2008-06-07T19:32:02Z</time>
      </trkpt>
      <trkpt lat="45.2389916667" lon="6.95303888889">
        <ele>2094.369385</ele>
        <time>2008-06-07T19:34:50Z</time>
      </trkpt>
      <trkpt lat="45.2307333333" lon="6.958775">
        <ele>2060.723389</ele>
        <time>2008-06-07T19:39:34Z</time>
      </trkpt>
      <trkpt lat="45.2246222222" lon="6.96888611111">
        <ele>2061.204102</ele>
        <time>2008-06-07T19:44:24Z</time>
      </trkpt>
      <trkpt lat="45.2173" lon="6.96894166667">
        <ele>2008.812012</ele>
        <time>2008-06-07T19:48:10Z</time>
      </trkpt>
      <trkpt lat="45.2162944444" lon="6.96853055556">
        <ele>1996.795654</ele>
        <time>2008-06-07T19:48:42Z</time>
      </trkpt>
      <trkpt lat="45.2195472222" lon="6.96701944444">
        <ele>1970.840088</ele>
        <time>2008-06-07T19:50:28Z</time>
      </trkpt>
      <trkpt lat="45.2143" lon="6.96619166667">
        <ele>1938.155273</ele>
        <time>2008-06-07T19:53:11Z</time>
      </trkpt>
      <trkpt lat="45.2160472222" lon="6.96158055556">
        <ele>1915.564209</ele>
        <time>2008-06-07T19:55:05Z</time>
      </trkpt>
      <trkpt lat="45.218625" lon="6.95784722222">
        <ele>1885.282715</ele>
        <time>2008-06-07T19:56:59Z</time>
      </trkpt>
      <trkpt lat="45.2180722222" lon="6.95573888889">
        <ele>1875.188721</ele>
        <time>2008-06-07T19:57:48Z</time>
      </trkpt>
      <trkpt lat="45.21625" lon="6.954125">
        <ele>1843.946045</ele>
        <time>2008-06-07T19:58:54Z</time>
      </trkpt>
      <trkpt lat="45.2164638889" lon="6.95746944444">
        <ele>1814.14502</ele>
        <time>2008-06-07T20:00:07Z</time>
      </trkpt>
      <trkpt lat="45.2152361111" lon="6.95528888889">
        <ele>1788.189697</ele>
        <time>2008-06-07T20:01:08Z</time>
      </trkpt>
      <trkpt lat="45.2157083333" lon="6.95764722222">
        <ele>1771.366211</ele>
        <time>2008-06-07T20:02:01Z</time>
      </trkpt>
      <trkpt lat="45.21515" lon="6.95605">
        <ele>1755.985107</ele>
        <time>2008-06-07T20:02:40Z</time>
      </trkpt>
      <trkpt lat="45.2133916667" lon="6.95662777778">
        <ele>1744.930176</ele>
        <time>2008-06-07T20:03:36Z</time>
      </trkpt>
      <trkpt lat="45.2066444444" lon="6.96121944444">
        <ele>1741.084961</ele>
        <time>2008-06-07T20:07:27Z</time>
      </trkpt>
      <trkpt lat="45.2052944444" lon="6.963075">
        <ele>1732.433105</ele>
        <time>2008-06-07T20:08:25Z</time>
      </trkpt>
      <trkpt lat="45.2034777778" lon="6.967675">
        <ele>1703.593506</ele>
        <time>2008-06-07T20:10:20Z</time>
      </trkpt>
      <trkpt lat="45.2006805556" lon="6.97132777778">
        <ele>1674.753906</ele>
        <time>2008-06-07T20:12:17Z</time>
      </trkpt>
      <trkpt lat="45.1994805556" lon="6.97618611111">
        <ele>1643.991699</ele>
        <time>2008-06-07T20:14:09Z</time>
      </trkpt>
      <trkpt lat="45.19585" lon="6.98429166667">
        <ele>1581.506104</ele>
        <time>2008-06-07T20:17:38Z</time>
      </trkpt>
      <trkpt lat="45.1922194444" lon="6.98544444444">
        <ele>1546.898438</ele>
        <time>2008-06-07T20:19:33Z</time>
      </trkpt>
      <trkpt lat="45.1909805556" lon="6.98353611111">
        <ele>1529.594727</ele>
        <time>2008-06-07T20:20:30Z</time>
      </trkpt>
      <trkpt lat="45.1899472222" lon="6.97847222222">
        <ele>1506.523193</ele>
        <time>2008-06-07T20:22:24Z</time>
      </trkpt>
      <trkpt lat="45.1874472222" lon="6.97819166667">
        <ele>1481.04834</ele>
        <time>2008-06-07T20:23:42Z</time>
      </trkpt>
      <trkpt lat="45.1852388889" lon="6.9816">
        <ele>1453.650879</ele>
        <time>2008-06-07T20:25:23Z</time>
      </trkpt>
      <trkpt lat="45.1841888889" lon="6.98672777778">
        <ele>1417.120605</ele>
        <time>2008-06-07T20:27:19Z</time>
      </trkpt>
      <trkpt lat="45.1805194444" lon="6.99582222222">
        <ele>1348.866943</ele>
        <time>2008-06-07T20:31:07Z</time>
      </trkpt>
      <trkpt lat="45.1786333333" lon="6.99525555556">
        <ele>1330.602051</ele>
        <time>2008-06-07T20:32:06Z</time>
      </trkpt>
      <trkpt lat="45.1721472222" lon="7.00071388889">
        <ele>1262.829102</ele>
        <time>2008-06-07T20:35:59Z</time>
      </trkpt>
      <trkpt lat="45.1727777778" lon="7.00123611111">
        <ele>1247.928711</ele>
        <time>2008-06-07T20:36:22Z</time>
      </trkpt>
      <trkpt lat="45.1745388889" lon="7.00053888889">
        <ele>1230.144287</ele>
        <time>2008-06-07T20:37:18Z</time>
      </trkpt>
      <trkpt lat="45.1727805556" lon="7.00336388889">
        <ele>1197.459473</ele>
        <time>2008-06-07T20:38:40Z</time>
      </trkpt>
      <trkpt lat="45.1659722222" lon="6.99923611111">
        <ele>1132.570557</ele>
        <time>2008-06-07T20:42:29Z</time>
      </trkpt>
      <trkpt lat="45.1641527778" lon="6.99906666667">
        <ele>1124.39917</ele>
        <time>2008-06-07T20:43:25Z</time>
      </trkpt>
      <trkpt lat="45.1572722222" lon="6.99578055556">
        <ele>1111.421387</ele>
        <time>2008-06-07T20:47:10Z</time>
      </trkpt>
      <trkpt lat="45.1541638889" lon="6.99343055556">
        <ele>1094.598145</ele>
        <time>2008-06-07T20:48:58Z</time>
      </trkpt>
      <trkpt lat="45.1519027778" lon="6.99851388889">
        <ele>1072.007324</ele>
        <time>2008-06-07T20:51:09Z</time>
      </trkpt>
      <trkpt lat="45.1450194444" lon="7.00307222222">
        <ele>1004.234619</ele>
        <time>2008-06-07T20:55:04Z</time>
      </trkpt>
      <trkpt lat="45.1433111111" lon="7.00338333333">
        <ele>988.853516</ele>
        <time>2008-06-07T20:55:57Z</time>
      </trkpt>
      <trkpt lat="45.1416027778" lon="7.00243055556">
        <ele>972.510986</ele>
        <time>2008-06-07T20:56:54Z</time>
      </trkpt>
      <trkpt lat="45.1439222222" lon="7.00624444444">
        <ele>939.345215</ele>
        <time>2008-06-07T20:58:44Z</time>
      </trkpt>
      <trkpt lat="45.1433611111" lon="7.00675">
        <ele>922.041504</ele>
        <time>2008-06-07T20:59:04Z</time>
      </trkpt>
      <trkpt lat="45.1419" lon="7.005575">
        <ele>907.621826</ele>
        <time>2008-06-07T20:59:56Z</time>
      </trkpt>
      <trkpt lat="45.1417194444" lon="7.00628055556">
        <ele>889.356689</ele>
        <time>2008-06-07T21:00:12Z</time>
      </trkpt>
      <trkpt lat="45.144125" lon="7.01306666667">
        <ele>838.406982</ele>
        <time>2008-06-07T21:02:58Z</time>
      </trkpt>
      <trkpt lat="45.1471083333" lon="7.01266111111">
        <ele>802.357422</ele>
        <time>2008-06-07T21:04:30Z</time>
      </trkpt>
      <trkpt lat="45.1455777778" lon="7.01810277778">
        <ele>749.485107</ele>
        <time>2008-06-07T21:06:38Z</time>
      </trkpt>
      <trkpt lat="45.1443638889" lon="7.01858611111">
        <ele>729.297119</ele>
        <time>2008-06-07T21:07:17Z</time>
      </trkpt>
      <trkpt lat="45.1444777778" lon="7.03169444444">
        <ele>644.220703</ele>
        <time>2008-06-07T21:12:02Z</time>
      </trkpt>
      <trkpt lat="45.1436944444" lon="7.03677777778">
        <ele>619.226318</ele>
        <time>2008-06-07T21:13:56Z</time>
      </trkpt>
      <trkpt lat="45.1420416667" lon="7.03831666667">
        <ele>600</ele>
        <time>2008-06-07T21:14:57Z</time>
      </trkpt>
      <trkpt lat="45.1416444444" lon="7.040675">
        <ele>588.464355</ele>
        <time>2008-06-07T21:15:50Z</time>
      </trkpt>
      <trkpt lat="45.13925" lon="7.04433333333">
        <ele>561.06665</ele>
        <time>2008-06-07T21:17:39Z</time>
      </trkpt>
      <trkpt lat="45.1389805556" lon="7.04687777778">
        <ele>550.011475</ele>
        <time>2008-06-07T21:18:35Z</time>
      </trkpt>
      <trkpt lat="45.1378083333" lon="7.04815">
        <ele>545.204834</ele>
        <time>2008-06-07T21:19:20Z</time>
      </trkpt>
      <trkpt lat="45.1332583333" lon="7.04709166667">
        <ele>557.221436</ele>
        <time>2008-06-07T21:21:43Z</time>
      </trkpt>
      <trkpt lat="45.1307694444" lon="7.04199722222">
        <ele>593.270752</ele>
        <time>2008-06-07T21:23:58Z</time>
      </trkpt>
      <trkpt lat="45.1325055556" lon="7.04284444444">
        <ele>599.038574</ele>
        <time>2008-06-07T21:24:54Z</time>
      </trkpt>
      <trkpt lat="45.1333472222" lon="7.04004166667">
        <ele>620.187744</ele>
        <time>2008-06-07T21:26:01Z</time>
      </trkpt>
      <trkpt lat="45.1318194444" lon="7.040275">
        <ele>633.645996</ele>
        <time>2008-06-07T21:26:48Z</time>
      </trkpt>
      <trkpt lat="45.1314972222" lon="7.03623333333">
        <ele>662.005127</ele>
        <time>2008-06-07T21:28:17Z</time>
      </trkpt>
      <trkpt lat="45.1294" lon="7.02917777778">
        <ele>701.419189</ele>
        <time>2008-06-07T21:31:04Z</time>
      </trkpt>
      <trkpt lat="45.1296472222" lon="7.02657777778">
        <ele>719.684326</ele>
        <time>2008-06-07T21:32:01Z</time>
      </trkpt>
      <trkpt lat="45.1255527778" lon="7.02115555556">
        <ele>769.192139</ele>
        <time>2008-06-07T21:34:54Z</time>
      </trkpt>
      <trkpt lat="45.1273638889" lon="7.01376111111">
        <ele>781.689209</ele>
        <time>2008-06-07T21:37:44Z</time>
      </trkpt>
      <trkpt lat="45.1262277778" lon="7.00598333333">
        <ele>771.114746</ele>
        <time>2008-06-07T21:40:38Z</time>
      </trkpt>
      <trkpt lat="45.1245666667" lon="7.00125555556">
        <ele>767.269531</ele>
        <time>2008-06-07T21:42:33Z</time>
      </trkpt>
      <trkpt lat="45.1246472222" lon="6.99853333333">
        <ele>767.269531</ele>
        <time>2008-06-07T21:43:32Z</time>
      </trkpt>
      <trkpt lat="45.1207055556" lon="6.98676944444">
        <ele>780.728027</ele>
        <time>2008-06-07T21:48:16Z</time>
      </trkpt>
      <trkpt lat="45.1177833333" lon="6.98348333333">
        <ele>785.534424</ele>
        <time>2008-06-07T21:50:11Z</time>
      </trkpt>
      <trkpt lat="45.1163861111" lon="6.97595833333">
        <ele>799.954346</ele>
        <time>2008-06-07T21:53:01Z</time>
      </trkpt>
      <trkpt lat="45.1125916667" lon="6.96989722222">
        <ele>800.915527</ele>
        <time>2008-06-07T21:55:57Z</time>
      </trkpt>
      <trkpt lat="45.1092555556" lon="6.96112777778">
        <ele>799.473633</ele>
        <time>2008-06-07T21:59:34Z</time>
      </trkpt>
      <trkpt lat="45.1052583333" lon="6.94636111111">
        <ele>831.677734</ele>
        <time>2008-06-07T22:05:19Z</time>
      </trkpt>
      <trkpt lat="45.1027166667" lon="6.94247222222">
        <ele>851.865479</ele>
        <time>2008-06-07T22:07:15Z</time>
      </trkpt>
      <trkpt lat="45.1006138889" lon="6.93268888889">
        <ele>891.279297</ele>
        <time>2008-06-07T22:10:58Z</time>
      </trkpt>
      <trkpt lat="45.0970611111" lon="6.92660555556">
        <ele>917.235107</ele>
        <time>2008-06-07T22:13:50Z</time>
      </trkpt>
      <trkpt lat="45.09475" lon="6.92485555556">
        <ele>922.522217</ele>
        <time>2008-06-07T22:15:11Z</time>
      </trkpt>
      <trkpt lat="45.088525" lon="6.91061666667">
        <ele>1006.156982</ele>
        <time>2008-06-07T22:21:16Z</time>
      </trkpt>
      <trkpt lat="45.0883416667" lon="6.90816944444">
        <ele>1019.615479</ele>
        <time>2008-06-07T22:22:10Z</time>
      </trkpt>
      <trkpt lat="45.0847138889" lon="6.90827222222">
        <ele>1043.648438</ele>
        <time>2008-06-07T22:24:02Z</time>
      </trkpt>
      <trkpt lat="45.085275" lon="6.90798611111">
        <ele>1059.990723</ele>
        <time>2008-06-07T22:24:20Z</time>
      </trkpt>
      <trkpt lat="45.0831916667" lon="6.90478055556">
        <ele>1089.791748</ele>
        <time>2008-06-07T22:25:55Z</time>
      </trkpt>
      <trkpt lat="45.079225" lon="6.90169444444">
        <ele>1067.200684</ele>
        <time>2008-06-07T22:28:15Z</time>
      </trkpt>
      <trkpt lat="45.0801416667" lon="6.90377222222">
        <ele>1055.665039</ele>
        <time>2008-06-07T22:29:08Z</time>
      </trkpt>
      <trkpt lat="45.0787055556" lon="6.901825">
        <ele>1047.012939</ele>
        <time>2008-06-07T22:30:10Z</time>
      </trkpt>
      <trkpt lat="45.0789722222" lon="6.89405">
        <ele>1045.571045</ele>
        <time>2008-06-07T22:32:59Z</time>
      </trkpt>
      <trkpt lat="45.0755305556" lon="6.88754166667">
        <ele>1034.035156</ele>
        <time>2008-06-07T22:35:57Z</time>
      </trkpt>
      <trkpt lat="45.0741888889" lon="6.88560833333">
        <ele>1034.035156</ele>
        <time>2008-06-07T22:36:56Z</time>
      </trkpt>
      <trkpt lat="45.0706972222" lon="6.88377777778">
        <ele>1043.648438</ele>
        <time>2008-06-07T22:38:51Z</time>
      </trkpt>
      <trkpt lat="45.0690277778" lon="6.87895277778">
        <ele>1050.377686</ele>
        <time>2008-06-07T22:40:48Z</time>
      </trkpt>
      <trkpt lat="45.0625638889" lon="6.86911666667">
        <ele>1039.32251</ele>
        <time>2008-06-07T22:45:41Z</time>
      </trkpt>
      <trkpt lat="45.0581027778" lon="6.86420555556">
        <ele>1043.167725</ele>
        <time>2008-06-07T22:48:36Z</time>
      </trkpt>
      <trkpt lat="45.0533861111" lon="6.85560555556">
        <ele>1062.394043</ele>
        <time>2008-06-07T22:52:33Z</time>
      </trkpt>
      <trkpt lat="45.0486138889" lon="6.85151388889">
        <ele>1062.874756</ele>
        <time>2008-06-07T22:55:26Z</time>
      </trkpt>
      <trkpt lat="45.0296638889" lon="6.83031388889">
        <ele>1095.55957</ele>
        <time>2008-06-07T23:07:52Z</time>
      </trkpt>
      <trkpt lat="45.0279194444" lon="6.82984444444">
        <ele>1102.288818</ele>
        <time>2008-06-07T23:08:47Z</time>
      </trkpt>
      <trkpt lat="45.0183083333" lon="6.83173333333">
        <ele>1124.879883</ele>
        <time>2008-06-07T23:13:46Z</time>
      </trkpt>
      <trkpt lat="45.0164861111" lon="6.83090555556">
        <ele>1127.763672</ele>
        <time>2008-06-07T23:14:45Z</time>
      </trkpt>
      <trkpt lat="45.0065194444" lon="6.8234">
        <ele>1175.82959</ele>
        <time>2008-06-07T23:20:34Z</time>
      </trkpt>
      <trkpt lat="45.0019861111" lon="6.81435277778">
        <ele>1220.531006</ele>
        <time>2008-06-07T23:24:36Z</time>
      </trkpt>
      <trkpt lat="44.9957972222" lon="6.80871944444">
        <ele>1243.602539</ele>
        <time>2008-06-07T23:28:24Z</time>
      </trkpt>
      <trkpt lat="44.9939611111" lon="6.80761666667">
        <ele>1241.679932</ele>
        <time>2008-06-07T23:29:25Z</time>
      </trkpt>
      <trkpt lat="44.9902833333" lon="6.808475">
        <ele>1246.486816</ele>
        <time>2008-06-07T23:31:20Z</time>
      </trkpt>
      <trkpt lat="44.97915" lon="6.80538888889">
        <ele>1272.922852</ele>
        <time>2008-06-07T23:37:11Z</time>
      </trkpt>
      <trkpt lat="44.9755194444" lon="6.79967777778">
        <ele>1292.149414</ele>
        <time>2008-06-07T23:39:59Z</time>
      </trkpt>
      <trkpt lat="44.9717805556" lon="6.79831944444">
        <ele>1299.839844</ele>
        <time>2008-06-07T23:41:58Z</time>
      </trkpt>
      <trkpt lat="44.9679888889" lon="6.79852777778">
        <ele>1313.29834</ele>
        <time>2008-06-07T23:43:55Z</time>
      </trkpt>
      <trkpt lat="44.9645527778" lon="6.79629444444">
        <ele>1325.314697</ele>
        <time>2008-06-07T23:45:52Z</time>
      </trkpt>
      <trkpt lat="44.9575555556" lon="6.79440833333">
        <ele>1344.060547</ele>
        <time>2008-06-07T23:49:32Z</time>
      </trkpt>
      <trkpt lat="44.9544361111" lon="6.79179166667">
        <ele>1347.905762</ele>
        <time>2008-06-07T23:51:24Z</time>
      </trkpt>
      <trkpt lat="44.95145" lon="6.78548333333">
        <ele>1377.706543</ele>
        <time>2008-06-07T23:54:10Z</time>
      </trkpt>
      <trkpt lat="44.9501361111" lon="6.78635555556">
        <ele>1385.396973</ele>
        <time>2008-06-07T23:54:55Z</time>
      </trkpt>
      <trkpt lat="44.9500722222" lon="6.78875277778">
        <ele>1383.474365</ele>
        <time>2008-06-07T23:55:47Z</time>
      </trkpt>
      <trkpt lat="44.9483305556" lon="6.785225">
        <ele>1418.081787</ele>
        <time>2008-06-07T23:57:21Z</time>
      </trkpt>
      <trkpt lat="44.9497638889" lon="6.78364166667">
        <ele>1433.462891</ele>
        <time>2008-06-07T23:58:17Z</time>
      </trkpt>
      <trkpt lat="44.9484194444" lon="6.77876388889">
        <ele>1469.512695</ele>
        <time>2008-06-08T00:00:12Z</time>
      </trkpt>
      <trkpt lat="44.9470611111" lon="6.777">
        <ele>1482.490234</ele>
        <time>2008-06-08T00:01:09Z</time>
      </trkpt>
      <trkpt lat="44.947125" lon="6.77429166667">
        <ele>1496.909912</ele>
        <time>2008-06-08T00:02:08Z</time>
      </trkpt>
      <trkpt lat="44.9474416667" lon="6.77182777778">
        <ele>1508.445801</ele>
        <time>2008-06-08T00:03:03Z</time>
      </trkpt>
      <trkpt lat="44.948875" lon="6.77317777778">
        <ele>1525.749512</ele>
        <time>2008-06-08T00:03:56Z</time>
      </trkpt>
      <trkpt lat="44.9494972222" lon="6.77645">
        <ele>1541.130615</ele>
        <time>2008-06-08T00:05:10Z</time>
      </trkpt>
      <trkpt lat="44.9520888889" lon="6.77872777778">
        <ele>1567.086426</ele>
        <time>2008-06-08T00:06:44Z</time>
      </trkpt>
      <trkpt lat="44.9509166667" lon="6.776725">
        <ele>1585.351318</ele>
        <time>2008-06-08T00:07:41Z</time>
      </trkpt>
      <trkpt lat="44.9507083333" lon="6.76877777778">
        <ele>1628.61084</ele>
        <time>2008-06-08T00:10:35Z</time>
      </trkpt>
      <trkpt lat="44.9499638889" lon="6.76934444444">
        <ele>1635.820557</ele>
        <time>2008-06-08T00:11:01Z</time>
      </trkpt>
      <trkpt lat="44.9469083333" lon="6.76484166667">
        <ele>1668.986084</ele>
        <time>2008-06-08T00:13:17Z</time>
      </trkpt>
      <trkpt lat="44.9451027778" lon="6.76418055556">
        <ele>1683.405762</ele>
        <time>2008-06-08T00:14:15Z</time>
      </trkpt>
      <trkpt lat="44.9432222222" lon="6.75913333333">
        <ele>1721.377686</ele>
        <time>2008-06-08T00:16:20Z</time>
      </trkpt>
      <trkpt lat="44.9349722222" lon="6.74485277778">
        <ele>1770.405029</ele>
        <time>2008-06-08T00:23:03Z</time>
      </trkpt>
      <trkpt lat="44.93535" lon="6.74305833333">
        <ele>1780.499023</ele>
        <time>2008-06-08T00:23:44Z</time>
      </trkpt>
      <trkpt lat="44.9340027778" lon="6.74150555556">
        <ele>1789.631592</ele>
        <time>2008-06-08T00:24:37Z</time>
      </trkpt>
      <trkpt lat="44.9334888889" lon="6.73906666667">
        <ele>1800.686523</ele>
        <time>2008-06-08T00:25:33Z</time>
      </trkpt>
      <trkpt lat="44.9330861111" lon="6.73650555556">
        <ele>1812.703125</ele>
        <time>2008-06-08T00:26:30Z</time>
      </trkpt>
      <trkpt lat="44.9342388889" lon="6.73160277778">
        <ele>1830.487549</ele>
        <time>2008-06-08T00:28:23Z</time>
      </trkpt>
      <trkpt lat="44.9296527778" lon="6.71989722222">
        <ele>1818.95166</ele>
        <time>2008-06-08T00:33:16Z</time>
      </trkpt>
      <trkpt lat="44.9268555556" lon="6.70746666667">
        <ele>1750.697998</ele>
        <time>2008-06-08T00:38:01Z</time>
      </trkpt>
      <trkpt lat="44.9272166667" lon="6.69530555556">
        <ele>1681.963867</ele>
        <time>2008-06-08T00:42:27Z</time>
      </trkpt>
      <trkpt lat="44.9304055556" lon="6.69434722222">
        <ele>1656.48877</ele>
        <time>2008-06-08T00:44:08Z</time>
      </trkpt>
      <trkpt lat="44.928625" lon="6.69423055556">
        <ele>1643.030273</ele>
        <time>2008-06-08T00:45:03Z</time>
      </trkpt>
      <trkpt lat="44.9272527778" lon="6.6926">
        <ele>1630.052734</ele>
        <time>2008-06-08T00:45:59Z</time>
      </trkpt>
      <trkpt lat="44.9255194444" lon="6.69648333333">
        <ele>1605.05835</ele>
        <time>2008-06-08T00:47:39Z</time>
      </trkpt>
      <trkpt lat="44.9263138889" lon="6.69203333333">
        <ele>1585.832031</ele>
        <time>2008-06-08T00:49:19Z</time>
      </trkpt>
      <trkpt lat="44.9278805556" lon="6.69199166667">
        <ele>1572.854248</ele>
        <time>2008-06-08T00:50:08Z</time>
      </trkpt>
      <trkpt lat="44.9289" lon="6.69065833333">
        <ele>1559.876221</ele>
        <time>2008-06-08T00:50:51Z</time>
      </trkpt>
      <trkpt lat="44.928425" lon="6.69144444444">
        <ele>1545.937256</ele>
        <time>2008-06-08T00:51:13Z</time>
      </trkpt>
      <trkpt lat="44.9267222222" lon="6.69033055556">
        <ele>1530.075439</ele>
        <time>2008-06-08T00:52:11Z</time>
      </trkpt>
      <trkpt lat="44.9251666667" lon="6.69069722222">
        <ele>1511.810547</ele>
        <time>2008-06-08T00:53:00Z</time>
      </trkpt>
      <trkpt lat="44.9260638889" lon="6.689825">
        <ele>1499.793945</ele>
        <time>2008-06-08T00:53:34Z</time>
      </trkpt>
      <trkpt lat="44.9277777778" lon="6.68990277778">
        <ele>1488.258301</ele>
        <time>2008-06-08T00:54:27Z</time>
      </trkpt>
      <trkpt lat="44.9245333333" lon="6.68884722222">
        <ele>1462.783203</ele>
        <time>2008-06-08T00:56:09Z</time>
      </trkpt>
      <trkpt lat="44.9238" lon="6.69061666667">
        <ele>1457.015381</ele>
        <time>2008-06-08T00:56:54Z</time>
      </trkpt>
      <trkpt lat="44.9215861111" lon="6.68649722222">
        <ele>1430.098389</ele>
        <time>2008-06-08T00:58:47Z</time>
      </trkpt>
      <trkpt lat="44.9201111111" lon="6.67915">
        <ele>1396.452393</ele>
        <time>2008-06-08T01:01:34Z</time>
      </trkpt>
      <trkpt lat="44.9136055556" lon="6.67346388889">
        <ele>1370.496582</ele>
        <time>2008-06-08T01:05:31Z</time>
      </trkpt>
      <trkpt lat="44.9101888889" lon="6.66696388889">
        <ele>1366.170654</ele>
        <time>2008-06-08T01:08:28Z</time>
      </trkpt>
      <trkpt lat="44.90895" lon="6.662175">
        <ele>1349.828369</ele>
        <time>2008-06-08T01:10:19Z</time>
      </trkpt>
      <trkpt lat="44.9073805556" lon="6.66118611111">
        <ele>1350.309082</ele>
        <time>2008-06-08T01:11:12Z</time>
      </trkpt>
      <trkpt lat="44.90505" lon="6.65755277778">
        <ele>1349.347656</ele>
        <time>2008-06-08T01:13:00Z</time>
      </trkpt>
      <trkpt lat="44.9028222222" lon="6.65063611111">
        <ele>1350.309082</ele>
        <time>2008-06-08T01:15:46Z</time>
      </trkpt>
      <trkpt lat="44.9030194444" lon="6.64814166667">
        <ele>1346.944336</ele>
        <time>2008-06-08T01:16:41Z</time>
      </trkpt>
      <trkpt lat="44.9020333333" lon="6.64663055556">
        <ele>1347.905762</ele>
        <time>2008-06-08T01:17:26Z</time>
      </trkpt>
      <trkpt lat="44.9016944444" lon="6.64691666667">
        <ele>1331.563232</ele>
        <time>2008-06-08T01:17:38Z</time>
      </trkpt>
      <trkpt lat="44.9022666667" lon="6.63962777778">
        <ele>1328.19873</ele>
        <time>2008-06-08T01:20:18Z</time>
      </trkpt>
      <trkpt lat="44.8996361111" lon="6.64128611111">
        <ele>1303.685059</ele>
        <time>2008-06-08T01:21:47Z</time>
      </trkpt>
      <trkpt lat="44.8950444444" lon="6.63036944444">
        <ele>1223.415039</ele>
        <time>2008-06-08T01:26:25Z</time>
      </trkpt>
      <trkpt lat="44.8815611111" lon="6.62096111111">
        <ele>1202.746582</ele>
        <time>2008-06-08T01:34:10Z</time>
      </trkpt>
      <trkpt lat="44.8809" lon="6.62220555556">
        <ele>1200.343506</ele>
        <time>2008-06-08T01:34:44Z</time>
      </trkpt>
      <trkpt lat="44.8929194444" lon="6.63050277778">
        <ele>1215.243896</ele>
        <time>2008-06-08T01:41:37Z</time>
      </trkpt>
      <trkpt lat="44.8949694444" lon="6.63683888889">
        <ele>1224.376221</ele>
        <time>2008-06-08T01:44:09Z</time>
      </trkpt>
      <trkpt lat="44.8896444444" lon="6.63900277778">
        <ele>1266.674316</ele>
        <time>2008-06-08T01:47:01Z</time>
      </trkpt>
      <trkpt lat="44.8891972222" lon="6.64030555556">
        <ele>1280.132813</ele>
        <time>2008-06-08T01:47:32Z</time>
      </trkpt>
      <trkpt lat="44.8927027778" lon="6.640375">
        <ele>1304.64624</ele>
        <time>2008-06-08T01:49:21Z</time>
      </trkpt>
      <trkpt lat="44.8929" lon="6.64464166667">
        <ele>1332.524658</ele>
        <time>2008-06-08T01:50:54Z</time>
      </trkpt>
      <trkpt lat="44.8902583333" lon="6.64755555556">
        <ele>1353.192871</ele>
        <time>2008-06-08T01:52:38Z</time>
      </trkpt>
      <trkpt lat="44.8866611111" lon="6.648225">
        <ele>1379.148438</ele>
        <time>2008-06-08T01:54:30Z</time>
      </trkpt>
      <trkpt lat="44.8814888889" lon="6.66621388889">
        <ele>1451.247314</ele>
        <time>2008-06-08T02:01:35Z</time>
      </trkpt>
      <trkpt lat="44.8818027778" lon="6.66873611111">
        <ele>1444.998779</ele>
        <time>2008-06-08T02:02:31Z</time>
      </trkpt>
      <trkpt lat="44.8800138889" lon="6.67196111111">
        <ele>1433.943604</ele>
        <time>2008-06-08T02:04:00Z</time>
      </trkpt>
      <trkpt lat="44.8765861111" lon="6.68951944444">
        <ele>1492.103516</ele>
        <time>2008-06-08T02:10:39Z</time>
      </trkpt>
      <trkpt lat="44.8728111111" lon="6.69544444444">
        <ele>1534.401611</ele>
        <time>2008-06-08T02:13:33Z</time>
      </trkpt>
      <trkpt lat="44.8721666667" lon="6.70060277778">
        <ele>1550.263428</ele>
        <time>2008-06-08T02:15:28Z</time>
      </trkpt>
      <trkpt lat="44.8692472222" lon="6.70325">
        <ele>1560.837646</ele>
        <time>2008-06-08T02:17:15Z</time>
      </trkpt>
      <trkpt lat="44.8675194444" lon="6.7113">
        <ele>1574.776855</ele>
        <time>2008-06-08T02:20:19Z</time>
      </trkpt>
      <trkpt lat="44.8676694444" lon="6.71633333333">
        <ele>1596.887207</ele>
        <time>2008-06-08T02:22:10Z</time>
      </trkpt>
      <trkpt lat="44.8701416667" lon="6.72566666667">
        <ele>1643.030273</ele>
        <time>2008-06-08T02:25:48Z</time>
      </trkpt>
      <trkpt lat="44.86505" lon="6.72449722222">
        <ele>1680.521973</ele>
        <time>2008-06-08T02:28:27Z</time>
      </trkpt>
      <trkpt lat="44.8595527778" lon="6.72490833333">
        <ele>1726.665283</ele>
        <time>2008-06-08T02:31:17Z</time>
      </trkpt>
      <trkpt lat="44.8560944444" lon="6.72675277778">
        <ele>1750.217529</ele>
        <time>2008-06-08T02:33:11Z</time>
      </trkpt>
      <trkpt lat="44.8543444444" lon="6.72663333333">
        <ele>1756.466064</ele>
        <time>2008-06-08T02:34:05Z</time>
      </trkpt>
      <trkpt lat="44.8531111111" lon="6.72469166667">
        <ele>1770.405029</ele>
        <time>2008-06-08T02:35:02Z</time>
      </trkpt>
      <trkpt lat="44.8456555556" lon="6.72561388889">
        <ele>1842.023438</ele>
        <time>2008-06-08T02:38:54Z</time>
      </trkpt>
      <trkpt lat="44.8441388889" lon="6.72430277778">
        <ele>1857.885254</ele>
        <time>2008-06-08T02:39:48Z</time>
      </trkpt>
      <trkpt lat="44.8447916667" lon="6.72391666667">
        <ele>1869.421143</ele>
        <time>2008-06-08T02:40:10Z</time>
      </trkpt>
      <trkpt lat="44.837225" lon="6.72306944444">
        <ele>1946.806885</ele>
        <time>2008-06-08T02:44:05Z</time>
      </trkpt>
      <trkpt lat="44.8360861111" lon="6.72165555556">
        <ele>1980.453369</ele>
        <time>2008-06-08T02:44:52Z</time>
      </trkpt>
      <trkpt lat="44.8349805556" lon="6.72308611111">
        <ele>1997.75708</ele>
        <time>2008-06-08T02:45:38Z</time>
      </trkpt>
      <trkpt lat="44.8348944444" lon="6.72193888889">
        <ele>2013.138184</ele>
        <time>2008-06-08T02:46:03Z</time>
      </trkpt>
      <trkpt lat="44.8326972222" lon="6.72253888889">
        <ele>2073.700928</ele>
        <time>2008-06-08T02:47:12Z</time>
      </trkpt>
      <trkpt lat="44.8320194444" lon="6.72395277778">
        <ele>2090.523926</ele>
        <time>2008-06-08T02:47:50Z</time>
      </trkpt>
      <trkpt lat="44.8304333333" lon="6.72326666667">
        <ele>2127.534912</ele>
        <time>2008-06-08T02:48:41Z</time>
      </trkpt>
      <trkpt lat="44.8270805556" lon="6.72585277778">
        <ele>2163.584229</ele>
        <time>2008-06-08T02:50:39Z</time>
      </trkpt>
      <trkpt lat="44.8285694444" lon="6.72719722222">
        <ele>2178.484863</ele>
        <time>2008-06-08T02:51:34Z</time>
      </trkpt>
      <trkpt lat="44.8270861111" lon="6.72743333333">
        <ele>2198.672363</ele>
        <time>2008-06-08T02:52:20Z</time>
      </trkpt>
      <trkpt lat="44.824675" lon="6.73178888889">
        <ele>2245.296387</ele>
        <time>2008-06-08T02:54:21Z</time>
      </trkpt>
      <trkpt lat="44.8222472222" lon="6.73207222222">
        <ele>2275.097168</ele>
        <time>2008-06-08T02:55:36Z</time>
      </trkpt>
      <trkpt lat="44.822475" lon="6.73613888889">
        <ele>2324.124512</ele>
        <time>2008-06-08T02:57:05Z</time>
      </trkpt>
      <trkpt lat="44.8189527778" lon="6.73433055556">
        <ele>2356.328613</ele>
        <time>2008-06-08T02:59:01Z</time>
      </trkpt>
      <trkpt lat="44.8194388889" lon="6.73213333333">
        <ele>2344.312012</ele>
        <time>2008-06-08T02:59:52Z</time>
      </trkpt>
      <trkpt lat="44.814575" lon="6.73628888889">
        <ele>2255.390381</ele>
        <time>2008-06-08T03:02:47Z</time>
      </trkpt>
      <trkpt lat="44.8133722222" lon="6.73465277778">
        <ele>2236.164063</ele>
        <time>2008-06-08T03:03:39Z</time>
      </trkpt>
      <trkpt lat="44.8117083333" lon="6.73530833333">
        <ele>2217.417969</ele>
        <time>2008-06-08T03:04:32Z</time>
      </trkpt>
      <trkpt lat="44.8112638889" lon="6.73753055556">
        <ele>2197.711182</ele>
        <time>2008-06-08T03:05:23Z</time>
      </trkpt>
      <trkpt lat="44.8096138889" lon="6.73843888889">
        <ele>2190.981934</ele>
        <time>2008-06-08T03:06:18Z</time>
      </trkpt>
      <trkpt lat="44.8068666667" lon="6.73623333333">
        <ele>2214.053467</ele>
        <time>2008-06-08T03:07:55Z</time>
      </trkpt>
      <trkpt lat="44.8036416667" lon="6.73731111111">
        <ele>2179.446045</ele>
        <time>2008-06-08T03:09:38Z</time>
      </trkpt>
      <trkpt lat="44.8051916667" lon="6.73570833333">
        <ele>2164.545654</ele>
        <time>2008-06-08T03:10:37Z</time>
      </trkpt>
      <trkpt lat="44.8048305556" lon="6.73430555556">
        <ele>2145.319336</ele>
        <time>2008-06-08T03:11:10Z</time>
      </trkpt>
      <trkpt lat="44.8011222222" lon="6.73206111111">
        <ele>2090.043457</ele>
        <time>2008-06-08T03:13:15Z</time>
      </trkpt>
      <trkpt lat="44.8020666667" lon="6.73422777778">
        <ele>2073.700928</ele>
        <time>2008-06-08T03:14:10Z</time>
      </trkpt>
      <trkpt lat="44.799475" lon="6.73135277778">
        <ele>2034.767822</ele>
        <time>2008-06-08T03:15:52Z</time>
      </trkpt>
      <trkpt lat="44.8000972222" lon="6.72950277778">
        <ele>2017.463867</ele>
        <time>2008-06-08T03:16:37Z</time>
      </trkpt>
      <trkpt lat="44.798925" lon="6.73145555556">
        <ele>2002.563477</ele>
        <time>2008-06-08T03:17:33Z</time>
      </trkpt>
      <trkpt lat="44.7990111111" lon="6.72923333333">
        <ele>1962.668701</ele>
        <time>2008-06-08T03:18:22Z</time>
      </trkpt>
      <trkpt lat="44.79745" lon="6.73309444444">
        <ele>1921.812744</ele>
        <time>2008-06-08T03:19:59Z</time>
      </trkpt>
      <trkpt lat="44.7983138889" lon="6.73448888889">
        <ele>1904.028564</ele>
        <time>2008-06-08T03:20:40Z</time>
      </trkpt>
      <trkpt lat="44.7967027778" lon="6.73316666667">
        <ele>1886.244141</ele>
        <time>2008-06-08T03:21:37Z</time>
      </trkpt>
      <trkpt lat="44.79695" lon="6.72898055556">
        <ele>1848.271729</ele>
        <time>2008-06-08T03:23:09Z</time>
      </trkpt>
      <trkpt lat="44.7958972222" lon="6.72889722222">
        <ele>1826.642334</ele>
        <time>2008-06-08T03:23:42Z</time>
      </trkpt>
      <trkpt lat="44.7927333333" lon="6.73161666667">
        <ele>1782.9021</ele>
        <time>2008-06-08T03:25:36Z</time>
      </trkpt>
      <trkpt lat="44.7836805556" lon="6.73464444444">
        <ele>1707.438721</ele>
        <time>2008-06-08T03:30:24Z</time>
      </trkpt>
      <trkpt lat="44.7763277778" lon="6.73518611111">
        <ele>1647.356445</ele>
        <time>2008-06-08T03:34:11Z</time>
      </trkpt>
      <trkpt lat="44.7690666667" lon="6.73719444444">
        <ele>1586.793213</ele>
        <time>2008-06-08T03:38:00Z</time>
      </trkpt>
      <trkpt lat="44.7585777778" lon="6.74737777778">
        <ele>1530.556152</ele>
        <time>2008-06-08T03:44:33Z</time>
      </trkpt>
      <trkpt lat="44.7507055556" lon="6.76475555556">
        <ele>1423.849854</ele>
        <time>2008-06-08T03:52:05Z</time>
      </trkpt>
      <trkpt lat="44.7479888889" lon="6.76744166667">
        <ele>1408.949463</ele>
        <time>2008-06-08T03:53:48Z</time>
      </trkpt>
      <trkpt lat="44.7479138889" lon="6.77183333333">
        <ele>1375.783936</ele>
        <time>2008-06-08T03:55:24Z</time>
      </trkpt>
      <trkpt lat="44.7424722222" lon="6.76666944444">
        <ele>1328.679443</ele>
        <time>2008-06-08T03:58:47Z</time>
      </trkpt>
      <trkpt lat="44.7350944444" lon="6.76808888889">
        <ele>1282.05542</ele>
        <time>2008-06-08T04:02:37Z</time>
      </trkpt>
      <trkpt lat="44.7220694444" lon="6.76151111111">
        <ele>1241.679932</ele>
        <time>2008-06-08T04:09:44Z</time>
      </trkpt>
      <trkpt lat="44.7185861111" lon="6.76108055556">
        <ele>1233.508789</ele>
        <time>2008-06-08T04:11:32Z</time>
      </trkpt>
      <trkpt lat="44.7171055556" lon="6.759425">
        <ele>1229.182861</ele>
        <time>2008-06-08T04:12:31Z</time>
      </trkpt>
      <trkpt lat="44.7149861111" lon="6.74921666667">
        <ele>1216.205078</ele>
        <time>2008-06-08T04:16:24Z</time>
      </trkpt>
      <trkpt lat="44.7082555556" lon="6.73516944444">
        <ele>1191.210693</ele>
        <time>2008-06-08T04:22:36Z</time>
      </trkpt>
      <trkpt lat="44.7085527778" lon="6.72964444444">
        <ele>1184.962402</ele>
        <time>2008-06-08T04:24:38Z</time>
      </trkpt>
      <trkpt lat="44.7049027778" lon="6.72031666667">
        <ele>1170.061768</ele>
        <time>2008-06-08T04:28:31Z</time>
      </trkpt>
      <trkpt lat="44.6958777778" lon="6.70941388889">
        <ele>1122.476563</ele>
        <time>2008-06-08T04:34:39Z</time>
      </trkpt>
      <trkpt lat="44.6957166667" lon="6.70618055556">
        <ele>1119.112061</ele>
        <time>2008-06-08T04:35:50Z</time>
      </trkpt>
      <trkpt lat="44.6867222222" lon="6.69818611111">
        <ele>1097.482178</ele>
        <time>2008-06-08T04:41:19Z</time>
      </trkpt>
      <trkpt lat="44.6823222222" lon="6.69732777778">
        <ele>1080.65918</ele>
        <time>2008-06-08T04:43:36Z</time>
      </trkpt>
      <trkpt lat="44.6765" lon="6.69333333333">
        <ele>1073.449463</ele>
        <time>2008-06-08T04:46:56Z</time>
      </trkpt>
      <trkpt lat="44.673925" lon="6.68422222222">
        <ele>1088.830566</ele>
        <time>2008-06-08T04:50:31Z</time>
      </trkpt>
      <trkpt lat="44.6725194444" lon="6.68261388889">
        <ele>1089.791748</ele>
        <time>2008-06-08T04:51:27Z</time>
      </trkpt>
      <trkpt lat="44.6721444444" lon="6.6873">
        <ele>1094.598145</ele>
        <time>2008-06-08T04:53:11Z</time>
      </trkpt>
      <trkpt lat="44.6652583333" lon="6.664175">
        <ele>1110.940674</ele>
        <time>2008-06-08T05:02:21Z</time>
      </trkpt>
      <trkpt lat="44.6596666667" lon="6.65775833333">
        <ele>1083.542969</ele>
        <time>2008-06-08T05:06:04Z</time>
      </trkpt>
      <trkpt lat="44.6551333333" lon="6.65413333333">
        <ele>1065.278076</ele>
        <time>2008-06-08T05:08:45Z</time>
      </trkpt>
      <trkpt lat="44.6536861111" lon="6.65426944444">
        <ele>1059.990723</ele>
        <time>2008-06-08T05:09:30Z</time>
      </trkpt>
      <trkpt lat="44.6552333333" lon="6.65017777778">
        <ele>1057.587646</ele>
        <time>2008-06-08T05:11:12Z</time>
      </trkpt>
      <trkpt lat="44.653775" lon="6.65">
        <ele>1070.56543</ele>
        <time>2008-06-08T05:11:57Z</time>
      </trkpt>
      <trkpt lat="44.6537388889" lon="6.65216111111">
        <ele>1088.830566</ele>
        <time>2008-06-08T05:12:45Z</time>
      </trkpt>
      <trkpt lat="44.6529861111" lon="6.64987222222">
        <ele>1103.730957</ele>
        <time>2008-06-08T05:13:40Z</time>
      </trkpt>
      <trkpt lat="44.6511833333" lon="6.65057222222">
        <ele>1120.073242</ele>
        <time>2008-06-08T05:14:38Z</time>
      </trkpt>
      <trkpt lat="44.6497805556" lon="6.65461666667">
        <ele>1156.603271</ele>
        <time>2008-06-08T05:16:17Z</time>
      </trkpt>
      <trkpt lat="44.6444361111" lon="6.65649722222">
        <ele>1210.917725</ele>
        <time>2008-06-08T05:19:07Z</time>
      </trkpt>
      <trkpt lat="44.6458777778" lon="6.65701666667">
        <ele>1228.22168</ele>
        <time>2008-06-08T05:19:53Z</time>
      </trkpt>
      <trkpt lat="44.641875" lon="6.66215">
        <ele>1287.823242</ele>
        <time>2008-06-08T05:22:40Z</time>
      </trkpt>
      <trkpt lat="44.6430555556" lon="6.66305555556">
        <ele>1329.159912</ele>
        <time>2008-06-08T05:23:22Z</time>
      </trkpt>
      <trkpt lat="44.6402611111" lon="6.66578611111">
        <ele>1369.054688</ele>
        <time>2008-06-08T05:25:07Z</time>
      </trkpt>
      <trkpt lat="44.6377583333" lon="6.66621666667">
        <ele>1403.181396</ele>
        <time>2008-06-08T05:26:25Z</time>
      </trkpt>
      <trkpt lat="44.6395555556" lon="6.66685">
        <ele>1420.966064</ele>
        <time>2008-06-08T05:27:22Z</time>
      </trkpt>
      <trkpt lat="44.6370305556" lon="6.66853888889">
        <ele>1454.612061</ele>
        <time>2008-06-08T05:28:48Z</time>
      </trkpt>
      <trkpt lat="44.6369111111" lon="6.66997777778">
        <ele>1480.086914</ele>
        <time>2008-06-08T05:29:20Z</time>
      </trkpt>
      <trkpt lat="44.6350888889" lon="6.66966111111">
        <ele>1497.390625</ele>
        <time>2008-06-08T05:30:17Z</time>
      </trkpt>
      <trkpt lat="44.6334444444" lon="6.67083333333">
        <ele>1513.73291</ele>
        <time>2008-06-08T05:31:14Z</time>
      </trkpt>
      <trkpt lat="44.6346611111" lon="6.67478055556">
        <ele>1537.766113</ele>
        <time>2008-06-08T05:32:48Z</time>
      </trkpt>
      <trkpt lat="44.6334166667" lon="6.67665277778">
        <ele>1553.147217</ele>
        <time>2008-06-08T05:33:45Z</time>
      </trkpt>
      <trkpt lat="44.6316277778" lon="6.67689722222">
        <ele>1569.009033</ele>
        <time>2008-06-08T05:34:40Z</time>
      </trkpt>
      <trkpt lat="44.6289" lon="6.68001388889">
        <ele>1600.732422</ele>
        <time>2008-06-08T05:36:29Z</time>
      </trkpt>
      <trkpt lat="44.6257583333" lon="6.68043055556">
        <ele>1624.284668</ele>
        <time>2008-06-08T05:38:06Z</time>
      </trkpt>
      <trkpt lat="44.6250722222" lon="6.68273611111">
        <ele>1626.687988</ele>
        <time>2008-06-08T05:39:01Z</time>
      </trkpt>
      <trkpt lat="44.6179138889" lon="6.68429166667">
        <ele>1659.853271</ele>
        <time>2008-06-08T05:42:45Z</time>
      </trkpt>
      <trkpt lat="44.6093972222" lon="6.68845555556">
        <ele>1639.185059</ele>
        <time>2008-06-08T05:47:23Z</time>
      </trkpt>
      <trkpt lat="44.5949833333" lon="6.68990833333">
        <ele>1655.527588</ele>
        <time>2008-06-08T05:54:50Z</time>
      </trkpt>
      <trkpt lat="44.5879944444" lon="6.68736666667">
        <ele>1713.687256</ele>
        <time>2008-06-08T05:58:33Z</time>
      </trkpt>
      <trkpt lat="44.5834472222" lon="6.68278888889">
        <ele>1758.869385</ele>
        <time>2008-06-08T06:01:26Z</time>
      </trkpt>
      <trkpt lat="44.5800472222" lon="6.68449722222">
        <ele>1782.421631</ele>
        <time>2008-06-08T06:03:17Z</time>
      </trkpt>
      <trkpt lat="44.5733527778" lon="6.68167222222">
        <ele>1843.946045</ele>
        <time>2008-06-08T06:06:53Z</time>
      </trkpt>
      <trkpt lat="44.572175" lon="6.67998055556">
        <ele>1857.404541</ele>
        <time>2008-06-08T06:07:45Z</time>
      </trkpt>
      <trkpt lat="44.5692055556" lon="6.68454166667">
        <ele>1905.950928</ele>
        <time>2008-06-08T06:10:01Z</time>
      </trkpt>
      <trkpt lat="44.561025" lon="6.69034444444">
        <ele>1952.094238</ele>
        <time>2008-06-08T06:14:44Z</time>
      </trkpt>
      <trkpt lat="44.556025" lon="6.69783055556">
        <ele>1989.10498</ele>
        <time>2008-06-08T06:18:30Z</time>
      </trkpt>
      <trkpt lat="44.5477027778" lon="6.70277222222">
        <ele>2053.994141</ele>
        <time>2008-06-08T06:23:09Z</time>
      </trkpt>
      <trkpt lat="44.5402194444" lon="6.702325">
        <ele>2099.176025</ele>
        <time>2008-06-08T06:27:00Z</time>
      </trkpt>
      <trkpt lat="44.5351194444" lon="6.70481111111">
        <ele>2068.413818</ele>
        <time>2008-06-08T06:29:47Z</time>
      </trkpt>
      <trkpt lat="44.5332416667" lon="6.70471388889">
        <ele>2048.706787</ele>
        <time>2008-06-08T06:30:45Z</time>
      </trkpt>
      <trkpt lat="44.5320527778" lon="6.70246944444">
        <ele>2018.425293</ele>
        <time>2008-06-08T06:31:47Z</time>
      </trkpt>
      <trkpt lat="44.5323055556" lon="6.70958611111">
        <ele>1968.91748</ele>
        <time>2008-06-08T06:34:24Z</time>
      </trkpt>
      <trkpt lat="44.5307444444" lon="6.71265833333">
        <ele>1930.4646</ele>
        <time>2008-06-08T06:35:47Z</time>
      </trkpt>
      <trkpt lat="44.5307583333" lon="6.71026666667">
        <ele>1914.602783</ele>
        <time>2008-06-08T06:36:39Z</time>
      </trkpt>
      <trkpt lat="44.5297222222" lon="6.71149166667">
        <ele>1895.857178</ele>
        <time>2008-06-08T06:37:21Z</time>
      </trkpt>
      <trkpt lat="44.5288333333" lon="6.72185">
        <ele>1817.509521</ele>
        <time>2008-06-08T06:41:11Z</time>
      </trkpt>
      <trkpt lat="44.5271833333" lon="6.71524166667">
        <ele>1754.062744</ele>
        <time>2008-06-08T06:43:45Z</time>
      </trkpt>
      <trkpt lat="44.5253861111" lon="6.724175">
        <ele>1671.869873</ele>
        <time>2008-06-08T06:47:10Z</time>
      </trkpt>
      <trkpt lat="44.5260694444" lon="6.726125">
        <ele>1671.38916</ele>
        <time>2008-06-08T06:47:57Z</time>
      </trkpt>
      <trkpt lat="44.5232583333" lon="6.73423055556">
        <ele>1646.875732</ele>
        <time>2008-06-08T06:51:16Z</time>
      </trkpt>
      <trkpt lat="44.5229638889" lon="6.73916111111">
        <ele>1622.842773</ele>
        <time>2008-06-08T06:53:05Z</time>
      </trkpt>
      <trkpt lat="44.5200555556" lon="6.74135555556">
        <ele>1594.964355</ele>
        <time>2008-06-08T06:54:47Z</time>
      </trkpt>
      <trkpt lat="44.5200777778" lon="6.74383888889">
        <ele>1583.428711</ele>
        <time>2008-06-08T06:55:42Z</time>
      </trkpt>
      <trkpt lat="44.5172833333" lon="6.74740277778">
        <ele>1544.97583</ele>
        <time>2008-06-08T06:57:38Z</time>
      </trkpt>
      <trkpt lat="44.5180277778" lon="6.75215833333">
        <ele>1516.617188</ele>
        <time>2008-06-08T06:59:26Z</time>
      </trkpt>
      <trkpt lat="44.515425" lon="6.75038611111">
        <ele>1490.180908</ele>
        <time>2008-06-08T07:00:55Z</time>
      </trkpt>
      <trkpt lat="44.5145638889" lon="6.7482">
        <ele>1475.760986</ele>
        <time>2008-06-08T07:01:50Z</time>
      </trkpt>
      <trkpt lat="44.5149611111" lon="6.74401944444">
        <ele>1470.473877</ele>
        <time>2008-06-08T07:03:23Z</time>
      </trkpt>
      <trkpt lat="44.5110416667" lon="6.74440277778">
        <ele>1455.092773</ele>
        <time>2008-06-08T07:05:24Z</time>
      </trkpt>
      <trkpt lat="44.5100361111" lon="6.74659444444">
        <ele>1438.269775</ele>
        <time>2008-06-08T07:06:22Z</time>
      </trkpt>
      <trkpt lat="44.5053027778" lon="6.74505277778">
        <ele>1421.446533</ele>
        <time>2008-06-08T07:08:52Z</time>
      </trkpt>
      <trkpt lat="44.5026555556" lon="6.74110833333">
        <ele>1395.97168</ele>
        <time>2008-06-08T07:10:51Z</time>
      </trkpt>
      <trkpt lat="44.4991277778" lon="6.73928611111">
        <ele>1388.761963</ele>
        <time>2008-06-08T07:12:47Z</time>
      </trkpt>
      <trkpt lat="44.4973083333" lon="6.73966388889">
        <ele>1389.723145</ele>
        <time>2008-06-08T07:13:44Z</time>
      </trkpt>
      <trkpt lat="44.4902305556" lon="6.74310555556">
        <ele>1365.209473</ele>
        <time>2008-06-08T07:17:35Z</time>
      </trkpt>
      <trkpt lat="44.4841083333" lon="6.74863888889">
        <ele>1347.425049</ele>
        <time>2008-06-08T07:21:20Z</time>
      </trkpt>
      <trkpt lat="44.4768666667" lon="6.76031666667">
        <ele>1324.834229</ele>
        <time>2008-06-08T07:27:01Z</time>
      </trkpt>
      <trkpt lat="44.4717833333" lon="6.7635">
        <ele>1320.98877</ele>
        <time>2008-06-08T07:29:53Z</time>
      </trkpt>
      <trkpt lat="44.4699833333" lon="6.76310555556">
        <ele>1319.066162</ele>
        <time>2008-06-08T07:30:50Z</time>
      </trkpt>
      <trkpt lat="44.4657083333" lon="6.75859444444">
        <ele>1306.088135</ele>
        <time>2008-06-08T07:33:35Z</time>
      </trkpt>
      <trkpt lat="44.4642388889" lon="6.75139722222">
        <ele>1303.685059</ele>
        <time>2008-06-08T07:36:20Z</time>
      </trkpt>
      <trkpt lat="44.4570333333" lon="6.74422777778">
        <ele>1294.55249</ele>
        <time>2008-06-08T07:40:53Z</time>
      </trkpt>
      <trkpt lat="44.4533805556" lon="6.74383611111">
        <ele>1283.016602</ele>
        <time>2008-06-08T07:42:46Z</time>
      </trkpt>
      <trkpt lat="44.4483111111" lon="6.74026111111">
        <ele>1277.249023</ele>
        <time>2008-06-08T07:45:41Z</time>
      </trkpt>
      <trkpt lat="44.4449388889" lon="6.74238611111">
        <ele>1274.845459</ele>
        <time>2008-06-08T07:47:36Z</time>
      </trkpt>
      <trkpt lat="44.4412027778" lon="6.74206666667">
        <ele>1270.038818</ele>
        <time>2008-06-08T07:49:31Z</time>
      </trkpt>
      <trkpt lat="44.4374833333" lon="6.74411666667">
        <ele>1264.751709</ele>
        <time>2008-06-08T07:51:35Z</time>
      </trkpt>
      <trkpt lat="44.4356888889" lon="6.74385277778">
        <ele>1260.425781</ele>
        <time>2008-06-08T07:52:30Z</time>
      </trkpt>
      <trkpt lat="44.4299722222" lon="6.73678611111">
        <ele>1243.602539</ele>
        <time>2008-06-08T07:56:26Z</time>
      </trkpt>
      <trkpt lat="44.4207527778" lon="6.73674166667">
        <ele>1227.260254</ele>
        <time>2008-06-08T08:01:11Z</time>
      </trkpt>
      <trkpt lat="44.4166083333" lon="6.72865833333">
        <ele>1224.376221</ele>
        <time>2008-06-08T08:04:50Z</time>
      </trkpt>
      <trkpt lat="44.4139638889" lon="6.72871944444">
        <ele>1227.740723</ele>
        <time>2008-06-08T08:06:12Z</time>
      </trkpt>
      <trkpt lat="44.415875" lon="6.72835555556">
        <ele>1228.22168</ele>
        <time>2008-06-08T08:07:11Z</time>
      </trkpt>
      <trkpt lat="44.4174305556" lon="6.72983611111">
        <ele>1227.260254</ele>
        <time>2008-06-08T08:08:10Z</time>
      </trkpt>
      <trkpt lat="44.4202222222" lon="6.73631388889">
        <ele>1230.625</ele>
        <time>2008-06-08T08:10:56Z</time>
      </trkpt>
      <trkpt lat="44.4201111111" lon="6.73864166667">
        <ele>1235.912109</ele>
        <time>2008-06-08T08:11:48Z</time>
      </trkpt>
      <trkpt lat="44.4158055556" lon="6.74344166667">
        <ele>1253.696533</ele>
        <time>2008-06-08T08:14:38Z</time>
      </trkpt>
      <trkpt lat="44.4145277778" lon="6.74830277778">
        <ele>1274.364746</ele>
        <time>2008-06-08T08:16:32Z</time>
      </trkpt>
      <trkpt lat="44.4148444444" lon="6.75232777778">
        <ele>1298.397705</ele>
        <time>2008-06-08T08:18:02Z</time>
      </trkpt>
      <trkpt lat="44.4132555556" lon="6.751975">
        <ele>1325.79541</ele>
        <time>2008-06-08T08:18:51Z</time>
      </trkpt>
      <trkpt lat="44.4127" lon="6.75589444444">
        <ele>1369.054688</ele>
        <time>2008-06-08T08:20:19Z</time>
      </trkpt>
      <trkpt lat="44.41115" lon="6.75140277778">
        <ele>1400.297607</ele>
        <time>2008-06-08T08:22:09Z</time>
      </trkpt>
      <trkpt lat="44.4105694444" lon="6.75286666667">
        <ele>1412.794678</ele>
        <time>2008-06-08T08:22:46Z</time>
      </trkpt>
      <trkpt lat="44.4057722222" lon="6.75469722222">
        <ele>1455.573486</ele>
        <time>2008-06-08T08:25:20Z</time>
      </trkpt>
      <trkpt lat="44.4046138889" lon="6.76027777778">
        <ele>1483.932129</ele>
        <time>2008-06-08T08:27:28Z</time>
      </trkpt>
      <trkpt lat="44.4015555556" lon="6.76601111111">
        <ele>1518.059082</ele>
        <time>2008-06-08T08:30:06Z</time>
      </trkpt>
      <trkpt lat="44.398525" lon="6.76893888889">
        <ele>1550.743896</ele>
        <time>2008-06-08T08:32:00Z</time>
      </trkpt>
      <trkpt lat="44.3970027778" lon="6.76736666667">
        <ele>1567.566895</ele>
        <time>2008-06-08T08:32:58Z</time>
      </trkpt>
      <trkpt lat="44.3952583333" lon="6.767725">
        <ele>1582.947998</ele>
        <time>2008-06-08T08:33:53Z</time>
      </trkpt>
      <trkpt lat="44.3913527778" lon="6.77636666667">
        <ele>1647.837158</ele>
        <time>2008-06-08T08:37:38Z</time>
      </trkpt>
      <trkpt lat="44.388275" lon="6.77834166667">
        <ele>1679.560547</ele>
        <time>2008-06-08T08:39:23Z</time>
      </trkpt>
      <trkpt lat="44.38915" lon="6.778875">
        <ele>1696.864258</ele>
        <time>2008-06-08T08:39:52Z</time>
      </trkpt>
      <trkpt lat="44.3882861111" lon="6.78060833333">
        <ele>1745.410889</ele>
        <time>2008-06-08T08:40:39Z</time>
      </trkpt>
      <trkpt lat="44.3814027778" lon="6.78039444444">
        <ele>1806.935303</ele>
        <time>2008-06-08T08:44:12Z</time>
      </trkpt>
      <trkpt lat="44.380225" lon="6.78178055556">
        <ele>1839.139404</ele>
        <time>2008-06-08T08:44:59Z</time>
      </trkpt>
      <trkpt lat="44.3709972222" lon="6.78238888889">
        <ele>1929.022461</ele>
        <time>2008-06-08T08:49:45Z</time>
      </trkpt>
      <trkpt lat="44.3665111111" lon="6.78654166667">
        <ele>1980.934082</ele>
        <time>2008-06-08T08:52:31Z</time>
      </trkpt>
      <trkpt lat="44.3680166667" lon="6.78679444444">
        <ele>1996.795654</ele>
        <time>2008-06-08T08:53:18Z</time>
      </trkpt>
      <trkpt lat="44.366075" lon="6.78869444444">
        <ele>2031.883789</ele>
        <time>2008-06-08T08:54:31Z</time>
      </trkpt>
      <trkpt lat="44.3625222222" lon="6.78777222222">
        <ele>2049.1875</ele>
        <time>2008-06-08T08:56:22Z</time>
      </trkpt>
      <trkpt lat="44.35855" lon="6.782825">
        <ele>2085.717529</ele>
        <time>2008-06-08T08:59:07Z</time>
      </trkpt>
      <trkpt lat="44.3550361111" lon="6.78237222222">
        <ele>2113.115234</ele>
        <time>2008-06-08T09:00:56Z</time>
      </trkpt>
      <trkpt lat="44.3533083333" lon="6.78335">
        <ele>2130.418945</ele>
        <time>2008-06-08T09:01:53Z</time>
      </trkpt>
      <trkpt lat="44.35165" lon="6.78251388889">
        <ele>2140.993408</ele>
        <time>2008-06-08T09:02:48Z</time>
      </trkpt>
      <trkpt lat="44.3510694444" lon="6.78434166667">
        <ele>2162.623047</ele>
        <time>2008-06-08T09:03:32Z</time>
      </trkpt>
      <trkpt lat="44.3484055556" lon="6.78323055556">
        <ele>2202.036865</ele>
        <time>2008-06-08T09:04:58Z</time>
      </trkpt>
      <trkpt lat="44.3491944444" lon="6.78473055556">
        <ele>2215.495605</ele>
        <time>2008-06-08T09:05:39Z</time>
      </trkpt>
      <trkpt lat="44.3480555556" lon="6.784575">
        <ele>2234.241211</ele>
        <time>2008-06-08T09:06:14Z</time>
      </trkpt>
      <trkpt lat="44.3471583333" lon="6.78696111111">
        <ele>2270.290771</ele>
        <time>2008-06-08T09:07:14Z</time>
      </trkpt>
      <trkpt lat="44.3420138889" lon="6.78208888889">
        <ele>2323.16333</ele>
        <time>2008-06-08T09:10:26Z</time>
      </trkpt>
      <trkpt lat="44.3402555556" lon="6.78264444444">
        <ele>2333.25708</ele>
        <time>2008-06-08T09:11:21Z</time>
      </trkpt>
      <trkpt lat="44.3386527778" lon="6.78345">
        <ele>2350.080322</ele>
        <time>2008-06-08T09:12:14Z</time>
      </trkpt>
      <trkpt lat="44.3377861111" lon="6.78975">
        <ele>2379.400146</ele>
        <time>2008-06-08T09:14:36Z</time>
      </trkpt>
      <trkpt lat="44.3382138889" lon="6.79205277778">
        <ele>2389.974854</ele>
        <time>2008-06-08T09:15:28Z</time>
      </trkpt>
      <trkpt lat="44.3399833333" lon="6.791325">
        <ele>2406.317139</ele>
        <time>2008-06-08T09:16:25Z</time>
      </trkpt>
      <trkpt lat="44.3407888889" lon="6.78913888889">
        <ele>2421.698242</ele>
        <time>2008-06-08T09:17:20Z</time>
      </trkpt>
      <trkpt lat="44.3404361111" lon="6.79358888889">
        <ele>2462.07373</ele>
        <time>2008-06-08T09:18:59Z</time>
      </trkpt>
      <trkpt lat="44.3418611111" lon="6.79473611111">
        <ele>2482.261475</ele>
        <time>2008-06-08T09:19:49Z</time>
      </trkpt>
      <trkpt lat="44.3436416667" lon="6.79438888889">
        <ele>2495.719971</ele>
        <time>2008-06-08T09:20:45Z</time>
      </trkpt>
      <trkpt lat="44.3426111111" lon="6.7954">
        <ele>2514.946289</ele>
        <time>2008-06-08T09:21:24Z</time>
      </trkpt>
      <trkpt lat="44.3434694444" lon="6.79725555556">
        <ele>2531.288574</ele>
        <time>2008-06-08T09:22:13Z</time>
      </trkpt>
      <trkpt lat="44.3452277778" lon="6.79790833333">
        <ele>2559.647461</ele>
        <time>2008-06-08T09:23:09Z</time>
      </trkpt>
      <trkpt lat="44.3431611111" lon="6.80171388889">
        <ele>2587.044922</ele>
        <time>2008-06-08T09:24:54Z</time>
      </trkpt>
      <trkpt lat="44.3366416667" lon="6.80187777778">
        <ele>2645.685547</ele>
        <time>2008-06-08T09:28:16Z</time>
      </trkpt>
      <trkpt lat="44.3363194444" lon="6.80698611111">
        <ele>2660.105469</ele>
        <time>2008-06-08T09:30:09Z</time>
      </trkpt>
      <trkpt lat="44.3339388889" lon="6.810525">
        <ele>2673.083008</ele>
        <time>2008-06-08T09:31:57Z</time>
      </trkpt>
      <trkpt lat="44.3320305556" lon="6.81075">
        <ele>2682.696289</ele>
        <time>2008-06-08T09:32:56Z</time>
      </trkpt>
      <trkpt lat="44.32895" lon="6.80782777778">
        <ele>2696.154785</ele>
        <time>2008-06-08T09:34:51Z</time>
      </trkpt>
      <trkpt lat="44.3207666667" lon="6.80443333333">
        <ele>2760.562988</ele>
        <time>2008-06-08T09:39:14Z</time>
      </trkpt>
      <trkpt lat="44.3208944444" lon="6.80838888889">
        <ele>2798.535156</ele>
        <time>2008-06-08T09:40:42Z</time>
      </trkpt>
      <trkpt lat="44.3221277778" lon="6.80872222222">
        <ele>2774.502441</ele>
        <time>2008-06-08T09:41:21Z</time>
      </trkpt>
      <trkpt lat="44.3254194444" lon="6.80674166667">
        <ele>2725.955566</ele>
        <time>2008-06-08T09:43:11Z</time>
      </trkpt>
      <trkpt lat="44.3301138889" lon="6.81073333333">
        <ele>2685.099609</ele>
        <time>2008-06-08T09:46:01Z</time>
      </trkpt>
      <trkpt lat="44.3312277778" lon="6.82513055556">
        <ele>2594.254883</ele>
        <time>2008-06-08T09:51:21Z</time>
      </trkpt>
      <trkpt lat="44.3326222222" lon="6.8264">
        <ele>2583.199707</ele>
        <time>2008-06-08T09:52:12Z</time>
      </trkpt>
      <trkpt lat="44.3342861111" lon="6.82593333333">
        <ele>2577.912598</ele>
        <time>2008-06-08T09:53:05Z</time>
      </trkpt>
      <trkpt lat="44.3402138889" lon="6.83169444444">
        <ele>2530.808105</ele>
        <time>2008-06-08T09:56:48Z</time>
      </trkpt>
      <trkpt lat="44.3408777778" lon="6.84348333333">
        <ele>2474.570801</ele>
        <time>2008-06-08T10:01:09Z</time>
      </trkpt>
      <trkpt lat="44.3421583333" lon="6.84529722222">
        <ele>2461.593262</ele>
        <time>2008-06-08T10:02:05Z</time>
      </trkpt>
      <trkpt lat="44.3389861111" lon="6.8501">
        <ele>2426.985596</ele>
        <time>2008-06-08T10:04:30Z</time>
      </trkpt>
      <trkpt lat="44.3336277778" lon="6.85036388889">
        <ele>2374.59375</ele>
        <time>2008-06-08T10:07:15Z</time>
      </trkpt>
      <trkpt lat="44.3327194444" lon="6.85218611111">
        <ele>2352.964111</ele>
        <time>2008-06-08T10:08:04Z</time>
      </trkpt>
      <trkpt lat="44.3319972222" lon="6.85968888889">
        <ele>2314.991943</ele>
        <time>2008-06-08T10:10:52Z</time>
      </trkpt>
      <trkpt lat="44.3337194444" lon="6.86324166667">
        <ele>2285.191162</ele>
        <time>2008-06-08T10:12:27Z</time>
      </trkpt>
      <trkpt lat="44.3333888889" lon="6.86804722222">
        <ele>2266.926025</ele>
        <time>2008-06-08T10:14:13Z</time>
      </trkpt>
      <trkpt lat="44.3317138889" lon="6.86718055556">
        <ele>2235.202393</ele>
        <time>2008-06-08T10:15:08Z</time>
      </trkpt>
      <trkpt lat="44.3306972222" lon="6.86869722222">
        <ele>2223.666748</ele>
        <time>2008-06-08T10:15:54Z</time>
      </trkpt>
      <trkpt lat="44.328925" lon="6.86834722222">
        <ele>2205.401855</ele>
        <time>2008-06-08T10:16:50Z</time>
      </trkpt>
      <trkpt lat="44.3300861111" lon="6.86784166667">
        <ele>2198.672363</ele>
        <time>2008-06-08T10:17:27Z</time>
      </trkpt>
      <trkpt lat="44.3288444444" lon="6.86332222222">
        <ele>2167.429443</ele>
        <time>2008-06-08T10:19:14Z</time>
      </trkpt>
      <trkpt lat="44.3269833333" lon="6.86428611111">
        <ele>2134.26416</ele>
        <time>2008-06-08T10:20:15Z</time>
      </trkpt>
      <trkpt lat="44.3281166667" lon="6.85969722222">
        <ele>2098.695313</ele>
        <time>2008-06-08T10:22:03Z</time>
      </trkpt>
      <trkpt lat="44.3264527778" lon="6.86201388889">
        <ele>2074.181641</ele>
        <time>2008-06-08T10:23:15Z</time>
      </trkpt>
      <trkpt lat="44.3267111111" lon="6.85238888889">
        <ele>2013.138184</ele>
        <time>2008-06-08T10:26:48Z</time>
      </trkpt>
      <trkpt lat="44.3229972222" lon="6.86271944444">
        <ele>1938.155273</ele>
        <time>2008-06-08T10:31:03Z</time>
      </trkpt>
      <trkpt lat="44.322375" lon="6.85947222222">
        <ele>1893.453857</ele>
        <time>2008-06-08T10:32:18Z</time>
      </trkpt>
      <trkpt lat="44.3211083333" lon="6.86126666667">
        <ele>1877.111572</ele>
        <time>2008-06-08T10:33:13Z</time>
      </trkpt>
      <trkpt lat="44.3196805556" lon="6.87197222222">
        <ele>1786.266846</ele>
        <time>2008-06-08T10:37:14Z</time>
      </trkpt>
      <trkpt lat="44.3233916667" lon="6.88333333333">
        <ele>1711.764893</ele>
        <time>2008-06-08T10:41:50Z</time>
      </trkpt>
      <trkpt lat="44.3176333333" lon="6.89889444444">
        <ele>1636.30127</ele>
        <time>2008-06-08T10:48:17Z</time>
      </trkpt>
      <trkpt lat="44.3142194444" lon="6.90089444444">
        <ele>1608.422852</ele>
        <time>2008-06-08T10:50:12Z</time>
      </trkpt>
      <trkpt lat="44.3105527778" lon="6.90100277778">
        <ele>1580.064209</ele>
        <time>2008-06-08T10:52:05Z</time>
      </trkpt>
      <trkpt lat="44.3057694444" lon="6.90455">
        <ele>1538.727539</ele>
        <time>2008-06-08T10:54:52Z</time>
      </trkpt>
      <trkpt lat="44.3057333333" lon="6.90324444444">
        <ele>1525.268799</ele>
        <time>2008-06-08T10:55:21Z</time>
      </trkpt>
      <trkpt lat="44.3046777778" lon="6.90413333333">
        <ele>1509.887695</ele>
        <time>2008-06-08T10:55:59Z</time>
      </trkpt>
      <trkpt lat="44.3012083333" lon="6.90259166667">
        <ele>1475.280273</ele>
        <time>2008-06-08T10:57:51Z</time>
      </trkpt>
      <trkpt lat="44.2927777778" lon="6.90172777778">
        <ele>1431.540283</ele>
        <time>2008-06-08T11:02:12Z</time>
      </trkpt>
      <trkpt lat="44.2873777778" lon="6.89949444444">
        <ele>1389.242432</ele>
        <time>2008-06-08T11:05:06Z</time>
      </trkpt>
      <trkpt lat="44.2806638889" lon="6.90400555556">
        <ele>1336.369873</ele>
        <time>2008-06-08T11:08:57Z</time>
      </trkpt>
      <trkpt lat="44.2738333333" lon="6.91631944444">
        <ele>1281.574707</ele>
        <time>2008-06-08T11:14:41Z</time>
      </trkpt>
      <trkpt lat="44.269825" lon="6.921175">
        <ele>1262.829102</ele>
        <time>2008-06-08T11:17:25Z</time>
      </trkpt>
      <trkpt lat="44.2619083333" lon="6.921375">
        <ele>1225.337402</ele>
        <time>2008-06-08T11:21:30Z</time>
      </trkpt>
      <trkpt lat="44.2603083333" lon="6.92213611111">
        <ele>1188.807617</ele>
        <time>2008-06-08T11:22:22Z</time>
      </trkpt>
      <trkpt lat="44.2583722222" lon="6.92572222222">
        <ele>1160.929199</ele>
        <time>2008-06-08T11:24:01Z</time>
      </trkpt>
      <trkpt lat="44.2560888889" lon="6.92331666667">
        <ele>1179.194092</ele>
        <time>2008-06-08T11:25:29Z</time>
      </trkpt>
      <trkpt lat="44.2495916667" lon="6.92874166667">
        <ele>1189.288086</ele>
        <time>2008-06-08T11:29:23Z</time>
      </trkpt>
      <trkpt lat="44.2432944444" lon="6.93676944444">
        <ele>1216.685791</ele>
        <time>2008-06-08T11:33:47Z</time>
      </trkpt>
      <trkpt lat="44.2399944444" lon="6.93888333333">
        <ele>1201.304688</ele>
        <time>2008-06-08T11:35:39Z</time>
      </trkpt>
      <trkpt lat="44.2386694444" lon="6.94076666667">
        <ele>1188.326904</ele>
        <time>2008-06-08T11:36:37Z</time>
      </trkpt>
      <trkpt lat="44.2384722222" lon="6.94182777778">
        <ele>1178.713623</ele>
        <time>2008-06-08T11:37:01Z</time>
      </trkpt>
      <trkpt lat="44.239875" lon="6.94013055556">
        <ele>1168.13916</ele>
        <time>2008-06-08T11:37:59Z</time>
      </trkpt>
      <trkpt lat="44.2389194444" lon="6.94313611111">
        <ele>1142.664307</ele>
        <time>2008-06-08T11:39:12Z</time>
      </trkpt>
      <trkpt lat="44.2358555556" lon="6.94616111111">
        <ele>1115.747314</ele>
        <time>2008-06-08T11:41:07Z</time>
      </trkpt>
      <trkpt lat="44.2300777778" lon="6.95660277778">
        <ele>1085.946533</ele>
        <time>2008-06-08T11:45:59Z</time>
      </trkpt>
      <trkpt lat="44.2252583333" lon="6.96064444444">
        <ele>1077.294678</ele>
        <time>2008-06-08T11:48:53Z</time>
      </trkpt>
      <trkpt lat="44.2247333333" lon="6.96311388889">
        <ele>1072.488037</ele>
        <time>2008-06-08T11:49:50Z</time>
      </trkpt>
      <trkpt lat="44.2105638889" lon="6.97549722222">
        <ele>1040.764404</ele>
        <time>2008-06-08T11:58:27Z</time>
      </trkpt>
      <trkpt lat="44.2013555556" lon="6.99152222222">
        <ele>1018.17334</ele>
        <time>2008-06-08T12:06:01Z</time>
      </trkpt>
      <trkpt lat="44.1978555556" lon="7.00377777778">
        <ele>992.69873</ele>
        <time>2008-06-08T12:10:53Z</time>
      </trkpt>
      <trkpt lat="44.1896305556" lon="7.01978888889">
        <ele>952.322998</ele>
        <time>2008-06-08T12:18:10Z</time>
      </trkpt>
      <trkpt lat="44.1891277778" lon="7.02519166667">
        <ele>937.90332</ele>
        <time>2008-06-08T12:20:10Z</time>
      </trkpt>
      <trkpt lat="44.1903555556" lon="7.03289722222">
        <ele>924.925781</ele>
        <time>2008-06-08T12:23:05Z</time>
      </trkpt>
      <trkpt lat="44.1849833333" lon="7.05409722222">
        <ele>890.318115</ele>
        <time>2008-06-08T12:31:23Z</time>
      </trkpt>
      <trkpt lat="44.1771583333" lon="7.0684">
        <ele>860.517334</ele>
        <time>2008-06-08T12:38:01Z</time>
      </trkpt>
      <trkpt lat="44.17485" lon="7.07811388889">
        <ele>853.307373</ele>
        <time>2008-06-08T12:41:48Z</time>
      </trkpt>
      <trkpt lat="44.1716166667" lon="7.08435277778">
        <ele>843.694092</ele>
        <time>2008-06-08T12:44:39Z</time>
      </trkpt>
      <trkpt lat="44.1684666667" lon="7.08727222222">
        <ele>832.63916</ele>
        <time>2008-06-08T12:46:36Z</time>
      </trkpt>
      <trkpt lat="44.1640472222" lon="7.08849166667">
        <ele>809.08667</ele>
        <time>2008-06-08T12:48:55Z</time>
      </trkpt>
      <trkpt lat="44.1596833333" lon="7.09185">
        <ele>785.534424</ele>
        <time>2008-06-08T12:51:29Z</time>
      </trkpt>
      <trkpt lat="44.1554111111" lon="7.09087222222">
        <ele>778.324463</ele>
        <time>2008-06-08T12:53:42Z</time>
      </trkpt>
      <trkpt lat="44.151025" lon="7.09508888889">
        <ele>761.501465</ele>
        <time>2008-06-08T12:56:27Z</time>
      </trkpt>
      <trkpt lat="44.1495472222" lon="7.09846388889">
        <ele>759.098145</ele>
        <time>2008-06-08T12:57:55Z</time>
      </trkpt>
      <trkpt lat="44.1467" lon="7.09703333333">
        <ele>750.927002</ele>
        <time>2008-06-08T12:59:28Z</time>
      </trkpt>
      <trkpt lat="44.1379833333" lon="7.10028333333">
        <ele>736.987793</ele>
        <time>2008-06-08T13:04:07Z</time>
      </trkpt>
      <trkpt lat="44.1323083333" lon="7.10090833333">
        <ele>715.358154</ele>
        <time>2008-06-08T13:07:03Z</time>
      </trkpt>
      <trkpt lat="44.1302388889" lon="7.10002222222">
        <ele>707.667725</ele>
        <time>2008-06-08T13:08:10Z</time>
      </trkpt>
      <trkpt lat="44.1248472222" lon="7.09303333333">
        <ele>681.711914</ele>
        <time>2008-06-08T13:11:57Z</time>
      </trkpt>
      <trkpt lat="44.1223861111" lon="7.09189444444">
        <ele>677.866699</ele>
        <time>2008-06-08T13:13:17Z</time>
      </trkpt>
      <trkpt lat="44.116725" lon="7.09238611111">
        <ele>670.656982</ele>
        <time>2008-06-08T13:16:12Z</time>
      </trkpt>
      <trkpt lat="44.1082444444" lon="7.10201944444">
        <ele>645.181885</ele>
        <time>2008-06-08T13:21:50Z</time>
      </trkpt>
      <trkpt lat="44.0986861111" lon="7.10368055556">
        <ele>615.861816</ele>
        <time>2008-06-08T13:26:48Z</time>
      </trkpt>
      <trkpt lat="44.0954611111" lon="7.10618055556">
        <ele>593.270752</ele>
        <time>2008-06-08T13:28:42Z</time>
      </trkpt>
      <trkpt lat="44.0918194444" lon="7.10725555556">
        <ele>573.563965</ele>
        <time>2008-06-08T13:30:37Z</time>
      </trkpt>
      <trkpt lat="44.088175" lon="7.107525">
        <ele>551.934082</ele>
        <time>2008-06-08T13:32:30Z</time>
      </trkpt>
      <trkpt lat="44.08365" lon="7.10509444444">
        <ele>520.210571</ele>
        <time>2008-06-08T13:34:59Z</time>
      </trkpt>
      <trkpt lat="44.0888805556" lon="7.10648888889">
        <ele>530.785156</ele>
        <time>2008-06-08T13:37:44Z</time>
      </trkpt>
      <trkpt lat="44.0859833333" lon="7.10366666667">
        <ele>561.06665</ele>
        <time>2008-06-08T13:39:33Z</time>
      </trkpt>
      <trkpt lat="44.0853194444" lon="7.10136944444">
        <ele>572.602539</ele>
        <time>2008-06-08T13:40:28Z</time>
      </trkpt>
      <trkpt lat="44.0887222222" lon="7.10313611111">
        <ele>615.381104</ele>
        <time>2008-06-08T13:42:20Z</time>
      </trkpt>
      <trkpt lat="44.0844" lon="7.09875">
        <ele>662.005127</ele>
        <time>2008-06-08T13:45:05Z</time>
      </trkpt>
      <trkpt lat="44.0865472222" lon="7.09357222222">
        <ele>706.225586</ele>
        <time>2008-06-08T13:47:18Z</time>
      </trkpt>
      <trkpt lat="44.0852138889" lon="7.08593888889">
        <ele>755.733643</ele>
        <time>2008-06-08T13:50:12Z</time>
      </trkpt>
      <trkpt lat="44.0897638889" lon="7.07550277778">
        <ele>833.600342</ele>
        <time>2008-06-08T13:54:43Z</time>
      </trkpt>
      <trkpt lat="44.0893" lon="7.070675">
        <ele>867.246582</ele>
        <time>2008-06-08T13:56:31Z</time>
      </trkpt>
      <trkpt lat="44.0903777778" lon="7.06494722222">
        <ele>905.699219</ele>
        <time>2008-06-08T13:58:42Z</time>
      </trkpt>
      <trkpt lat="44.094675" lon="7.05706388889">
        <ele>966.74292</ele>
        <time>2008-06-08T14:02:22Z</time>
      </trkpt>
      <trkpt lat="44.0967361111" lon="7.05621944444">
        <ele>985.969238</ele>
        <time>2008-06-08T14:03:28Z</time>
      </trkpt>
      <trkpt lat="44.0952138889" lon="7.05554722222">
        <ele>1000.869629</ele>
        <time>2008-06-08T14:04:18Z</time>
      </trkpt>
      <trkpt lat="44.0883444444" lon="7.06084166667">
        <ele>1069.604248</ele>
        <time>2008-06-08T14:08:20Z</time>
      </trkpt>
      <trkpt lat="44.0843" lon="7.05700833333">
        <ele>1112.863281</ele>
        <time>2008-06-08T14:10:51Z</time>
      </trkpt>
      <trkpt lat="44.089375" lon="7.05827222222">
        <ele>1161.890625</ele>
        <time>2008-06-08T14:13:31Z</time>
      </trkpt>
      <trkpt lat="44.0904666667" lon="7.05136666667">
        <ele>1209.47583</ele>
        <time>2008-06-08T14:16:07Z</time>
      </trkpt>
      <trkpt lat="44.0927777778" lon="7.0529">
        <ele>1238.31543</ele>
        <time>2008-06-08T14:17:27Z</time>
      </trkpt>
      <trkpt lat="44.0908805556" lon="7.04855">
        <ele>1270.038818</ele>
        <time>2008-06-08T14:19:19Z</time>
      </trkpt>
      <trkpt lat="44.0908277778" lon="7.04595">
        <ele>1286.861816</ele>
        <time>2008-06-08T14:20:17Z</time>
      </trkpt>
      <trkpt lat="44.091725" lon="7.04852222222">
        <ele>1312.817627</ele>
        <time>2008-06-08T14:21:21Z</time>
      </trkpt>
      <trkpt lat="44.0921333333" lon="7.04068333333">
        <ele>1354.154297</ele>
        <time>2008-06-08T14:24:15Z</time>
      </trkpt>
      <trkpt lat="44.0878805556" lon="7.04373055556">
        <ele>1411.833496</ele>
        <time>2008-06-08T14:26:43Z</time>
      </trkpt>
      <trkpt lat="44.0887027778" lon="7.03922222222">
        <ele>1440.672852</ele>
        <time>2008-06-08T14:28:26Z</time>
      </trkpt>
      <trkpt lat="44.0932777778" lon="7.03482777778">
        <ele>1495.468018</ele>
        <time>2008-06-08T14:31:18Z</time>
      </trkpt>
      <trkpt lat="44.0914638889" lon="7.03545277778">
        <ele>1511.329834</ele>
        <time>2008-06-08T14:32:15Z</time>
      </trkpt>
      <trkpt lat="44.0907472222" lon="7.03387777778">
        <ele>1524.78833</ele>
        <time>2008-06-08T14:32:57Z</time>
      </trkpt>
      <trkpt lat="44.0929277778" lon="7.03043055556">
        <ele>1556.511719</ele>
        <time>2008-06-08T14:34:39Z</time>
      </trkpt>
      <trkpt lat="44.0937222222" lon="7.02624166667">
        <ele>1590.638428</ele>
        <time>2008-06-08T14:36:15Z</time>
      </trkpt>
      <trkpt lat="44.0982194444" lon="7.02271666667">
        <ele>1642.069092</ele>
        <time>2008-06-08T14:38:54Z</time>
      </trkpt>
      <trkpt lat="44.0999222222" lon="7.02328333333">
        <ele>1657.930908</ele>
        <time>2008-06-08T14:39:48Z</time>
      </trkpt>
      <trkpt lat="44.1024916667" lon="7.02090555556">
        <ele>1636.781738</ele>
        <time>2008-06-08T14:41:23Z</time>
      </trkpt>
      <trkpt lat="44.097975" lon="7.016675">
        <ele>1608.903564</ele>
        <time>2008-06-08T14:44:12Z</time>
      </trkpt>
      <trkpt lat="44.0927333333" lon="7.003275">
        <ele>1591.119141</ele>
        <time>2008-06-08T14:49:50Z</time>
      </trkpt>
      <trkpt lat="44.0931416667" lon="7.00135555556">
        <ele>1584.87085</ele>
        <time>2008-06-08T14:50:34Z</time>
      </trkpt>
      <trkpt lat="44.0950166667" lon="7.00099444444">
        <ele>1579.583252</ele>
        <time>2008-06-08T14:51:33Z</time>
      </trkpt>
      <trkpt lat="44.1014472222" lon="7.00575">
        <ele>1558.915039</ele>
        <time>2008-06-08T14:55:18Z</time>
      </trkpt>
      <trkpt lat="44.0982" lon="6.99590833333">
        <ele>1539.208008</ele>
        <time>2008-06-08T14:59:18Z</time>
      </trkpt>
      <trkpt lat="44.10165" lon="6.99636388889">
        <ele>1509.887695</ele>
        <time>2008-06-08T15:01:05Z</time>
      </trkpt>
      <trkpt lat="44.1014805556" lon="6.992075">
        <ele>1472.877197</ele>
        <time>2008-06-08T15:02:40Z</time>
      </trkpt>
      <trkpt lat="44.1045916667" lon="6.98660833333">
        <ele>1436.347168</ele>
        <time>2008-06-08T15:05:15Z</time>
      </trkpt>
      <trkpt lat="44.0969305556" lon="6.98684166667">
        <ele>1431.059814</ele>
        <time>2008-06-08T15:09:12Z</time>
      </trkpt>
      <trkpt lat="44.0968416667" lon="6.98261111111">
        <ele>1458.937988</ele>
        <time>2008-06-08T15:10:45Z</time>
      </trkpt>
      <trkpt lat="44.0946305556" lon="6.97541388889">
        <ele>1501.236084</ele>
        <time>2008-06-08T15:13:39Z</time>
      </trkpt>
      <trkpt lat="44.0909583333" lon="6.97105555556">
        <ele>1539.688721</ele>
        <time>2008-06-08T15:16:08Z</time>
      </trkpt>
      <trkpt lat="44.0902583333" lon="6.96605277778">
        <ele>1545.937256</ele>
        <time>2008-06-08T15:18:01Z</time>
      </trkpt>
      <trkpt lat="44.086275" lon="6.96191944444">
        <ele>1535.843506</ele>
        <time>2008-06-08T15:20:35Z</time>
      </trkpt>
      <trkpt lat="44.0857833333" lon="6.95662222222">
        <ele>1529.114014</ele>
        <time>2008-06-08T15:22:33Z</time>
      </trkpt>
      <trkpt lat="44.0896333333" lon="6.95201666667">
        <ele>1538.246826</ele>
        <time>2008-06-08T15:25:10Z</time>
      </trkpt>
      <trkpt lat="44.0885833333" lon="6.95014722222">
        <ele>1551.705322</ele>
        <time>2008-06-08T15:26:03Z</time>
      </trkpt>
      <trkpt lat="44.089975" lon="6.94824444444">
        <ele>1565.163818</ele>
        <time>2008-06-08T15:27:03Z</time>
      </trkpt>
      <trkpt lat="44.0882611111" lon="6.94750555556">
        <ele>1577.660645</ele>
        <time>2008-06-08T15:27:58Z</time>
      </trkpt>
      <trkpt lat="44.0867583333" lon="6.94291111111">
        <ele>1601.213135</ele>
        <time>2008-06-08T15:29:50Z</time>
      </trkpt>
      <trkpt lat="44.0946527778" lon="6.93185833333">
        <ele>1660.334229</ele>
        <time>2008-06-08T15:35:36Z</time>
      </trkpt>
      <trkpt lat="44.093525" lon="6.93698333333">
        <ele>1676.676758</ele>
        <time>2008-06-08T15:37:35Z</time>
      </trkpt>
      <trkpt lat="44.0956416667" lon="6.93881666667">
        <ele>1652.643555</ele>
        <time>2008-06-08T15:38:52Z</time>
      </trkpt>
      <trkpt lat="44.0948166667" lon="6.93908611111">
        <ele>1633.897949</ele>
        <time>2008-06-08T15:39:18Z</time>
      </trkpt>
      <trkpt lat="44.0959472222" lon="6.93887222222">
        <ele>1652.643555</ele>
        <time>2008-06-08T15:39:54Z</time>
      </trkpt>
      <trkpt lat="44.0934916667" lon="6.93683055556">
        <ele>1680.04126</ele>
        <time>2008-06-08T15:41:22Z</time>
      </trkpt>
      <trkpt lat="44.0962694444" lon="6.92916111111">
        <ele>1667.543945</ele>
        <time>2008-06-08T15:44:32Z</time>
      </trkpt>
      <trkpt lat="44.0907388889" lon="6.924225">
        <ele>1665.621582</ele>
        <time>2008-06-08T15:47:55Z</time>
      </trkpt>
      <trkpt lat="44.0881027778" lon="6.91489444444">
        <ele>1634.378662</ele>
        <time>2008-06-08T15:51:38Z</time>
      </trkpt>
      <trkpt lat="44.0863694444" lon="6.91465833333">
        <ele>1618.516846</ele>
        <time>2008-06-08T15:52:31Z</time>
      </trkpt>
      <trkpt lat="44.0860805556" lon="6.91866111111">
        <ele>1581.986816</ele>
        <time>2008-06-08T15:54:01Z</time>
      </trkpt>
      <trkpt lat="44.0845277778" lon="6.91401944444">
        <ele>1555.550537</ele>
        <time>2008-06-08T15:55:54Z</time>
      </trkpt>
      <trkpt lat="44.0877111111" lon="6.9107">
        <ele>1514.694336</ele>
        <time>2008-06-08T15:57:57Z</time>
      </trkpt>
      <trkpt lat="44.0845055556" lon="6.90858333333">
        <ele>1482.970703</ele>
        <time>2008-06-08T15:59:47Z</time>
      </trkpt>
      <trkpt lat="44.0878666667" lon="6.90483888889">
        <ele>1424.330566</ele>
        <time>2008-06-08T16:02:00Z</time>
      </trkpt>
      <trkpt lat="44.0867138889" lon="6.90036388889">
        <ele>1393.087646</ele>
        <time>2008-06-08T16:03:45Z</time>
      </trkpt>
      <trkpt lat="44.0872083333" lon="6.89311388889">
        <ele>1355.596191</ele>
        <time>2008-06-08T16:06:27Z</time>
      </trkpt>
      <trkpt lat="44.0839361111" lon="6.89184444444">
        <ele>1330.121338</ele>
        <time>2008-06-08T16:08:12Z</time>
      </trkpt>
      <trkpt lat="44.0834388889" lon="6.88836388889">
        <ele>1302.24292</ele>
        <time>2008-06-08T16:09:31Z</time>
      </trkpt>
      <trkpt lat="44.0835111111" lon="6.89336944444">
        <ele>1270.519531</ele>
        <time>2008-06-08T16:11:22Z</time>
      </trkpt>
      <trkpt lat="44.0849944444" lon="6.89505277778">
        <ele>1253.696533</ele>
        <time>2008-06-08T16:12:21Z</time>
      </trkpt>
      <trkpt lat="44.0808472222" lon="6.89836111111">
        <ele>1210.437012</ele>
        <time>2008-06-08T16:14:48Z</time>
      </trkpt>
      <trkpt lat="44.0817833333" lon="6.893625">
        <ele>1179.194092</ele>
        <time>2008-06-08T16:16:37Z</time>
      </trkpt>
      <trkpt lat="44.0802972222" lon="6.886625">
        <ele>1132.089844</ele>
        <time>2008-06-08T16:19:19Z</time>
      </trkpt>
      <trkpt lat="44.0805333333" lon="6.88181666667">
        <ele>1099.885498</ele>
        <time>2008-06-08T16:21:06Z</time>
      </trkpt>
      <trkpt lat="44.0830138889" lon="6.87836944444">
        <ele>1063.835938</ele>
        <time>2008-06-08T16:22:54Z</time>
      </trkpt>
      <trkpt lat="44.085175" lon="6.87176666667">
        <ele>1021.538086</ele>
        <time>2008-06-08T16:25:35Z</time>
      </trkpt>
      <trkpt lat="44.0835638889" lon="6.86158333333">
        <ele>958.571777</ele>
        <time>2008-06-08T16:29:27Z</time>
      </trkpt>
      <trkpt lat="44.0862333333" lon="6.8587">
        <ele>931.654785</ele>
        <time>2008-06-08T16:31:11Z</time>
      </trkpt>
      <trkpt lat="44.0891083333" lon="6.85819444444">
        <ele>900.412109</ele>
        <time>2008-06-08T16:32:41Z</time>
      </trkpt>
      <trkpt lat="44.0877027778" lon="6.85647222222">
        <ele>887.914795</ele>
        <time>2008-06-08T16:33:39Z</time>
      </trkpt>
      <trkpt lat="44.0858416667" lon="6.85641944444">
        <ele>872.533691</ele>
        <time>2008-06-08T16:34:36Z</time>
      </trkpt>
      <trkpt lat="44.0846833333" lon="6.85825833333">
        <ele>855.22998</ele>
        <time>2008-06-08T16:35:30Z</time>
      </trkpt>
      <trkpt lat="44.0877083333" lon="6.85351944444">
        <ele>801.39624</ele>
        <time>2008-06-08T16:37:51Z</time>
      </trkpt>
      <trkpt lat="44.0767444444" lon="6.85779722222">
        <ele>776.401855</ele>
        <time>2008-06-08T16:43:43Z</time>
      </trkpt>
      <trkpt lat="44.0634611111" lon="6.85338333333">
        <ele>789.379639</ele>
        <time>2008-06-08T16:50:45Z</time>
      </trkpt>
      <trkpt lat="44.0626555556" lon="6.84859722222">
        <ele>782.169922</ele>
        <time>2008-06-08T16:52:34Z</time>
      </trkpt>
      <trkpt lat="44.0620916667" lon="6.85320833333">
        <ele>792.744385</ele>
        <time>2008-06-08T16:54:17Z</time>
      </trkpt>
      <trkpt lat="44.0603222222" lon="6.8544">
        <ele>796.589844</ele>
        <time>2008-06-08T16:55:18Z</time>
      </trkpt>
      <trkpt lat="44.05975" lon="6.85226111111">
        <ele>801.876953</ele>
        <time>2008-06-08T16:56:09Z</time>
      </trkpt>
      <trkpt lat="44.0580055556" lon="6.85248611111">
        <ele>811.009277</ele>
        <time>2008-06-08T16:57:03Z</time>
      </trkpt>
      <trkpt lat="44.0551777778" lon="6.85013055556">
        <ele>822.064453</ele>
        <time>2008-06-08T16:58:45Z</time>
      </trkpt>
      <trkpt lat="44.0553138889" lon="6.845275">
        <ele>830.23584</ele>
        <time>2008-06-08T17:00:33Z</time>
      </trkpt>
      <trkpt lat="44.0515916667" lon="6.84485">
        <ele>841.771484</ele>
        <time>2008-06-08T17:02:28Z</time>
      </trkpt>
      <trkpt lat="44.0496333333" lon="6.84225555556">
        <ele>851.384766</ele>
        <time>2008-06-08T17:03:51Z</time>
      </trkpt>
      <trkpt lat="44.045425" lon="6.84240555556">
        <ele>849.462158</ele>
        <time>2008-06-08T17:06:01Z</time>
      </trkpt>
      <trkpt lat="44.0441277778" lon="6.84000277778">
        <ele>842.252197</ele>
        <time>2008-06-08T17:07:08Z</time>
      </trkpt>
      <trkpt lat="44.0410138889" lon="6.83851388889">
        <ele>829.755127</ele>
        <time>2008-06-08T17:08:50Z</time>
      </trkpt>
      <trkpt lat="44.0421722222" lon="6.83241944444">
        <ele>800.915527</ele>
        <time>2008-06-08T17:11:10Z</time>
      </trkpt>
      <trkpt lat="44.0410138889" lon="6.83261111111">
        <ele>797.551025</ele>
        <time>2008-06-08T17:11:46Z</time>
      </trkpt>
      <trkpt lat="44.0401027778" lon="6.83475555556">
        <ele>791.782959</ele>
        <time>2008-06-08T17:12:41Z</time>
      </trkpt>
      <trkpt lat="44.0390611111" lon="6.83428888889">
        <ele>782.650635</ele>
        <time>2008-06-08T17:13:15Z</time>
      </trkpt>
      <trkpt lat="44.038775" lon="6.83173611111">
        <ele>775.44043</ele>
        <time>2008-06-08T17:14:12Z</time>
      </trkpt>
      <trkpt lat="44.0362944444" lon="6.82827777778">
        <ele>754.772217</ele>
        <time>2008-06-08T17:16:01Z</time>
      </trkpt>
      <trkpt lat="44.0315472222" lon="6.82498611111">
        <ele>729.297119</ele>
        <time>2008-06-08T17:18:45Z</time>
      </trkpt>
      <trkpt lat="44.0270666667" lon="6.81415833333">
        <ele>683.153809</ele>
        <time>2008-06-08T17:23:22Z</time>
      </trkpt>
      <trkpt lat="44.0210166667" lon="6.80864444444">
        <ele>661.043701</ele>
        <time>2008-06-08T17:27:06Z</time>
      </trkpt>
      <trkpt lat="44.017675" lon="6.80773888889">
        <ele>650.949707</ele>
        <time>2008-06-08T17:28:51Z</time>
      </trkpt>
      <trkpt lat="43.9917722222" lon="6.76789722222">
        <ele>587.983398</ele>
        <time>2008-06-08T17:48:44Z</time>
      </trkpt>
      <trkpt lat="43.9851138889" lon="6.76312222222">
        <ele>578.370361</ele>
        <time>2008-06-08T17:52:35Z</time>
      </trkpt>
      <trkpt lat="43.9812944444" lon="6.75808888889">
        <ele>566.35376</ele>
        <time>2008-06-08T17:55:18Z</time>
      </trkpt>
      <trkpt lat="43.9740694444" lon="6.75924722222">
        <ele>550.972656</ele>
        <time>2008-06-08T17:59:03Z</time>
      </trkpt>
      <trkpt lat="43.9720805556" lon="6.75849444444">
        <ele>547.127441</ele>
        <time>2008-06-08T18:00:06Z</time>
      </trkpt>
      <trkpt lat="43.9707055556" lon="6.75985277778">
        <ele>550.492188</ele>
        <time>2008-06-08T18:00:58Z</time>
      </trkpt>
      <trkpt lat="43.9679388889" lon="6.75675833333">
        <ele>551.453369</ele>
        <time>2008-06-08T18:02:48Z</time>
      </trkpt>
      <trkpt lat="43.9659611111" lon="6.74666666667">
        <ele>566.35376</ele>
        <time>2008-06-08T18:06:41Z</time>
      </trkpt>
      <trkpt lat="43.9617805556" lon="6.7376">
        <ele>584.618896</ele>
        <time>2008-06-08T18:10:40Z</time>
      </trkpt>
      <trkpt lat="43.9589444444" lon="6.73465555556">
        <ele>586.541504</ele>
        <time>2008-06-08T18:12:29Z</time>
      </trkpt>
      <trkpt lat="43.9597861111" lon="6.71659166667">
        <ele>601.441895</ele>
        <time>2008-06-08T18:19:12Z</time>
      </trkpt>
      <trkpt lat="43.9575944444" lon="6.70151944444">
        <ele>616.822998</ele>
        <time>2008-06-08T18:24:54Z</time>
      </trkpt>
      <trkpt lat="43.957625" lon="6.69115833333">
        <ele>653.353271</ele>
        <time>2008-06-08T18:28:44Z</time>
      </trkpt>
      <trkpt lat="43.9547083333" lon="6.68471666667">
        <ele>669.215088</ele>
        <time>2008-06-08T18:31:33Z</time>
      </trkpt>
      <trkpt lat="43.9529111111" lon="6.68488333333">
        <ele>684.596191</ele>
        <time>2008-06-08T18:32:29Z</time>
      </trkpt>
      <trkpt lat="43.9484527778" lon="6.68883611111">
        <ele>706.225586</ele>
        <time>2008-06-08T18:35:12Z</time>
      </trkpt>
      <trkpt lat="43.943125" lon="6.69025277778">
        <ele>735.06543</ele>
        <time>2008-06-08T18:38:00Z</time>
      </trkpt>
      <trkpt lat="43.9384916667" lon="6.68723055556">
        <ele>764.866211</ele>
        <time>2008-06-08T18:40:38Z</time>
      </trkpt>
      <trkpt lat="43.9366916667" lon="6.67833888889">
        <ele>800.435059</ele>
        <time>2008-06-08T18:44:03Z</time>
      </trkpt>
      <trkpt lat="43.9321222222" lon="6.6681">
        <ele>851.865479</ele>
        <time>2008-06-08T18:48:31Z</time>
      </trkpt>
      <trkpt lat="43.9316861111" lon="6.65913888889">
        <ele>879.743652</ele>
        <time>2008-06-08T18:51:51Z</time>
      </trkpt>
      <trkpt lat="43.9306194444" lon="6.65733055556">
        <ele>889.356689</ele>
        <time>2008-06-08T18:52:43Z</time>
      </trkpt>
      <trkpt lat="43.9331333333" lon="6.65043611111">
        <ele>881.185791</ele>
        <time>2008-06-08T18:55:35Z</time>
      </trkpt>
      <trkpt lat="43.9308638889" lon="6.64272222222">
        <ele>916.754395</ele>
        <time>2008-06-08T18:58:40Z</time>
      </trkpt>
      <trkpt lat="43.9331972222" lon="6.63870277778">
        <ele>940.787354</ele>
        <time>2008-06-08T19:00:35Z</time>
      </trkpt>
      <trkpt lat="43.9363972222" lon="6.63626388889">
        <ele>960.975098</ele>
        <time>2008-06-08T19:02:28Z</time>
      </trkpt>
      <trkpt lat="43.9336583333" lon="6.63349722222">
        <ele>982.124023</ele>
        <time>2008-06-08T19:04:13Z</time>
      </trkpt>
      <trkpt lat="43.9318333333" lon="6.62619166667">
        <ele>1013.366943</ele>
        <time>2008-06-08T19:07:05Z</time>
      </trkpt>
      <trkpt lat="43.927" lon="6.6186">
        <ele>1058.068359</ele>
        <time>2008-06-08T19:10:50Z</time>
      </trkpt>
      <trkpt lat="43.9226027778" lon="6.61430833333">
        <ele>1086.427246</ele>
        <time>2008-06-08T19:13:36Z</time>
      </trkpt>
      <trkpt lat="43.9191555556" lon="6.61348611111">
        <ele>1104.692139</ele>
        <time>2008-06-08T19:15:24Z</time>
      </trkpt>
      <trkpt lat="43.9158694444" lon="6.607425">
        <ele>1075.852539</ele>
        <time>2008-06-08T19:18:13Z</time>
      </trkpt>
      <trkpt lat="43.9126027778" lon="6.60550555556">
        <ele>1061.913574</ele>
        <time>2008-06-08T19:20:02Z</time>
      </trkpt>
      <trkpt lat="43.9124638889" lon="6.59538333333">
        <ele>1045.571045</ele>
        <time>2008-06-08T19:23:48Z</time>
      </trkpt>
      <trkpt lat="43.9143555556" lon="6.58267777778">
        <ele>1010.002197</ele>
        <time>2008-06-08T19:28:36Z</time>
      </trkpt>
      <trkpt lat="43.91385" lon="6.56979444444">
        <ele>990.29541</ele>
        <time>2008-06-08T19:33:24Z</time>
      </trkpt>
      <trkpt lat="43.9150638889" lon="6.56496388889">
        <ele>980.201416</ele>
        <time>2008-06-08T19:35:17Z</time>
      </trkpt>
      <trkpt lat="43.913875" lon="6.54545833333">
        <ele>917.235107</ele>
        <time>2008-06-08T19:42:33Z</time>
      </trkpt>
      <trkpt lat="43.9126111111" lon="6.54885">
        <ele>900.892578</ele>
        <time>2008-06-08T19:43:58Z</time>
      </trkpt>
      <trkpt lat="43.9131138889" lon="6.55098055556">
        <ele>894.163574</ele>
        <time>2008-06-08T19:44:48Z</time>
      </trkpt>
      <trkpt lat="43.9121055556" lon="6.55161666667">
        <ele>893.682861</ele>
        <time>2008-06-08T19:45:22Z</time>
      </trkpt>
      <trkpt lat="43.9105722222" lon="6.55027222222">
        <ele>897.047363</ele>
        <time>2008-06-08T19:46:18Z</time>
      </trkpt>
      <trkpt lat="43.909075" lon="6.54578611111">
        <ele>912.428467</ele>
        <time>2008-06-08T19:48:08Z</time>
      </trkpt>
      <trkpt lat="43.9060916667" lon="6.5429">
        <ele>912.90918</ele>
        <time>2008-06-08T19:50:01Z</time>
      </trkpt>
      <trkpt lat="43.9027638889" lon="6.54150277778">
        <ele>908.102783</ele>
        <time>2008-06-08T19:51:48Z</time>
      </trkpt>
      <trkpt lat="43.9015555556" lon="6.54208611111">
        <ele>903.776611</ele>
        <time>2008-06-08T19:52:27Z</time>
      </trkpt>
      <trkpt lat="43.8989305556" lon="6.53919444444">
        <ele>898.489258</ele>
        <time>2008-06-08T19:54:11Z</time>
      </trkpt>
      <trkpt lat="43.8956277778" lon="6.53791388889">
        <ele>890.798584</ele>
        <time>2008-06-08T19:55:57Z</time>
      </trkpt>
      <trkpt lat="43.89575" lon="6.54046111111">
        <ele>885.031006</ele>
        <time>2008-06-08T19:56:54Z</time>
      </trkpt>
      <trkpt lat="43.8917611111" lon="6.53540833333">
        <ele>884.550293</ele>
        <time>2008-06-08T19:59:41Z</time>
      </trkpt>
      <trkpt lat="43.8905" lon="6.53753333333">
        <ele>883.108154</ele>
        <time>2008-06-08T20:00:42Z</time>
      </trkpt>
      <trkpt lat="43.8858861111" lon="6.53730833333">
        <ele>880.705078</ele>
        <time>2008-06-08T20:03:04Z</time>
      </trkpt>
      <trkpt lat="43.8832361111" lon="6.54059444444">
        <ele>880.224365</ele>
        <time>2008-06-08T20:04:54Z</time>
      </trkpt>
      <trkpt lat="43.880525" lon="6.54158611111">
        <ele>879.262939</ele>
        <time>2008-06-08T20:06:21Z</time>
      </trkpt>
      <trkpt lat="43.8784722222" lon="6.54105">
        <ele>877.821045</ele>
        <time>2008-06-08T20:07:25Z</time>
      </trkpt>
      <trkpt lat="43.8781833333" lon="6.53673055556">
        <ele>880.705078</ele>
        <time>2008-06-08T20:09:02Z</time>
      </trkpt>
      <trkpt lat="43.8738888889" lon="6.52288333333">
        <ele>883.588867</ele>
        <time>2008-06-08T20:14:37Z</time>
      </trkpt>
      <trkpt lat="43.8736555556" lon="6.51493888889">
        <ele>888.876221</ele>
        <time>2008-06-08T20:17:35Z</time>
      </trkpt>
      <trkpt lat="43.8693916667" lon="6.51005">
        <ele>883.108154</ele>
        <time>2008-06-08T20:20:25Z</time>
      </trkpt>
      <trkpt lat="43.8678277778" lon="6.503075">
        <ele>857.633301</ele>
        <time>2008-06-08T20:23:08Z</time>
      </trkpt>
      <trkpt lat="43.8668416667" lon="6.50786666667">
        <ele>840.810059</ele>
        <time>2008-06-08T20:24:59Z</time>
      </trkpt>
      <trkpt lat="43.8621722222" lon="6.51239444444">
        <ele>814.854736</ele>
        <time>2008-06-08T20:27:55Z</time>
      </trkpt>
      <trkpt lat="43.8603861111" lon="6.51254166667">
        <ele>805.722168</ele>
        <time>2008-06-08T20:28:50Z</time>
      </trkpt>
      <trkpt lat="43.8577666667" lon="6.50946388889">
        <ele>784.092529</ele>
        <time>2008-06-08T20:30:36Z</time>
      </trkpt>
      <trkpt lat="43.8544527778" lon="6.50803333333">
        <ele>764.385498</ele>
        <time>2008-06-08T20:32:24Z</time>
      </trkpt>
      <trkpt lat="43.8512777778" lon="6.50791666667">
        <ele>748.043213</ele>
        <time>2008-06-08T20:34:02Z</time>
      </trkpt>
      <trkpt lat="43.84695" lon="6.51218333333">
        <ele>726.894043</ele>
        <time>2008-06-08T20:36:46Z</time>
      </trkpt>
      <trkpt lat="43.8461416667" lon="6.51093333333">
        <ele>727.374756</ele>
        <time>2008-06-08T20:37:23Z</time>
      </trkpt>
      <trkpt lat="43.8460138889" lon="6.51330833333">
        <ele>727.374756</ele>
        <time>2008-06-08T20:38:16Z</time>
      </trkpt>
      <trkpt lat="43.8488916667" lon="6.50915">
        <ele>737.949219</ele>
        <time>2008-06-08T20:40:25Z</time>
      </trkpt>
      <trkpt lat="43.7863972222" lon="6.44343888889">
        <ele>724.971436</ele>
        <time>2008-06-08T21:20:47Z</time>
      </trkpt>
      <trkpt lat="43.7854833333" lon="6.44531111111">
        <ele>730.739258</ele>
        <time>2008-06-08T21:21:38Z</time>
      </trkpt>
      <trkpt lat="43.7836805556" lon="6.44573333333">
        <ele>731.700439</ele>
        <time>2008-06-08T21:22:34Z</time>
      </trkpt>
      <trkpt lat="43.7789138889" lon="6.44446944444">
        <ele>718.242188</ele>
        <time>2008-06-08T21:25:04Z</time>
      </trkpt>
      <trkpt lat="43.7767361111" lon="6.44580277778">
        <ele>714.877441</ele>
        <time>2008-06-08T21:26:18Z</time>
      </trkpt>
      <trkpt lat="43.7763666667" lon="6.44808055556">
        <ele>699.015625</ele>
        <time>2008-06-08T21:27:10Z</time>
      </trkpt>
      <trkpt lat="43.7747277778" lon="6.44768611111">
        <ele>696.612549</ele>
        <time>2008-06-08T21:28:01Z</time>
      </trkpt>
      <trkpt lat="43.7720777778" lon="6.44908333333">
        <ele>703.341797</ele>
        <time>2008-06-08T21:29:29Z</time>
      </trkpt>
      <trkpt lat="43.7684722222" lon="6.44776944444">
        <ele>716.31958</ele>
        <time>2008-06-08T21:31:24Z</time>
      </trkpt>
      <trkpt lat="43.7632888889" lon="6.45066944444">
        <ele>723.048828</ele>
        <time>2008-06-08T21:34:17Z</time>
      </trkpt>
      <trkpt lat="43.7600888889" lon="6.45709444444">
        <ele>727.855225</ele>
        <time>2008-06-08T21:37:11Z</time>
      </trkpt>
      <trkpt lat="43.742225" lon="6.48058055556">
        <ele>750.446533</ele>
        <time>2008-06-08T21:49:52Z</time>
      </trkpt>
      <trkpt lat="43.7406222222" lon="6.48827222222">
        <ele>767.75</ele>
        <time>2008-06-08T21:52:50Z</time>
      </trkpt>
      <trkpt lat="43.7425138889" lon="6.49837777778">
        <ele>760.540039</ele>
        <time>2008-06-08T21:56:43Z</time>
      </trkpt>
      <trkpt lat="43.741175" lon="6.49937222222">
        <ele>768.230713</ele>
        <time>2008-06-08T21:57:30Z</time>
      </trkpt>
      <trkpt lat="43.7393" lon="6.49877777778">
        <ele>779.285645</ele>
        <time>2008-06-08T21:58:30Z</time>
      </trkpt>
      <trkpt lat="43.7376583333" lon="6.50033611111">
        <ele>791.782959</ele>
        <time>2008-06-08T21:59:31Z</time>
      </trkpt>
      <trkpt lat="43.7366888889" lon="6.50183333333">
        <ele>809.567383</ele>
        <time>2008-06-08T22:00:16Z</time>
      </trkpt>
      <trkpt lat="43.7369416667" lon="6.50412777778">
        <ele>817.738525</ele>
        <time>2008-06-08T22:01:08Z</time>
      </trkpt>
      <trkpt lat="43.7321194444" lon="6.50008333333">
        <ele>851.384766</ele>
        <time>2008-06-08T22:04:02Z</time>
      </trkpt>
      <trkpt lat="43.7301638889" lon="6.50012222222">
        <ele>861.47876</ele>
        <time>2008-06-08T22:05:02Z</time>
      </trkpt>
      <trkpt lat="43.7241944444" lon="6.50563055556">
        <ele>903.776611</ele>
        <time>2008-06-08T22:08:44Z</time>
      </trkpt>
      <trkpt lat="43.7213222222" lon="6.50316944444">
        <ele>910.986572</ele>
        <time>2008-06-08T22:10:28Z</time>
      </trkpt>
      <trkpt lat="43.7210888889" lon="6.50110555556">
        <ele>913.389893</ele>
        <time>2008-06-08T22:11:15Z</time>
      </trkpt>
      <trkpt lat="43.719575" lon="6.50272222222">
        <ele>921.080322</ele>
        <time>2008-06-08T22:12:14Z</time>
      </trkpt>
      <trkpt lat="43.7141" lon="6.50348333333">
        <ele>909.544678</ele>
        <time>2008-06-08T22:15:04Z</time>
      </trkpt>
      <trkpt lat="43.7111083333" lon="6.50631666667">
        <ele>897.047363</ele>
        <time>2008-06-08T22:16:56Z</time>
      </trkpt>
      <trkpt lat="43.7131972222" lon="6.48970555556">
        <ele>924.925781</ele>
        <time>2008-06-08T22:23:12Z</time>
      </trkpt>
      <trkpt lat="43.7151083333" lon="6.482975">
        <ele>948.477783</ele>
        <time>2008-06-08T22:25:54Z</time>
      </trkpt>
      <trkpt lat="43.7198944444" lon="6.47950833333">
        <ele>970.107422</ele>
        <time>2008-06-08T22:28:41Z</time>
      </trkpt>
      <trkpt lat="43.7220083333" lon="6.47512222222">
        <ele>980.201416</ele>
        <time>2008-06-08T22:30:38Z</time>
      </trkpt>
      <trkpt lat="43.7234861111" lon="6.46764722222">
        <ele>995.101807</ele>
        <time>2008-06-08T22:33:31Z</time>
      </trkpt>
      <trkpt lat="43.7251277778" lon="6.46710833333">
        <ele>994.621094</ele>
        <time>2008-06-08T22:34:24Z</time>
      </trkpt>
      <trkpt lat="43.7278666667" lon="6.46415555556">
        <ele>993.179199</ele>
        <time>2008-06-08T22:36:11Z</time>
      </trkpt>
      <trkpt lat="43.7309888889" lon="6.452125">
        <ele>985.969238</ele>
        <time>2008-06-08T22:40:56Z</time>
      </trkpt>
      <trkpt lat="43.7370027778" lon="6.43633055556">
        <ele>980.682129</ele>
        <time>2008-06-08T22:47:35Z</time>
      </trkpt>
      <trkpt lat="43.7362666667" lon="6.43400555556">
        <ele>979.23999</ele>
        <time>2008-06-08T22:48:31Z</time>
      </trkpt>
      <trkpt lat="43.7371833333" lon="6.43174722222">
        <ele>979.720703</ele>
        <time>2008-06-08T22:49:29Z</time>
      </trkpt>
      <trkpt lat="43.7388333333" lon="6.43026944444">
        <ele>981.643311</ele>
        <time>2008-06-08T22:50:30Z</time>
      </trkpt>
      <trkpt lat="43.7421666667" lon="6.42393611111">
        <ele>993.179199</ele>
        <time>2008-06-08T22:53:25Z</time>
      </trkpt>
      <trkpt lat="43.7469083333" lon="6.41965277778">
        <ele>1003.753662</ele>
        <time>2008-06-08T22:56:20Z</time>
      </trkpt>
      <trkpt lat="43.748625" lon="6.41882222222">
        <ele>1002.792236</ele>
        <time>2008-06-08T22:57:16Z</time>
      </trkpt>
      <trkpt lat="43.7503777778" lon="6.41927777778">
        <ele>1004.715088</ele>
        <time>2008-06-08T22:58:11Z</time>
      </trkpt>
      <trkpt lat="43.7518722222" lon="6.41784444444">
        <ele>1007.118408</ele>
        <time>2008-06-08T22:59:07Z</time>
      </trkpt>
      <trkpt lat="43.7513694444" lon="6.41543888889">
        <ele>1010.48291</ele>
        <time>2008-06-08T23:00:03Z</time>
      </trkpt>
      <trkpt lat="43.7531916667" lon="6.40319722222">
        <ele>975.394775</ele>
        <time>2008-06-08T23:04:42Z</time>
      </trkpt>
      <trkpt lat="43.7471916667" lon="6.39343333333">
        <ele>906.179688</ele>
        <time>2008-06-08T23:09:28Z</time>
      </trkpt>
      <trkpt lat="43.7458138889" lon="6.39188333333">
        <ele>888.876221</ele>
        <time>2008-06-08T23:10:22Z</time>
      </trkpt>
      <trkpt lat="43.7427361111" lon="6.39111111111">
        <ele>859.555908</ele>
        <time>2008-06-08T23:11:59Z</time>
      </trkpt>
      <trkpt lat="43.7419722222" lon="6.38191111111">
        <ele>809.567383</ele>
        <time>2008-06-08T23:15:26Z</time>
      </trkpt>
      <trkpt lat="43.7399833333" lon="6.38186944444">
        <ele>749.96582</ele>
        <time>2008-06-08T23:16:27Z</time>
      </trkpt>
      <trkpt lat="43.7327777778" lon="6.38732222222">
        <ele>749.004395</ele>
        <time>2008-06-08T23:20:41Z</time>
      </trkpt>
      <trkpt lat="43.7326944444" lon="6.37716666667">
        <ele>790.821533</ele>
        <time>2008-06-08T23:24:27Z</time>
      </trkpt>
      <trkpt lat="43.7376" lon="6.37651666667">
        <ele>836.964844</ele>
        <time>2008-06-08T23:27:00Z</time>
      </trkpt>
      <trkpt lat="43.740275" lon="6.37337777778">
        <ele>870.130371</ele>
        <time>2008-06-08T23:28:48Z</time>
      </trkpt>
      <trkpt lat="43.7380777778" lon="6.37055833333">
        <ele>866.285156</ele>
        <time>2008-06-08T23:30:21Z</time>
      </trkpt>
      <trkpt lat="43.7328361111" lon="6.37250277778">
        <ele>873.014404</ele>
        <time>2008-06-08T23:33:08Z</time>
      </trkpt>
      <trkpt lat="43.7353805556" lon="6.36764166667">
        <ele>910.505859</ele>
        <time>2008-06-08T23:35:22Z</time>
      </trkpt>
      <trkpt lat="43.7339805556" lon="6.36350555556">
        <ele>925.40625</ele>
        <time>2008-06-08T23:37:04Z</time>
      </trkpt>
      <trkpt lat="43.7284916667" lon="6.36453055556">
        <ele>896.566895</ele>
        <time>2008-06-08T23:39:55Z</time>
      </trkpt>
      <trkpt lat="43.7278944444" lon="6.36388611111">
        <ele>885.992188</ele>
        <time>2008-06-08T23:40:19Z</time>
      </trkpt>
      <trkpt lat="43.730225" lon="6.35964444444">
        <ele>864.843262</ele>
        <time>2008-06-08T23:42:18Z</time>
      </trkpt>
      <trkpt lat="43.7309527778" lon="6.354825">
        <ele>846.097656</ele>
        <time>2008-06-08T23:44:07Z</time>
      </trkpt>
      <trkpt lat="43.7355305556" lon="6.35029444444">
        <ele>824.948486</ele>
        <time>2008-06-08T23:47:01Z</time>
      </trkpt>
      <trkpt lat="43.7391055556" lon="6.34132777778">
        <ele>800.915527</ele>
        <time>2008-06-08T23:50:50Z</time>
      </trkpt>
      <trkpt lat="43.74085" lon="6.34091388889">
        <ele>803.799561</ele>
        <time>2008-06-08T23:51:45Z</time>
      </trkpt>
      <trkpt lat="43.7415888889" lon="6.33956666667">
        <ele>798.99292</ele>
        <time>2008-06-08T23:52:22Z</time>
      </trkpt>
      <trkpt lat="43.7452222222" lon="6.32345555556">
        <ele>842.252197</ele>
        <time>2008-06-08T23:58:39Z</time>
      </trkpt>
      <trkpt lat="43.7512638889" lon="6.32033888889">
        <ele>829.274414</ele>
        <time>2008-06-09T00:01:58Z</time>
      </trkpt>
      <trkpt lat="43.7524583333" lon="6.31338888889">
        <ele>873.014404</ele>
        <time>2008-06-09T00:04:37Z</time>
      </trkpt>
      <trkpt lat="43.7538944444" lon="6.31207222222">
        <ele>885.992188</ele>
        <time>2008-06-09T00:05:31Z</time>
      </trkpt>
      <trkpt lat="43.7541916667" lon="6.30691944444">
        <ele>911.947998</ele>
        <time>2008-06-09T00:07:26Z</time>
      </trkpt>
      <trkpt lat="43.7556194444" lon="6.30226944444">
        <ele>940.306885</ele>
        <time>2008-06-09T00:09:19Z</time>
      </trkpt>
      <trkpt lat="43.7555138889" lon="6.30170833333">
        <ele>947.997314</ele>
        <time>2008-06-09T00:09:32Z</time>
      </trkpt>
      <trkpt lat="43.7539777778" lon="6.30307222222">
        <ele>951.842529</ele>
        <time>2008-06-09T00:10:28Z</time>
      </trkpt>
      <trkpt lat="43.7560777778" lon="6.298875">
        <ele>984.046631</ele>
        <time>2008-06-09T00:12:22Z</time>
      </trkpt>
      <trkpt lat="43.7561694444" lon="6.29656111111">
        <ele>999.427734</ele>
        <time>2008-06-09T00:13:14Z</time>
      </trkpt>
      <trkpt lat="43.7589138889" lon="6.29358333333">
        <ele>1024.902832</ele>
        <time>2008-06-09T00:15:01Z</time>
      </trkpt>
      <trkpt lat="43.7577833333" lon="6.29161388889">
        <ele>1037.880615</ele>
        <time>2008-06-09T00:15:57Z</time>
      </trkpt>
      <trkpt lat="43.7593027778" lon="6.28730833333">
        <ele>1058.548828</ele>
        <time>2008-06-09T00:17:44Z</time>
      </trkpt>
      <trkpt lat="43.7612194444" lon="6.28335277778">
        <ele>1087.388428</ele>
        <time>2008-06-09T00:19:31Z</time>
      </trkpt>
      <trkpt lat="43.7643666667" lon="6.28069444444">
        <ele>1118.631348</ele>
        <time>2008-06-09T00:21:24Z</time>
      </trkpt>
      <trkpt lat="43.7675916667" lon="6.27475277778">
        <ele>1166.216553</ele>
        <time>2008-06-09T00:24:10Z</time>
      </trkpt>
      <trkpt lat="43.7661583333" lon="6.27388333333">
        <ele>1182.559082</ele>
        <time>2008-06-09T00:24:59Z</time>
      </trkpt>
      <trkpt lat="43.7640694444" lon="6.27011388889">
        <ele>1179.674805</ele>
        <time>2008-06-09T00:26:45Z</time>
      </trkpt>
      <trkpt lat="43.7641083333" lon="6.26791666667">
        <ele>1161.890625</ele>
        <time>2008-06-09T00:27:34Z</time>
      </trkpt>
      <trkpt lat="43.7650666667" lon="6.26584444444">
        <ele>1152.277344</ele>
        <time>2008-06-09T00:28:29Z</time>
      </trkpt>
      <trkpt lat="43.7666583333" lon="6.264775">
        <ele>1137.857666</ele>
        <time>2008-06-09T00:29:23Z</time>
      </trkpt>
      <trkpt lat="43.7672222222" lon="6.26244166667">
        <ele>1123.918457</ele>
        <time>2008-06-09T00:30:18Z</time>
      </trkpt>
      <trkpt lat="43.7705444444" lon="6.26069722222">
        <ele>1092.195068</ele>
        <time>2008-06-09T00:32:08Z</time>
      </trkpt>
      <trkpt lat="43.7718611111" lon="6.25905">
        <ele>1076.813965</ele>
        <time>2008-06-09T00:33:03Z</time>
      </trkpt>
      <trkpt lat="43.7707472222" lon="6.25671666667">
        <ele>1059.510254</ele>
        <time>2008-06-09T00:34:05Z</time>
      </trkpt>
      <trkpt lat="43.7734055556" lon="6.25748611111">
        <ele>1026.344727</ele>
        <time>2008-06-09T00:35:29Z</time>
      </trkpt>
      <trkpt lat="43.7726916667" lon="6.25695833333">
        <ele>1012.405518</ele>
        <time>2008-06-09T00:35:54Z</time>
      </trkpt>
      <trkpt lat="43.77415" lon="6.25638888889">
        <ele>997.024414</ele>
        <time>2008-06-09T00:36:41Z</time>
      </trkpt>
      <trkpt lat="43.775475" lon="6.26003611111">
        <ele>967.223633</ele>
        <time>2008-06-09T00:38:12Z</time>
      </trkpt>
      <trkpt lat="43.7774" lon="6.25705">
        <ele>938.864746</ele>
        <time>2008-06-09T00:39:41Z</time>
      </trkpt>
      <trkpt lat="43.7756916667" lon="6.25789444444">
        <ele>925.886963</ele>
        <time>2008-06-09T00:40:37Z</time>
      </trkpt>
      <trkpt lat="43.775125" lon="6.25543333333">
        <ele>910.025146</ele>
        <time>2008-06-09T00:41:35Z</time>
      </trkpt>
      <trkpt lat="43.7771694444" lon="6.24845">
        <ele>860.036621</ele>
        <time>2008-06-09T00:44:23Z</time>
      </trkpt>
      <trkpt lat="43.7756916667" lon="6.24435277778">
        <ele>828.793945</ele>
        <time>2008-06-09T00:46:05Z</time>
      </trkpt>
      <trkpt lat="43.7720916667" lon="6.24365833333">
        <ele>797.070313</ele>
        <time>2008-06-09T00:47:57Z</time>
      </trkpt>
      <trkpt lat="43.7756166667" lon="6.24268888889">
        <ele>780.247314</ele>
        <time>2008-06-09T00:49:48Z</time>
      </trkpt>
      <trkpt lat="43.7742444444" lon="6.23880277778">
        <ele>758.136963</ele>
        <time>2008-06-09T00:51:24Z</time>
      </trkpt>
      <trkpt lat="43.7716527778" lon="6.238375">
        <ele>736.987793</ele>
        <time>2008-06-09T00:52:45Z</time>
      </trkpt>
      <trkpt lat="43.7719694444" lon="6.23617222222">
        <ele>724.971436</ele>
        <time>2008-06-09T00:53:35Z</time>
      </trkpt>
      <trkpt lat="43.7736" lon="6.23565555556">
        <ele>713.435547</ele>
        <time>2008-06-09T00:54:27Z</time>
      </trkpt>
      <trkpt lat="43.7749805556" lon="6.23692222222">
        <ele>704.783691</ele>
        <time>2008-06-09T00:55:18Z</time>
      </trkpt>
      <trkpt lat="43.7733694444" lon="6.23245833333">
        <ele>673.541016</ele>
        <time>2008-06-09T00:57:09Z</time>
      </trkpt>
      <trkpt lat="43.7749722222" lon="6.23343055556">
        <ele>664.408203</ele>
        <time>2008-06-09T00:58:03Z</time>
      </trkpt>
      <trkpt lat="43.7823388889" lon="6.23181666667">
        <ele>609.132568</ele>
        <time>2008-06-09T01:01:54Z</time>
      </trkpt>
      <trkpt lat="43.7840222222" lon="6.23258888889">
        <ele>599.519287</ele>
        <time>2008-06-09T01:02:49Z</time>
      </trkpt>
      <trkpt lat="43.7857944444" lon="6.23213888889">
        <ele>590.867432</ele>
        <time>2008-06-09T01:03:44Z</time>
      </trkpt>
      <trkpt lat="43.7845222222" lon="6.23544444444">
        <ele>579.331543</ele>
        <time>2008-06-09T01:05:08Z</time>
      </trkpt>
      <trkpt lat="43.786075" lon="6.23653611111">
        <ele>570.679688</ele>
        <time>2008-06-09T01:06:02Z</time>
      </trkpt>
      <trkpt lat="43.7944277778" lon="6.23384166667">
        <ele>523.575195</ele>
        <time>2008-06-09T01:10:26Z</time>
      </trkpt>
      <trkpt lat="43.7929666667" lon="6.23197777778">
        <ele>500.50354</ele>
        <time>2008-06-09T01:11:28Z</time>
      </trkpt>
      <trkpt lat="43.7948972222" lon="6.23226111111">
        <ele>499.542236</ele>
        <time>2008-06-09T01:12:28Z</time>
      </trkpt>
      <trkpt lat="43.7958777778" lon="6.23410277778">
        <ele>499.061523</ele>
        <time>2008-06-09T01:13:19Z</time>
      </trkpt>
      <trkpt lat="43.79555" lon="6.23669722222">
        <ele>496.177734</ele>
        <time>2008-06-09T01:14:18Z</time>
      </trkpt>
      <trkpt lat="43.7971083333" lon="6.23791666667">
        <ele>497.138916</ele>
        <time>2008-06-09T01:15:13Z</time>
      </trkpt>
      <trkpt lat="43.7969138889" lon="6.24289722222">
        <ele>504.348877</ele>
        <time>2008-06-09T01:17:04Z</time>
      </trkpt>
      <trkpt lat="43.8022111111" lon="6.24988611111">
        <ele>495.696899</ele>
        <time>2008-06-09T01:20:50Z</time>
      </trkpt>
      <trkpt lat="43.8040722222" lon="6.24593888889">
        <ele>495.696899</ele>
        <time>2008-06-09T01:22:35Z</time>
      </trkpt>
      <trkpt lat="43.8037027778" lon="6.233675">
        <ele>533.188354</ele>
        <time>2008-06-09T01:27:09Z</time>
      </trkpt>
      <trkpt lat="43.8074388889" lon="6.23479722222">
        <ele>528.381836</ele>
        <time>2008-06-09T01:29:07Z</time>
      </trkpt>
      <trkpt lat="43.8086111111" lon="6.23335">
        <ele>518.287842</ele>
        <time>2008-06-09T01:29:55Z</time>
      </trkpt>
      <trkpt lat="43.8081388889" lon="6.23084166667">
        <ele>506.271484</ele>
        <time>2008-06-09T01:30:53Z</time>
      </trkpt>
      <trkpt lat="43.8089833333" lon="6.22854166667">
        <ele>495.216187</ele>
        <time>2008-06-09T01:31:51Z</time>
      </trkpt>
      <trkpt lat="43.8127222222" lon="6.22673888889">
        <ele>492.332397</ele>
        <time>2008-06-09T01:33:53Z</time>
      </trkpt>
      <trkpt lat="43.8204666667" lon="6.22639444444">
        <ele>513.962036</ele>
        <time>2008-06-09T01:37:52Z</time>
      </trkpt>
      <trkpt lat="43.8239138889" lon="6.22439722222">
        <ele>519.249268</ele>
        <time>2008-06-09T01:39:48Z</time>
      </trkpt>
      <trkpt lat="43.8276666667" lon="6.22463055556">
        <ele>533.668945</ele>
        <time>2008-06-09T01:41:44Z</time>
      </trkpt>
      <trkpt lat="43.8287305556" lon="6.22711944444">
        <ele>548.088867</ele>
        <time>2008-06-09T01:42:48Z</time>
      </trkpt>
      <trkpt lat="43.827275" lon="6.227425">
        <ele>561.06665</ele>
        <time>2008-06-09T01:43:34Z</time>
      </trkpt>
      <trkpt lat="43.8244916667" lon="6.23199444444">
        <ele>601.922607</ele>
        <time>2008-06-09T01:45:47Z</time>
      </trkpt>
      <trkpt lat="43.8225944444" lon="6.23214722222">
        <ele>615.381104</ele>
        <time>2008-06-09T01:46:45Z</time>
      </trkpt>
      <trkpt lat="43.8195083333" lon="6.23446111111">
        <ele>637.010742</ele>
        <time>2008-06-09T01:48:34Z</time>
      </trkpt>
      <trkpt lat="43.8178416667" lon="6.24229166667">
        <ele>654.314697</ele>
        <time>2008-06-09T01:51:36Z</time>
      </trkpt>
      <trkpt lat="43.8150805556" lon="6.24314722222">
        <ele>663.92749</ele>
        <time>2008-06-09T01:53:03Z</time>
      </trkpt>
      <trkpt lat="43.8151111111" lon="6.24782777778">
        <ele>669.695801</ele>
        <time>2008-06-09T01:54:48Z</time>
      </trkpt>
      <trkpt lat="43.8142805556" lon="6.24982222222">
        <ele>658.640381</ele>
        <time>2008-06-09T01:55:39Z</time>
      </trkpt>
      <trkpt lat="43.8127166667" lon="6.25060277778">
        <ele>650.469238</ele>
        <time>2008-06-09T01:56:30Z</time>
      </trkpt>
      <trkpt lat="43.8121555556" lon="6.25526666667">
        <ele>648.065918</ele>
        <time>2008-06-09T01:58:16Z</time>
      </trkpt>
      <trkpt lat="43.8035166667" lon="6.254325">
        <ele>659.121094</ele>
        <time>2008-06-09T02:02:43Z</time>
      </trkpt>
      <trkpt lat="43.8006583333" lon="6.25683055556">
        <ele>659.601807</ele>
        <time>2008-06-09T02:04:28Z</time>
      </trkpt>
      <trkpt lat="43.8007638889" lon="6.25932222222">
        <ele>659.121094</ele>
        <time>2008-06-09T02:05:23Z</time>
      </trkpt>
      <trkpt lat="43.7989972222" lon="6.25957222222">
        <ele>658.640381</ele>
        <time>2008-06-09T02:06:18Z</time>
      </trkpt>
      <trkpt lat="43.7934472222" lon="6.264925">
        <ele>662.005127</ele>
        <time>2008-06-09T02:09:47Z</time>
      </trkpt>
      <trkpt lat="43.786125" lon="6.26649722222">
        <ele>703.82251</ele>
        <time>2008-06-09T02:13:36Z</time>
      </trkpt>
      <trkpt lat="43.7842555556" lon="6.26879444444">
        <ele>715.358154</ele>
        <time>2008-06-09T02:14:53Z</time>
      </trkpt>
      <trkpt lat="43.7838444444" lon="6.27355555556">
        <ele>728.335938</ele>
        <time>2008-06-09T02:16:40Z</time>
      </trkpt>
      <trkpt lat="43.7808472222" lon="6.28016388889">
        <ele>766.788818</ele>
        <time>2008-06-09T02:19:34Z</time>
      </trkpt>
      <trkpt lat="43.7767055556" lon="6.28198611111">
        <ele>798.031738</ele>
        <time>2008-06-09T02:21:48Z</time>
      </trkpt>
      <trkpt lat="43.7797444444" lon="6.282775">
        <ele>839.848877</ele>
        <time>2008-06-09T02:23:24Z</time>
      </trkpt>
      <trkpt lat="43.7761111111" lon="6.28453888889">
        <ele>864.362549</ele>
        <time>2008-06-09T02:25:23Z</time>
      </trkpt>
      <trkpt lat="43.7755361111" lon="6.29189166667">
        <ele>900.412109</ele>
        <time>2008-06-09T02:28:08Z</time>
      </trkpt>
      <trkpt lat="43.7711666667" lon="6.30275833333">
        <ele>963.378418</ele>
        <time>2008-06-09T02:32:45Z</time>
      </trkpt>
      <trkpt lat="43.76985" lon="6.30402222222">
        <ele>973.952881</ele>
        <time>2008-06-09T02:33:34Z</time>
      </trkpt>
      <trkpt lat="43.7706416667" lon="6.30606111111">
        <ele>983.085205</ele>
        <time>2008-06-09T02:34:26Z</time>
      </trkpt>
      <trkpt lat="43.7702111111" lon="6.30863333333">
        <ele>995.58252</ele>
        <time>2008-06-09T02:35:25Z</time>
      </trkpt>
      <trkpt lat="43.7685194444" lon="6.30855833333">
        <ele>1000.38916</ele>
        <time>2008-06-09T02:36:17Z</time>
      </trkpt>
      <trkpt lat="43.7674611111" lon="6.31067777778">
        <ele>1007.599121</ele>
        <time>2008-06-09T02:37:15Z</time>
      </trkpt>
      <trkpt lat="43.7700861111" lon="6.31711666667">
        <ele>1022.980225</ele>
        <time>2008-06-09T02:40:00Z</time>
      </trkpt>
      <trkpt lat="43.770275" lon="6.32198333333">
        <ele>1013.847412</ele>
        <time>2008-06-09T02:41:48Z</time>
      </trkpt>
      <trkpt lat="43.7727916667" lon="6.32548888889">
        <ele>996.543945</ele>
        <time>2008-06-09T02:43:39Z</time>
      </trkpt>
      <trkpt lat="43.77305" lon="6.33040833333">
        <ele>982.604736</ele>
        <time>2008-06-09T02:45:29Z</time>
      </trkpt>
      <trkpt lat="43.7770777778" lon="6.33513888889">
        <ele>969.14624</ele>
        <time>2008-06-09T02:48:12Z</time>
      </trkpt>
      <trkpt lat="43.7820055556" lon="6.345725">
        <ele>907.621826</ele>
        <time>2008-06-09T02:52:53Z</time>
      </trkpt>
      <trkpt lat="43.780325" lon="6.35013611111">
        <ele>896.566895</ele>
        <time>2008-06-09T02:54:44Z</time>
      </trkpt>
      <trkpt lat="43.7794305556" lon="6.36289444444">
        <ele>877.340576</ele>
        <time>2008-06-09T02:59:30Z</time>
      </trkpt>
      <trkpt lat="43.7777166667" lon="6.36749722222">
        <ele>870.130371</ele>
        <time>2008-06-09T03:01:25Z</time>
      </trkpt>
      <trkpt lat="43.7802694444" lon="6.37751944444">
        <ele>866.765869</ele>
        <time>2008-06-09T03:05:22Z</time>
      </trkpt>
      <trkpt lat="43.78105" lon="6.39037777778">
        <ele>921.080322</ele>
        <time>2008-06-09T03:10:10Z</time>
      </trkpt>
      <trkpt lat="43.778875" lon="6.38792777778">
        <ele>955.687744</ele>
        <time>2008-06-09T03:11:37Z</time>
      </trkpt>
      <trkpt lat="43.775875" lon="6.38159166667">
        <ele>1010.963623</ele>
        <time>2008-06-09T03:14:26Z</time>
      </trkpt>
      <trkpt lat="43.7752194444" lon="6.38083333333">
        <ele>1025.383301</ele>
        <time>2008-06-09T03:14:52Z</time>
      </trkpt>
      <trkpt lat="43.7753416667" lon="6.38345">
        <ele>1046.532471</ele>
        <time>2008-06-09T03:15:50Z</time>
      </trkpt>
      <trkpt lat="43.7744777778" lon="6.38255">
        <ele>1058.068359</ele>
        <time>2008-06-09T03:16:24Z</time>
      </trkpt>
      <trkpt lat="43.7727194444" lon="6.37800833333">
        <ele>1090.272461</ele>
        <time>2008-06-09T03:18:19Z</time>
      </trkpt>
      <trkpt lat="43.7659166667" lon="6.36891111111">
        <ele>1183.039551</ele>
        <time>2008-06-09T03:23:11Z</time>
      </trkpt>
      <trkpt lat="43.76515" lon="6.37225">
        <ele>1241.679932</ele>
        <time>2008-06-09T03:24:29Z</time>
      </trkpt>
      <trkpt lat="43.7610833333" lon="6.36723888889">
        <ele>1271.480713</ele>
        <time>2008-06-09T03:27:17Z</time>
      </trkpt>
      <trkpt lat="43.7604972222" lon="6.36965277778">
        <ele>1277.729492</ele>
        <time>2008-06-09T03:28:14Z</time>
      </trkpt>
      <trkpt lat="43.7579944444" lon="6.36648611111">
        <ele>1311.375732</ele>
        <time>2008-06-09T03:29:59Z</time>
      </trkpt>
      <trkpt lat="43.7561833333" lon="6.36610277778">
        <ele>1320.98877</ele>
        <time>2008-06-09T03:30:55Z</time>
      </trkpt>
      <trkpt lat="43.7556111111" lon="6.36834166667">
        <ele>1308.972412</ele>
        <time>2008-06-09T03:31:48Z</time>
      </trkpt>
      <trkpt lat="43.754225" lon="6.36675555556">
        <ele>1288.303955</ele>
        <time>2008-06-09T03:32:44Z</time>
      </trkpt>
      <trkpt lat="43.7553694444" lon="6.36978333333">
        <ele>1261.86792</ele>
        <time>2008-06-09T03:34:00Z</time>
      </trkpt>
      <trkpt lat="43.7503277778" lon="6.36366111111">
        <ele>1205.149902</ele>
        <time>2008-06-09T03:37:27Z</time>
      </trkpt>
      <trkpt lat="43.7475888889" lon="6.35687777778">
        <ele>1159.006592</ele>
        <time>2008-06-09T03:40:21Z</time>
      </trkpt>
      <trkpt lat="43.7481305556" lon="6.35459444444">
        <ele>1112.382568</ele>
        <time>2008-06-09T03:41:14Z</time>
      </trkpt>
      <trkpt lat="43.7469888889" lon="6.35629166667">
        <ele>1102.769531</ele>
        <time>2008-06-09T03:42:06Z</time>
      </trkpt>
      <trkpt lat="43.7458527778" lon="6.35442777778">
        <ele>1082.101074</ele>
        <time>2008-06-09T03:43:00Z</time>
      </trkpt>
      <trkpt lat="43.7437722222" lon="6.35736666667">
        <ele>1044.609619</ele>
        <time>2008-06-09T03:44:32Z</time>
      </trkpt>
      <trkpt lat="43.7441305556" lon="6.3549">
        <ele>1023.460938</ele>
        <time>2008-06-09T03:45:28Z</time>
      </trkpt>
      <trkpt lat="43.7431916667" lon="6.35540277778">
        <ele>995.101807</ele>
        <time>2008-06-09T03:45:59Z</time>
      </trkpt>
      <trkpt lat="43.7448583333" lon="6.350675">
        <ele>952.803711</ele>
        <time>2008-06-09T03:47:57Z</time>
      </trkpt>
      <trkpt lat="43.7467166667" lon="6.3508">
        <ele>931.654785</ele>
        <time>2008-06-09T03:48:54Z</time>
      </trkpt>
      <trkpt lat="43.7484333333" lon="6.34759722222">
        <ele>915.793213</ele>
        <time>2008-06-09T03:50:23Z</time>
      </trkpt>
      <trkpt lat="43.7464583333" lon="6.34420555556">
        <ele>899.931396</ele>
        <time>2008-06-09T03:52:00Z</time>
      </trkpt>
      <trkpt lat="43.7455166667" lon="6.33733888889">
        <ele>860.036621</ele>
        <time>2008-06-09T03:54:36Z</time>
      </trkpt>
      <trkpt lat="43.7467027778" lon="6.33546388889">
        <ele>855.22998</ele>
        <time>2008-06-09T03:55:32Z</time>
      </trkpt>
      <trkpt lat="43.7480805556" lon="6.32856111111">
        <ele>839.848877</ele>
        <time>2008-06-09T03:58:12Z</time>
      </trkpt>
      <trkpt lat="43.7512944444" lon="6.330625">
        <ele>852.82666</ele>
        <time>2008-06-09T04:00:01Z</time>
      </trkpt>
      <trkpt lat="43.7517944444" lon="6.32845555556">
        <ele>860.998047</ele>
        <time>2008-06-09T04:00:52Z</time>
      </trkpt>
      <trkpt lat="43.7533472222" lon="6.32781944444">
        <ele>867.727051</ele>
        <time>2008-06-09T04:01:42Z</time>
      </trkpt>
      <trkpt lat="43.7557722222" lon="6.32463888889">
        <ele>849.462158</ele>
        <time>2008-06-09T04:03:25Z</time>
      </trkpt>
      <trkpt lat="43.7563194444" lon="6.32045277778">
        <ele>831.197266</ele>
        <time>2008-06-09T04:05:00Z</time>
      </trkpt>
      <trkpt lat="43.7595583333" lon="6.31958611111">
        <ele>808.125488</ele>
        <time>2008-06-09T04:06:42Z</time>
      </trkpt>
      <trkpt lat="43.7596277778" lon="6.31726666667">
        <ele>808.125488</ele>
        <time>2008-06-09T04:07:34Z</time>
      </trkpt>
      <trkpt lat="43.7609194444" lon="6.31618333333">
        <ele>816.777344</ele>
        <time>2008-06-09T04:08:20Z</time>
      </trkpt>
      <trkpt lat="43.7626111111" lon="6.31656666667">
        <ele>820.622559</ele>
        <time>2008-06-09T04:09:13Z</time>
      </trkpt>
      <trkpt lat="43.7662666667" lon="6.32233055556">
        <ele>831.197266</ele>
        <time>2008-06-09T04:12:04Z</time>
      </trkpt>
      <trkpt lat="43.7684555556" lon="6.32771111111">
        <ele>852.345947</ele>
        <time>2008-06-09T04:14:22Z</time>
      </trkpt>
      <trkpt lat="43.7684083333" lon="6.33010555556">
        <ele>865.804688</ele>
        <time>2008-06-09T04:15:15Z</time>
      </trkpt>
      <trkpt lat="43.7749888889" lon="6.33768333333">
        <ele>921.560791</ele>
        <time>2008-06-09T04:19:40Z</time>
      </trkpt>
      <trkpt lat="43.7746638889" lon="6.340125">
        <ele>929.732178</ele>
        <time>2008-06-09T04:20:35Z</time>
      </trkpt>
      <trkpt lat="43.7775666667" lon="6.34171388889">
        <ele>923.483643</ele>
        <time>2008-06-09T04:22:12Z</time>
      </trkpt>
      <trkpt lat="43.7790194444" lon="6.34091666667">
        <ele>926.367676</ele>
        <time>2008-06-09T04:23:00Z</time>
      </trkpt>
      <trkpt lat="43.7800833333" lon="6.34130833333">
        <ele>931.654785</ele>
        <time>2008-06-09T04:23:34Z</time>
      </trkpt>
      <trkpt lat="43.7820055556" lon="6.34564444444">
        <ele>912.90918</ele>
        <time>2008-06-09T04:25:27Z</time>
      </trkpt>
      <trkpt lat="43.7803083333" lon="6.35049722222">
        <ele>900.892578</ele>
        <time>2008-06-09T04:27:28Z</time>
      </trkpt>
      <trkpt lat="43.7801777778" lon="6.35555">
        <ele>889.356689</ele>
        <time>2008-06-09T04:29:20Z</time>
      </trkpt>
      <trkpt lat="43.7841833333" lon="6.36968055556">
        <ele>833.600342</ele>
        <time>2008-06-09T04:34:59Z</time>
      </trkpt>
      <trkpt lat="43.7892138889" lon="6.37639722222">
        <ele>782.169922</ele>
        <time>2008-06-09T04:38:35Z</time>
      </trkpt>
      <trkpt lat="43.7884388889" lon="6.38023611111">
        <ele>759.098145</ele>
        <time>2008-06-09T04:40:04Z</time>
      </trkpt>
      <trkpt lat="43.7868583333" lon="6.38081944444">
        <ele>748.523682</ele>
        <time>2008-06-09T04:40:54Z</time>
      </trkpt>
      <trkpt lat="43.7884805556" lon="6.38110277778">
        <ele>735.545898</ele>
        <time>2008-06-09T04:41:45Z</time>
      </trkpt>
      <trkpt lat="43.7911972222" lon="6.37800277778">
        <ele>706.706299</ele>
        <time>2008-06-09T04:43:33Z</time>
      </trkpt>
      <trkpt lat="43.7924555556" lon="6.37897777778">
        <ele>705.745117</ele>
        <time>2008-06-09T04:44:18Z</time>
      </trkpt>
      <trkpt lat="43.7919083333" lon="6.38384444444">
        <ele>728.335938</ele>
        <time>2008-06-09T04:46:08Z</time>
      </trkpt>
      <trkpt lat="43.7954194444" lon="6.38291388889">
        <ele>749.004395</ele>
        <time>2008-06-09T04:47:58Z</time>
      </trkpt>
      <trkpt lat="43.796025" lon="6.38382222222">
        <ele>753.811035</ele>
        <time>2008-06-09T04:48:26Z</time>
      </trkpt>
      <trkpt lat="43.7962" lon="6.38562222222">
        <ele>759.578857</ele>
        <time>2008-06-09T04:49:06Z</time>
      </trkpt>
      <trkpt lat="43.7951083333" lon="6.38646666667">
        <ele>765.346924</ele>
        <time>2008-06-09T04:49:45Z</time>
      </trkpt>
      <trkpt lat="43.7949472222" lon="6.38875833333">
        <ele>768.230713</ele>
        <time>2008-06-09T04:50:36Z</time>
      </trkpt>
      <trkpt lat="43.7936888889" lon="6.39073611111">
        <ele>773.518066</ele>
        <time>2008-06-09T04:51:35Z</time>
      </trkpt>
      <trkpt lat="43.7945916667" lon="6.40002777778">
        <ele>783.611816</ele>
        <time>2008-06-09T04:55:04Z</time>
      </trkpt>
      <trkpt lat="43.7934194444" lon="6.40652777778">
        <ele>751.888428</ele>
        <time>2008-06-09T04:57:33Z</time>
      </trkpt>
      <trkpt lat="43.7961916667" lon="6.40810555556">
        <ele>727.374756</ele>
        <time>2008-06-09T04:59:06Z</time>
      </trkpt>
      <trkpt lat="43.7971416667" lon="6.412575">
        <ele>710.551514</ele>
        <time>2008-06-09T05:00:50Z</time>
      </trkpt>
      <trkpt lat="43.7906805556" lon="6.42445277778">
        <ele>652.872559</ele>
        <time>2008-06-09T05:06:21Z</time>
      </trkpt>
      <trkpt lat="43.792925" lon="6.433575">
        <ele>649.507813</ele>
        <time>2008-06-09T05:09:56Z</time>
      </trkpt>
      <trkpt lat="43.7967388889" lon="6.43846388889">
        <ele>656.717773</ele>
        <time>2008-06-09T05:12:37Z</time>
      </trkpt>
      <trkpt lat="43.8039305556" lon="6.43831388889">
        <ele>660.562988</ele>
        <time>2008-06-09T05:16:19Z</time>
      </trkpt>
      <trkpt lat="43.8043277778" lon="6.44066111111">
        <ele>656.237061</ele>
        <time>2008-06-09T05:17:13Z</time>
      </trkpt>
      <trkpt lat="43.8070166667" lon="6.43801666667">
        <ele>660.562988</ele>
        <time>2008-06-09T05:18:54Z</time>
      </trkpt>
      <trkpt lat="43.8088472222" lon="6.43811388889">
        <ele>661.043701</ele>
        <time>2008-06-09T05:19:51Z</time>
      </trkpt>
      <trkpt lat="43.8104722222" lon="6.43706666667">
        <ele>662.005127</ele>
        <time>2008-06-09T05:20:46Z</time>
      </trkpt>
      <trkpt lat="43.8123416667" lon="6.43665">
        <ele>664.408203</ele>
        <time>2008-06-09T05:21:45Z</time>
      </trkpt>
      <trkpt lat="43.8138361111" lon="6.43809722222">
        <ele>665.369629</ele>
        <time>2008-06-09T05:22:41Z</time>
      </trkpt>
      <trkpt lat="43.8151888889" lon="6.43786666667">
        <ele>666.811523</ele>
        <time>2008-06-09T05:23:23Z</time>
      </trkpt>
      <trkpt lat="43.8169611111" lon="6.43579166667">
        <ele>667.772705</ele>
        <time>2008-06-09T05:24:35Z</time>
      </trkpt>
      <trkpt lat="43.8189611111" lon="6.43534166667">
        <ele>670.656982</ele>
        <time>2008-06-09T05:25:37Z</time>
      </trkpt>
      <trkpt lat="43.8212333333" lon="6.43126666667">
        <ele>671.618164</ele>
        <time>2008-06-09T05:27:32Z</time>
      </trkpt>
      <trkpt lat="43.82305" lon="6.43136666667">
        <ele>673.541016</ele>
        <time>2008-06-09T05:28:28Z</time>
      </trkpt>
      <trkpt lat="43.8263111111" lon="6.42975555556">
        <ele>675.463379</ele>
        <time>2008-06-09T05:30:15Z</time>
      </trkpt>
      <trkpt lat="43.8267388889" lon="6.42719166667">
        <ele>677.866699</ele>
        <time>2008-06-09T05:31:14Z</time>
      </trkpt>
      <trkpt lat="43.8282916667" lon="6.42595555556">
        <ele>678.828125</ele>
        <time>2008-06-09T05:32:09Z</time>
      </trkpt>
      <trkpt lat="43.829825" lon="6.42747222222">
        <ele>680.27002</ele>
        <time>2008-06-09T05:33:07Z</time>
      </trkpt>
      <trkpt lat="43.8334916667" lon="6.43868055556">
        <ele>686.999268</ele>
        <time>2008-06-09T05:37:42Z</time>
      </trkpt>
      <trkpt lat="43.83305" lon="6.44105277778">
        <ele>687.47998</ele>
        <time>2008-06-09T05:38:36Z</time>
      </trkpt>
      <trkpt lat="43.8305555556" lon="6.44446111111">
        <ele>688.922119</ele>
        <time>2008-06-09T05:40:24Z</time>
      </trkpt>
      <trkpt lat="43.8317833333" lon="6.44674722222">
        <ele>691.325195</ele>
        <time>2008-06-09T05:41:28Z</time>
      </trkpt>
      <trkpt lat="43.8315666667" lon="6.45185">
        <ele>698.534912</ele>
        <time>2008-06-09T05:43:22Z</time>
      </trkpt>
      <trkpt lat="43.828175" lon="6.46063333333">
        <ele>713.916016</ele>
        <time>2008-06-09T05:47:04Z</time>
      </trkpt>
      <trkpt lat="43.8291611111" lon="6.470225">
        <ele>726.41333</ele>
        <time>2008-06-09T05:50:40Z</time>
      </trkpt>
      <trkpt lat="43.8312166667" lon="6.47450277778">
        <ele>732.181396</ele>
        <time>2008-06-09T05:52:34Z</time>
      </trkpt>
      <trkpt lat="43.8330166667" lon="6.48186666667">
        <ele>741.794434</ele>
        <time>2008-06-09T05:55:27Z</time>
      </trkpt>
      <trkpt lat="43.8355194444" lon="6.48525833333">
        <ele>738.429932</ele>
        <time>2008-06-09T05:57:16Z</time>
      </trkpt>
      <trkpt lat="43.8349888889" lon="6.49226388889">
        <ele>736.987793</ele>
        <time>2008-06-09T05:59:53Z</time>
      </trkpt>
      <trkpt lat="43.8358361111" lon="6.493325">
        <ele>736.987793</ele>
        <time>2008-06-09T06:00:28Z</time>
      </trkpt>
      <trkpt lat="43.8390388889" lon="6.49356944444">
        <ele>727.855225</ele>
        <time>2008-06-09T06:02:07Z</time>
      </trkpt>
      <trkpt lat="43.841975" lon="6.49661944444">
        <ele>724.490723</ele>
        <time>2008-06-09T06:04:00Z</time>
      </trkpt>
      <trkpt lat="43.8455333333" lon="6.50578888889">
        <ele>730.739258</ele>
        <time>2008-06-09T06:07:52Z</time>
      </trkpt>
      <trkpt lat="43.8464694444" lon="6.51261388889">
        <ele>728.81665</ele>
        <time>2008-06-09T06:10:27Z</time>
      </trkpt>
      <trkpt lat="43.8489861111" lon="6.50920833333">
        <ele>739.391113</ele>
        <time>2008-06-09T06:12:16Z</time>
      </trkpt>
      <trkpt lat="43.8520833333" lon="6.50788333333">
        <ele>749.004395</ele>
        <time>2008-06-09T06:13:56Z</time>
      </trkpt>
      <trkpt lat="43.8532583333" lon="6.50865833333">
        <ele>758.136963</ele>
        <time>2008-06-09T06:14:36Z</time>
      </trkpt>
      <trkpt lat="43.8550861111" lon="6.50817222222">
        <ele>768.230713</ele>
        <time>2008-06-09T06:15:33Z</time>
      </trkpt>
      <trkpt lat="43.8607861111" lon="6.51278055556">
        <ele>811.009277</ele>
        <time>2008-06-09T06:18:57Z</time>
      </trkpt>
      <trkpt lat="43.8627388889" lon="6.51222777778">
        <ele>819.661377</ele>
        <time>2008-06-09T06:19:59Z</time>
      </trkpt>
      <trkpt lat="43.8671083333" lon="6.50733888889">
        <ele>847.058838</ele>
        <time>2008-06-09T06:22:52Z</time>
      </trkpt>
      <trkpt lat="43.8679888889" lon="6.50367777778">
        <ele>862.439941</ele>
        <time>2008-06-09T06:24:18Z</time>
      </trkpt>
      <trkpt lat="43.8697166667" lon="6.51100555556">
        <ele>888.395508</ele>
        <time>2008-06-09T06:27:10Z</time>
      </trkpt>
      <trkpt lat="43.872925" lon="6.51373333333">
        <ele>892.72168</ele>
        <time>2008-06-09T06:29:06Z</time>
      </trkpt>
      <trkpt lat="43.8737305556" lon="6.515975">
        <ele>890.318115</ele>
        <time>2008-06-09T06:30:02Z</time>
      </trkpt>
      <trkpt lat="43.8739472222" lon="6.52351666667">
        <ele>886.953369</ele>
        <time>2008-06-09T06:32:50Z</time>
      </trkpt>
      <trkpt lat="43.8769444444" lon="6.53525555556">
        <ele>885.031006</ele>
        <time>2008-06-09T06:37:27Z</time>
      </trkpt>
      <trkpt lat="43.8782555556" lon="6.53689444444">
        <ele>887.434082</ele>
        <time>2008-06-09T06:38:22Z</time>
      </trkpt>
      <trkpt lat="43.8783916667" lon="6.54141111111">
        <ele>887.434082</ele>
        <time>2008-06-09T06:40:02Z</time>
      </trkpt>
      <trkpt lat="43.880625" lon="6.54183888889">
        <ele>890.318115</ele>
        <time>2008-06-09T06:41:12Z</time>
      </trkpt>
      <trkpt lat="43.8836333333" lon="6.54042222222">
        <ele>891.279297</ele>
        <time>2008-06-09T06:42:50Z</time>
      </trkpt>
      <trkpt lat="43.8862583333" lon="6.53713055556">
        <ele>892.72168</ele>
        <time>2008-06-09T06:44:39Z</time>
      </trkpt>
      <trkpt lat="43.8894027778" lon="6.538025">
        <ele>893.202148</ele>
        <time>2008-06-09T06:46:18Z</time>
      </trkpt>
      <trkpt lat="43.892525" lon="6.53583055556">
        <ele>894.644043</ele>
        <time>2008-06-09T06:48:07Z</time>
      </trkpt>
      <trkpt lat="43.8949694444" lon="6.53966111111">
        <ele>895.605469</ele>
        <time>2008-06-09T06:50:00Z</time>
      </trkpt>
      <trkpt lat="43.8959055556" lon="6.53968888889">
        <ele>898.008789</ele>
        <time>2008-06-09T06:50:29Z</time>
      </trkpt>
      <trkpt lat="43.8962305556" lon="6.53815555556">
        <ele>901.854004</ele>
        <time>2008-06-09T06:51:05Z</time>
      </trkpt>
      <trkpt lat="43.9011861111" lon="6.54075">
        <ele>915.793213</ele>
        <time>2008-06-09T06:53:48Z</time>
      </trkpt>
      <trkpt lat="43.9021277778" lon="6.54279166667">
        <ele>915.3125</ele>
        <time>2008-06-09T06:54:42Z</time>
      </trkpt>
      <trkpt lat="43.9034472222" lon="6.54138611111">
        <ele>918.677002</ele>
        <time>2008-06-09T06:55:34Z</time>
      </trkpt>
      <trkpt lat="43.9082694444" lon="6.54459722222">
        <ele>923.964111</ele>
        <time>2008-06-09T06:58:19Z</time>
      </trkpt>
      <trkpt lat="43.9111111111" lon="6.55092222222">
        <ele>906.6604</ele>
        <time>2008-06-09T07:01:05Z</time>
      </trkpt>
      <trkpt lat="43.9126361111" lon="6.55228611111">
        <ele>899.931396</ele>
        <time>2008-06-09T07:02:01Z</time>
      </trkpt>
      <trkpt lat="43.9147027778" lon="6.54178611111">
        <ele>914.831787</ele>
        <time>2008-06-09T07:06:03Z</time>
      </trkpt>
      <trkpt lat="43.913325" lon="6.54881111111">
        <ele>940.306885</ele>
        <time>2008-06-09T07:08:45Z</time>
      </trkpt>
      <trkpt lat="43.9149583333" lon="6.56592777778">
        <ele>988.372803</ele>
        <time>2008-06-09T07:15:09Z</time>
      </trkpt>
      <trkpt lat="43.9136416667" lon="6.57087222222">
        <ele>1002.311523</ele>
        <time>2008-06-09T07:17:07Z</time>
      </trkpt>
      <trkpt lat="43.9143611111" lon="6.58100277778">
        <ele>1023.460938</ele>
        <time>2008-06-09T07:20:53Z</time>
      </trkpt>
      <trkpt lat="43.9124777778" lon="6.59380833333">
        <ele>1050.858154</ele>
        <time>2008-06-09T07:25:44Z</time>
      </trkpt>
      <trkpt lat="43.9130694444" lon="6.59919722222">
        <ele>1064.31665</ele>
        <time>2008-06-09T07:27:45Z</time>
      </trkpt>
      <trkpt lat="43.9123722222" lon="6.60418888889">
        <ele>1075.371826</ele>
        <time>2008-06-09T07:29:38Z</time>
      </trkpt>
      <trkpt lat="43.9131833333" lon="6.60635833333">
        <ele>1078.255859</ele>
        <time>2008-06-09T07:30:33Z</time>
      </trkpt>
      <trkpt lat="43.9150722222" lon="6.60685555556">
        <ele>1083.542969</ele>
        <time>2008-06-09T07:31:32Z</time>
      </trkpt>
      <trkpt lat="43.9163444444" lon="6.60843611111">
        <ele>1092.195068</ele>
        <time>2008-06-09T07:32:25Z</time>
      </trkpt>
      <trkpt lat="43.9197777778" lon="6.61413055556">
        <ele>1116.70874</ele>
        <time>2008-06-09T07:35:10Z</time>
      </trkpt>
      <trkpt lat="43.9217027778" lon="6.61385277778">
        <ele>1105.172852</ele>
        <time>2008-06-09T07:36:10Z</time>
      </trkpt>
      <trkpt lat="43.9263305556" lon="6.61769166667">
        <ele>1076.333252</ele>
        <time>2008-06-09T07:38:56Z</time>
      </trkpt>
      <trkpt lat="43.9296861111" lon="6.62386111111">
        <ele>1047.012939</ele>
        <time>2008-06-09T07:41:48Z</time>
      </trkpt>
      <trkpt lat="43.9313277778" lon="6.62519444444">
        <ele>1035.477051</ele>
        <time>2008-06-09T07:42:47Z</time>
      </trkpt>
      <trkpt lat="43.9339972222" lon="6.63473055556">
        <ele>988.853516</ele>
        <time>2008-06-09T07:46:35Z</time>
      </trkpt>
      <trkpt lat="43.9357555556" lon="6.63546111111">
        <ele>982.124023</ele>
        <time>2008-06-09T07:47:32Z</time>
      </trkpt>
      <trkpt lat="43.9355888889" lon="6.63709722222">
        <ele>970.588135</ele>
        <time>2008-06-09T07:48:08Z</time>
      </trkpt>
      <trkpt lat="43.9323277778" lon="6.63978611111">
        <ele>947.997314</ele>
        <time>2008-06-09T07:50:05Z</time>
      </trkpt>
      <trkpt lat="43.9302638889" lon="6.64388611111">
        <ele>923.964111</ele>
        <time>2008-06-09T07:51:57Z</time>
      </trkpt>
      <trkpt lat="43.9320555556" lon="6.64507777778">
        <ele>920.118896</ele>
        <time>2008-06-09T07:52:58Z</time>
      </trkpt>
      <trkpt lat="43.9329" lon="6.65003055556">
        <ele>894.644043</ele>
        <time>2008-06-09T07:54:51Z</time>
      </trkpt>
      <trkpt lat="43.9306166667" lon="6.65673333333">
        <ele>907.141113</ele>
        <time>2008-06-09T07:57:36Z</time>
      </trkpt>
      <trkpt lat="43.9315166667" lon="6.65856666667">
        <ele>896.566895</ele>
        <time>2008-06-09T07:58:26Z</time>
      </trkpt>
      <trkpt lat="43.9312694444" lon="6.66577222222">
        <ele>878.301758</ele>
        <time>2008-06-09T08:01:06Z</time>
      </trkpt>
      <trkpt lat="43.9348611111" lon="6.67318888889">
        <ele>835.522949</ele>
        <time>2008-06-09T08:04:25Z</time>
      </trkpt>
      <trkpt lat="43.9376666667" lon="6.68616388889">
        <ele>788.89917</ele>
        <time>2008-06-09T08:09:26Z</time>
      </trkpt>
      <trkpt lat="43.9411166667" lon="6.68996388889">
        <ele>761.020752</ele>
        <time>2008-06-09T08:11:42Z</time>
      </trkpt>
      <trkpt lat="43.9484055556" lon="6.688825">
        <ele>719.203613</ele>
        <time>2008-06-09T08:15:29Z</time>
      </trkpt>
      <trkpt lat="43.95175" lon="6.68674722222">
        <ele>706.706299</ele>
        <time>2008-06-09T08:17:22Z</time>
      </trkpt>
      <trkpt lat="43.9529638889" lon="6.68495">
        <ele>693.247803</ele>
        <time>2008-06-09T08:18:17Z</time>
      </trkpt>
      <trkpt lat="43.9546083333" lon="6.68461111111">
        <ele>683.634521</ele>
        <time>2008-06-09T08:19:08Z</time>
      </trkpt>
      <trkpt lat="43.9572833333" lon="6.69048055556">
        <ele>661.524414</ele>
        <time>2008-06-09T08:21:43Z</time>
      </trkpt>
      <trkpt lat="43.9581277778" lon="6.69380277778">
        <ele>648.546387</ele>
        <time>2008-06-09T08:23:01Z</time>
      </trkpt>
      <trkpt lat="43.9575805556" lon="6.701625">
        <ele>620.668457</ele>
        <time>2008-06-09T08:25:56Z</time>
      </trkpt>
      <trkpt lat="43.9592694444" lon="6.70893888889">
        <ele>610.574463</ele>
        <time>2008-06-09T08:28:46Z</time>
      </trkpt>
      <trkpt lat="43.9598444444" lon="6.71633888889">
        <ele>603.364502</ele>
        <time>2008-06-09T08:31:32Z</time>
      </trkpt>
      <trkpt lat="43.9599916667" lon="6.72666944444">
        <ele>594.712646</ele>
        <time>2008-06-09T08:35:22Z</time>
      </trkpt>
      <trkpt lat="43.9587694444" lon="6.73460277778">
        <ele>590.386963</ele>
        <time>2008-06-09T08:38:22Z</time>
      </trkpt>
      <trkpt lat="43.9608666667" lon="6.73613055556">
        <ele>592.790283</ele>
        <time>2008-06-09T08:39:35Z</time>
      </trkpt>
      <trkpt lat="43.9661305556" lon="6.74702777778">
        <ele>566.35376</ele>
        <time>2008-06-09T08:44:27Z</time>
      </trkpt>
      <trkpt lat="43.9680861111" lon="6.75714166667">
        <ele>553.856689</ele>
        <time>2008-06-09T08:48:20Z</time>
      </trkpt>
      <trkpt lat="43.9709416667" lon="6.75985555556">
        <ele>553.375977</ele>
        <time>2008-06-09T08:50:07Z</time>
      </trkpt>
      <trkpt lat="43.97255" lon="6.7586">
        <ele>550.011475</ele>
        <time>2008-06-09T08:51:04Z</time>
      </trkpt>
      <trkpt lat="43.974425" lon="6.75931388889">
        <ele>551.934082</ele>
        <time>2008-06-09T08:52:04Z</time>
      </trkpt>
      <trkpt lat="43.9780944444" lon="6.75815277778">
        <ele>564.431152</ele>
        <time>2008-06-09T08:54:00Z</time>
      </trkpt>
      <trkpt lat="43.9817472222" lon="6.75849722222">
        <ele>570.679688</ele>
        <time>2008-06-09T08:55:53Z</time>
      </trkpt>
      <trkpt lat="43.9856444444" lon="6.76359722222">
        <ele>580.292969</ele>
        <time>2008-06-09T08:58:38Z</time>
      </trkpt>
      <trkpt lat="43.9891333333" lon="6.765325">
        <ele>585.580078</ele>
        <time>2008-06-09T09:00:33Z</time>
      </trkpt>
      <trkpt lat="43.9921111111" lon="6.76835277778">
        <ele>589.425537</ele>
        <time>2008-06-09T09:02:27Z</time>
      </trkpt>
      <trkpt lat="44.0003666667" lon="6.78176944444">
        <ele>607.209961</ele>
        <time>2008-06-09T09:08:59Z</time>
      </trkpt>
      <trkpt lat="44.0045861111" lon="6.78682222222">
        <ele>619.226318</ele>
        <time>2008-06-09T09:11:51Z</time>
      </trkpt>
      <trkpt lat="44.0088805556" lon="6.79545">
        <ele>632.204102</ele>
        <time>2008-06-09T09:15:44Z</time>
      </trkpt>
      <trkpt lat="44.0178555556" lon="6.80799166667">
        <ele>648.065918</ele>
        <time>2008-06-09T09:22:17Z</time>
      </trkpt>
      <trkpt lat="44.0205611111" lon="6.80865833333">
        <ele>658.640381</ele>
        <time>2008-06-09T09:23:42Z</time>
      </trkpt>
      <trkpt lat="44.02665" lon="6.81363333333">
        <ele>680.750732</ele>
        <time>2008-06-09T09:27:20Z</time>
      </trkpt>
      <trkpt lat="44.0313833333" lon="6.82428055556">
        <ele>724.490723</ele>
        <time>2008-06-09T09:31:58Z</time>
      </trkpt>
      <trkpt lat="44.0374944444" lon="6.82932222222">
        <ele>760.059326</ele>
        <time>2008-06-09T09:35:38Z</time>
      </trkpt>
      <trkpt lat="44.0397194444" lon="6.83526944444">
        <ele>789.379639</ele>
        <time>2008-06-09T09:38:07Z</time>
      </trkpt>
      <trkpt lat="44.0420777778" lon="6.83182777778">
        <ele>800.435059</ele>
        <time>2008-06-09T09:39:52Z</time>
      </trkpt>
      <trkpt lat="44.0406583333" lon="6.83828888889">
        <ele>824.948486</ele>
        <time>2008-06-09T09:42:22Z</time>
      </trkpt>
      <trkpt lat="44.0447833333" lon="6.84175555556">
        <ele>846.578369</ele>
        <time>2008-06-09T09:44:51Z</time>
      </trkpt>
      <trkpt lat="44.0475666667" lon="6.84306944444">
        <ele>852.82666</ele>
        <time>2008-06-09T09:46:22Z</time>
      </trkpt>
      <trkpt lat="44.0494583333" lon="6.84255833333">
        <ele>851.865479</ele>
        <time>2008-06-09T09:47:21Z</time>
      </trkpt>
      <trkpt lat="44.0517944444" lon="6.84490833333">
        <ele>841.771484</ele>
        <time>2008-06-09T09:48:50Z</time>
      </trkpt>
      <trkpt lat="44.0554083333" lon="6.84571388889">
        <ele>829.274414</ele>
        <time>2008-06-09T09:50:43Z</time>
      </trkpt>
      <trkpt lat="44.0552305556" lon="6.85018611111">
        <ele>821.58374</ele>
        <time>2008-06-09T09:52:23Z</time>
      </trkpt>
      <trkpt lat="44.0573361111" lon="6.85225833333">
        <ele>811.48999</ele>
        <time>2008-06-09T09:53:42Z</time>
      </trkpt>
      <trkpt lat="44.0589" lon="6.85203055556">
        <ele>805.722168</ele>
        <time>2008-06-09T09:54:31Z</time>
      </trkpt>
      <trkpt lat="44.0604861111" lon="6.85394722222">
        <ele>798.99292</ele>
        <time>2008-06-09T09:55:36Z</time>
      </trkpt>
      <trkpt lat="44.0620583333" lon="6.85198333333">
        <ele>790.821533</ele>
        <time>2008-06-09T09:56:41Z</time>
      </trkpt>
      <trkpt lat="44.062275" lon="6.849375">
        <ele>785.053955</ele>
        <time>2008-06-09T09:57:39Z</time>
      </trkpt>
      <trkpt lat="44.0633277778" lon="6.84933888889">
        <ele>785.534424</ele>
        <time>2008-06-09T09:58:12Z</time>
      </trkpt>
      <trkpt lat="44.0639277778" lon="6.85410833333">
        <ele>790.821533</ele>
        <time>2008-06-09T09:59:59Z</time>
      </trkpt>
      <trkpt lat="44.0677305556" lon="6.85438055556">
        <ele>793.224854</ele>
        <time>2008-06-09T10:01:57Z</time>
      </trkpt>
      <trkpt lat="44.0733861111" lon="6.85696388889">
        <ele>786.49585</ele>
        <time>2008-06-09T10:05:01Z</time>
      </trkpt>
      <trkpt lat="44.0709527778" lon="6.85345277778">
        <ele>783.131104</ele>
        <time>2008-06-09T10:06:49Z</time>
      </trkpt>
      <trkpt lat="44.0749027778" lon="6.85693333333">
        <ele>778.805176</ele>
        <time>2008-06-09T10:09:14Z</time>
      </trkpt>
      <trkpt lat="44.0774888889" lon="6.85685555556">
        <ele>774.959961</ele>
        <time>2008-06-09T10:10:33Z</time>
      </trkpt>
      <trkpt lat="44.0947416667" lon="6.85205833333">
        <ele>818.699951</ele>
        <time>2008-06-09T10:19:37Z</time>
      </trkpt>
      <trkpt lat="44.0983055556" lon="6.84927777778">
        <ele>831.197266</ele>
        <time>2008-06-09T10:21:43Z</time>
      </trkpt>
      <trkpt lat="44.1037472222" lon="6.84945">
        <ele>850.423584</ele>
        <time>2008-06-09T10:24:31Z</time>
      </trkpt>
      <trkpt lat="44.1062388889" lon="6.8456">
        <ele>867.727051</ele>
        <time>2008-06-09T10:26:26Z</time>
      </trkpt>
      <trkpt lat="44.1082055556" lon="6.83846944444">
        <ele>874.456299</ele>
        <time>2008-06-09T10:29:15Z</time>
      </trkpt>
      <trkpt lat="44.1117194444" lon="6.83686111111">
        <ele>876.859863</ele>
        <time>2008-06-09T10:31:10Z</time>
      </trkpt>
      <trkpt lat="44.1118694444" lon="6.83501388889">
        <ele>876.859863</ele>
        <time>2008-06-09T10:31:51Z</time>
      </trkpt>
      <trkpt lat="44.1089305556" lon="6.83221388889">
        <ele>892.72168</ele>
        <time>2008-06-09T10:33:41Z</time>
      </trkpt>
      <trkpt lat="44.1091416667" lon="6.82456944444">
        <ele>898.489258</ele>
        <time>2008-06-09T10:36:31Z</time>
      </trkpt>
      <trkpt lat="44.1134194444" lon="6.816925">
        <ele>886.953369</ele>
        <time>2008-06-09T10:40:06Z</time>
      </trkpt>
      <trkpt lat="44.1160305556" lon="6.80699444444">
        <ele>912.428467</ele>
        <time>2008-06-09T10:44:00Z</time>
      </trkpt>
      <trkpt lat="44.1186111111" lon="6.80361388889">
        <ele>917.715576</ele>
        <time>2008-06-09T10:45:49Z</time>
      </trkpt>
      <trkpt lat="44.118175" lon="6.79916666667">
        <ele>938.864746</ele>
        <time>2008-06-09T10:47:29Z</time>
      </trkpt>
      <trkpt lat="44.1216444444" lon="6.79324444444">
        <ele>954.726318</ele>
        <time>2008-06-09T10:50:18Z</time>
      </trkpt>
      <trkpt lat="44.1244472222" lon="6.78455833333">
        <ele>960.975098</ele>
        <time>2008-06-09T10:53:50Z</time>
      </trkpt>
      <trkpt lat="44.1267833333" lon="6.78123055556">
        <ele>971.549316</ele>
        <time>2008-06-09T10:55:33Z</time>
      </trkpt>
      <trkpt lat="44.1295083333" lon="6.77469444444">
        <ele>988.853516</ele>
        <time>2008-06-09T10:58:20Z</time>
      </trkpt>
      <trkpt lat="44.1311222222" lon="6.77398888889">
        <ele>995.58252</ele>
        <time>2008-06-09T10:59:13Z</time>
      </trkpt>
      <trkpt lat="44.1334611111" lon="6.77008611111">
        <ele>1007.599121</ele>
        <time>2008-06-09T11:01:05Z</time>
      </trkpt>
      <trkpt lat="44.1365611111" lon="6.76741388889">
        <ele>1010.48291</ele>
        <time>2008-06-09T11:02:58Z</time>
      </trkpt>
      <trkpt lat="44.1417472222" lon="6.76071666667">
        <ele>1038.842041</ele>
        <time>2008-06-09T11:06:36Z</time>
      </trkpt>
      <trkpt lat="44.1422277778" lon="6.761625">
        <ele>1050.858154</ele>
        <time>2008-06-09T11:07:01Z</time>
      </trkpt>
      <trkpt lat="44.1468666667" lon="6.75728611111">
        <ele>1069.123535</ele>
        <time>2008-06-09T11:09:54Z</time>
      </trkpt>
      <trkpt lat="44.1524555556" lon="6.75638055556">
        <ele>1088.830566</ele>
        <time>2008-06-09T11:12:48Z</time>
      </trkpt>
      <trkpt lat="44.1598277778" lon="6.75746666667">
        <ele>1121.99585</ele>
        <time>2008-06-09T11:16:37Z</time>
      </trkpt>
      <trkpt lat="44.1636388889" lon="6.75394722222">
        <ele>1145.067383</ele>
        <time>2008-06-09T11:18:58Z</time>
      </trkpt>
      <trkpt lat="44.1775944444" lon="6.74825">
        <ele>1213.801758</ele>
        <time>2008-06-09T11:26:27Z</time>
      </trkpt>
      <trkpt lat="44.1846638889" lon="6.74891666667">
        <ele>1238.796143</ele>
        <time>2008-06-09T11:30:06Z</time>
      </trkpt>
      <trkpt lat="44.1865027778" lon="6.74810833333">
        <ele>1246.486816</ele>
        <time>2008-06-09T11:31:05Z</time>
      </trkpt>
      <trkpt lat="44.190025" lon="6.74896388889">
        <ele>1269.55835</ele>
        <time>2008-06-09T11:32:56Z</time>
      </trkpt>
      <trkpt lat="44.1933833333" lon="6.74677222222">
        <ele>1300.320557</ele>
        <time>2008-06-09T11:34:50Z</time>
      </trkpt>
      <trkpt lat="44.1964277778" lon="6.74649444444">
        <ele>1333.48584</ele>
        <time>2008-06-09T11:36:25Z</time>
      </trkpt>
      <trkpt lat="44.1940722222" lon="6.74833611111">
        <ele>1365.690186</ele>
        <time>2008-06-09T11:37:48Z</time>
      </trkpt>
      <trkpt lat="44.1951333333" lon="6.74948888889">
        <ele>1380.109863</ele>
        <time>2008-06-09T11:38:29Z</time>
      </trkpt>
      <trkpt lat="44.1980555556" lon="6.74901111111">
        <ele>1415.678711</ele>
        <time>2008-06-09T11:40:00Z</time>
      </trkpt>
      <trkpt lat="44.20415" lon="6.74571666667">
        <ele>1479.125488</ele>
        <time>2008-06-09T11:43:22Z</time>
      </trkpt>
      <trkpt lat="44.2075472222" lon="6.74610833333">
        <ele>1513.252441</ele>
        <time>2008-06-09T11:45:08Z</time>
      </trkpt>
      <trkpt lat="44.2089861111" lon="6.74458888889">
        <ele>1528.152832</ele>
        <time>2008-06-09T11:46:03Z</time>
      </trkpt>
      <trkpt lat="44.2101638889" lon="6.74643055556">
        <ele>1544.495117</ele>
        <time>2008-06-09T11:46:58Z</time>
      </trkpt>
      <trkpt lat="44.2168361111" lon="6.74906388889">
        <ele>1575.257324</ele>
        <time>2008-06-09T11:50:32Z</time>
      </trkpt>
      <trkpt lat="44.2199055556" lon="6.74691111111">
        <ele>1589.677246</ele>
        <time>2008-06-09T11:52:18Z</time>
      </trkpt>
      <trkpt lat="44.2189138889" lon="6.74538333333">
        <ele>1606.500244</ele>
        <time>2008-06-09T11:53:04Z</time>
      </trkpt>
      <trkpt lat="44.222" lon="6.74813888889">
        <ele>1638.70459</ele>
        <time>2008-06-09T11:54:57Z</time>
      </trkpt>
      <trkpt lat="44.2292333333" lon="6.74896388889">
        <ele>1703.112793</ele>
        <time>2008-06-09T11:58:41Z</time>
      </trkpt>
      <trkpt lat="44.2336083333" lon="6.75237222222">
        <ele>1755.504639</ele>
        <time>2008-06-09T12:01:16Z</time>
      </trkpt>
      <trkpt lat="44.2387194444" lon="6.75113611111">
        <ele>1785.786133</ele>
        <time>2008-06-09T12:03:56Z</time>
      </trkpt>
      <trkpt lat="44.2421472222" lon="6.75262777778">
        <ele>1817.990234</ele>
        <time>2008-06-09T12:05:47Z</time>
      </trkpt>
      <trkpt lat="44.2439111111" lon="6.75695833333">
        <ele>1849.233154</ele>
        <time>2008-06-09T12:07:37Z</time>
      </trkpt>
      <trkpt lat="44.2440611111" lon="6.75415555556">
        <ele>1872.785645</ele>
        <time>2008-06-09T12:08:39Z</time>
      </trkpt>
      <trkpt lat="44.2456027778" lon="6.75542222222">
        <ele>1890.569824</ele>
        <time>2008-06-09T12:09:35Z</time>
      </trkpt>
      <trkpt lat="44.2498888889" lon="6.76529722222">
        <ele>1969.398193</ele>
        <time>2008-06-09T12:13:50Z</time>
      </trkpt>
      <trkpt lat="44.2484583333" lon="6.75796944444">
        <ele>2016.983398</ele>
        <time>2008-06-09T12:16:38Z</time>
      </trkpt>
      <trkpt lat="44.2515555556" lon="6.75533888889">
        <ele>2051.110107</ele>
        <time>2008-06-09T12:18:30Z</time>
      </trkpt>
      <trkpt lat="44.2536555556" lon="6.75008888889">
        <ele>2098.695313</ele>
        <time>2008-06-09T12:20:43Z</time>
      </trkpt>
      <trkpt lat="44.2539083333" lon="6.75405833333">
        <ele>2128.976807</ele>
        <time>2008-06-09T12:22:11Z</time>
      </trkpt>
      <trkpt lat="44.2547472222" lon="6.75185833333">
        <ele>2149.645264</ele>
        <time>2008-06-09T12:23:07Z</time>
      </trkpt>
      <trkpt lat="44.2545388889" lon="6.74937222222">
        <ele>2165.50708</ele>
        <time>2008-06-09T12:24:02Z</time>
      </trkpt>
      <trkpt lat="44.253425" lon="6.74791944444">
        <ele>2178.00415</ele>
        <time>2008-06-09T12:24:49Z</time>
      </trkpt>
      <trkpt lat="44.2547888889" lon="6.74838333333">
        <ele>2195.307861</ele>
        <time>2008-06-09T12:25:32Z</time>
      </trkpt>
      <trkpt lat="44.2556194444" lon="6.75091944444">
        <ele>2227.511963</ele>
        <time>2008-06-09T12:26:34Z</time>
      </trkpt>
      <trkpt lat="44.2554944444" lon="6.74554722222">
        <ele>2275.577881</ele>
        <time>2008-06-09T12:28:33Z</time>
      </trkpt>
      <trkpt lat="44.2604916667" lon="6.74312222222">
        <ele>2304.898193</ele>
        <time>2008-06-09T12:31:16Z</time>
      </trkpt>
      <trkpt lat="44.2637138889" lon="6.74253611111">
        <ele>2278.942383</ele>
        <time>2008-06-09T12:32:57Z</time>
      </trkpt>
      <trkpt lat="44.2643305556" lon="6.74611111111">
        <ele>2252.506348</ele>
        <time>2008-06-09T12:34:18Z</time>
      </trkpt>
      <trkpt lat="44.2698416667" lon="6.74666666667">
        <ele>2208.285645</ele>
        <time>2008-06-09T12:37:09Z</time>
      </trkpt>
      <trkpt lat="44.2729416667" lon="6.74485">
        <ele>2177.042969</ele>
        <time>2008-06-09T12:38:52Z</time>
      </trkpt>
      <trkpt lat="44.2778972222" lon="6.74483055556">
        <ele>2136.186768</ele>
        <time>2008-06-09T12:41:26Z</time>
      </trkpt>
      <trkpt lat="44.2764583333" lon="6.74616666667">
        <ele>2121.286133</ele>
        <time>2008-06-09T12:42:19Z</time>
      </trkpt>
      <trkpt lat="44.2783138889" lon="6.74633611111">
        <ele>2110.231201</ele>
        <time>2008-06-09T12:43:16Z</time>
      </trkpt>
      <trkpt lat="44.2792166667" lon="6.74481111111">
        <ele>2093.408203</ele>
        <time>2008-06-09T12:44:00Z</time>
      </trkpt>
      <trkpt lat="44.2785277778" lon="6.74253055556">
        <ele>2076.585205</ele>
        <time>2008-06-09T12:44:55Z</time>
      </trkpt>
      <trkpt lat="44.2800777778" lon="6.74140833333">
        <ele>2063.607178</ele>
        <time>2008-06-09T12:45:49Z</time>
      </trkpt>
      <trkpt lat="44.2810777778" lon="6.74342222222">
        <ele>2049.1875</ele>
        <time>2008-06-09T12:46:43Z</time>
      </trkpt>
      <trkpt lat="44.2805777778" lon="6.74555">
        <ele>2038.132324</ele>
        <time>2008-06-09T12:47:32Z</time>
      </trkpt>
      <trkpt lat="44.2823111111" lon="6.74626388889">
        <ele>2023.231934</ele>
        <time>2008-06-09T12:48:28Z</time>
      </trkpt>
      <trkpt lat="44.2849833333" lon="6.7451">
        <ele>1991.508301</ele>
        <time>2008-06-09T12:49:55Z</time>
      </trkpt>
      <trkpt lat="44.2838888889" lon="6.74245555556">
        <ele>1967.956055</ele>
        <time>2008-06-09T12:51:02Z</time>
      </trkpt>
      <trkpt lat="44.2875972222" lon="6.74231111111">
        <ele>1952.574951</ele>
        <time>2008-06-09T12:52:57Z</time>
      </trkpt>
      <trkpt lat="44.2910638889" lon="6.74397222222">
        <ele>1935.27124</ele>
        <time>2008-06-09T12:54:50Z</time>
      </trkpt>
      <trkpt lat="44.3019138889" lon="6.74452222222">
        <ele>1890.569824</ele>
        <time>2008-06-09T13:00:25Z</time>
      </trkpt>
      <trkpt lat="44.3070194444" lon="6.74216388889">
        <ele>1863.172363</ele>
        <time>2008-06-09T13:03:11Z</time>
      </trkpt>
      <trkpt lat="44.3097888889" lon="6.73937777778">
        <ele>1842.984619</ele>
        <time>2008-06-09T13:04:57Z</time>
      </trkpt>
      <trkpt lat="44.3104833333" lon="6.73695">
        <ele>1826.161621</ele>
        <time>2008-06-09T13:05:55Z</time>
      </trkpt>
      <trkpt lat="44.3119222222" lon="6.73938055556">
        <ele>1797.322021</ele>
        <time>2008-06-09T13:07:04Z</time>
      </trkpt>
      <trkpt lat="44.31735" lon="6.72864722222">
        <ele>1776.653809</ele>
        <time>2008-06-09T13:11:55Z</time>
      </trkpt>
      <trkpt lat="44.3195527778" lon="6.72170555556">
        <ele>1766.559814</ele>
        <time>2008-06-09T13:14:43Z</time>
      </trkpt>
      <trkpt lat="44.3193944444" lon="6.71673333333">
        <ele>1767.040527</ele>
        <time>2008-06-09T13:16:33Z</time>
      </trkpt>
      <trkpt lat="44.3214277778" lon="6.70999166667">
        <ele>1742.5271</ele>
        <time>2008-06-09T13:19:14Z</time>
      </trkpt>
      <trkpt lat="44.3217361111" lon="6.70055555556">
        <ele>1700.229004</ele>
        <time>2008-06-09T13:22:43Z</time>
      </trkpt>
      <trkpt lat="44.318825" lon="6.69135555556">
        <ele>1670.427979</ele>
        <time>2008-06-09T13:26:25Z</time>
      </trkpt>
      <trkpt lat="44.3194527778" lon="6.68900555556">
        <ele>1667.543945</ele>
        <time>2008-06-09T13:27:21Z</time>
      </trkpt>
      <trkpt lat="44.3186666667" lon="6.68406666667">
        <ele>1664.660156</ele>
        <time>2008-06-09T13:29:13Z</time>
      </trkpt>
      <trkpt lat="44.3234333333" lon="6.66420555556">
        <ele>1581.025635</ele>
        <time>2008-06-09T13:36:56Z</time>
      </trkpt>
      <trkpt lat="44.3231027778" lon="6.66526944444">
        <ele>1573.81543</ele>
        <time>2008-06-09T13:37:21Z</time>
      </trkpt>
      <trkpt lat="44.3226083333" lon="6.66027222222">
        <ele>1548.340576</ele>
        <time>2008-06-09T13:39:13Z</time>
      </trkpt>
      <trkpt lat="44.3201083333" lon="6.65677222222">
        <ele>1519.501221</ele>
        <time>2008-06-09T13:41:02Z</time>
      </trkpt>
      <trkpt lat="44.3196166667" lon="6.65450833333">
        <ele>1504.120117</ele>
        <time>2008-06-09T13:41:54Z</time>
      </trkpt>
      <trkpt lat="44.3181777778" lon="6.63678055556">
        <ele>1449.80542</ele>
        <time>2008-06-09T13:48:29Z</time>
      </trkpt>
      <trkpt lat="44.3207944444" lon="6.61849444444">
        <ele>1365.690186</ele>
        <time>2008-06-09T13:55:21Z</time>
      </trkpt>
      <trkpt lat="44.3229277778" lon="6.61495">
        <ele>1345.983154</ele>
        <time>2008-06-09T13:57:03Z</time>
      </trkpt>
      <trkpt lat="44.3246722222" lon="6.61384444444">
        <ele>1336.369873</ele>
        <time>2008-06-09T13:58:02Z</time>
      </trkpt>
      <trkpt lat="44.3338972222" lon="6.61407222222">
        <ele>1291.668457</ele>
        <time>2008-06-09T14:02:47Z</time>
      </trkpt>
      <trkpt lat="44.3416916667" lon="6.61929722222">
        <ele>1264.270996</ele>
        <time>2008-06-09T14:07:14Z</time>
      </trkpt>
      <trkpt lat="44.3507777778" lon="6.61965277778">
        <ele>1243.121826</ele>
        <time>2008-06-09T14:11:55Z</time>
      </trkpt>
      <trkpt lat="44.3639805556" lon="6.62778333333">
        <ele>1193.133301</ele>
        <time>2008-06-09T14:19:20Z</time>
      </trkpt>
      <trkpt lat="44.37505" lon="6.62775277778">
        <ele>1163.812988</ele>
        <time>2008-06-09T14:25:02Z</time>
      </trkpt>
      <trkpt lat="44.3804805556" lon="6.62942777778">
        <ele>1152.758057</ele>
        <time>2008-06-09T14:27:54Z</time>
      </trkpt>
      <trkpt lat="44.3827638889" lon="6.63336111111">
        <ele>1146.509521</ele>
        <time>2008-06-09T14:29:46Z</time>
      </trkpt>
      <trkpt lat="44.3850666667" lon="6.65297777778">
        <ele>1155.161377</ele>
        <time>2008-06-09T14:37:05Z</time>
      </trkpt>
      <trkpt lat="44.3860944444" lon="6.65415277778">
        <ele>1156.122559</ele>
        <time>2008-06-09T14:37:46Z</time>
      </trkpt>
      <trkpt lat="44.3879138889" lon="6.65350833333">
        <ele>1155.64209</ele>
        <time>2008-06-09T14:38:44Z</time>
      </trkpt>
      <trkpt lat="44.38745" lon="6.64993055556">
        <ele>1149.874268</ele>
        <time>2008-06-09T14:40:04Z</time>
      </trkpt>
      <trkpt lat="44.3859222222" lon="6.65021666667">
        <ele>1147.470703</ele>
        <time>2008-06-09T14:40:52Z</time>
      </trkpt>
      <trkpt lat="44.3867305556" lon="6.65160277778">
        <ele>1151.796875</ele>
        <time>2008-06-09T14:41:31Z</time>
      </trkpt>
      <trkpt lat="44.3867305556" lon="6.65160277778">
        <ele>1128.725098</ele>
        <time>2008-06-09T14:41:31Z</time>
      </trkpt>
      <trkpt lat="44.3851583333" lon="6.64771111111">
        <ele>1148.912842</ele>
        <time>2008-06-09T14:43:10Z</time>
      </trkpt>
      <trkpt lat="44.3862527778" lon="6.64273888889">
        <ele>1145.067383</ele>
        <time>2008-06-09T14:45:05Z</time>
      </trkpt>
      <trkpt lat="44.3865138889" lon="6.62915833333">
        <ele>1136.89624</ele>
        <time>2008-06-09T14:50:05Z</time>
      </trkpt>
      <trkpt lat="44.3856611111" lon="6.60538888889">
        <ele>1136.415771</ele>
        <time>2008-06-09T14:58:50Z</time>
      </trkpt>
      <trkpt lat="44.3904972222" lon="6.5907">
        <ele>1118.150635</ele>
        <time>2008-06-09T15:04:47Z</time>
      </trkpt>
      <trkpt lat="44.3899472222" lon="6.58287222222">
        <ele>1124.39917</ele>
        <time>2008-06-09T15:07:40Z</time>
      </trkpt>
      <trkpt lat="44.3933388889" lon="6.57354722222">
        <ele>1113.343994</ele>
        <time>2008-06-09T15:11:31Z</time>
      </trkpt>
      <trkpt lat="44.3925694444" lon="6.56593055556">
        <ele>1126.321777</ele>
        <time>2008-06-09T15:14:21Z</time>
      </trkpt>
      <trkpt lat="44.3935722222" lon="6.558425">
        <ele>1106.614746</ele>
        <time>2008-06-09T15:17:10Z</time>
      </trkpt>
      <trkpt lat="44.3931361111" lon="6.55585277778">
        <ele>1100.846924</ele>
        <time>2008-06-09T15:18:08Z</time>
      </trkpt>
      <trkpt lat="44.3941777778" lon="6.550775">
        <ele>1098.443359</ele>
        <time>2008-06-09T15:20:05Z</time>
      </trkpt>
      <trkpt lat="44.3992277778" lon="6.5429">
        <ele>1084.985352</ele>
        <time>2008-06-09T15:23:58Z</time>
      </trkpt>
      <trkpt lat="44.3998416667" lon="6.54048611111">
        <ele>1084.985352</ele>
        <time>2008-06-09T15:24:55Z</time>
      </trkpt>
      <trkpt lat="44.3989888889" lon="6.5352">
        <ele>1083.542969</ele>
        <time>2008-06-09T15:26:54Z</time>
      </trkpt>
      <trkpt lat="44.4014361111" lon="6.52588055556">
        <ele>1075.371826</ele>
        <time>2008-06-09T15:30:34Z</time>
      </trkpt>
      <trkpt lat="44.4005805556" lon="6.52063055556">
        <ele>1064.797363</ele>
        <time>2008-06-09T15:32:32Z</time>
      </trkpt>
      <trkpt lat="44.4016583333" lon="6.50784722222">
        <ele>1049.896973</ele>
        <time>2008-06-09T15:37:16Z</time>
      </trkpt>
      <trkpt lat="44.3998277778" lon="6.50350555556">
        <ele>1036.438721</ele>
        <time>2008-06-09T15:39:08Z</time>
      </trkpt>
      <trkpt lat="44.4007833333" lon="6.501375">
        <ele>1030.189941</ele>
        <time>2008-06-09T15:40:03Z</time>
      </trkpt>
      <trkpt lat="44.4005222222" lon="6.49618055556">
        <ele>1015.289551</ele>
        <time>2008-06-09T15:41:58Z</time>
      </trkpt>
      <trkpt lat="44.399275" lon="6.49426388889">
        <ele>1005.676514</ele>
        <time>2008-06-09T15:42:55Z</time>
      </trkpt>
      <trkpt lat="44.3978277778" lon="6.48699444444">
        <ele>984.527344</ele>
        <time>2008-06-09T15:45:42Z</time>
      </trkpt>
      <trkpt lat="44.3967444444" lon="6.48496666667">
        <ele>975.875488</ele>
        <time>2008-06-09T15:46:38Z</time>
      </trkpt>
      <trkpt lat="44.3967861111" lon="6.47704722222">
        <ele>980.682129</ele>
        <time>2008-06-09T15:49:32Z</time>
      </trkpt>
      <trkpt lat="44.3972611111" lon="6.47458333333">
        <ele>984.046631</ele>
        <time>2008-06-09T15:50:29Z</time>
      </trkpt>
      <trkpt lat="44.3997305556" lon="6.47061111111">
        <ele>972.030273</ele>
        <time>2008-06-09T15:52:25Z</time>
      </trkpt>
      <trkpt lat="44.4014111111" lon="6.46928055556">
        <ele>962.416992</ele>
        <time>2008-06-09T15:53:25Z</time>
      </trkpt>
      <trkpt lat="44.4028277778" lon="6.46388888889">
        <ele>953.765137</ele>
        <time>2008-06-09T15:55:31Z</time>
      </trkpt>
      <trkpt lat="44.4075222222" lon="6.45564166667">
        <ele>941.748779</ele>
        <time>2008-06-09T15:59:24Z</time>
      </trkpt>
      <trkpt lat="44.4107361111" lon="6.45349444444">
        <ele>944.1521</ele>
        <time>2008-06-09T16:01:14Z</time>
      </trkpt>
      <trkpt lat="44.4123666667" lon="6.44938888889">
        <ele>938.384033</ele>
        <time>2008-06-09T16:02:58Z</time>
      </trkpt>
      <trkpt lat="44.4190166667" lon="6.44660833333">
        <ele>918.677002</ele>
        <time>2008-06-09T16:06:32Z</time>
      </trkpt>
      <trkpt lat="44.4220555556" lon="6.44367222222">
        <ele>910.986572</ele>
        <time>2008-06-09T16:08:26Z</time>
      </trkpt>
      <trkpt lat="44.4256472222" lon="6.43765833333">
        <ele>914.351074</ele>
        <time>2008-06-09T16:11:19Z</time>
      </trkpt>
      <trkpt lat="44.4285611111" lon="6.43469166667">
        <ele>915.793213</ele>
        <time>2008-06-09T16:13:10Z</time>
      </trkpt>
      <trkpt lat="44.430125" lon="6.43016666667">
        <ele>917.235107</ele>
        <time>2008-06-09T16:15:01Z</time>
      </trkpt>
      <trkpt lat="44.4357777778" lon="6.42326388889">
        <ele>928.290283</ele>
        <time>2008-06-09T16:18:53Z</time>
      </trkpt>
      <trkpt lat="44.4384277778" lon="6.417025">
        <ele>919.638428</ele>
        <time>2008-06-09T16:21:33Z</time>
      </trkpt>
      <trkpt lat="44.4447527778" lon="6.41094444444">
        <ele>946.074707</ele>
        <time>2008-06-09T16:25:30Z</time>
      </trkpt>
      <trkpt lat="44.4455833333" lon="6.40882777778">
        <ele>950.400635</ele>
        <time>2008-06-09T16:26:23Z</time>
      </trkpt>
      <trkpt lat="44.4471944444" lon="6.40095833333">
        <ele>980.682129</ele>
        <time>2008-06-09T16:29:24Z</time>
      </trkpt>
      <trkpt lat="44.4464222222" lon="6.39333055556">
        <ele>1014.328125</ele>
        <time>2008-06-09T16:32:14Z</time>
      </trkpt>
      <trkpt lat="44.4432416667" lon="6.39111666667">
        <ele>1036.438721</ele>
        <time>2008-06-09T16:34:03Z</time>
      </trkpt>
      <trkpt lat="44.4433416667" lon="6.38883888889">
        <ele>1048.454834</ele>
        <time>2008-06-09T16:34:54Z</time>
      </trkpt>
      <trkpt lat="44.4445527778" lon="6.38730277778">
        <ele>1059.510254</ele>
        <time>2008-06-09T16:35:44Z</time>
      </trkpt>
      <trkpt lat="44.4435972222" lon="6.38209444444">
        <ele>1080.65918</ele>
        <time>2008-06-09T16:37:43Z</time>
      </trkpt>
      <trkpt lat="44.4444611111" lon="6.37976388889">
        <ele>1089.311035</ele>
        <time>2008-06-09T16:38:41Z</time>
      </trkpt>
      <trkpt lat="44.4459833333" lon="6.37829722222">
        <ele>1099.885498</ele>
        <time>2008-06-09T16:39:38Z</time>
      </trkpt>
      <trkpt lat="44.4514305556" lon="6.37551111111">
        <ele>1127.283203</ele>
        <time>2008-06-09T16:42:37Z</time>
      </trkpt>
      <trkpt lat="44.4523583333" lon="6.37371944444">
        <ele>1134.973877</ele>
        <time>2008-06-09T16:43:26Z</time>
      </trkpt>
      <trkpt lat="44.4514277778" lon="6.37166111111">
        <ele>1144.106201</ele>
        <time>2008-06-09T16:44:19Z</time>
      </trkpt>
      <trkpt lat="44.4458111111" lon="6.36968333333">
        <ele>1129.686279</ele>
        <time>2008-06-09T16:47:18Z</time>
      </trkpt>
      <trkpt lat="44.4437194444" lon="6.3654">
        <ele>1104.692139</ele>
        <time>2008-06-09T16:49:13Z</time>
      </trkpt>
      <trkpt lat="44.4467583333" lon="6.36357222222">
        <ele>1079.697754</ele>
        <time>2008-06-09T16:50:55Z</time>
      </trkpt>
      <trkpt lat="44.4474361111" lon="6.35833611111">
        <ele>1058.548828</ele>
        <time>2008-06-09T16:52:52Z</time>
      </trkpt>
      <trkpt lat="44.4470222222" lon="6.355875">
        <ele>1046.532471</ele>
        <time>2008-06-09T16:53:48Z</time>
      </trkpt>
      <trkpt lat="44.4432138889" lon="6.34999722222">
        <ele>1016.731445</ele>
        <time>2008-06-09T16:56:43Z</time>
      </trkpt>
      <trkpt lat="44.4443777778" lon="6.34214444444">
        <ele>1013.366943</ele>
        <time>2008-06-09T16:59:40Z</time>
      </trkpt>
      <trkpt lat="44.4470055556" lon="6.33841111111">
        <ele>1028.748047</ele>
        <time>2008-06-09T17:01:35Z</time>
      </trkpt>
      <trkpt lat="44.4486472222" lon="6.333625">
        <ele>1022.499512</ele>
        <time>2008-06-09T17:03:32Z</time>
      </trkpt>
      <trkpt lat="44.4478277778" lon="6.33137777778">
        <ele>1010.002197</ele>
        <time>2008-06-09T17:04:28Z</time>
      </trkpt>
      <trkpt lat="44.4461444444" lon="6.32992777778">
        <ele>999.427734</ele>
        <time>2008-06-09T17:05:29Z</time>
      </trkpt>
      <trkpt lat="44.44615" lon="6.32765277778">
        <ele>993.659912</ele>
        <time>2008-06-09T17:06:19Z</time>
      </trkpt>
      <trkpt lat="44.4545333333" lon="6.31681666667">
        <ele>990.775879</ele>
        <time>2008-06-09T17:12:12Z</time>
      </trkpt>
      <trkpt lat="44.4563166667" lon="6.3121">
        <ele>1001.831055</ele>
        <time>2008-06-09T17:14:09Z</time>
      </trkpt>
      <trkpt lat="44.4556861111" lon="6.30414722222">
        <ele>972.991699</ele>
        <time>2008-06-09T17:17:06Z</time>
      </trkpt>
      <trkpt lat="44.4548166667" lon="6.30191388889">
        <ele>959.533203</ele>
        <time>2008-06-09T17:18:02Z</time>
      </trkpt>
      <trkpt lat="44.4511305556" lon="6.3006">
        <ele>949.919922</ele>
        <time>2008-06-09T17:19:59Z</time>
      </trkpt>
      <trkpt lat="44.4516833333" lon="6.29835833333">
        <ele>943.190674</ele>
        <time>2008-06-09T17:20:52Z</time>
      </trkpt>
      <trkpt lat="44.4585416667" lon="6.28941944444">
        <ele>927.329102</ele>
        <time>2008-06-09T17:25:41Z</time>
      </trkpt>
      <trkpt lat="44.4603388889" lon="6.28833888889">
        <ele>915.3125</ele>
        <time>2008-06-09T17:26:41Z</time>
      </trkpt>
      <trkpt lat="44.4639472222" lon="6.28803888889">
        <ele>891.279297</ele>
        <time>2008-06-09T17:28:33Z</time>
      </trkpt>
      <trkpt lat="44.4644055556" lon="6.28568888889">
        <ele>880.705078</ele>
        <time>2008-06-09T17:29:27Z</time>
      </trkpt>
      <trkpt lat="44.4619527778" lon="6.27560555556">
        <ele>836.484375</ele>
        <time>2008-06-09T17:33:22Z</time>
      </trkpt>
      <trkpt lat="44.4622277778" lon="6.27060555556">
        <ele>820.141846</ele>
        <time>2008-06-09T17:35:12Z</time>
      </trkpt>
      <trkpt lat="44.4635027778" lon="6.26923888889">
        <ele>808.125488</ele>
        <time>2008-06-09T17:36:02Z</time>
      </trkpt>
      <trkpt lat="44.4632527778" lon="6.26666111111">
        <ele>800.915527</ele>
        <time>2008-06-09T17:36:59Z</time>
      </trkpt>
      <trkpt lat="44.4576444444" lon="6.24003055556">
        <ele>684.115479</ele>
        <time>2008-06-09T17:47:11Z</time>
      </trkpt>
      <trkpt lat="44.4607222222" lon="6.2372">
        <ele>671.137695</ele>
        <time>2008-06-09T17:49:05Z</time>
      </trkpt>
      <trkpt lat="44.4642277778" lon="6.23543611111">
        <ele>666.330811</ele>
        <time>2008-06-09T17:51:00Z</time>
      </trkpt>
      <trkpt lat="44.4654833333" lon="6.23604722222">
        <ele>666.330811</ele>
        <time>2008-06-09T17:51:41Z</time>
      </trkpt>
      <trkpt lat="44.4665083333" lon="6.24108333333">
        <ele>667.292236</ele>
        <time>2008-06-09T17:53:36Z</time>
      </trkpt>
      <trkpt lat="44.4661305556" lon="6.24624722222">
        <ele>668.734375</ele>
        <time>2008-06-09T17:55:31Z</time>
      </trkpt>
      <trkpt lat="44.4685083333" lon="6.25893333333">
        <ele>673.060303</ele>
        <time>2008-06-09T18:00:20Z</time>
      </trkpt>
      <trkpt lat="44.4690583333" lon="6.26694444444">
        <ele>708.628906</ele>
        <time>2008-06-09T18:03:17Z</time>
      </trkpt>
      <trkpt lat="44.4707027778" lon="6.26603333333">
        <ele>722.087402</ele>
        <time>2008-06-09T18:04:12Z</time>
      </trkpt>
      <trkpt lat="44.4709416667" lon="6.2654">
        <ele>736.026611</ele>
        <time>2008-06-09T18:04:28Z</time>
      </trkpt>
      <trkpt lat="44.4697166667" lon="6.26496944444">
        <ele>752.849609</ele>
        <time>2008-06-09T18:05:07Z</time>
      </trkpt>
      <trkpt lat="44.4712305556" lon="6.26318888889">
        <ele>770.15332</ele>
        <time>2008-06-09T18:06:08Z</time>
      </trkpt>
      <trkpt lat="44.4729222222" lon="6.26439444444">
        <ele>800.915527</ele>
        <time>2008-06-09T18:07:06Z</time>
      </trkpt>
      <trkpt lat="44.4726472222" lon="6.26307777778">
        <ele>817.258057</ele>
        <time>2008-06-09T18:07:37Z</time>
      </trkpt>
      <trkpt lat="44.4758416667" lon="6.27163055556">
        <ele>863.881836</ele>
        <time>2008-06-09T18:11:09Z</time>
      </trkpt>
      <trkpt lat="44.4773944444" lon="6.27251944444">
        <ele>849.942871</ele>
        <time>2008-06-09T18:12:01Z</time>
      </trkpt>
      <trkpt lat="44.4792638889" lon="6.27194166667">
        <ele>833.119629</ele>
        <time>2008-06-09T18:13:00Z</time>
      </trkpt>
      <trkpt lat="44.4819055556" lon="6.26958333333">
        <ele>808.125488</ele>
        <time>2008-06-09T18:14:37Z</time>
      </trkpt>
      <trkpt lat="44.4835722222" lon="6.27070555556">
        <ele>811.970703</ele>
        <time>2008-06-09T18:15:34Z</time>
      </trkpt>
      <trkpt lat="44.4842861111" lon="6.27324166667">
        <ele>844.175049</ele>
        <time>2008-06-09T18:16:34Z</time>
      </trkpt>
      <trkpt lat="44.4850194444" lon="6.27086666667">
        <ele>860.517334</ele>
        <time>2008-06-09T18:17:31Z</time>
      </trkpt>
      <trkpt lat="44.4866527778" lon="6.270175">
        <ele>876.859863</ele>
        <time>2008-06-09T18:18:24Z</time>
      </trkpt>
      <trkpt lat="44.4862555556" lon="6.27382777778">
        <ele>912.90918</ele>
        <time>2008-06-09T18:19:46Z</time>
      </trkpt>
      <trkpt lat="44.4894722222" lon="6.28045">
        <ele>954.24585</ele>
        <time>2008-06-09T18:22:42Z</time>
      </trkpt>
      <trkpt lat="44.4913583333" lon="6.28118888889">
        <ele>972.030273</ele>
        <time>2008-06-09T18:23:43Z</time>
      </trkpt>
      <trkpt lat="44.4931222222" lon="6.2806">
        <ele>989.814697</ele>
        <time>2008-06-09T18:24:39Z</time>
      </trkpt>
      <trkpt lat="44.4946861111" lon="6.28168333333">
        <ele>1003.272949</ele>
        <time>2008-06-09T18:25:32Z</time>
      </trkpt>
      <trkpt lat="44.4952" lon="6.28422222222">
        <ele>1021.538086</ele>
        <time>2008-06-09T18:26:31Z</time>
      </trkpt>
      <trkpt lat="44.502025" lon="6.28483055556">
        <ele>1084.985352</ele>
        <time>2008-06-09T18:30:02Z</time>
      </trkpt>
      <trkpt lat="44.505625" lon="6.28377777778">
        <ele>1113.824463</ele>
        <time>2008-06-09T18:31:55Z</time>
      </trkpt>
      <trkpt lat="44.5073805556" lon="6.28443055556">
        <ele>1110.940674</ele>
        <time>2008-06-09T18:32:51Z</time>
      </trkpt>
      <trkpt lat="44.5086722222" lon="6.28916666667">
        <ele>1085.46582</ele>
        <time>2008-06-09T18:34:43Z</time>
      </trkpt>
      <trkpt lat="44.5046166667" lon="6.29418888889">
        <ele>1055.184326</ele>
        <time>2008-06-09T18:37:30Z</time>
      </trkpt>
      <trkpt lat="44.5061" lon="6.293975">
        <ele>1045.090332</ele>
        <time>2008-06-09T18:38:16Z</time>
      </trkpt>
      <trkpt lat="44.5109666667" lon="6.29006944444">
        <ele>998.466309</ele>
        <time>2008-06-09T18:41:09Z</time>
      </trkpt>
      <trkpt lat="44.510725" lon="6.28748055556">
        <ele>980.201416</ele>
        <time>2008-06-09T18:42:07Z</time>
      </trkpt>
      <trkpt lat="44.5134083333" lon="6.28223055556">
        <ele>935.980713</ele>
        <time>2008-06-09T18:44:29Z</time>
      </trkpt>
      <trkpt lat="44.5143972222" lon="6.28993055556">
        <ele>902.815186</ele>
        <time>2008-06-09T18:47:22Z</time>
      </trkpt>
      <trkpt lat="44.5157027778" lon="6.29164166667">
        <ele>893.202148</ele>
        <time>2008-06-09T18:48:17Z</time>
      </trkpt>
      <trkpt lat="44.517625" lon="6.29213055556">
        <ele>882.146973</ele>
        <time>2008-06-09T18:49:17Z</time>
      </trkpt>
      <trkpt lat="44.5233666667" lon="6.28990277778">
        <ele>847.058838</ele>
        <time>2008-06-09T18:52:21Z</time>
      </trkpt>
      <trkpt lat="44.5291166667" lon="6.29055">
        <ele>819.661377</ele>
        <time>2008-06-09T18:55:19Z</time>
      </trkpt>
      <trkpt lat="44.5308638889" lon="6.28959722222">
        <ele>813.893311</ele>
        <time>2008-06-09T18:56:17Z</time>
      </trkpt>
      <trkpt lat="44.5323194444" lon="6.28505">
        <ele>823.506592</ele>
        <time>2008-06-09T18:58:07Z</time>
      </trkpt>
      <trkpt lat="44.5370972222" lon="6.28073888889">
        <ele>842.252197</ele>
        <time>2008-06-09T19:01:02Z</time>
      </trkpt>
      <trkpt lat="44.5408222222" lon="6.27999444444">
        <ele>851.384766</ele>
        <time>2008-06-09T19:02:59Z</time>
      </trkpt>
      <trkpt lat="44.5442361111" lon="6.27798611111">
        <ele>864.362549</ele>
        <time>2008-06-09T19:04:53Z</time>
      </trkpt>
      <trkpt lat="44.5460194444" lon="6.27846944444">
        <ele>873.014404</ele>
        <time>2008-06-09T19:05:49Z</time>
      </trkpt>
      <trkpt lat="44.5472472222" lon="6.27787222222">
        <ele>876.859863</ele>
        <time>2008-06-09T19:06:29Z</time>
      </trkpt>
      <trkpt lat="44.5459583333" lon="6.27394166667">
        <ele>864.843262</ele>
        <time>2008-06-09T19:08:04Z</time>
      </trkpt>
      <trkpt lat="44.5514166667" lon="6.25733055556">
        <ele>861.959473</ele>
        <time>2008-06-09T19:14:47Z</time>
      </trkpt>
      <trkpt lat="44.5518138889" lon="6.24945">
        <ele>854.749268</ele>
        <time>2008-06-09T19:17:41Z</time>
      </trkpt>
      <trkpt lat="44.5528972222" lon="6.24431388889">
        <ele>840.810059</ele>
        <time>2008-06-09T19:19:39Z</time>
      </trkpt>
      <trkpt lat="44.5564861111" lon="6.23804722222">
        <ele>823.506592</ele>
        <time>2008-06-09T19:22:36Z</time>
      </trkpt>
      <trkpt lat="44.5570472222" lon="6.23555">
        <ele>814.374023</ele>
        <time>2008-06-09T19:23:33Z</time>
      </trkpt>
      <trkpt lat="44.5599555556" lon="6.21472222222">
        <ele>824.948486</ele>
        <time>2008-06-09T19:31:21Z</time>
      </trkpt>
      <trkpt lat="44.5614916667" lon="6.20984166667">
        <ele>840.32959</ele>
        <time>2008-06-09T19:33:18Z</time>
      </trkpt>
      <trkpt lat="44.563375" lon="6.19673333333">
        <ele>859.555908</ele>
        <time>2008-06-09T19:38:12Z</time>
      </trkpt>
      <trkpt lat="44.565125" lon="6.19222222222">
        <ele>868.688477</ele>
        <time>2008-06-09T19:40:05Z</time>
      </trkpt>
      <trkpt lat="44.5689472222" lon="6.18645277778">
        <ele>859.075195</ele>
        <time>2008-06-09T19:42:59Z</time>
      </trkpt>
      <trkpt lat="44.5769833333" lon="6.16229444444">
        <ele>838.406982</ele>
        <time>2008-06-09T19:52:45Z</time>
      </trkpt>
      <trkpt lat="44.5778527778" lon="6.12280833333">
        <ele>803.799561</ele>
        <time>2008-06-09T20:07:14Z</time>
      </trkpt>
      <trkpt lat="44.5754611111" lon="6.11254444444">
        <ele>778.324463</ele>
        <time>2008-06-09T20:11:12Z</time>
      </trkpt>
      <trkpt lat="44.5701194444" lon="6.10465555556">
        <ele>758.617432</ele>
        <time>2008-06-09T20:15:11Z</time>
      </trkpt>
      <trkpt lat="44.5622777778" lon="6.08446388889">
        <ele>743.236328</ele>
        <time>2008-06-09T20:23:38Z</time>
      </trkpt>
      <trkpt lat="44.5716194444" lon="6.08297777778">
        <ele>796.109131</ele>
        <time>2008-06-09T20:28:28Z</time>
      </trkpt>
      <trkpt lat="44.5728944444" lon="6.08168333333">
        <ele>811.009277</ele>
        <time>2008-06-09T20:29:17Z</time>
      </trkpt>
      <trkpt lat="44.5726805556" lon="6.07653055556">
        <ele>834.081055</ele>
        <time>2008-06-09T20:31:10Z</time>
      </trkpt>
      <trkpt lat="44.5740722222" lon="6.07468333333">
        <ele>847.058838</ele>
        <time>2008-06-09T20:32:09Z</time>
      </trkpt>
      <trkpt lat="44.5759583333" lon="6.07466111111">
        <ele>859.555908</ele>
        <time>2008-06-09T20:33:08Z</time>
      </trkpt>
      <trkpt lat="44.5773972222" lon="6.07969444444">
        <ele>887.434082</ele>
        <time>2008-06-09T20:35:07Z</time>
      </trkpt>
      <trkpt lat="44.5787916667" lon="6.08155277778">
        <ele>899.450684</ele>
        <time>2008-06-09T20:36:06Z</time>
      </trkpt>
      <trkpt lat="44.5806722222" lon="6.08213888889">
        <ele>916.754395</ele>
        <time>2008-06-09T20:37:06Z</time>
      </trkpt>
      <trkpt lat="44.5815" lon="6.08071666667">
        <ele>929.251465</ele>
        <time>2008-06-09T20:37:46Z</time>
      </trkpt>
      <trkpt lat="44.584075" lon="6.08313611111">
        <ele>975.875488</ele>
        <time>2008-06-09T20:39:22Z</time>
      </trkpt>
      <trkpt lat="44.5843555556" lon="6.081575">
        <ele>987.891846</ele>
        <time>2008-06-09T20:39:57Z</time>
      </trkpt>
      <trkpt lat="44.5880555556" lon="6.08125277778">
        <ele>1010.48291</ele>
        <time>2008-06-09T20:41:52Z</time>
      </trkpt>
      <trkpt lat="44.5895944444" lon="6.08036666667">
        <ele>1025.864014</ele>
        <time>2008-06-09T20:42:43Z</time>
      </trkpt>
      <trkpt lat="44.5906277778" lon="6.08161666667">
        <ele>1043.648438</ele>
        <time>2008-06-09T20:43:25Z</time>
      </trkpt>
      <trkpt lat="44.5913722222" lon="6.080825">
        <ele>1059.990723</ele>
        <time>2008-06-09T20:43:54Z</time>
      </trkpt>
      <trkpt lat="44.5943083333" lon="6.08073611111">
        <ele>1100.366455</ele>
        <time>2008-06-09T20:45:25Z</time>
      </trkpt>
      <trkpt lat="44.5991583333" lon="6.08379166667">
        <ele>1160.929199</ele>
        <time>2008-06-09T20:48:09Z</time>
      </trkpt>
      <trkpt lat="44.6005111111" lon="6.08213055556">
        <ele>1182.078369</ele>
        <time>2008-06-09T20:49:05Z</time>
      </trkpt>
      <trkpt lat="44.6008722222" lon="6.07963888889">
        <ele>1197.940186</ele>
        <time>2008-06-09T20:50:00Z</time>
      </trkpt>
      <trkpt lat="44.6041694444" lon="6.08118055556">
        <ele>1223.895508</ele>
        <time>2008-06-09T20:51:48Z</time>
      </trkpt>
      <trkpt lat="44.609925" lon="6.08050833333">
        <ele>1241.679932</ele>
        <time>2008-06-09T20:54:46Z</time>
      </trkpt>
      <trkpt lat="44.63845" lon="6.08531944444">
        <ele>1190.72998</ele>
        <time>2008-06-09T21:09:34Z</time>
      </trkpt>
      <trkpt lat="44.6422638889" lon="6.08467222222">
        <ele>1159.006592</ele>
        <time>2008-06-09T21:11:32Z</time>
      </trkpt>
      <trkpt lat="44.6495666667" lon="6.08674722222">
        <ele>1100.846924</ele>
        <time>2008-06-09T21:15:22Z</time>
      </trkpt>
      <trkpt lat="44.6548027778" lon="6.08485277778">
        <ele>1041.72583</ele>
        <time>2008-06-09T21:18:09Z</time>
      </trkpt>
      <trkpt lat="44.6585361111" lon="6.08486111111">
        <ele>1011.925049</ele>
        <time>2008-06-09T21:20:05Z</time>
      </trkpt>
      <trkpt lat="44.6656194444" lon="6.08185">
        <ele>993.179199</ele>
        <time>2008-06-09T21:23:53Z</time>
      </trkpt>
      <trkpt lat="44.6794" lon="6.06843333333">
        <ele>961.455811</ele>
        <time>2008-06-09T21:32:31Z</time>
      </trkpt>
      <trkpt lat="44.6919305556" lon="6.06240277778">
        <ele>947.516602</ele>
        <time>2008-06-09T21:39:20Z</time>
      </trkpt>
      <trkpt lat="44.7001416667" lon="6.055775">
        <ele>933.09668</ele>
        <time>2008-06-09T21:44:12Z</time>
      </trkpt>
      <trkpt lat="44.70085" lon="6.05056111111">
        <ele>928.290283</ele>
        <time>2008-06-09T21:46:09Z</time>
      </trkpt>
      <trkpt lat="44.7029388889" lon="6.04586944444">
        <ele>922.522217</ele>
        <time>2008-06-09T21:48:11Z</time>
      </trkpt>
      <trkpt lat="44.7046805556" lon="6.04454722222">
        <ele>926.367676</ele>
        <time>2008-06-09T21:49:12Z</time>
      </trkpt>
      <trkpt lat="44.7114777778" lon="6.03436111111">
        <ele>902.334473</ele>
        <time>2008-06-09T21:54:18Z</time>
      </trkpt>
      <trkpt lat="44.7235222222" lon="6.01396111111">
        <ele>873.014404</ele>
        <time>2008-06-09T22:04:01Z</time>
      </trkpt>
      <trkpt lat="44.7326388889" lon="6.00444722222">
        <ele>856.191162</ele>
        <time>2008-06-09T22:09:51Z</time>
      </trkpt>
      <trkpt lat="44.7344083333" lon="6.00387222222">
        <ele>852.82666</ele>
        <time>2008-06-09T22:10:47Z</time>
      </trkpt>
      <trkpt lat="44.7393722222" lon="6.00635277778">
        <ele>878.782471</ele>
        <time>2008-06-09T22:13:30Z</time>
      </trkpt>
      <trkpt lat="44.7547666667" lon="6.00906111111">
        <ele>909.063965</ele>
        <time>2008-06-09T22:21:29Z</time>
      </trkpt>
      <trkpt lat="44.7574527778" lon="6.00693055556">
        <ele>914.831787</ele>
        <time>2008-06-09T22:23:04Z</time>
      </trkpt>
      <trkpt lat="44.7640833333" lon="6.01248611111">
        <ele>905.218506</ele>
        <time>2008-06-09T22:27:03Z</time>
      </trkpt>
      <trkpt lat="44.7658194444" lon="6.01341944444">
        <ele>904.737793</ele>
        <time>2008-06-09T22:28:00Z</time>
      </trkpt>
      <trkpt lat="44.7676194444" lon="6.01312222222">
        <ele>905.218506</ele>
        <time>2008-06-09T22:28:56Z</time>
      </trkpt>
      <trkpt lat="44.7706944444" lon="6.01936388889">
        <ele>885.511475</ele>
        <time>2008-06-09T22:31:43Z</time>
      </trkpt>
      <trkpt lat="44.7698944444" lon="6.02168333333">
        <ele>878.301758</ele>
        <time>2008-06-09T22:32:39Z</time>
      </trkpt>
      <trkpt lat="44.7705527778" lon="6.02403333333">
        <ele>864.843262</ele>
        <time>2008-06-09T22:33:35Z</time>
      </trkpt>
      <trkpt lat="44.7722722222" lon="6.0243">
        <ele>855.22998</ele>
        <time>2008-06-09T22:34:28Z</time>
      </trkpt>
      <trkpt lat="44.7731555556" lon="6.01891666667">
        <ele>832.158447</ele>
        <time>2008-06-09T22:36:29Z</time>
      </trkpt>
      <trkpt lat="44.7758555556" lon="6.01591111111">
        <ele>818.699951</ele>
        <time>2008-06-09T22:38:15Z</time>
      </trkpt>
      <trkpt lat="44.7784194444" lon="6.00294444444">
        <ele>810.528564</ele>
        <time>2008-06-09T22:43:11Z</time>
      </trkpt>
      <trkpt lat="44.7782833333" lon="5.99764444444">
        <ele>807.644775</ele>
        <time>2008-06-09T22:45:07Z</time>
      </trkpt>
      <trkpt lat="44.7767333333" lon="5.99023611111">
        <ele>807.644775</ele>
        <time>2008-06-09T22:47:56Z</time>
      </trkpt>
      <trkpt lat="44.7782583333" lon="5.98543333333">
        <ele>802.838135</ele>
        <time>2008-06-09T22:49:52Z</time>
      </trkpt>
      <trkpt lat="44.789325" lon="5.9816">
        <ele>787.457031</ele>
        <time>2008-06-09T22:55:44Z</time>
      </trkpt>
      <trkpt lat="44.7927111111" lon="5.97933055556">
        <ele>787.937744</ele>
        <time>2008-06-09T22:57:39Z</time>
      </trkpt>
      <trkpt lat="44.7939527778" lon="5.97743055556">
        <ele>811.970703</ele>
        <time>2008-06-09T22:58:36Z</time>
      </trkpt>
      <trkpt lat="44.7975055556" lon="5.97763888889">
        <ele>853.307373</ele>
        <time>2008-06-09T23:00:26Z</time>
      </trkpt>
      <trkpt lat="44.7981194444" lon="5.97542777778">
        <ele>875.41748</ele>
        <time>2008-06-09T23:01:18Z</time>
      </trkpt>
      <trkpt lat="44.7993638889" lon="5.97491944444">
        <ele>887.434082</ele>
        <time>2008-06-09T23:01:58Z</time>
      </trkpt>
      <trkpt lat="44.7994083333" lon="5.97015277778">
        <ele>908.102783</ele>
        <time>2008-06-09T23:03:42Z</time>
      </trkpt>
      <trkpt lat="44.8030944444" lon="5.96116944444">
        <ele>953.765137</ele>
        <time>2008-06-09T23:07:30Z</time>
      </trkpt>
      <trkpt lat="44.8032861111" lon="5.95866666667">
        <ele>949.439209</ele>
        <time>2008-06-09T23:08:25Z</time>
      </trkpt>
      <trkpt lat="44.8067444444" lon="5.95416388889">
        <ele>908.102783</ele>
        <time>2008-06-09T23:10:50Z</time>
      </trkpt>
      <trkpt lat="44.8075888889" lon="5.95195">
        <ele>919.638428</ele>
        <time>2008-06-09T23:11:46Z</time>
      </trkpt>
      <trkpt lat="44.8091055556" lon="5.95040555556">
        <ele>930.693604</ele>
        <time>2008-06-09T23:12:43Z</time>
      </trkpt>
      <trkpt lat="44.810225" lon="5.95063055556">
        <ele>930.212891</ele>
        <time>2008-06-09T23:13:18Z</time>
      </trkpt>
      <trkpt lat="44.8082666667" lon="5.95113888889">
        <ele>930.693604</ele>
        <time>2008-06-09T23:14:20Z</time>
      </trkpt>
      <trkpt lat="44.8049833333" lon="5.95661944444">
        <ele>938.864746</ele>
        <time>2008-06-09T23:16:57Z</time>
      </trkpt>
      <trkpt lat="44.8035" lon="5.95788333333">
        <ele>951.361816</ele>
        <time>2008-06-09T23:17:50Z</time>
      </trkpt>
      <trkpt lat="44.7992888889" lon="5.97173333333">
        <ele>913.870361</ele>
        <time>2008-06-09T23:23:21Z</time>
      </trkpt>
      <trkpt lat="44.7998416667" lon="5.97423611111">
        <ele>904.737793</ele>
        <time>2008-06-09T23:24:18Z</time>
      </trkpt>
      <trkpt lat="44.7982" lon="5.97451388889">
        <ele>889.356689</ele>
        <time>2008-06-09T23:25:09Z</time>
      </trkpt>
      <trkpt lat="44.7979694444" lon="5.97690277778">
        <ele>873.975586</ele>
        <time>2008-06-09T23:26:02Z</time>
      </trkpt>
      <trkpt lat="44.7963555556" lon="5.977875">
        <ele>844.655518</ele>
        <time>2008-06-09T23:26:56Z</time>
      </trkpt>
      <trkpt lat="44.7946111111" lon="5.97709444444">
        <ele>828.313232</ele>
        <time>2008-06-09T23:27:53Z</time>
      </trkpt>
      <trkpt lat="44.7900527778" lon="5.98128888889">
        <ele>797.070313</ele>
        <time>2008-06-09T23:30:41Z</time>
      </trkpt>
      <trkpt lat="44.7805222222" lon="5.98439166667">
        <ele>810.528564</ele>
        <time>2008-06-09T23:35:43Z</time>
      </trkpt>
      <trkpt lat="44.7786833333" lon="5.98526666667">
        <ele>809.567383</ele>
        <time>2008-06-09T23:36:43Z</time>
      </trkpt>
      <trkpt lat="44.7775" lon="5.98711388889">
        <ele>810.047852</ele>
        <time>2008-06-09T23:37:38Z</time>
      </trkpt>
      <trkpt lat="44.7768305556" lon="5.99201111111">
        <ele>818.699951</ele>
        <time>2008-06-09T23:39:27Z</time>
      </trkpt>
      <trkpt lat="44.7781777778" lon="5.99712777778">
        <ele>815.816162</ele>
        <time>2008-06-09T23:41:27Z</time>
      </trkpt>
      <trkpt lat="44.7784138889" lon="6.00250277778">
        <ele>817.258057</ele>
        <time>2008-06-09T23:43:25Z</time>
      </trkpt>
      <trkpt lat="44.7752611111" lon="6.01934722222">
        <ele>829.274414</ele>
        <time>2008-06-09T23:49:47Z</time>
      </trkpt>
      <trkpt lat="44.7770611111" lon="6.02391388889">
        <ele>862.439941</ele>
        <time>2008-06-09T23:51:41Z</time>
      </trkpt>
      <trkpt lat="44.7815277778" lon="6.02790555556">
        <ele>902.815186</ele>
        <time>2008-06-09T23:54:25Z</time>
      </trkpt>
      <trkpt lat="44.7814166667" lon="6.03295555556">
        <ele>892.72168</ele>
        <time>2008-06-09T23:56:15Z</time>
      </trkpt>
      <trkpt lat="44.7799388889" lon="6.03762777778">
        <ele>892.72168</ele>
        <time>2008-06-09T23:58:07Z</time>
      </trkpt>
      <trkpt lat="44.7802666667" lon="6.04561666667">
        <ele>893.202148</ele>
        <time>2008-06-10T00:01:03Z</time>
      </trkpt>
      <trkpt lat="44.7815416667" lon="6.04725833333">
        <ele>893.202148</ele>
        <time>2008-06-10T00:01:56Z</time>
      </trkpt>
      <trkpt lat="44.7824805556" lon="6.05233055556">
        <ele>896.086182</ele>
        <time>2008-06-10T00:03:51Z</time>
      </trkpt>
      <trkpt lat="44.784275" lon="6.056725">
        <ele>894.644043</ele>
        <time>2008-06-10T00:05:42Z</time>
      </trkpt>
      <trkpt lat="44.7837972222" lon="6.06434444444">
        <ele>885.031006</ele>
        <time>2008-06-10T00:08:30Z</time>
      </trkpt>
      <trkpt lat="44.7845472222" lon="6.06955">
        <ele>897.528076</ele>
        <time>2008-06-10T00:10:26Z</time>
      </trkpt>
      <trkpt lat="44.7882083333" lon="6.07518333333">
        <ele>910.025146</ele>
        <time>2008-06-10T00:13:14Z</time>
      </trkpt>
      <trkpt lat="44.7932638889" lon="6.08583611111">
        <ele>920.118896</ele>
        <time>2008-06-10T00:17:55Z</time>
      </trkpt>
      <trkpt lat="44.797275" lon="6.09152222222">
        <ele>933.577393</ele>
        <time>2008-06-10T00:20:51Z</time>
      </trkpt>
      <trkpt lat="44.798525" lon="6.09591388889">
        <ele>940.787354</ele>
        <time>2008-06-10T00:22:34Z</time>
      </trkpt>
      <trkpt lat="44.801125" lon="6.09951944444">
        <ele>945.593994</ele>
        <time>2008-06-10T00:24:27Z</time>
      </trkpt>
      <trkpt lat="44.8087472222" lon="6.10624722222">
        <ele>956.64917</ele>
        <time>2008-06-10T00:29:05Z</time>
      </trkpt>
      <trkpt lat="44.8106111111" lon="6.11072777778">
        <ele>963.858887</ele>
        <time>2008-06-10T00:30:59Z</time>
      </trkpt>
      <trkpt lat="44.8169777778" lon="6.11994722222">
        <ele>994.140625</ele>
        <time>2008-06-10T00:35:40Z</time>
      </trkpt>
      <trkpt lat="44.8185972222" lon="6.12089166667">
        <ele>992.218018</ele>
        <time>2008-06-10T00:36:35Z</time>
      </trkpt>
      <trkpt lat="44.8216555556" lon="6.13033888889">
        <ele>1007.599121</ele>
        <time>2008-06-10T00:40:22Z</time>
      </trkpt>
      <trkpt lat="44.8253111111" lon="6.13603333333">
        <ele>1023.460938</ele>
        <time>2008-06-10T00:43:10Z</time>
      </trkpt>
      <trkpt lat="44.8258194444" lon="6.13876666667">
        <ele>1029.709229</ele>
        <time>2008-06-10T00:44:12Z</time>
      </trkpt>
      <trkpt lat="44.8250583333" lon="6.14105">
        <ele>1034.035156</ele>
        <time>2008-06-10T00:45:08Z</time>
      </trkpt>
      <trkpt lat="44.8255666667" lon="6.14354722222">
        <ele>1041.72583</ele>
        <time>2008-06-10T00:46:04Z</time>
      </trkpt>
      <trkpt lat="44.8246805556" lon="6.148225">
        <ele>1032.593262</ele>
        <time>2008-06-10T00:47:51Z</time>
      </trkpt>
      <trkpt lat="44.8248611111" lon="6.15350277778">
        <ele>1039.32251</ele>
        <time>2008-06-10T00:49:46Z</time>
      </trkpt>
      <trkpt lat="44.8237111111" lon="6.15841944444">
        <ele>1046.051758</ele>
        <time>2008-06-10T00:51:40Z</time>
      </trkpt>
      <trkpt lat="44.8211694444" lon="6.16235277778">
        <ele>1052.300293</ele>
        <time>2008-06-10T00:53:36Z</time>
      </trkpt>
      <trkpt lat="44.820225" lon="6.17491388889">
        <ele>1067.681152</ele>
        <time>2008-06-10T00:58:13Z</time>
      </trkpt>
      <trkpt lat="44.8190277778" lon="6.17965833333">
        <ele>1073.449463</ele>
        <time>2008-06-10T01:00:03Z</time>
      </trkpt>
      <trkpt lat="44.8193638889" lon="6.18736111111">
        <ele>1081.620361</ele>
        <time>2008-06-10T01:02:52Z</time>
      </trkpt>
      <trkpt lat="44.817675" lon="6.19166388889">
        <ele>1092.195068</ele>
        <time>2008-06-10T01:04:40Z</time>
      </trkpt>
      <trkpt lat="44.8172361111" lon="6.19554444444">
        <ele>1102.769531</ele>
        <time>2008-06-10T01:06:06Z</time>
      </trkpt>
      <trkpt lat="44.8165777778" lon="6.19575">
        <ele>1107.576172</ele>
        <time>2008-06-10T01:06:27Z</time>
      </trkpt>
      <trkpt lat="44.8193416667" lon="6.18714722222">
        <ele>1093.636963</ele>
        <time>2008-06-10T01:09:54Z</time>
      </trkpt>
      <trkpt lat="44.8190027778" lon="6.17945">
        <ele>1084.985352</ele>
        <time>2008-06-10T01:12:43Z</time>
      </trkpt>
      <trkpt lat="44.8202527778" lon="6.17446666667">
        <ele>1080.65918</ele>
        <time>2008-06-10T01:14:39Z</time>
      </trkpt>
      <trkpt lat="44.820875" lon="6.16432222222">
        <ele>1061.913574</ele>
        <time>2008-06-10T01:18:22Z</time>
      </trkpt>
      <trkpt lat="44.8238" lon="6.15813888889">
        <ele>1056.145508</ele>
        <time>2008-06-10T01:21:05Z</time>
      </trkpt>
      <trkpt lat="44.8249055556" lon="6.15310277778">
        <ele>1049.41626</ele>
        <time>2008-06-10T01:23:00Z</time>
      </trkpt>
      <trkpt lat="44.8251138889" lon="6.14062222222">
        <ele>1042.206543</ele>
        <time>2008-06-10T01:27:34Z</time>
      </trkpt>
      <trkpt lat="44.8258944444" lon="6.13831944444">
        <ele>1037.880615</ele>
        <time>2008-06-10T01:28:30Z</time>
      </trkpt>
      <trkpt lat="44.8250555556" lon="6.13568333333">
        <ele>1032.593262</ele>
        <time>2008-06-10T01:29:33Z</time>
      </trkpt>
      <trkpt lat="44.8213722222" lon="6.12993333333">
        <ele>1015.770264</ele>
        <time>2008-06-10T01:32:23Z</time>
      </trkpt>
      <trkpt lat="44.8183638889" lon="6.12044444444">
        <ele>1000.869629</ele>
        <time>2008-06-10T01:36:10Z</time>
      </trkpt>
      <trkpt lat="44.8166166667" lon="6.11965555556">
        <ele>1001.350342</ele>
        <time>2008-06-10T01:37:07Z</time>
      </trkpt>
      <trkpt lat="44.8114972222" lon="6.112175">
        <ele>977.317627</ele>
        <time>2008-06-10T01:40:55Z</time>
      </trkpt>
      <trkpt lat="44.8084472222" lon="6.10601388889">
        <ele>963.378418</ele>
        <time>2008-06-10T01:43:39Z</time>
      </trkpt>
      <trkpt lat="44.8008972222" lon="6.09925277778">
        <ele>953.284424</ele>
        <time>2008-06-10T01:48:16Z</time>
      </trkpt>
      <trkpt lat="44.7983916667" lon="6.09558888889">
        <ele>947.035889</ele>
        <time>2008-06-10T01:50:07Z</time>
      </trkpt>
      <trkpt lat="44.7970388889" lon="6.09086388889">
        <ele>942.229492</ele>
        <time>2008-06-10T01:51:59Z</time>
      </trkpt>
      <trkpt lat="44.7943111111" lon="6.08758611111">
        <ele>931.654785</ele>
        <time>2008-06-10T01:53:50Z</time>
      </trkpt>
      <trkpt lat="44.7880888889" lon="6.07479722222">
        <ele>915.3125</ele>
        <time>2008-06-10T01:59:29Z</time>
      </trkpt>
      <trkpt lat="44.7844138889" lon="6.06918888889">
        <ele>904.257324</ele>
        <time>2008-06-10T02:02:17Z</time>
      </trkpt>
      <trkpt lat="44.7838111111" lon="6.05415555556">
        <ele>902.334473</ele>
        <time>2008-06-10T02:07:47Z</time>
      </trkpt>
      <trkpt lat="44.7825" lon="6.05239166667">
        <ele>900.892578</ele>
        <time>2008-06-10T02:08:43Z</time>
      </trkpt>
      <trkpt lat="44.7815527778" lon="6.04719722222">
        <ele>900.892578</ele>
        <time>2008-06-10T02:10:40Z</time>
      </trkpt>
      <trkpt lat="44.78025" lon="6.04559444444">
        <ele>900.412109</ele>
        <time>2008-06-10T02:11:34Z</time>
      </trkpt>
      <trkpt lat="44.7799166667" lon="6.03766944444">
        <ele>898.489258</ele>
        <time>2008-06-10T02:14:28Z</time>
      </trkpt>
      <trkpt lat="44.7813472222" lon="6.0331">
        <ele>896.566895</ele>
        <time>2008-06-10T02:16:17Z</time>
      </trkpt>
      <trkpt lat="44.7815638889" lon="6.02801111111">
        <ele>907.141113</ele>
        <time>2008-06-10T02:18:09Z</time>
      </trkpt>
      <trkpt lat="44.7771416667" lon="6.02387222222">
        <ele>868.207764</ele>
        <time>2008-06-10T02:20:53Z</time>
      </trkpt>
      <trkpt lat="44.7753361111" lon="6.01946388889">
        <ele>838.406982</ele>
        <time>2008-06-10T02:22:45Z</time>
      </trkpt>
      <trkpt lat="44.7784611111" lon="6.00206388889">
        <ele>823.025879</ele>
        <time>2008-06-10T02:29:18Z</time>
      </trkpt>
      <trkpt lat="44.7769777778" lon="5.98936666667">
        <ele>820.141846</ele>
        <time>2008-06-10T02:34:00Z</time>
      </trkpt>
      <trkpt lat="44.7788805556" lon="5.98514166667">
        <ele>812.932129</ele>
        <time>2008-06-10T02:35:50Z</time>
      </trkpt>
      <trkpt lat="44.7899777778" lon="5.98138611111">
        <ele>798.031738</ele>
        <time>2008-06-10T02:41:43Z</time>
      </trkpt>
      <trkpt lat="44.7945805556" lon="5.97703333333">
        <ele>825.428955</ele>
        <time>2008-06-10T02:44:34Z</time>
      </trkpt>
      <trkpt lat="44.7963388889" lon="5.97771388889">
        <ele>843.213379</ele>
        <time>2008-06-10T02:45:30Z</time>
      </trkpt>
      <trkpt lat="44.7981805556" lon="5.97670833333">
        <ele>866.765869</ele>
        <time>2008-06-10T02:46:31Z</time>
      </trkpt>
      <trkpt lat="44.7986444444" lon="5.97469722222">
        <ele>889.356689</ele>
        <time>2008-06-10T02:47:17Z</time>
      </trkpt>
      <trkpt lat="44.7999916667" lon="5.97376388889">
        <ele>904.737793</ele>
        <time>2008-06-10T02:48:04Z</time>
      </trkpt>
      <trkpt lat="44.79935" lon="5.97140277778">
        <ele>911.467285</ele>
        <time>2008-06-10T02:48:59Z</time>
      </trkpt>
      <trkpt lat="44.8037916667" lon="5.95721111111">
        <ele>951.842529</ele>
        <time>2008-06-10T02:54:39Z</time>
      </trkpt>
      <trkpt lat="44.8054388889" lon="5.95625277778">
        <ele>935.980713</ele>
        <time>2008-06-10T02:55:34Z</time>
      </trkpt>
      <trkpt lat="44.8085388889" lon="5.95073055556">
        <ele>934.538818</ele>
        <time>2008-06-10T02:58:08Z</time>
      </trkpt>
      <trkpt lat="44.8103" lon="5.9505">
        <ele>933.09668</ele>
        <time>2008-06-10T02:59:03Z</time>
      </trkpt>
      <trkpt lat="44.8149833333" lon="5.94713055556">
        <ele>935.980713</ele>
        <time>2008-06-10T03:01:46Z</time>
      </trkpt>
      <trkpt lat="44.8176916667" lon="5.94815833333">
        <ele>940.306885</ele>
        <time>2008-06-10T03:03:12Z</time>
      </trkpt>
      <trkpt lat="44.8203805556" lon="5.946625">
        <ele>925.40625</ele>
        <time>2008-06-10T03:04:42Z</time>
      </trkpt>
      <trkpt lat="44.821075" lon="5.94909444444">
        <ele>910.986572</ele>
        <time>2008-06-10T03:05:40Z</time>
      </trkpt>
      <trkpt lat="44.82315" lon="5.95203888889">
        <ele>889.356689</ele>
        <time>2008-06-10T03:07:11Z</time>
      </trkpt>
      <trkpt lat="44.8232166667" lon="5.94660277778">
        <ele>885.031006</ele>
        <time>2008-06-10T03:09:10Z</time>
      </trkpt>
      <trkpt lat="44.8245944444" lon="5.94171944444">
        <ele>880.224365</ele>
        <time>2008-06-10T03:11:05Z</time>
      </trkpt>
      <trkpt lat="44.8253861111" lon="5.93351388889">
        <ele>869.169189</ele>
        <time>2008-06-10T03:14:07Z</time>
      </trkpt>
      <trkpt lat="44.8266861111" lon="5.93159722222">
        <ele>862.920654</ele>
        <time>2008-06-10T03:15:05Z</time>
      </trkpt>
      <trkpt lat="44.8296194444" lon="5.92148888889">
        <ele>907.621826</ele>
        <time>2008-06-10T03:19:04Z</time>
      </trkpt>
      <trkpt lat="44.8318916667" lon="5.91728333333">
        <ele>928.290283</ele>
        <time>2008-06-10T03:21:00Z</time>
      </trkpt>
      <trkpt lat="44.8320305556" lon="5.91186944444">
        <ele>925.886963</ele>
        <time>2008-06-10T03:22:58Z</time>
      </trkpt>
      <trkpt lat="44.833875" lon="5.91403611111">
        <ele>895.605469</ele>
        <time>2008-06-10T03:24:13Z</time>
      </trkpt>
      <trkpt lat="44.8347194444" lon="5.91302777778">
        <ele>887.914795</ele>
        <time>2008-06-10T03:24:47Z</time>
      </trkpt>
      <trkpt lat="44.8343555556" lon="5.90774166667">
        <ele>887.914795</ele>
        <time>2008-06-10T03:26:43Z</time>
      </trkpt>
      <trkpt lat="44.8319055556" lon="5.89775555556">
        <ele>910.986572</ele>
        <time>2008-06-10T03:30:34Z</time>
      </trkpt>
      <trkpt lat="44.8331972222" lon="5.89324722222">
        <ele>914.831787</ele>
        <time>2008-06-10T03:32:21Z</time>
      </trkpt>
      <trkpt lat="44.8323722222" lon="5.89087777778">
        <ele>912.90918</ele>
        <time>2008-06-10T03:33:19Z</time>
      </trkpt>
      <trkpt lat="44.8364138889" lon="5.88558888889">
        <ele>898.969971</ele>
        <time>2008-06-10T03:36:09Z</time>
      </trkpt>
      <trkpt lat="44.8367805556" lon="5.880275">
        <ele>905.699219</ele>
        <time>2008-06-10T03:38:06Z</time>
      </trkpt>
      <trkpt lat="44.8376472222" lon="5.87813888889">
        <ele>905.699219</ele>
        <time>2008-06-10T03:39:00Z</time>
      </trkpt>
      <trkpt lat="44.8406916667" lon="5.87546388889">
        <ele>907.621826</ele>
        <time>2008-06-10T03:40:51Z</time>
      </trkpt>
      <trkpt lat="44.8410555556" lon="5.87302777778">
        <ele>911.947998</ele>
        <time>2008-06-10T03:41:45Z</time>
      </trkpt>
      <trkpt lat="44.8439194444" lon="5.86934722222">
        <ele>900.892578</ele>
        <time>2008-06-10T03:43:45Z</time>
      </trkpt>
      <trkpt lat="44.8455638889" lon="5.86200555556">
        <ele>888.395508</ele>
        <time>2008-06-10T03:46:34Z</time>
      </trkpt>
      <trkpt lat="44.8505111111" lon="5.85833055556">
        <ele>861.959473</ele>
        <time>2008-06-10T03:49:26Z</time>
      </trkpt>
      <trkpt lat="44.8523444444" lon="5.857825">
        <ele>852.345947</ele>
        <time>2008-06-10T03:50:24Z</time>
      </trkpt>
      <trkpt lat="44.8541666667" lon="5.85844444444">
        <ele>846.578369</ele>
        <time>2008-06-10T03:51:22Z</time>
      </trkpt>
      <trkpt lat="44.8556333333" lon="5.85691944444">
        <ele>848.020264</ele>
        <time>2008-06-10T03:52:18Z</time>
      </trkpt>
      <trkpt lat="44.8574194444" lon="5.85710555556">
        <ele>837.92627</ele>
        <time>2008-06-10T03:53:13Z</time>
      </trkpt>
      <trkpt lat="44.8609444444" lon="5.86283611111">
        <ele>797.551025</ele>
        <time>2008-06-10T03:56:00Z</time>
      </trkpt>
      <trkpt lat="44.8643944444" lon="5.86433888889">
        <ele>789.860352</ele>
        <time>2008-06-10T03:57:51Z</time>
      </trkpt>
      <trkpt lat="44.8636666667" lon="5.85658611111">
        <ele>763.424072</ele>
        <time>2008-06-10T04:00:42Z</time>
      </trkpt>
      <trkpt lat="44.8650972222" lon="5.85163055556">
        <ele>783.131104</ele>
        <time>2008-06-10T04:02:39Z</time>
      </trkpt>
      <trkpt lat="44.8701361111" lon="5.8406">
        <ele>844.175049</ele>
        <time>2008-06-10T04:07:27Z</time>
      </trkpt>
      <trkpt lat="44.8716222222" lon="5.83919444444">
        <ele>851.865479</ele>
        <time>2008-06-10T04:08:22Z</time>
      </trkpt>
      <trkpt lat="44.8752444444" lon="5.83792777778">
        <ele>847.058838</ele>
        <time>2008-06-10T04:10:17Z</time>
      </trkpt>
      <trkpt lat="44.8764777778" lon="5.83600277778">
        <ele>852.345947</ele>
        <time>2008-06-10T04:11:14Z</time>
      </trkpt>
      <trkpt lat="44.8757861111" lon="5.83369722222">
        <ele>848.981445</ele>
        <time>2008-06-10T04:12:09Z</time>
      </trkpt>
      <trkpt lat="44.8778611111" lon="5.82920833333">
        <ele>850.423584</ele>
        <time>2008-06-10T04:14:06Z</time>
      </trkpt>
      <trkpt lat="44.8793138889" lon="5.82811944444">
        <ele>847.058838</ele>
        <time>2008-06-10T04:14:57Z</time>
      </trkpt>
      <trkpt lat="44.8860166667" lon="5.83774722222">
        <ele>844.175049</ele>
        <time>2008-06-10T04:19:52Z</time>
      </trkpt>
      <trkpt lat="44.8879305556" lon="5.83788055556">
        <ele>842.73291</ele>
        <time>2008-06-10T04:20:52Z</time>
      </trkpt>
      <trkpt lat="44.8911361111" lon="5.83642777778">
        <ele>842.252197</ele>
        <time>2008-06-10T04:22:36Z</time>
      </trkpt>
      <trkpt lat="44.8895027778" lon="5.84127222222">
        <ele>818.219238</ele>
        <time>2008-06-10T04:24:33Z</time>
      </trkpt>
      <trkpt lat="44.8866111111" lon="5.84564722222">
        <ele>791.302246</ele>
        <time>2008-06-10T04:26:44Z</time>
      </trkpt>
      <trkpt lat="44.886325" lon="5.84777777778">
        <ele>782.169922</ele>
        <time>2008-06-10T04:27:31Z</time>
      </trkpt>
      <trkpt lat="44.8879277778" lon="5.85218055556">
        <ele>762.462646</ele>
        <time>2008-06-10T04:29:20Z</time>
      </trkpt>
      <trkpt lat="44.8954805556" lon="5.85920555556">
        <ele>702.380371</ele>
        <time>2008-06-10T04:33:59Z</time>
      </trkpt>
      <trkpt lat="44.8976944444" lon="5.86275">
        <ele>703.82251</ele>
        <time>2008-06-10T04:35:43Z</time>
      </trkpt>
      <trkpt lat="44.897125" lon="5.86501944444">
        <ele>695.17041</ele>
        <time>2008-06-10T04:36:35Z</time>
      </trkpt>
      <trkpt lat="44.8914055556" lon="5.87497222222">
        <ele>691.805908</ele>
        <time>2008-06-10T04:41:16Z</time>
      </trkpt>
      <trkpt lat="44.8920111111" lon="5.88267777778">
        <ele>716.31958</ele>
        <time>2008-06-10T04:44:05Z</time>
      </trkpt>
      <trkpt lat="44.8986833333" lon="5.89854166667">
        <ele>794.186279</ele>
        <time>2008-06-10T04:50:49Z</time>
      </trkpt>
      <trkpt lat="44.9002416667" lon="5.90565277778">
        <ele>797.551025</ele>
        <time>2008-06-10T04:53:32Z</time>
      </trkpt>
      <trkpt lat="44.8999111111" lon="5.91067777778">
        <ele>789.379639</ele>
        <time>2008-06-10T04:55:22Z</time>
      </trkpt>
      <trkpt lat="44.8967861111" lon="5.91638611111">
        <ele>774.479248</ele>
        <time>2008-06-10T04:58:00Z</time>
      </trkpt>
      <trkpt lat="44.8984861111" lon="5.92107222222">
        <ele>757.175537</ele>
        <time>2008-06-10T04:59:55Z</time>
      </trkpt>
      <trkpt lat="44.8967666667" lon="5.92771111111">
        <ele>745.639648</ele>
        <time>2008-06-10T05:02:30Z</time>
      </trkpt>
      <trkpt lat="44.900075" lon="5.93396111111">
        <ele>762.943359</ele>
        <time>2008-06-10T05:05:21Z</time>
      </trkpt>
      <trkpt lat="44.8994527778" lon="5.94153333333">
        <ele>780.247314</ele>
        <time>2008-06-10T05:08:07Z</time>
      </trkpt>
      <trkpt lat="44.900375" lon="5.94618333333">
        <ele>798.031738</ele>
        <time>2008-06-10T05:09:53Z</time>
      </trkpt>
      <trkpt lat="44.9015" lon="5.94794166667">
        <ele>809.08667</ele>
        <time>2008-06-10T05:10:45Z</time>
      </trkpt>
      <trkpt lat="44.9026" lon="5.94850555556">
        <ele>815.335449</ele>
        <time>2008-06-10T05:11:21Z</time>
      </trkpt>
      <trkpt lat="44.9063916667" lon="5.94786388889">
        <ele>810.047852</ele>
        <time>2008-06-10T05:13:19Z</time>
      </trkpt>
      <trkpt lat="44.9104833333" lon="5.95028333333">
        <ele>812.451416</ele>
        <time>2008-06-10T05:15:36Z</time>
      </trkpt>
      <trkpt lat="44.9141777778" lon="5.95111111111">
        <ele>815.816162</ele>
        <time>2008-06-10T05:17:32Z</time>
      </trkpt>
      <trkpt lat="44.9187166667" lon="5.96200277778">
        <ele>848.981445</ele>
        <time>2008-06-10T05:22:08Z</time>
      </trkpt>
      <trkpt lat="44.9271833333" lon="5.96734166667">
        <ele>872.533691</ele>
        <time>2008-06-10T05:26:54Z</time>
      </trkpt>
      <trkpt lat="44.9302694444" lon="5.97043888889">
        <ele>881.185791</ele>
        <time>2008-06-10T05:28:51Z</time>
      </trkpt>
      <trkpt lat="44.9339055556" lon="5.97139166667">
        <ele>890.318115</ele>
        <time>2008-06-10T05:30:46Z</time>
      </trkpt>
      <trkpt lat="44.9368555556" lon="5.97407222222">
        <ele>906.179688</ele>
        <time>2008-06-10T05:32:34Z</time>
      </trkpt>
      <trkpt lat="44.9438583333" lon="5.970975">
        <ele>918.677002</ele>
        <time>2008-06-10T05:36:21Z</time>
      </trkpt>
      <trkpt lat="44.9487055556" lon="5.96696944444">
        <ele>940.787354</ele>
        <time>2008-06-10T05:39:14Z</time>
      </trkpt>
      <trkpt lat="44.9524027778" lon="5.96629166667">
        <ele>955.207031</ele>
        <time>2008-06-10T05:41:09Z</time>
      </trkpt>
      <trkpt lat="44.9566444444" lon="5.96168611111">
        <ele>972.030273</ele>
        <time>2008-06-10T05:43:54Z</time>
      </trkpt>
      <trkpt lat="44.9658111111" lon="5.96085">
        <ele>1016.731445</ele>
        <time>2008-06-10T05:48:38Z</time>
      </trkpt>
      <trkpt lat="44.9695916667" lon="5.96131111111">
        <ele>1023.941406</ele>
        <time>2008-06-10T05:50:35Z</time>
      </trkpt>
      <trkpt lat="44.9710694444" lon="5.95980833333">
        <ele>1025.864014</ele>
        <time>2008-06-10T05:51:32Z</time>
      </trkpt>
      <trkpt lat="44.9798972222" lon="5.96223611111">
        <ele>1063.355469</ele>
        <time>2008-06-10T05:56:09Z</time>
      </trkpt>
      <trkpt lat="44.9811888889" lon="5.96404444444">
        <ele>1075.852539</ele>
        <time>2008-06-10T05:57:05Z</time>
      </trkpt>
      <trkpt lat="44.9830416667" lon="5.96360833333">
        <ele>1091.714355</ele>
        <time>2008-06-10T05:58:03Z</time>
      </trkpt>
      <trkpt lat="44.9865388889" lon="5.97048055556">
        <ele>1139.299561</ele>
        <time>2008-06-10T06:01:08Z</time>
      </trkpt>
      <trkpt lat="44.989375" lon="5.96705277778">
        <ele>1171.984375</ele>
        <time>2008-06-10T06:03:04Z</time>
      </trkpt>
      <trkpt lat="44.9906277778" lon="5.96675277778">
        <ele>1186.884766</ele>
        <time>2008-06-10T06:03:43Z</time>
      </trkpt>
      <trkpt lat="44.9914305556" lon="5.96875277778">
        <ele>1199.862793</ele>
        <time>2008-06-10T06:04:33Z</time>
      </trkpt>
      <trkpt lat="44.9945833333" lon="5.96607777778">
        <ele>1228.22168</ele>
        <time>2008-06-10T06:06:27Z</time>
      </trkpt>
      <trkpt lat="44.9955194444" lon="5.96716666667">
        <ele>1241.199219</ele>
        <time>2008-06-10T06:07:04Z</time>
      </trkpt>
      <trkpt lat="44.9962027778" lon="5.97219722222">
        <ele>1271.480713</ele>
        <time>2008-06-10T06:08:56Z</time>
      </trkpt>
      <trkpt lat="44.9974416667" lon="5.97208055556">
        <ele>1287.823242</ele>
        <time>2008-06-10T06:09:34Z</time>
      </trkpt>
      <trkpt lat="45.0005361111" lon="5.96924166667">
        <ele>1316.662842</ele>
        <time>2008-06-10T06:11:28Z</time>
      </trkpt>
      <trkpt lat="45.0057944444" lon="5.96696388889">
        <ele>1354.634766</ele>
        <time>2008-06-10T06:14:18Z</time>
      </trkpt>
      <trkpt lat="45.0151222222" lon="5.96905555556">
        <ele>1342.618652</ele>
        <time>2008-06-10T06:19:10Z</time>
      </trkpt>
      <trkpt lat="45.0198027778" lon="5.973125">
        <ele>1301.281738</ele>
        <time>2008-06-10T06:21:59Z</time>
      </trkpt>
      <trkpt lat="45.0298777778" lon="5.97563055556">
        <ele>1214.282471</ele>
        <time>2008-06-10T06:27:15Z</time>
      </trkpt>
      <trkpt lat="45.0281361111" lon="5.97334444444">
        <ele>1189.768799</ele>
        <time>2008-06-10T06:28:29Z</time>
      </trkpt>
      <trkpt lat="45.0316111111" lon="5.97501388889">
        <ele>1157.564697</ele>
        <time>2008-06-10T06:30:22Z</time>
      </trkpt>
      <trkpt lat="45.0333833333" lon="5.97428888889">
        <ele>1141.702881</ele>
        <time>2008-06-10T06:31:19Z</time>
      </trkpt>
      <trkpt lat="45.0350333333" lon="5.97479444444">
        <ele>1123.918457</ele>
        <time>2008-06-10T06:32:11Z</time>
      </trkpt>
      <trkpt lat="45.0375305556" lon="5.97798055556">
        <ele>1091.233643</ele>
        <time>2008-06-10T06:33:55Z</time>
      </trkpt>
      <trkpt lat="45.0380305556" lon="5.97730833333">
        <ele>1076.333252</ele>
        <time>2008-06-10T06:34:16Z</time>
      </trkpt>
      <trkpt lat="45.0373611111" lon="5.97493888889">
        <ele>1060.952148</ele>
        <time>2008-06-10T06:35:12Z</time>
      </trkpt>
      <trkpt lat="45.0420777778" lon="5.98223333333">
        <ele>1013.847412</ele>
        <time>2008-06-10T06:38:48Z</time>
      </trkpt>
      <trkpt lat="45.045375" lon="5.98464166667">
        <ele>998.947021</ele>
        <time>2008-06-10T06:40:42Z</time>
      </trkpt>
      <trkpt lat="45.0489833333" lon="5.98513611111">
        <ele>980.682129</ele>
        <time>2008-06-10T06:42:34Z</time>
      </trkpt>
      <trkpt lat="45.0526" lon="5.98988888889">
        <ele>941.268066</ele>
        <time>2008-06-10T06:45:07Z</time>
      </trkpt>
      <trkpt lat="45.0544222222" lon="5.98920833333">
        <ele>927.80957</ele>
        <time>2008-06-10T06:46:05Z</time>
      </trkpt>
      <trkpt lat="45.055925" lon="5.98995">
        <ele>923.483643</ele>
        <time>2008-06-10T06:46:54Z</time>
      </trkpt>
      <trkpt lat="45.0553694444" lon="5.99247777778">
        <ele>925.886963</ele>
        <time>2008-06-10T06:47:52Z</time>
      </trkpt>
      <trkpt lat="45.0569472222" lon="5.99388333333">
        <ele>918.196289</ele>
        <time>2008-06-10T06:48:50Z</time>
      </trkpt>
      <trkpt lat="45.0663055556" lon="5.99927222222">
        <ele>840.810059</ele>
        <time>2008-06-10T06:54:02Z</time>
      </trkpt>
      <trkpt lat="45.0711444444" lon="6.00350277778">
        <ele>785.053955</ele>
        <time>2008-06-10T06:56:57Z</time>
      </trkpt>
      <trkpt lat="45.0734555556" lon="6.01595555556">
        <ele>738.429932</ele>
        <time>2008-06-10T07:01:38Z</time>
      </trkpt>
      <trkpt lat="45.0707222222" lon="6.01909722222">
        <ele>731.700439</ele>
        <time>2008-06-10T07:03:27Z</time>
      </trkpt>
      <trkpt lat="45.0560555556" lon="6.02964444444">
        <ele>728.335938</ele>
        <time>2008-06-10T07:11:55Z</time>
      </trkpt>
      <trkpt lat="45.0548444444" lon="6.03110833333">
        <ele>727.374756</ele>
        <time>2008-06-10T07:12:44Z</time>
      </trkpt>
      <trkpt lat="45.0551666667" lon="6.03298888889">
        <ele>724.971436</ele>
        <time>2008-06-10T07:13:27Z</time>
      </trkpt>
      <trkpt lat="45.0590888889" lon="6.03789166667">
        <ele>721.606689</ele>
        <time>2008-06-10T07:16:08Z</time>
      </trkpt>
      <trkpt lat="45.0626611111" lon="6.03700277778">
        <ele>717.761475</ele>
        <time>2008-06-10T07:18:00Z</time>
      </trkpt>
      <trkpt lat="45.0656388889" lon="6.04001111111">
        <ele>726.894043</ele>
        <time>2008-06-10T07:19:53Z</time>
      </trkpt>
      <trkpt lat="45.0711305556" lon="6.03886666667">
        <ele>795.147461</ele>
        <time>2008-06-10T07:22:45Z</time>
      </trkpt>
      <trkpt lat="45.0674444444" lon="6.04146666667">
        <ele>861.47876</ele>
        <time>2008-06-10T07:24:52Z</time>
      </trkpt>
      <trkpt lat="45.0663777778" lon="6.04324722222">
        <ele>922.041504</ele>
        <time>2008-06-10T07:25:43Z</time>
      </trkpt>
      <trkpt lat="45.0682472222" lon="6.04263888889">
        <ele>944.1521</ele>
        <time>2008-06-10T07:26:42Z</time>
      </trkpt>
      <trkpt lat="45.0673555556" lon="6.04350833333">
        <ele>963.858887</ele>
        <time>2008-06-10T07:27:15Z</time>
      </trkpt>
      <trkpt lat="45.071525" lon="6.04778055556">
        <ele>1015.770264</ele>
        <time>2008-06-10T07:29:54Z</time>
      </trkpt>
      <trkpt lat="45.0709916667" lon="6.04431111111">
        <ele>1045.090332</ele>
        <time>2008-06-10T07:31:12Z</time>
      </trkpt>
      <trkpt lat="45.0718333333" lon="6.04669166667">
        <ele>1063.355469</ele>
        <time>2008-06-10T07:32:10Z</time>
      </trkpt>
      <trkpt lat="45.0734333333" lon="6.04782222222">
        <ele>1077.775146</ele>
        <time>2008-06-10T07:33:05Z</time>
      </trkpt>
      <trkpt lat="45.0731527778" lon="6.05065277778">
        <ele>1116.228027</ele>
        <time>2008-06-10T07:34:07Z</time>
      </trkpt>
      <trkpt lat="45.0751277778" lon="6.04829444444">
        <ele>1152.758057</ele>
        <time>2008-06-10T07:35:27Z</time>
      </trkpt>
      <trkpt lat="45.073225" lon="6.05200833333">
        <ele>1184.962402</ele>
        <time>2008-06-10T07:37:07Z</time>
      </trkpt>
      <trkpt lat="45.0762194444" lon="6.04949444444">
        <ele>1215.724609</ele>
        <time>2008-06-10T07:38:55Z</time>
      </trkpt>
      <trkpt lat="45.0767" lon="6.04744444444">
        <ele>1230.144287</ele>
        <time>2008-06-10T07:39:42Z</time>
      </trkpt>
      <trkpt lat="45.0765888889" lon="6.04999166667">
        <ele>1250.332031</ele>
        <time>2008-06-10T07:40:38Z</time>
      </trkpt>
      <trkpt lat="45.0754194444" lon="6.05198888889">
        <ele>1270.519531</ele>
        <time>2008-06-10T07:41:34Z</time>
      </trkpt>
      <trkpt lat="45.07745" lon="6.05070277778">
        <ele>1311.375732</ele>
        <time>2008-06-10T07:42:43Z</time>
      </trkpt>
      <trkpt lat="45.078075" lon="6.04851111111">
        <ele>1328.19873</ele>
        <time>2008-06-10T07:43:35Z</time>
      </trkpt>
      <trkpt lat="45.0776805556" lon="6.05373055556">
        <ele>1379.62915</ele>
        <time>2008-06-10T07:45:29Z</time>
      </trkpt>
      <trkpt lat="45.0806277778" lon="6.05563055556">
        <ele>1415.197998</ele>
        <time>2008-06-10T07:47:09Z</time>
      </trkpt>
      <trkpt lat="45.0804194444" lon="6.05773888889">
        <ele>1431.540283</ele>
        <time>2008-06-10T07:47:56Z</time>
      </trkpt>
      <trkpt lat="45.0821638889" lon="6.06231388889">
        <ele>1465.667236</ele>
        <time>2008-06-10T07:49:49Z</time>
      </trkpt>
      <trkpt lat="45.0826138889" lon="6.05764444444">
        <ele>1491.622803</ele>
        <time>2008-06-10T07:51:32Z</time>
      </trkpt>
      <trkpt lat="45.0836277778" lon="6.06193611111">
        <ele>1544.97583</ele>
        <time>2008-06-10T07:53:10Z</time>
      </trkpt>
      <trkpt lat="45.0864361111" lon="6.05895277778">
        <ele>1581.025635</ele>
        <time>2008-06-10T07:54:59Z</time>
      </trkpt>
      <trkpt lat="45.0843722222" lon="6.06540833333">
        <ele>1631.01416</ele>
        <time>2008-06-10T07:57:33Z</time>
      </trkpt>
      <trkpt lat="45.0870361111" lon="6.06228333333">
        <ele>1671.869873</ele>
        <time>2008-06-10T07:59:20Z</time>
      </trkpt>
      <trkpt lat="45.0849916667" lon="6.06875277778">
        <ele>1718.974609</ele>
        <time>2008-06-10T08:01:55Z</time>
      </trkpt>
      <trkpt lat="45.0866888889" lon="6.072575">
        <ele>1743.968994</ele>
        <time>2008-06-10T08:03:33Z</time>
      </trkpt>
      <trkpt lat="45.0883138889" lon="6.07405277778">
        <ele>1767.040527</ele>
        <time>2008-06-10T08:04:33Z</time>
      </trkpt>
      <trkpt lat="45.0911972222" lon="6.073475">
        <ele>1794.437988</ele>
        <time>2008-06-10T08:06:03Z</time>
      </trkpt>
      <trkpt lat="45.0961916667" lon="6.07021111111">
        <ele>1833.371338</ele>
        <time>2008-06-10T08:08:53Z</time>
      </trkpt>
      <trkpt lat="45.0976472222" lon="6.07083611111">
        <ele>1845.868652</ele>
        <time>2008-06-10T08:09:40Z</time>
      </trkpt>
      <trkpt lat="45.0958" lon="6.07029444444">
        <ele>1833.371338</ele>
        <time>2008-06-10T08:10:38Z</time>
      </trkpt>
      <trkpt lat="45.0940138889" lon="6.0711">
        <ele>1821.35498</ele>
        <time>2008-06-10T08:11:36Z</time>
      </trkpt>
      <trkpt lat="45.08855" lon="6.074975">
        <ele>1786.266846</ele>
        <time>2008-06-10T08:14:45Z</time>
      </trkpt>
      <trkpt lat="45.0904861111" lon="6.07259166667">
        <ele>1817.509521</ele>
        <time>2008-06-10T08:16:04Z</time>
      </trkpt>
      <trkpt lat="45.0901222222" lon="6.06308055556">
        <ele>1767.040527</ele>
        <time>2008-06-10T08:19:32Z</time>
      </trkpt>
      <trkpt lat="45.0912972222" lon="6.06114722222">
        <ele>1764.637207</ele>
        <time>2008-06-10T08:20:27Z</time>
      </trkpt>
      <trkpt lat="45.0916527778" lon="6.05608055556">
        <ele>1730.510498</ele>
        <time>2008-06-10T08:22:18Z</time>
      </trkpt>
      <trkpt lat="45.088725" lon="6.06046111111">
        <ele>1680.521973</ele>
        <time>2008-06-10T08:24:30Z</time>
      </trkpt>
      <trkpt lat="45.0891805556" lon="6.05776111111">
        <ele>1664.660156</ele>
        <time>2008-06-10T08:25:30Z</time>
      </trkpt>
      <trkpt lat="45.0882583333" lon="6.05583055556">
        <ele>1642.549805</ele>
        <time>2008-06-10T08:26:21Z</time>
      </trkpt>
      <trkpt lat="45.0876" lon="6.05790555556">
        <ele>1625.726563</ele>
        <time>2008-06-10T08:27:11Z</time>
      </trkpt>
      <trkpt lat="45.0843055556" lon="6.06028888889">
        <ele>1589.196533</ele>
        <time>2008-06-10T08:29:05Z</time>
      </trkpt>
      <trkpt lat="45.0836222222" lon="6.06245">
        <ele>1570.450928</ele>
        <time>2008-06-10T08:29:57Z</time>
      </trkpt>
      <trkpt lat="45.0834722222" lon="6.05783888889">
        <ele>1533.920898</ele>
        <time>2008-06-10T08:31:37Z</time>
      </trkpt>
      <trkpt lat="45.0822444444" lon="6.05808888889">
        <ele>1520.462402</ele>
        <time>2008-06-10T08:32:16Z</time>
      </trkpt>
      <trkpt lat="45.0819138889" lon="6.06146388889">
        <ele>1494.026123</ele>
        <time>2008-06-10T08:33:30Z</time>
      </trkpt>
      <trkpt lat="45.0801138889" lon="6.05684722222">
        <ele>1457.976807</ele>
        <time>2008-06-10T08:35:25Z</time>
      </trkpt>
      <trkpt lat="45.0805805556" lon="6.05483611111">
        <ele>1442.11499</ele>
        <time>2008-06-10T08:36:11Z</time>
      </trkpt>
      <trkpt lat="45.0770638889" lon="6.05327777778">
        <ele>1404.143066</ele>
        <time>2008-06-10T08:38:05Z</time>
      </trkpt>
      <trkpt lat="45.0781527778" lon="6.04851666667">
        <ele>1371.457764</ele>
        <time>2008-06-10T08:39:54Z</time>
      </trkpt>
      <trkpt lat="45.0762083333" lon="6.05191944444">
        <ele>1328.19873</ele>
        <time>2008-06-10T08:41:30Z</time>
      </trkpt>
      <trkpt lat="45.0750083333" lon="6.05221666667">
        <ele>1308.972412</ele>
        <time>2008-06-10T08:42:07Z</time>
      </trkpt>
      <trkpt lat="45.0764888889" lon="6.05060555556">
        <ele>1287.823242</ele>
        <time>2008-06-10T08:43:05Z</time>
      </trkpt>
      <trkpt lat="45.0765472222" lon="6.04796111111">
        <ele>1268.116211</ele>
        <time>2008-06-10T08:44:03Z</time>
      </trkpt>
      <trkpt lat="45.0750833333" lon="6.05078055556">
        <ele>1234.950928</ele>
        <time>2008-06-10T08:45:19Z</time>
      </trkpt>
      <trkpt lat="45.0734472222" lon="6.05202222222">
        <ele>1217.166504</ele>
        <time>2008-06-10T08:46:16Z</time>
      </trkpt>
      <trkpt lat="45.0752" lon="6.0485">
        <ele>1184.962402</ele>
        <time>2008-06-10T08:47:50Z</time>
      </trkpt>
      <trkpt lat="45.0732638889" lon="6.05046388889">
        <ele>1150.35498</ele>
        <time>2008-06-10T08:49:04Z</time>
      </trkpt>
      <trkpt lat="45.0735194444" lon="6.04787222222">
        <ele>1111.9021</ele>
        <time>2008-06-10T08:50:01Z</time>
      </trkpt>
      <trkpt lat="45.0718416667" lon="6.04665555556">
        <ele>1095.078857</ele>
        <time>2008-06-10T08:50:59Z</time>
      </trkpt>
      <trkpt lat="45.0710944444" lon="6.0443">
        <ele>1076.333252</ele>
        <time>2008-06-10T08:51:56Z</time>
      </trkpt>
      <trkpt lat="45.0715944444" lon="6.04782222222">
        <ele>1047.012939</ele>
        <time>2008-06-10T08:53:14Z</time>
      </trkpt>
      <trkpt lat="45.0673111111" lon="6.043575">
        <ele>998.466309</ele>
        <time>2008-06-10T08:55:55Z</time>
      </trkpt>
      <trkpt lat="45.0688861111" lon="6.04272777778">
        <ele>983.565918</ele>
        <time>2008-06-10T08:56:47Z</time>
      </trkpt>
      <trkpt lat="45.0665333333" lon="6.04281944444">
        <ele>939.825928</ele>
        <time>2008-06-10T08:58:00Z</time>
      </trkpt>
      <trkpt lat="45.0678638889" lon="6.04184722222">
        <ele>919.638428</ele>
        <time>2008-06-10T08:58:46Z</time>
      </trkpt>
      <trkpt lat="45.0667" lon="6.04198333333">
        <ele>899.931396</ele>
        <time>2008-06-10T08:59:22Z</time>
      </trkpt>
      <trkpt lat="45.0718027778" lon="6.03930277778">
        <ele>832.158447</ele>
        <time>2008-06-10T09:02:11Z</time>
      </trkpt>
      <trkpt lat="45.0701361111" lon="6.03870277778">
        <ele>813.893311</ele>
        <time>2008-06-10T09:03:04Z</time>
      </trkpt>
      <trkpt lat="45.0646916667" lon="6.03964444444">
        <ele>752.368896</ele>
        <time>2008-06-10T09:05:53Z</time>
      </trkpt>
      <trkpt lat="45.0633333333" lon="6.03768888889">
        <ele>746.601074</ele>
        <time>2008-06-10T09:06:53Z</time>
      </trkpt>
      <trkpt lat="45.0598916667" lon="6.03773611111">
        <ele>748.043213</ele>
        <time>2008-06-10T09:08:39Z</time>
      </trkpt>
      <trkpt lat="45.05475" lon="6.03194722222">
        <ele>725.451904</ele>
        <time>2008-06-10T09:12:02Z</time>
      </trkpt>
      <trkpt lat="45.05455" lon="6.029425">
        <ele>723.048828</ele>
        <time>2008-06-10T09:12:58Z</time>
      </trkpt>
      <trkpt lat="45.0543277778" lon="6.03150833333">
        <ele>725.451904</ele>
        <time>2008-06-10T09:13:44Z</time>
      </trkpt>
      <trkpt lat="45.0591388889" lon="6.03836666667">
        <ele>743.717041</ele>
        <time>2008-06-10T09:17:15Z</time>
      </trkpt>
      <trkpt lat="45.0516138889" lon="6.04661111111">
        <ele>745.639648</ele>
        <time>2008-06-10T09:22:08Z</time>
      </trkpt>
      <trkpt lat="45.0454" lon="6.05666666667">
        <ele>748.043213</ele>
        <time>2008-06-10T09:27:00Z</time>
      </trkpt>
      <trkpt lat="45.0290111111" lon="6.07102222222">
        <ele>761.020752</ele>
        <time>2008-06-10T09:36:55Z</time>
      </trkpt>
      <trkpt lat="45.0308305556" lon="6.07692777778">
        <ele>806.68335</ele>
        <time>2008-06-10T09:39:16Z</time>
      </trkpt>
      <trkpt lat="45.0274805556" lon="6.08146388889">
        <ele>859.075195</ele>
        <time>2008-06-10T09:41:39Z</time>
      </trkpt>
      <trkpt lat="45.0334083333" lon="6.09071388889">
        <ele>933.577393</ele>
        <time>2008-06-10T09:46:12Z</time>
      </trkpt>
      <trkpt lat="45.0364472222" lon="6.09323333333">
        <ele>965.781738</ele>
        <time>2008-06-10T09:48:01Z</time>
      </trkpt>
      <trkpt lat="45.0377444444" lon="6.09153055556">
        <ele>981.162842</ele>
        <time>2008-06-10T09:48:55Z</time>
      </trkpt>
      <trkpt lat="45.0399888889" lon="6.09561666667">
        <ele>1002.311523</ele>
        <time>2008-06-10T09:50:48Z</time>
      </trkpt>
      <trkpt lat="45.0403527778" lon="6.10027222222">
        <ele>1008.560303</ele>
        <time>2008-06-10T09:52:30Z</time>
      </trkpt>
      <trkpt lat="45.0379666667" lon="6.10380555556">
        <ele>997.505127</ele>
        <time>2008-06-10T09:54:17Z</time>
      </trkpt>
      <trkpt lat="45.0399333333" lon="6.11716666667">
        <ele>953.284424</ele>
        <time>2008-06-10T09:59:15Z</time>
      </trkpt>
      <trkpt lat="45.0425777778" lon="6.12117777778">
        <ele>949.919922</ele>
        <time>2008-06-10T10:01:15Z</time>
      </trkpt>
      <trkpt lat="45.0426055556" lon="6.12375277778">
        <ele>945.113281</ele>
        <time>2008-06-10T10:02:11Z</time>
      </trkpt>
      <trkpt lat="45.0455111111" lon="6.12635555556">
        <ele>947.516602</ele>
        <time>2008-06-10T10:03:57Z</time>
      </trkpt>
      <trkpt lat="45.0444527778" lon="6.12745833333">
        <ele>960.013672</ele>
        <time>2008-06-10T10:04:38Z</time>
      </trkpt>
      <trkpt lat="45.0406388889" lon="6.12550277778">
        <ele>990.29541</ele>
        <time>2008-06-10T10:06:43Z</time>
      </trkpt>
      <trkpt lat="45.0465611111" lon="6.13226111111">
        <ele>1042.687256</ele>
        <time>2008-06-10T10:10:38Z</time>
      </trkpt>
      <trkpt lat="45.0449805556" lon="6.13649166667">
        <ele>1059.029541</ele>
        <time>2008-06-10T10:12:22Z</time>
      </trkpt>
      <trkpt lat="45.0474138889" lon="6.13959166667">
        <ele>1065.278076</ele>
        <time>2008-06-10T10:14:03Z</time>
      </trkpt>
      <trkpt lat="45.0478222222" lon="6.14254444444">
        <ele>1076.333252</ele>
        <time>2008-06-10T10:15:09Z</time>
      </trkpt>
      <trkpt lat="45.0475583333" lon="6.14777777778">
        <ele>1082.581787</ele>
        <time>2008-06-10T10:17:04Z</time>
      </trkpt>
      <trkpt lat="45.0437222222" lon="6.15889722222">
        <ele>1097.482178</ele>
        <time>2008-06-10T10:21:34Z</time>
      </trkpt>
      <trkpt lat="45.0425805556" lon="6.16926666667">
        <ele>1081.620361</ele>
        <time>2008-06-10T10:25:23Z</time>
      </trkpt>
      <trkpt lat="45.0392361111" lon="6.17842777778">
        <ele>1088.830566</ele>
        <time>2008-06-10T10:29:08Z</time>
      </trkpt>
      <trkpt lat="45.0391333333" lon="6.18873333333">
        <ele>1113.343994</ele>
        <time>2008-06-10T10:32:53Z</time>
      </trkpt>
      <trkpt lat="45.0372833333" lon="6.196525">
        <ele>1130.166992</ele>
        <time>2008-06-10T10:35:52Z</time>
      </trkpt>
      <trkpt lat="45.0384555556" lon="6.209725">
        <ele>1149.393555</ele>
        <time>2008-06-10T10:40:43Z</time>
      </trkpt>
      <trkpt lat="45.035875" lon="6.21941944444">
        <ele>1185.923584</ele>
        <time>2008-06-10T10:44:29Z</time>
      </trkpt>
      <trkpt lat="45.0376305556" lon="6.24018333333">
        <ele>1275.806641</ele>
        <time>2008-06-10T10:52:05Z</time>
      </trkpt>
      <trkpt lat="45.040025" lon="6.24716388889">
        <ele>1305.607666</ele>
        <time>2008-06-10T10:54:54Z</time>
      </trkpt>
      <trkpt lat="45.0399638889" lon="6.258925">
        <ele>1336.369873</ele>
        <time>2008-06-10T10:59:11Z</time>
      </trkpt>
      <trkpt lat="45.0427638889" lon="6.26718333333">
        <ele>1352.712158</ele>
        <time>2008-06-10T11:02:31Z</time>
      </trkpt>
      <trkpt lat="45.0443972222" lon="6.30116944444">
        <ele>1482.970703</ele>
        <time>2008-06-10T11:14:54Z</time>
      </trkpt>
      <trkpt lat="45.0465722222" lon="6.31226388889">
        <ele>1509.887695</ele>
        <time>2008-06-10T11:19:06Z</time>
      </trkpt>
      <trkpt lat="45.0489388889" lon="6.3149">
        <ele>1518.059082</ele>
        <time>2008-06-10T11:20:39Z</time>
      </trkpt>
      <trkpt lat="45.0479638889" lon="6.31670833333">
        <ele>1529.114014</ele>
        <time>2008-06-10T11:21:28Z</time>
      </trkpt>
      <trkpt lat="45.0481388889" lon="6.32148611111">
        <ele>1550.743896</ele>
        <time>2008-06-10T11:23:13Z</time>
      </trkpt>
      <trkpt lat="45.0456722222" lon="6.32866666667">
        <ele>1584.390137</ele>
        <time>2008-06-10T11:26:07Z</time>
      </trkpt>
      <trkpt lat="45.0458222222" lon="6.33180277778">
        <ele>1606.019531</ele>
        <time>2008-06-10T11:27:16Z</time>
      </trkpt>
      <trkpt lat="45.0439861111" lon="6.33130555556">
        <ele>1617.55542</ele>
        <time>2008-06-10T11:28:13Z</time>
      </trkpt>
      <trkpt lat="45.0436416667" lon="6.33295277778">
        <ele>1631.975342</ele>
        <time>2008-06-10T11:28:51Z</time>
      </trkpt>
      <trkpt lat="45.0454472222" lon="6.33340833333">
        <ele>1640.146484</ele>
        <time>2008-06-10T11:29:48Z</time>
      </trkpt>
      <trkpt lat="45.0416861111" lon="6.34046944444">
        <ele>1693.499756</ele>
        <time>2008-06-10T11:33:00Z</time>
      </trkpt>
      <trkpt lat="45.04125" lon="6.35056666667">
        <ele>1748.294678</ele>
        <time>2008-06-10T11:36:41Z</time>
      </trkpt>
      <trkpt lat="45.042425" lon="6.35519444444">
        <ele>1775.21167</ele>
        <time>2008-06-10T11:38:29Z</time>
      </trkpt>
      <trkpt lat="45.0388277778" lon="6.36071944444">
        <ele>1812.703125</ele>
        <time>2008-06-10T11:41:13Z</time>
      </trkpt>
      <trkpt lat="45.0389194444" lon="6.3631">
        <ele>1824.719727</ele>
        <time>2008-06-10T11:42:05Z</time>
      </trkpt>
      <trkpt lat="45.0362666667" lon="6.36809444444">
        <ele>1860.28833</ele>
        <time>2008-06-10T11:44:21Z</time>
      </trkpt>
      <trkpt lat="45.0381416667" lon="6.36618611111">
        <ele>1877.592041</ele>
        <time>2008-06-10T11:45:32Z</time>
      </trkpt>
      <trkpt lat="45.0346944444" lon="6.37241944444">
        <ele>1918.448242</ele>
        <time>2008-06-10T11:48:25Z</time>
      </trkpt>
      <trkpt lat="45.0325111111" lon="6.37948888889">
        <ele>1958.342773</ele>
        <time>2008-06-10T11:51:13Z</time>
      </trkpt>
      <trkpt lat="45.0327222222" lon="6.38878888889">
        <ele>2006.889404</ele>
        <time>2008-06-10T11:54:37Z</time>
      </trkpt>
      <trkpt lat="45.0333444444" lon="6.40478333333">
        <ele>2050.629395</ele>
        <time>2008-06-10T12:00:26Z</time>
      </trkpt>
      <trkpt lat="45.0365" lon="6.40432777778">
        <ele>2067.452393</ele>
        <time>2008-06-10T12:02:04Z</time>
      </trkpt>
      <trkpt lat="45.0388888889" lon="6.40074444444">
        <ele>2091.966064</ele>
        <time>2008-06-10T12:03:52Z</time>
      </trkpt>
      <trkpt lat="45.0405972222" lon="6.40159444444">
        <ele>2106.385742</ele>
        <time>2008-06-10T12:04:48Z</time>
      </trkpt>
      <trkpt lat="45.0372777778" lon="6.39704722222">
        <ele>2146.280762</ele>
        <time>2008-06-10T12:07:10Z</time>
      </trkpt>
      <trkpt lat="45.0382555556" lon="6.39335">
        <ele>2174.158936</ele>
        <time>2008-06-10T12:08:36Z</time>
      </trkpt>
      <trkpt lat="45.0402166667" lon="6.39779166667">
        <ele>2204.44043</ele>
        <time>2008-06-10T12:10:31Z</time>
      </trkpt>
      <trkpt lat="45.0443277778" lon="6.40110277778">
        <ele>2250.103027</ele>
        <time>2008-06-10T12:12:57Z</time>
      </trkpt>
      <trkpt lat="45.0473166667" lon="6.39815833333">
        <ele>2276.539307</ele>
        <time>2008-06-10T12:14:49Z</time>
      </trkpt>
      <trkpt lat="45.0515194444" lon="6.39008611111">
        <ele>2337.102295</ele>
        <time>2008-06-10T12:18:28Z</time>
      </trkpt>
      <trkpt lat="45.0531166667" lon="6.39500833333">
        <ele>2371.229004</ele>
        <time>2008-06-10T12:20:26Z</time>
      </trkpt>
      <trkpt lat="45.0532916667" lon="6.402625">
        <ele>2414.488525</ele>
        <time>2008-06-10T12:23:13Z</time>
      </trkpt>
      <trkpt lat="45.0558888889" lon="6.40861944444">
        <ele>2451.018555</ele>
        <time>2008-06-10T12:25:46Z</time>
      </trkpt>
      <trkpt lat="45.0593333333" lon="6.40706666667">
        <ele>2475.531982</ele>
        <time>2008-06-10T12:27:38Z</time>
      </trkpt>
      <trkpt lat="45.0610027778" lon="6.40743055556">
        <ele>2488.029297</ele>
        <time>2008-06-10T12:28:30Z</time>
      </trkpt>
      <trkpt lat="45.0606972222" lon="6.41124166667">
        <ele>2511.101074</ele>
        <time>2008-06-10T12:29:54Z</time>
      </trkpt>
      <trkpt lat="45.0620472222" lon="6.40608333333">
        <ele>2539.94043</ele>
        <time>2008-06-10T12:31:54Z</time>
      </trkpt>
      <trkpt lat="45.0625027778" lon="6.41160277778">
        <ele>2593.774414</ele>
        <time>2008-06-10T12:33:55Z</time>
      </trkpt>
      <trkpt lat="45.0641861111" lon="6.40814444444">
        <ele>2638.475586</ele>
        <time>2008-06-10T12:35:26Z</time>
      </trkpt>
      <trkpt lat="45.0661611111" lon="6.41212222222">
        <ele>2601.464844</ele>
        <time>2008-06-10T12:37:13Z</time>
      </trkpt>
      <trkpt lat="45.0660083333" lon="6.40912222222">
        <ele>2563.012207</ele>
        <time>2008-06-10T12:38:18Z</time>
      </trkpt>
      <trkpt lat="45.0670472222" lon="6.410225">
        <ele>2538.979004</ele>
        <time>2008-06-10T12:38:58Z</time>
      </trkpt>
      <trkpt lat="45.0677" lon="6.408925">
        <ele>2523.5979</ele>
        <time>2008-06-10T12:39:33Z</time>
      </trkpt>
      <trkpt lat="45.0727888889" lon="6.41292222222">
        <ele>2446.212158</ele>
        <time>2008-06-10T12:42:33Z</time>
      </trkpt>
      <trkpt lat="45.0744472222" lon="6.41335555556">
        <ele>2430.831055</ele>
        <time>2008-06-10T12:43:25Z</time>
      </trkpt>
      <trkpt lat="45.0759861111" lon="6.41225555556">
        <ele>2412.565918</ele>
        <time>2008-06-10T12:44:18Z</time>
      </trkpt>
      <trkpt lat="45.0774888889" lon="6.41300555556">
        <ele>2395.742676</ele>
        <time>2008-06-10T12:45:07Z</time>
      </trkpt>
      <trkpt lat="45.0800694444" lon="6.41648333333">
        <ele>2363.53833</ele>
        <time>2008-06-10T12:46:57Z</time>
      </trkpt>
      <trkpt lat="45.0810222222" lon="6.42120833333">
        <ele>2333.737793</ele>
        <time>2008-06-10T12:48:45Z</time>
      </trkpt>
      <trkpt lat="45.0803861111" lon="6.42364444444">
        <ele>2319.318115</ele>
        <time>2008-06-10T12:49:41Z</time>
      </trkpt>
      <trkpt lat="45.0798027778" lon="6.42188888889">
        <ele>2305.859375</ele>
        <time>2008-06-10T12:50:24Z</time>
      </trkpt>
      <trkpt lat="45.0781944444" lon="6.42550555556">
        <ele>2272.694092</ele>
        <time>2008-06-10T12:51:57Z</time>
      </trkpt>
      <trkpt lat="45.0832694444" lon="6.42719722222">
        <ele>2217.898682</ele>
        <time>2008-06-10T12:54:38Z</time>
      </trkpt>
      <trkpt lat="45.0861888889" lon="6.42983055556">
        <ele>2178.484863</ele>
        <time>2008-06-10T12:56:25Z</time>
      </trkpt>
      <trkpt lat="45.086525" lon="6.43226944444">
        <ele>2144.838623</ele>
        <time>2008-06-10T12:57:19Z</time>
      </trkpt>
      <trkpt lat="45.0874138889" lon="6.43031944444">
        <ele>2124.651123</ele>
        <time>2008-06-10T12:58:09Z</time>
      </trkpt>
      <trkpt lat="45.0903472222" lon="6.43050833333">
        <ele>2089.562744</ele>
        <time>2008-06-10T12:59:40Z</time>
      </trkpt>
      <trkpt lat="45.0887777778" lon="6.43140833333">
        <ele>2074.181641</ele>
        <time>2008-06-10T13:00:33Z</time>
      </trkpt>
      <trkpt lat="45.0895333333" lon="6.43163055556">
        <ele>2055.436035</ele>
        <time>2008-06-10T13:00:56Z</time>
      </trkpt>
      <trkpt lat="45.0858666667" lon="6.43725555556">
        <ele>2000.640869</ele>
        <time>2008-06-10T13:03:43Z</time>
      </trkpt>
      <trkpt lat="45.0910666667" lon="6.43524166667">
        <ele>1974.685303</ele>
        <time>2008-06-10T13:06:30Z</time>
      </trkpt>
      <trkpt lat="45.0953194444" lon="6.43054722222">
        <ele>1949.691162</ele>
        <time>2008-06-10T13:09:16Z</time>
      </trkpt>
      <trkpt lat="45.1022722222" lon="6.42920833333">
        <ele>1883.840576</ele>
        <time>2008-06-10T13:12:53Z</time>
      </trkpt>
      <trkpt lat="45.1070916667" lon="6.42556111111">
        <ele>1837.69751</ele>
        <time>2008-06-10T13:15:42Z</time>
      </trkpt>
      <trkpt lat="45.1088583333" lon="6.425975">
        <ele>1825.200195</ele>
        <time>2008-06-10T13:16:37Z</time>
      </trkpt>
      <trkpt lat="45.1155222222" lon="6.42335277778">
        <ele>1769.443848</ele>
        <time>2008-06-10T13:20:11Z</time>
      </trkpt>
      <trkpt lat="45.1197055556" lon="6.41820833333">
        <ele>1724.742676</ele>
        <time>2008-06-10T13:23:02Z</time>
      </trkpt>
      <trkpt lat="45.1570777778" lon="6.42116944444">
        <ele>1537.2854</ele>
        <time>2008-06-10T13:42:18Z</time>
      </trkpt>
      <trkpt lat="45.1640583333" lon="6.42291388889">
        <ele>1486.335693</ele>
        <time>2008-06-10T13:45:57Z</time>
      </trkpt>
      <trkpt lat="45.1643833333" lon="6.43009166667">
        <ele>1453.170166</ele>
        <time>2008-06-10T13:48:34Z</time>
      </trkpt>
      <trkpt lat="45.1676861111" lon="6.43004722222">
        <ele>1433.462891</ele>
        <time>2008-06-10T13:50:15Z</time>
      </trkpt>
      <trkpt lat="45.16575" lon="6.42979722222">
        <ele>1440.672852</ele>
        <time>2008-06-10T13:51:16Z</time>
      </trkpt>
      <trkpt lat="45.1653666667" lon="6.43206666667">
        <ele>1445.960205</ele>
        <time>2008-06-10T13:52:06Z</time>
      </trkpt>
      <trkpt lat="45.1668972222" lon="6.43353333333">
        <ele>1459.418701</ele>
        <time>2008-06-10T13:53:03Z</time>
      </trkpt>
      <trkpt lat="45.1694722222" lon="6.43464166667">
        <ele>1474.799805</ele>
        <time>2008-06-10T13:54:27Z</time>
      </trkpt>
      <trkpt lat="45.17295" lon="6.43269166667">
        <ele>1498.83252</ele>
        <time>2008-06-10T13:56:22Z</time>
      </trkpt>
      <trkpt lat="45.1748722222" lon="6.43291111111">
        <ele>1509.407227</ele>
        <time>2008-06-10T13:57:22Z</time>
      </trkpt>
      <trkpt lat="45.1768" lon="6.43752222222">
        <ele>1537.766113</ele>
        <time>2008-06-10T13:59:18Z</time>
      </trkpt>
      <trkpt lat="45.179175" lon="6.43895">
        <ele>1554.108643</ele>
        <time>2008-06-10T14:00:38Z</time>
      </trkpt>
      <trkpt lat="45.1842722222" lon="6.43805555556">
        <ele>1573.81543</ele>
        <time>2008-06-10T14:03:17Z</time>
      </trkpt>
      <trkpt lat="45.2008472222" lon="6.4435">
        <ele>1606.500244</ele>
        <time>2008-06-10T14:12:02Z</time>
      </trkpt>
      <trkpt lat="45.2013472222" lon="6.44516666667">
        <ele>1594.483643</ele>
        <time>2008-06-10T14:12:42Z</time>
      </trkpt>
      <trkpt lat="45.1961027778" lon="6.44663333333">
        <ele>1545.456543</ele>
        <time>2008-06-10T14:15:27Z</time>
      </trkpt>
      <trkpt lat="45.1940555556" lon="6.45092777778">
        <ele>1517.578369</ele>
        <time>2008-06-10T14:17:19Z</time>
      </trkpt>
      <trkpt lat="45.194725" lon="6.45619722222">
        <ele>1489.219482</ele>
        <time>2008-06-10T14:19:16Z</time>
      </trkpt>
      <trkpt lat="45.1996888889" lon="6.46181944444">
        <ele>1431.059814</ele>
        <time>2008-06-10T14:22:32Z</time>
      </trkpt>
      <trkpt lat="45.1986138889" lon="6.46413055556">
        <ele>1416.15918</ele>
        <time>2008-06-10T14:23:32Z</time>
      </trkpt>
      <trkpt lat="45.1939694444" lon="6.46801388889">
        <ele>1378.187256</ele>
        <time>2008-06-10T14:26:19Z</time>
      </trkpt>
      <trkpt lat="45.1973166667" lon="6.46695833333">
        <ele>1339.253662</ele>
        <time>2008-06-10T14:28:05Z</time>
      </trkpt>
      <trkpt lat="45.1960166667" lon="6.46858333333">
        <ele>1328.679443</ele>
        <time>2008-06-10T14:28:58Z</time>
      </trkpt>
      <trkpt lat="45.1992638889" lon="6.46694722222">
        <ele>1297.917236</ele>
        <time>2008-06-10T14:30:45Z</time>
      </trkpt>
      <trkpt lat="45.1981944444" lon="6.46843888889">
        <ele>1268.116211</ele>
        <time>2008-06-10T14:31:31Z</time>
      </trkpt>
      <trkpt lat="45.2015777778" lon="6.46674444444">
        <ele>1239.276611</ele>
        <time>2008-06-10T14:33:22Z</time>
      </trkpt>
      <trkpt lat="45.2039416667" lon="6.46285833333">
        <ele>1208.514404</ele>
        <time>2008-06-10T14:35:14Z</time>
      </trkpt>
      <trkpt lat="45.2024027778" lon="6.45568333333">
        <ele>1155.161377</ele>
        <time>2008-06-10T14:37:57Z</time>
      </trkpt>
      <trkpt lat="45.2050944444" lon="6.45331388889">
        <ele>1108.056885</ele>
        <time>2008-06-10T14:39:35Z</time>
      </trkpt>
      <trkpt lat="45.2085222222" lon="6.45396944444">
        <ele>1076.333252</ele>
        <time>2008-06-10T14:41:22Z</time>
      </trkpt>
      <trkpt lat="45.2094666667" lon="6.45608055556">
        <ele>1061.432861</ele>
        <time>2008-06-10T14:42:16Z</time>
      </trkpt>
      <trkpt lat="45.21065" lon="6.45481388889">
        <ele>1043.167725</ele>
        <time>2008-06-10T14:43:02Z</time>
      </trkpt>
      <trkpt lat="45.2108166667" lon="6.45683333333">
        <ele>1027.306152</ele>
        <time>2008-06-10T14:43:46Z</time>
      </trkpt>
      <trkpt lat="45.2081166667" lon="6.45857222222">
        <ele>989.333984</ele>
        <time>2008-06-10T14:45:18Z</time>
      </trkpt>
      <trkpt lat="45.2093555556" lon="6.467625">
        <ele>920.118896</ele>
        <time>2008-06-10T14:48:38Z</time>
      </trkpt>
      <trkpt lat="45.2081583333" lon="6.46964166667">
        <ele>904.257324</ele>
        <time>2008-06-10T14:49:36Z</time>
      </trkpt>
      <trkpt lat="45.2106916667" lon="6.46767777778">
        <ele>873.014404</ele>
        <time>2008-06-10T14:51:05Z</time>
      </trkpt>
      <trkpt lat="45.2106916667" lon="6.46951666667">
        <ele>857.152588</ele>
        <time>2008-06-10T14:51:45Z</time>
      </trkpt>
      <trkpt lat="45.2122805556" lon="6.46811944444">
        <ele>838.406982</ele>
        <time>2008-06-10T14:52:43Z</time>
      </trkpt>
      <trkpt lat="45.2125083333" lon="6.46616666667">
        <ele>821.58374</ele>
        <time>2008-06-10T14:53:26Z</time>
      </trkpt>
      <trkpt lat="45.2147583333" lon="6.46910833333">
        <ele>793.705566</ele>
        <time>2008-06-10T14:55:00Z</time>
      </trkpt>
      <trkpt lat="45.2136722222" lon="6.47071666667">
        <ele>778.805176</ele>
        <time>2008-06-10T14:55:49Z</time>
      </trkpt>
      <trkpt lat="45.2157222222" lon="6.47468888889">
        <ele>762.943359</ele>
        <time>2008-06-10T14:57:36Z</time>
      </trkpt>
      <trkpt lat="45.21935" lon="6.46959166667">
        <ele>751.407715</ele>
        <time>2008-06-10T15:00:13Z</time>
      </trkpt>
      <trkpt lat="45.2221194444" lon="6.45164166667">
        <ele>741.313721</ele>
        <time>2008-06-10T15:06:53Z</time>
      </trkpt>
      <trkpt lat="45.22955" lon="6.44947222222">
        <ele>734.584717</ele>
        <time>2008-06-10T15:10:47Z</time>
      </trkpt>
      <trkpt lat="45.2356388889" lon="6.44252222222">
        <ele>731.219971</ele>
        <time>2008-06-10T15:14:49Z</time>
      </trkpt>
      <trkpt lat="45.2370805556" lon="6.43742222222">
        <ele>726.41333</ele>
        <time>2008-06-10T15:16:48Z</time>
      </trkpt>
      <trkpt lat="45.2447805556" lon="6.43019722222">
        <ele>718.7229</ele>
        <time>2008-06-10T15:21:33Z</time>
      </trkpt>
      <trkpt lat="45.2524277778" lon="6.40906666667">
        <ele>687.960693</ele>
        <time>2008-06-10T15:30:10Z</time>
      </trkpt>
      <trkpt lat="45.252675" lon="6.40130555556">
        <ele>673.541016</ele>
        <time>2008-06-10T15:32:59Z</time>
      </trkpt>
      <trkpt lat="45.2551055556" lon="6.39122222222">
        <ele>640.855957</ele>
        <time>2008-06-10T15:36:51Z</time>
      </trkpt>
      <trkpt lat="45.2581333333" lon="6.38781944444">
        <ele>624.513672</ele>
        <time>2008-06-10T15:38:50Z</time>
      </trkpt>
      <trkpt lat="45.2636166667" lon="6.38580277778">
        <ele>603.364502</ele>
        <time>2008-06-10T15:41:45Z</time>
      </trkpt>
      <trkpt lat="45.266475" lon="6.38306666667">
        <ele>591.348145</ele>
        <time>2008-06-10T15:43:31Z</time>
      </trkpt>
      <trkpt lat="45.2679138889" lon="6.37558611111">
        <ele>575.486328</ele>
        <time>2008-06-10T15:46:20Z</time>
      </trkpt>
      <trkpt lat="45.2752944444" lon="6.36016944444">
        <ele>561.06665</ele>
        <time>2008-06-10T15:53:05Z</time>
      </trkpt>
      <trkpt lat="45.2802111111" lon="6.35654722222">
        <ele>560.105225</ele>
        <time>2008-06-10T15:55:56Z</time>
      </trkpt>
      <trkpt lat="45.2857444444" lon="6.35459722222">
        <ele>559.144043</ele>
        <time>2008-06-10T15:58:52Z</time>
      </trkpt>
      <trkpt lat="45.2950277778" lon="6.35514444444">
        <ele>543.762817</ele>
        <time>2008-06-10T16:03:39Z</time>
      </trkpt>
      <trkpt lat="45.3005166667" lon="6.35286388889">
        <ele>536.553101</ele>
        <time>2008-06-10T16:06:36Z</time>
      </trkpt>
      <trkpt lat="45.3127833333" lon="6.33923333333">
        <ele>519.729858</ele>
        <time>2008-06-10T16:14:37Z</time>
      </trkpt>
      <trkpt lat="45.3206611111" lon="6.32099722222">
        <ele>499.542236</ele>
        <time>2008-06-10T16:22:22Z</time>
      </trkpt>
      <trkpt lat="45.3283611111" lon="6.318575">
        <ele>490.890381</ele>
        <time>2008-06-10T16:26:25Z</time>
      </trkpt>
      <trkpt lat="45.3469694444" lon="6.30693611111">
        <ele>473.106079</ele>
        <time>2008-06-10T16:36:53Z</time>
      </trkpt>
      <trkpt lat="45.3503333333" lon="6.30654166667">
        <ele>475.989868</ele>
        <time>2008-06-10T16:38:38Z</time>
      </trkpt>
      <trkpt lat="45.352975" lon="6.30331666667">
        <ele>468.299316</ele>
        <time>2008-06-10T16:40:25Z</time>
      </trkpt>
      <trkpt lat="45.3565416667" lon="6.30224166667">
        <ele>482.238525</ele>
        <time>2008-06-10T16:42:18Z</time>
      </trkpt>
      <trkpt lat="45.3594527778" lon="6.29949166667">
        <ele>489.929077</ele>
        <time>2008-06-10T16:44:06Z</time>
      </trkpt>
      <trkpt lat="45.3636694444" lon="6.30768333333">
        <ele>529.82373</ele>
        <time>2008-06-10T16:47:46Z</time>
      </trkpt>
      <trkpt lat="45.3642583333" lon="6.31553888889">
        <ele>579.812256</ele>
        <time>2008-06-10T16:50:37Z</time>
      </trkpt>
      <trkpt lat="45.3691138889" lon="6.31681944444">
        <ele>640.855957</ele>
        <time>2008-06-10T16:53:10Z</time>
      </trkpt>
      <trkpt lat="45.3675416667" lon="6.3182">
        <ele>655.756592</ele>
        <time>2008-06-10T16:54:07Z</time>
      </trkpt>
      <trkpt lat="45.3693611111" lon="6.318125">
        <ele>673.060303</ele>
        <time>2008-06-10T16:55:03Z</time>
      </trkpt>
      <trkpt lat="45.3669194444" lon="6.32048055556">
        <ele>706.706299</ele>
        <time>2008-06-10T16:56:34Z</time>
      </trkpt>
      <trkpt lat="45.3705611111" lon="6.320425">
        <ele>747.562256</ele>
        <time>2008-06-10T16:58:27Z</time>
      </trkpt>
      <trkpt lat="45.3721138889" lon="6.322">
        <ele>768.230713</ele>
        <time>2008-06-10T16:59:26Z</time>
      </trkpt>
      <trkpt lat="45.3739083333" lon="6.32113055556">
        <ele>786.976318</ele>
        <time>2008-06-10T17:00:24Z</time>
      </trkpt>
      <trkpt lat="45.3719444444" lon="6.32365555556">
        <ele>823.987061</ele>
        <time>2008-06-10T17:01:46Z</time>
      </trkpt>
      <trkpt lat="45.3753222222" lon="6.32348333333">
        <ele>860.036621</ele>
        <time>2008-06-10T17:03:30Z</time>
      </trkpt>
      <trkpt lat="45.3788833333" lon="6.32488055556">
        <ele>896.086182</ele>
        <time>2008-06-10T17:05:24Z</time>
      </trkpt>
      <trkpt lat="45.3795055556" lon="6.3272">
        <ele>908.102783</ele>
        <time>2008-06-10T17:06:18Z</time>
      </trkpt>
      <trkpt lat="45.3825555556" lon="6.32939444444">
        <ele>941.748779</ele>
        <time>2008-06-10T17:08:04Z</time>
      </trkpt>
      <trkpt lat="45.3842694444" lon="6.328475">
        <ele>959.533203</ele>
        <time>2008-06-10T17:09:00Z</time>
      </trkpt>
      <trkpt lat="45.3842805556" lon="6.33050833333">
        <ele>986.449951</ele>
        <time>2008-06-10T17:09:44Z</time>
      </trkpt>
      <trkpt lat="45.3853083333" lon="6.32994722222">
        <ele>1001.831055</ele>
        <time>2008-06-10T17:10:18Z</time>
      </trkpt>
      <trkpt lat="45.3847055556" lon="6.33188888889">
        <ele>1016.731445</ele>
        <time>2008-06-10T17:11:04Z</time>
      </trkpt>
      <trkpt lat="45.3861777778" lon="6.33085277778">
        <ele>1039.32251</ele>
        <time>2008-06-10T17:11:55Z</time>
      </trkpt>
      <trkpt lat="45.3878111111" lon="6.33240555556">
        <ele>1057.587646</ele>
        <time>2008-06-10T17:12:56Z</time>
      </trkpt>
      <trkpt lat="45.3883388889" lon="6.33720833333">
        <ele>1096.520996</ele>
        <time>2008-06-10T17:14:41Z</time>
      </trkpt>
      <trkpt lat="45.3919" lon="6.33606111111">
        <ele>1142.183594</ele>
        <time>2008-06-10T17:16:34Z</time>
      </trkpt>
      <trkpt lat="45.3928444444" lon="6.33448888889">
        <ele>1157.564697</ele>
        <time>2008-06-10T17:17:19Z</time>
      </trkpt>
      <trkpt lat="45.397025" lon="6.33594444444">
        <ele>1207.07251</ele>
        <time>2008-06-10T17:19:32Z</time>
      </trkpt>
      <trkpt lat="45.4008944444" lon="6.33930833333">
        <ele>1266.674316</ele>
        <time>2008-06-10T17:21:52Z</time>
      </trkpt>
      <trkpt lat="45.4029111111" lon="6.34313888889">
        <ele>1303.204346</ele>
        <time>2008-06-10T17:23:36Z</time>
      </trkpt>
      <trkpt lat="45.4080111111" lon="6.344775">
        <ele>1363.767334</ele>
        <time>2008-06-10T17:26:17Z</time>
      </trkpt>
      <trkpt lat="45.4068638889" lon="6.34553611111">
        <ele>1378.187256</ele>
        <time>2008-06-10T17:26:56Z</time>
      </trkpt>
      <trkpt lat="45.4128861111" lon="6.34982777778">
        <ele>1429.136963</ele>
        <time>2008-06-10T17:30:24Z</time>
      </trkpt>
      <trkpt lat="45.4169833333" lon="6.36108055556">
        <ele>1566.605713</ele>
        <time>2008-06-10T17:34:59Z</time>
      </trkpt>
      <trkpt lat="45.4163416667" lon="6.36269444444">
        <ele>1581.506104</ele>
        <time>2008-06-10T17:35:39Z</time>
      </trkpt>
      <trkpt lat="45.4179583333" lon="6.36208055556">
        <ele>1585.351318</ele>
        <time>2008-06-10T17:36:31Z</time>
      </trkpt>
      <trkpt lat="45.4192722222" lon="6.36394444444">
        <ele>1599.77124</ele>
        <time>2008-06-10T17:37:28Z</time>
      </trkpt>
      <trkpt lat="45.4204777778" lon="6.35934166667">
        <ele>1613.229736</ele>
        <time>2008-06-10T17:39:15Z</time>
      </trkpt>
      <trkpt lat="45.4214055556" lon="6.36182222222">
        <ele>1627.168701</ele>
        <time>2008-06-10T17:40:16Z</time>
      </trkpt>
      <trkpt lat="45.4215333333" lon="6.35985833333">
        <ele>1648.317627</ele>
        <time>2008-06-10T17:40:59Z</time>
      </trkpt>
      <trkpt lat="45.4226027778" lon="6.36116111111">
        <ele>1665.621582</ele>
        <time>2008-06-10T17:41:42Z</time>
      </trkpt>
      <trkpt lat="45.4226666667" lon="6.35850833333">
        <ele>1680.521973</ele>
        <time>2008-06-10T17:42:40Z</time>
      </trkpt>
      <trkpt lat="45.4249333333" lon="6.36190833333">
        <ele>1712.245361</ele>
        <time>2008-06-10T17:44:21Z</time>
      </trkpt>
      <trkpt lat="45.4243861111" lon="6.36610555556">
        <ele>1743.488281</ele>
        <time>2008-06-10T17:45:54Z</time>
      </trkpt>
      <trkpt lat="45.4258361111" lon="6.37308333333">
        <ele>1787.70874</ele>
        <time>2008-06-10T17:48:32Z</time>
      </trkpt>
      <trkpt lat="45.4261111111" lon="6.37044722222">
        <ele>1818.470947</ele>
        <time>2008-06-10T17:49:29Z</time>
      </trkpt>
      <trkpt lat="45.4304194444" lon="6.36569444444">
        <ele>1867.498047</ele>
        <time>2008-06-10T17:52:18Z</time>
      </trkpt>
      <trkpt lat="45.4311083333" lon="6.36290833333">
        <ele>1898.740967</ele>
        <time>2008-06-10T17:53:22Z</time>
      </trkpt>
      <trkpt lat="45.4337083333" lon="6.37438333333">
        <ele>1982.375977</ele>
        <time>2008-06-10T17:57:43Z</time>
      </trkpt>
      <trkpt lat="45.4364888889" lon="6.37547222222">
        <ele>2000.1604</ele>
        <time>2008-06-10T17:59:12Z</time>
      </trkpt>
      <trkpt lat="45.4387555556" lon="6.37857777778">
        <ele>1971.80127</ele>
        <time>2008-06-10T18:00:49Z</time>
      </trkpt>
      <trkpt lat="45.4420027778" lon="6.37712777778">
        <ele>1941.519775</ele>
        <time>2008-06-10T18:02:34Z</time>
      </trkpt>
      <trkpt lat="45.4411472222" lon="6.37868611111">
        <ele>1922.293457</ele>
        <time>2008-06-10T18:03:17Z</time>
      </trkpt>
      <trkpt lat="45.4429583333" lon="6.37761944444">
        <ele>1903.067139</ele>
        <time>2008-06-10T18:04:18Z</time>
      </trkpt>
      <trkpt lat="45.446125" lon="6.38013055556">
        <ele>1863.652832</ele>
        <time>2008-06-10T18:06:10Z</time>
      </trkpt>
      <trkpt lat="45.4431972222" lon="6.37990555556">
        <ele>1826.161621</ele>
        <time>2008-06-10T18:07:40Z</time>
      </trkpt>
      <trkpt lat="45.4419416667" lon="6.38183055556">
        <ele>1809.338623</ele>
        <time>2008-06-10T18:08:37Z</time>
      </trkpt>
      <trkpt lat="45.443375" lon="6.38131944444">
        <ele>1794.918701</ele>
        <time>2008-06-10T18:09:23Z</time>
      </trkpt>
      <trkpt lat="45.4444666667" lon="6.38326111111">
        <ele>1775.21167</ele>
        <time>2008-06-10T18:10:17Z</time>
      </trkpt>
      <trkpt lat="45.4456194444" lon="6.390975">
        <ele>1712.726074</ele>
        <time>2008-06-10T18:13:08Z</time>
      </trkpt>
      <trkpt lat="45.4480333333" lon="6.39488055556">
        <ele>1678.118652</ele>
        <time>2008-06-10T18:15:01Z</time>
      </trkpt>
      <trkpt lat="45.4532833333" lon="6.39746388889">
        <ele>1643.030273</ele>
        <time>2008-06-10T18:17:52Z</time>
      </trkpt>
      <trkpt lat="45.4564194444" lon="6.39438055556">
        <ele>1626.207275</ele>
        <time>2008-06-10T18:19:50Z</time>
      </trkpt>
      <trkpt lat="45.4602722222" lon="6.39937777778">
        <ele>1613.710205</ele>
        <time>2008-06-10T18:22:31Z</time>
      </trkpt>
      <trkpt lat="45.4636861111" lon="6.40183055556">
        <ele>1596.887207</ele>
        <time>2008-06-10T18:24:29Z</time>
      </trkpt>
      <trkpt lat="45.4655138889" lon="6.40245">
        <ele>1593.041748</ele>
        <time>2008-06-10T18:25:27Z</time>
      </trkpt>
      <trkpt lat="45.4689305556" lon="6.40068888889">
        <ele>1574.296143</ele>
        <time>2008-06-10T18:27:19Z</time>
      </trkpt>
      <trkpt lat="45.4701722222" lon="6.40129722222">
        <ele>1562.760254</ele>
        <time>2008-06-10T18:28:00Z</time>
      </trkpt>
      <trkpt lat="45.4695722222" lon="6.40633333333">
        <ele>1522.38501</ele>
        <time>2008-06-10T18:29:50Z</time>
      </trkpt>
      <trkpt lat="45.4748916667" lon="6.41496388889">
        <ele>1420.004639</ele>
        <time>2008-06-10T18:33:59Z</time>
      </trkpt>
      <trkpt lat="45.475575" lon="6.41385833333">
        <ele>1401.258789</ele>
        <time>2008-06-10T18:34:31Z</time>
      </trkpt>
      <trkpt lat="45.4749444444" lon="6.41622222222">
        <ele>1388.761963</ele>
        <time>2008-06-10T18:35:26Z</time>
      </trkpt>
      <trkpt lat="45.4734944444" lon="6.41481388889">
        <ele>1373.380859</ele>
        <time>2008-06-10T18:36:20Z</time>
      </trkpt>
      <trkpt lat="45.475575" lon="6.41845277778">
        <ele>1339.253662</ele>
        <time>2008-06-10T18:38:02Z</time>
      </trkpt>
      <trkpt lat="45.4769833333" lon="6.41768333333">
        <ele>1318.585449</ele>
        <time>2008-06-10T18:38:48Z</time>
      </trkpt>
      <trkpt lat="45.4798416667" lon="6.42107222222">
        <ele>1272.922852</ele>
        <time>2008-06-10T18:40:43Z</time>
      </trkpt>
      <trkpt lat="45.4874166667" lon="6.42626111111">
        <ele>1194.575195</ele>
        <time>2008-06-10T18:45:02Z</time>
      </trkpt>
      <trkpt lat="45.4877833333" lon="6.42831944444">
        <ele>1157.564697</ele>
        <time>2008-06-10T18:45:49Z</time>
      </trkpt>
      <trkpt lat="45.489625" lon="6.42812777778">
        <ele>1136.89624</ele>
        <time>2008-06-10T18:46:46Z</time>
      </trkpt>
      <trkpt lat="45.494225" lon="6.430925">
        <ele>1097.001465</ele>
        <time>2008-06-10T18:49:20Z</time>
      </trkpt>
      <trkpt lat="45.4918555556" lon="6.43096944444">
        <ele>1059.990723</ele>
        <time>2008-06-10T18:50:33Z</time>
      </trkpt>
      <trkpt lat="45.4953388889" lon="6.43226666667">
        <ele>1032.112549</ele>
        <time>2008-06-10T18:52:24Z</time>
      </trkpt>
      <trkpt lat="45.4960666667" lon="6.43438888889">
        <ele>1027.786621</ele>
        <time>2008-06-10T18:53:15Z</time>
      </trkpt>
      <trkpt lat="45.5063638889" lon="6.44493055556">
        <ele>1028.267334</ele>
        <time>2008-06-10T18:59:47Z</time>
      </trkpt>
      <trkpt lat="45.5097305556" lon="6.44690277778">
        <ele>1034.035156</ele>
        <time>2008-06-10T19:01:39Z</time>
      </trkpt>
      <trkpt lat="45.5131333333" lon="6.44476388889">
        <ele>1016.731445</ele>
        <time>2008-06-10T19:03:34Z</time>
      </trkpt>
      <trkpt lat="45.5134916667" lon="6.44918888889">
        <ele>996.543945</ele>
        <time>2008-06-10T19:05:11Z</time>
      </trkpt>
      <trkpt lat="45.5178166667" lon="6.45377222222">
        <ele>978.759521</ele>
        <time>2008-06-10T19:07:57Z</time>
      </trkpt>
      <trkpt lat="45.5193527778" lon="6.45290555556">
        <ele>966.74292</ele>
        <time>2008-06-10T19:08:48Z</time>
      </trkpt>
      <trkpt lat="45.5225527778" lon="6.458175">
        <ele>937.90332</ele>
        <time>2008-06-10T19:11:19Z</time>
      </trkpt>
      <trkpt lat="45.5208305556" lon="6.45692777778">
        <ele>927.329102</ele>
        <time>2008-06-10T19:12:18Z</time>
      </trkpt>
      <trkpt lat="45.52435" lon="6.46074444444">
        <ele>882.146973</ele>
        <time>2008-06-10T19:14:35Z</time>
      </trkpt>
      <trkpt lat="45.5265666667" lon="6.46074722222">
        <ele>863.881836</ele>
        <time>2008-06-10T19:15:43Z</time>
      </trkpt>
      <trkpt lat="45.5296472222" lon="6.46378333333">
        <ele>845.616943</ele>
        <time>2008-06-10T19:17:39Z</time>
      </trkpt>
      <trkpt lat="45.5352416667" lon="6.46222222222">
        <ele>804.760742</ele>
        <time>2008-06-10T19:20:35Z</time>
      </trkpt>
      <trkpt lat="45.5385111111" lon="6.45984444444">
        <ele>773.998535</ele>
        <time>2008-06-10T19:22:28Z</time>
      </trkpt>
      <trkpt lat="45.5441527778" lon="6.46105833333">
        <ele>732.662109</ele>
        <time>2008-06-10T19:25:25Z</time>
      </trkpt>
      <trkpt lat="45.5470555556" lon="6.45995833333">
        <ele>699.496338</ele>
        <time>2008-06-10T19:26:57Z</time>
      </trkpt>
      <trkpt lat="45.5468277778" lon="6.46093888889">
        <ele>677.866699</ele>
        <time>2008-06-10T19:27:20Z</time>
      </trkpt>
      <trkpt lat="45.5491222222" lon="6.46061944444">
        <ele>660.562988</ele>
        <time>2008-06-10T19:28:31Z</time>
      </trkpt>
      <trkpt lat="45.5470611111" lon="6.46260833333">
        <ele>624.513672</ele>
        <time>2008-06-10T19:29:48Z</time>
      </trkpt>
      <trkpt lat="45.545225" lon="6.46235277778">
        <ele>605.287354</ele>
        <time>2008-06-10T19:30:45Z</time>
      </trkpt>
      <trkpt lat="45.5476388889" lon="6.46339166667">
        <ele>562.989258</ele>
        <time>2008-06-10T19:32:03Z</time>
      </trkpt>
      <trkpt lat="45.5439138889" lon="6.46384722222">
        <ele>526.939819</ele>
        <time>2008-06-10T19:33:58Z</time>
      </trkpt>
      <trkpt lat="45.5465472222" lon="6.46431666667">
        <ele>503.868164</ele>
        <time>2008-06-10T19:35:20Z</time>
      </trkpt>
      <trkpt lat="45.5392305556" lon="6.46610555556">
        <ele>443.305054</ele>
        <time>2008-06-10T19:39:09Z</time>
      </trkpt>
      <trkpt lat="45.5349916667" lon="6.47338055556">
        <ele>456.76355</ele>
        <time>2008-06-10T19:42:34Z</time>
      </trkpt>
      <trkpt lat="45.5211777778" lon="6.48473055556">
        <ele>475.028687</ele>
        <time>2008-06-10T19:50:46Z</time>
      </trkpt>
      <trkpt lat="45.5155666667" lon="6.48729444444">
        <ele>480.315918</ele>
        <time>2008-06-10T19:53:48Z</time>
      </trkpt>
      <trkpt lat="45.5128777778" lon="6.497175">
        <ele>491.370972</ele>
        <time>2008-06-10T19:57:38Z</time>
      </trkpt>
      <trkpt lat="45.5088194444" lon="6.50306111111">
        <ele>504.829468</ele>
        <time>2008-06-10T20:00:37Z</time>
      </trkpt>
      <trkpt lat="45.5072777778" lon="6.50792777778">
        <ele>511.078003</ele>
        <time>2008-06-10T20:02:32Z</time>
      </trkpt>
      <trkpt lat="45.5023555556" lon="6.51180555556">
        <ele>527.901001</ele>
        <time>2008-06-10T20:05:26Z</time>
      </trkpt>
      <trkpt lat="45.4985222222" lon="6.51286111111">
        <ele>512.039429</ele>
        <time>2008-06-10T20:07:26Z</time>
      </trkpt>
      <trkpt lat="45.4956611111" lon="6.51606666667">
        <ele>523.575195</ele>
        <time>2008-06-10T20:09:19Z</time>
      </trkpt>
      <trkpt lat="45.4870166667" lon="6.52063333333">
        <ele>519.249268</ele>
        <time>2008-06-10T20:14:03Z</time>
      </trkpt>
      <trkpt lat="45.4825416667" lon="6.52522222222">
        <ele>505.310181</ele>
        <time>2008-06-10T20:16:54Z</time>
      </trkpt>
      <trkpt lat="45.481275" lon="6.52691388889">
        <ele>503.387451</ele>
        <time>2008-06-10T20:17:47Z</time>
      </trkpt>
      <trkpt lat="45.4813666667" lon="6.534825">
        <ele>501.945557</ele>
        <time>2008-06-10T20:20:39Z</time>
      </trkpt>
      <trkpt lat="45.4831805556" lon="6.53547222222">
        <ele>501.464844</ele>
        <time>2008-06-10T20:21:36Z</time>
      </trkpt>
      <trkpt lat="45.4867444444" lon="6.54458888889">
        <ele>509.636108</ele>
        <time>2008-06-10T20:25:22Z</time>
      </trkpt>
      <trkpt lat="45.4949555556" lon="6.55305555556">
        <ele>513.481445</ele>
        <time>2008-06-10T20:30:35Z</time>
      </trkpt>
      <trkpt lat="45.5019833333" lon="6.56225555556">
        <ele>562.989258</ele>
        <time>2008-06-10T20:35:30Z</time>
      </trkpt>
      <trkpt lat="45.51165" lon="6.565675">
        <ele>607.209961</ele>
        <time>2008-06-10T20:40:38Z</time>
      </trkpt>
      <trkpt lat="45.5188111111" lon="6.57006944444">
        <ele>623.071777</ele>
        <time>2008-06-10T20:44:38Z</time>
      </trkpt>
      <trkpt lat="45.5232916667" lon="6.575">
        <ele>632.204102</ele>
        <time>2008-06-10T20:47:33Z</time>
      </trkpt>
      <trkpt lat="45.5289833333" lon="6.58575">
        <ele>644.701172</ele>
        <time>2008-06-10T20:52:25Z</time>
      </trkpt>
      <trkpt lat="45.5292333333" lon="6.59404722222">
        <ele>620.668457</ele>
        <time>2008-06-10T20:55:24Z</time>
      </trkpt>
      <trkpt lat="45.531175" lon="6.598775">
        <ele>616.342285</ele>
        <time>2008-06-10T20:57:23Z</time>
      </trkpt>
      <trkpt lat="45.5361972222" lon="6.60325555556">
        <ele>635.088135</ele>
        <time>2008-06-10T21:00:26Z</time>
      </trkpt>
      <trkpt lat="45.5400027778" lon="6.60418611111">
        <ele>662.966309</ele>
        <time>2008-06-10T21:02:25Z</time>
      </trkpt>
      <trkpt lat="45.5429833333" lon="6.61101666667">
        <ele>674.021484</ele>
        <time>2008-06-10T21:05:19Z</time>
      </trkpt>
      <trkpt lat="45.5428638889" lon="6.613775">
        <ele>675.463379</ele>
        <time>2008-06-10T21:06:19Z</time>
      </trkpt>
      <trkpt lat="45.5439777778" lon="6.61533611111">
        <ele>678.347412</ele>
        <time>2008-06-10T21:07:07Z</time>
      </trkpt>
      <trkpt lat="45.5476444444" lon="6.61576944444">
        <ele>684.115479</ele>
        <time>2008-06-10T21:09:01Z</time>
      </trkpt>
      <trkpt lat="45.5502916667" lon="6.61921666667">
        <ele>689.883301</ele>
        <time>2008-06-10T21:10:52Z</time>
      </trkpt>
      <trkpt lat="45.5496111111" lon="6.62401944444">
        <ele>695.651123</ele>
        <time>2008-06-10T21:12:38Z</time>
      </trkpt>
      <trkpt lat="45.5532027778" lon="6.63873888889">
        <ele>683.153809</ele>
        <time>2008-06-10T21:18:15Z</time>
      </trkpt>
      <trkpt lat="45.5537083333" lon="6.65240277778">
        <ele>668.734375</ele>
        <time>2008-06-10T21:23:11Z</time>
      </trkpt>
      <trkpt lat="45.5647694444" lon="6.68063888889">
        <ele>761.020752</ele>
        <time>2008-06-10T21:34:50Z</time>
      </trkpt>
      <trkpt lat="45.564425" lon="6.68568611111">
        <ele>748.523682</ele>
        <time>2008-06-10T21:36:40Z</time>
      </trkpt>
      <trkpt lat="45.5679777778" lon="6.70345277778">
        <ele>767.75</ele>
        <time>2008-06-10T21:43:20Z</time>
      </trkpt>
      <trkpt lat="45.5683388889" lon="6.71406944444">
        <ele>773.518066</ele>
        <time>2008-06-10T21:47:09Z</time>
      </trkpt>
      <trkpt lat="45.5779916667" lon="6.73359722222">
        <ele>807.644775</ele>
        <time>2008-06-10T21:55:46Z</time>
      </trkpt>
      <trkpt lat="45.5875583333" lon="6.746325">
        <ele>835.04248</ele>
        <time>2008-06-10T22:02:30Z</time>
      </trkpt>
      <trkpt lat="45.6017333333" lon="6.75348055556">
        <ele>841.290771</ele>
        <time>2008-06-10T22:10:14Z</time>
      </trkpt>
      <trkpt lat="45.6079166667" lon="6.75909166667">
        <ele>852.82666</ele>
        <time>2008-06-10T22:14:01Z</time>
      </trkpt>
      <trkpt lat="45.6112694444" lon="6.765025">
        <ele>861.959473</ele>
        <time>2008-06-10T22:16:45Z</time>
      </trkpt>
      <trkpt lat="45.6171722222" lon="6.77048055556">
        <ele>830.23584</ele>
        <time>2008-06-10T22:20:23Z</time>
      </trkpt>
      <trkpt lat="45.6226527778" lon="6.77103611111">
        <ele>833.119629</ele>
        <time>2008-06-10T22:23:12Z</time>
      </trkpt>
      <trkpt lat="45.62795" lon="6.78396666667">
        <ele>912.90918</ele>
        <time>2008-06-10T22:28:36Z</time>
      </trkpt>
      <trkpt lat="45.6294805556" lon="6.78549722222">
        <ele>925.40625</ele>
        <time>2008-06-10T22:29:34Z</time>
      </trkpt>
      <trkpt lat="45.6295277778" lon="6.78333611111">
        <ele>951.842529</ele>
        <time>2008-06-10T22:30:20Z</time>
      </trkpt>
      <trkpt lat="45.6343277778" lon="6.78557777778">
        <ele>967.223633</ele>
        <time>2008-06-10T22:32:56Z</time>
      </trkpt>
      <trkpt lat="45.6388305556" lon="6.784525">
        <ele>976.356201</ele>
        <time>2008-06-10T22:35:17Z</time>
      </trkpt>
      <trkpt lat="45.6513166667" lon="6.78787222222">
        <ele>1033.554443</ele>
        <time>2008-06-10T22:41:50Z</time>
      </trkpt>
      <trkpt lat="45.6641277778" lon="6.77795277778">
        <ele>1163.812988</ele>
        <time>2008-06-10T22:49:20Z</time>
      </trkpt>
      <trkpt lat="45.6662333333" lon="6.77475277778">
        <ele>1190.249512</ele>
        <time>2008-06-10T22:50:54Z</time>
      </trkpt>
      <trkpt lat="45.6669638889" lon="6.77502777778">
        <ele>1204.188721</ele>
        <time>2008-06-10T22:51:18Z</time>
      </trkpt>
      <trkpt lat="45.6670055556" lon="6.77253333333">
        <ele>1221.9729</ele>
        <time>2008-06-10T22:52:12Z</time>
      </trkpt>
      <trkpt lat="45.6675833333" lon="6.77429722222">
        <ele>1238.796143</ele>
        <time>2008-06-10T22:52:54Z</time>
      </trkpt>
      <trkpt lat="45.6679944444" lon="6.77265555556">
        <ele>1271.961426</ele>
        <time>2008-06-10T22:53:31Z</time>
      </trkpt>
      <trkpt lat="45.6685166667" lon="6.77508333333">
        <ele>1285.419922</ele>
        <time>2008-06-10T22:54:26Z</time>
      </trkpt>
      <trkpt lat="45.6689861111" lon="6.77298055556">
        <ele>1319.546875</ele>
        <time>2008-06-10T22:55:14Z</time>
      </trkpt>
      <trkpt lat="45.6700888889" lon="6.77364722222">
        <ele>1366.651367</ele>
        <time>2008-06-10T22:55:51Z</time>
      </trkpt>
      <trkpt lat="45.6709583333" lon="6.76889444444">
        <ele>1399.336182</ele>
        <time>2008-06-10T22:57:37Z</time>
      </trkpt>
      <trkpt lat="45.6705805556" lon="6.7588">
        <ele>1470.473877</ele>
        <time>2008-06-10T23:01:15Z</time>
      </trkpt>
      <trkpt lat="45.6732222222" lon="6.75571388889">
        <ele>1472.877197</ele>
        <time>2008-06-10T23:03:00Z</time>
      </trkpt>
      <trkpt lat="45.67945" lon="6.74198888889">
        <ele>1507.965332</ele>
        <time>2008-06-10T23:08:53Z</time>
      </trkpt>
      <trkpt lat="45.6857361111" lon="6.73586111111">
        <ele>1541.611328</ele>
        <time>2008-06-10T23:12:48Z</time>
      </trkpt>
      <trkpt lat="45.6862861111" lon="6.73339444444">
        <ele>1550.263428</ele>
        <time>2008-06-10T23:13:44Z</time>
      </trkpt>
      <trkpt lat="45.6934611111" lon="6.73159444444">
        <ele>1611.306885</ele>
        <time>2008-06-10T23:17:29Z</time>
      </trkpt>
      <trkpt lat="45.6939472222" lon="6.72363611111">
        <ele>1665.140869</ele>
        <time>2008-06-10T23:20:22Z</time>
      </trkpt>
      <trkpt lat="45.695125" lon="6.72226666667">
        <ele>1679.079834</ele>
        <time>2008-06-10T23:21:08Z</time>
      </trkpt>
      <trkpt lat="45.6963694444" lon="6.72670277778">
        <ele>1695.903076</ele>
        <time>2008-06-10T23:22:51Z</time>
      </trkpt>
      <trkpt lat="45.6964611111" lon="6.72345833333">
        <ele>1728.587891</ele>
        <time>2008-06-10T23:24:02Z</time>
      </trkpt>
      <trkpt lat="45.6976888889" lon="6.72536111111">
        <ele>1748.294678</ele>
        <time>2008-06-10T23:24:57Z</time>
      </trkpt>
      <trkpt lat="45.6967944444" lon="6.71906666667">
        <ele>1778.576416</ele>
        <time>2008-06-10T23:27:16Z</time>
      </trkpt>
      <trkpt lat="45.6946333333" lon="6.71656666667">
        <ele>1797.802734</ele>
        <time>2008-06-10T23:28:42Z</time>
      </trkpt>
      <trkpt lat="45.6921388889" lon="6.70131111111">
        <ele>1877.592041</ele>
        <time>2008-06-10T23:34:20Z</time>
      </trkpt>
      <trkpt lat="45.6938388889" lon="6.69401388889">
        <ele>1925.657959</ele>
        <time>2008-06-10T23:37:06Z</time>
      </trkpt>
      <trkpt lat="45.6914027778" lon="6.690725">
        <ele>1951.133057</ele>
        <time>2008-06-10T23:38:49Z</time>
      </trkpt>
      <trkpt lat="45.6913138889" lon="6.68352222222">
        <ele>1935.27124</ele>
        <time>2008-06-10T23:41:25Z</time>
      </trkpt>
      <trkpt lat="45.6900972222" lon="6.68158611111">
        <ele>1925.657959</ele>
        <time>2008-06-10T23:42:21Z</time>
      </trkpt>
      <trkpt lat="45.6911055556" lon="6.68006111111">
        <ele>1912.199463</ele>
        <time>2008-06-10T23:43:06Z</time>
      </trkpt>
      <trkpt lat="45.6942" lon="6.68279722222">
        <ele>1894.415039</ele>
        <time>2008-06-10T23:44:59Z</time>
      </trkpt>
      <trkpt lat="45.6911277778" lon="6.67686388889">
        <ele>1856.923828</ele>
        <time>2008-06-10T23:47:38Z</time>
      </trkpt>
      <trkpt lat="45.6909972222" lon="6.67432222222">
        <ele>1842.023438</ele>
        <time>2008-06-10T23:48:33Z</time>
      </trkpt>
      <trkpt lat="45.6961805556" lon="6.66219722222">
        <ele>1756.946777</ele>
        <time>2008-06-10T23:53:40Z</time>
      </trkpt>
      <trkpt lat="45.6914527778" lon="6.65416944444">
        <ele>1691.096191</ele>
        <time>2008-06-10T23:57:26Z</time>
      </trkpt>
      <trkpt lat="45.6949722222" lon="6.65791944444">
        <ele>1646.875732</ele>
        <time>2008-06-10T23:59:42Z</time>
      </trkpt>
      <trkpt lat="45.6957666667" lon="6.65681388889">
        <ele>1632.936523</ele>
        <time>2008-06-11T00:00:16Z</time>
      </trkpt>
      <trkpt lat="45.6945888889" lon="6.65567777778">
        <ele>1621.400635</ele>
        <time>2008-06-11T00:01:00Z</time>
      </trkpt>
      <trkpt lat="45.6981888889" lon="6.65621111111">
        <ele>1593.522461</ele>
        <time>2008-06-11T00:02:52Z</time>
      </trkpt>
      <trkpt lat="45.7003916667" lon="6.65228055556">
        <ele>1589.196533</ele>
        <time>2008-06-11T00:04:40Z</time>
      </trkpt>
      <trkpt lat="45.7005638889" lon="6.64336666667">
        <ele>1605.05835</ele>
        <time>2008-06-11T00:07:53Z</time>
      </trkpt>
      <trkpt lat="45.6949638889" lon="6.63336111111">
        <ele>1602.655029</ele>
        <time>2008-06-11T00:12:29Z</time>
      </trkpt>
      <trkpt lat="45.6984416667" lon="6.63421388889">
        <ele>1580.544922</ele>
        <time>2008-06-11T00:14:18Z</time>
      </trkpt>
      <trkpt lat="45.7065833333" lon="6.63307777778">
        <ele>1500.755371</ele>
        <time>2008-06-11T00:18:31Z</time>
      </trkpt>
      <trkpt lat="45.7011694444" lon="6.6318">
        <ele>1455.573486</ele>
        <time>2008-06-11T00:21:20Z</time>
      </trkpt>
      <trkpt lat="45.7007194444" lon="6.63100277778">
        <ele>1438.269775</ele>
        <time>2008-06-11T00:21:42Z</time>
      </trkpt>
      <trkpt lat="45.7072722222" lon="6.63085">
        <ele>1372.900146</ele>
        <time>2008-06-11T00:25:05Z</time>
      </trkpt>
      <trkpt lat="45.7003222222" lon="6.627125">
        <ele>1310.89502</ele>
        <time>2008-06-11T00:28:54Z</time>
      </trkpt>
      <trkpt lat="45.6969916667" lon="6.6175">
        <ele>1247.928711</ele>
        <time>2008-06-11T00:32:46Z</time>
      </trkpt>
      <trkpt lat="45.6986083333" lon="6.62006944444">
        <ele>1218.127686</ele>
        <time>2008-06-11T00:34:00Z</time>
      </trkpt>
      <trkpt lat="45.6979166667" lon="6.61464444444">
        <ele>1171.023193</ele>
        <time>2008-06-11T00:35:59Z</time>
      </trkpt>
      <trkpt lat="45.7020388889" lon="6.62303055556">
        <ele>1103.250244</ele>
        <time>2008-06-11T00:39:40Z</time>
      </trkpt>
      <trkpt lat="45.7053361111" lon="6.62445833333">
        <ele>1068.162109</ele>
        <time>2008-06-11T00:41:27Z</time>
      </trkpt>
      <trkpt lat="45.7037083333" lon="6.62288888889">
        <ele>1053.742432</ele>
        <time>2008-06-11T00:42:27Z</time>
      </trkpt>
      <trkpt lat="45.7040083333" lon="6.62039722222">
        <ele>1040.764404</ele>
        <time>2008-06-11T00:43:22Z</time>
      </trkpt>
      <trkpt lat="45.705925" lon="6.61938333333">
        <ele>1033.554443</ele>
        <time>2008-06-11T00:44:25Z</time>
      </trkpt>
      <trkpt lat="45.7071805556" lon="6.61168333333">
        <ele>1006.637695</ele>
        <time>2008-06-11T00:47:16Z</time>
      </trkpt>
      <trkpt lat="45.7071805556" lon="6.59389166667">
        <ele>894.163574</ele>
        <time>2008-06-11T00:53:39Z</time>
      </trkpt>
      <trkpt lat="45.7114305556" lon="6.58809722222">
        <ele>832.63916</ele>
        <time>2008-06-11T00:56:41Z</time>
      </trkpt>
      <trkpt lat="45.7142916667" lon="6.57816944444">
        <ele>775.44043</ele>
        <time>2008-06-11T01:00:32Z</time>
      </trkpt>
      <trkpt lat="45.7156138889" lon="6.57715555556">
        <ele>786.49585</ele>
        <time>2008-06-11T01:01:18Z</time>
      </trkpt>
      <trkpt lat="45.7168527778" lon="6.57794444444">
        <ele>804.280273</ele>
        <time>2008-06-11T01:02:00Z</time>
      </trkpt>
      <trkpt lat="45.7151777778" lon="6.57868611111">
        <ele>821.103271</ele>
        <time>2008-06-11T01:02:55Z</time>
      </trkpt>
      <trkpt lat="45.7176722222" lon="6.5802">
        <ele>850.904053</ele>
        <time>2008-06-11T01:04:18Z</time>
      </trkpt>
      <trkpt lat="45.7248" lon="6.57917222222">
        <ele>922.522217</ele>
        <time>2008-06-11T01:07:59Z</time>
      </trkpt>
      <trkpt lat="45.7272555556" lon="6.57383055556">
        <ele>952.803711</ele>
        <time>2008-06-11T01:10:17Z</time>
      </trkpt>
      <trkpt lat="45.7327444444" lon="6.573175">
        <ele>966.74292</ele>
        <time>2008-06-11T01:13:07Z</time>
      </trkpt>
      <trkpt lat="45.7446555556" lon="6.585975">
        <ele>1040.764404</ele>
        <time>2008-06-11T01:20:47Z</time>
      </trkpt>
      <trkpt lat="45.744775" lon="6.58831666667">
        <ele>1036.438721</ele>
        <time>2008-06-11T01:21:38Z</time>
      </trkpt>
      <trkpt lat="45.746475" lon="6.58861944444">
        <ele>1042.206543</ele>
        <time>2008-06-11T01:22:31Z</time>
      </trkpt>
      <trkpt lat="45.7473444444" lon="6.59074722222">
        <ele>1042.687256</ele>
        <time>2008-06-11T01:23:24Z</time>
      </trkpt>
      <trkpt lat="45.7518527778" lon="6.59247222222">
        <ele>1046.532471</ele>
        <time>2008-06-11T01:25:48Z</time>
      </trkpt>
      <trkpt lat="45.7515305556" lon="6.59036111111">
        <ele>1062.874756</ele>
        <time>2008-06-11T01:26:35Z</time>
      </trkpt>
      <trkpt lat="45.7540833333" lon="6.59206666667">
        <ele>1099.885498</ele>
        <time>2008-06-11T01:28:02Z</time>
      </trkpt>
      <trkpt lat="45.7490472222" lon="6.58274722222">
        <ele>1142.183594</ele>
        <time>2008-06-11T01:32:16Z</time>
      </trkpt>
      <trkpt lat="45.7463166667" lon="6.57455">
        <ele>1187.365479</ele>
        <time>2008-06-11T01:35:32Z</time>
      </trkpt>
      <trkpt lat="45.7515027778" lon="6.57671666667">
        <ele>1251.773926</ele>
        <time>2008-06-11T01:38:18Z</time>
      </trkpt>
      <trkpt lat="45.7455166667" lon="6.57048055556">
        <ele>1318.104736</ele>
        <time>2008-06-11T01:42:07Z</time>
      </trkpt>
      <trkpt lat="45.7425888889" lon="6.56398888889">
        <ele>1362.806152</ele>
        <time>2008-06-11T01:44:54Z</time>
      </trkpt>
      <trkpt lat="45.7430777778" lon="6.56183055556">
        <ele>1376.745361</ele>
        <time>2008-06-11T01:45:43Z</time>
      </trkpt>
      <trkpt lat="45.7416638889" lon="6.55693055556">
        <ele>1409.430176</ele>
        <time>2008-06-11T01:47:37Z</time>
      </trkpt>
      <trkpt lat="45.7439805556" lon="6.55913055556">
        <ele>1437.30835</ele>
        <time>2008-06-11T01:49:03Z</time>
      </trkpt>
      <trkpt lat="45.7430638889" lon="6.55513888889">
        <ele>1467.5896</ele>
        <time>2008-06-11T01:50:33Z</time>
      </trkpt>
      <trkpt lat="45.7436333333" lon="6.55019722222">
        <ele>1498.83252</ele>
        <time>2008-06-11T01:52:21Z</time>
      </trkpt>
      <trkpt lat="45.7553555556" lon="6.54465277778">
        <ele>1597.36792</ele>
        <time>2008-06-11T01:58:43Z</time>
      </trkpt>
      <trkpt lat="45.7601833333" lon="6.53365277778">
        <ele>1651.20166</ele>
        <time>2008-06-11T02:03:23Z</time>
      </trkpt>
      <trkpt lat="45.7638305556" lon="6.53388333333">
        <ele>1648.79834</ele>
        <time>2008-06-11T02:05:16Z</time>
      </trkpt>
      <trkpt lat="45.7674194444" lon="6.53211111111">
        <ele>1631.975342</ele>
        <time>2008-06-11T02:07:13Z</time>
      </trkpt>
      <trkpt lat="45.7692611111" lon="6.53213055556">
        <ele>1612.749023</ele>
        <time>2008-06-11T02:08:10Z</time>
      </trkpt>
      <trkpt lat="45.7718777778" lon="6.53581666667">
        <ele>1591.599854</ele>
        <time>2008-06-11T02:10:03Z</time>
      </trkpt>
      <trkpt lat="45.7753222222" lon="6.535675">
        <ele>1589.677246</ele>
        <time>2008-06-11T02:11:49Z</time>
      </trkpt>
      <trkpt lat="45.779" lon="6.53777222222">
        <ele>1560.837646</ele>
        <time>2008-06-11T02:13:52Z</time>
      </trkpt>
      <trkpt lat="45.7800472222" lon="6.53990277778">
        <ele>1542.092041</ele>
        <time>2008-06-11T02:14:48Z</time>
      </trkpt>
      <trkpt lat="45.7817944444" lon="6.54685">
        <ele>1502.197266</ele>
        <time>2008-06-11T02:17:27Z</time>
      </trkpt>
      <trkpt lat="45.7783444444" lon="6.55871388889">
        <ele>1436.827637</ele>
        <time>2008-06-11T02:22:04Z</time>
      </trkpt>
      <trkpt lat="45.7792527778" lon="6.55982777778">
        <ele>1430.579102</ele>
        <time>2008-06-11T02:22:41Z</time>
      </trkpt>
      <trkpt lat="45.7864638889" lon="6.54766388889">
        <ele>1469.031982</ele>
        <time>2008-06-11T02:28:25Z</time>
      </trkpt>
      <trkpt lat="45.796175" lon="6.540875">
        <ele>1398.855469</ele>
        <time>2008-06-11T02:33:58Z</time>
      </trkpt>
      <trkpt lat="45.804425" lon="6.54983888889">
        <ele>1308.491699</ele>
        <time>2008-06-11T02:39:18Z</time>
      </trkpt>
      <trkpt lat="45.8046472222" lon="6.532275">
        <ele>1256.580322</ele>
        <time>2008-06-11T02:45:36Z</time>
      </trkpt>
      <trkpt lat="45.8095388889" lon="6.52147222222">
        <ele>1175.82959</ele>
        <time>2008-06-11T02:50:14Z</time>
      </trkpt>
      <trkpt lat="45.8082194444" lon="6.51760277778">
        <ele>1130.166992</ele>
        <time>2008-06-11T02:51:46Z</time>
      </trkpt>
      <trkpt lat="45.8107305556" lon="6.51544722222">
        <ele>1108.056885</ele>
        <time>2008-06-11T02:53:17Z</time>
      </trkpt>
      <trkpt lat="45.8139333333" lon="6.51810555556">
        <ele>1087.388428</ele>
        <time>2008-06-11T02:55:11Z</time>
      </trkpt>
      <trkpt lat="45.8187333333" lon="6.52943888889">
        <ele>1014.808838</ele>
        <time>2008-06-11T02:59:56Z</time>
      </trkpt>
      <trkpt lat="45.8206416667" lon="6.52901388889">
        <ele>981.643311</ele>
        <time>2008-06-11T03:00:56Z</time>
      </trkpt>
      <trkpt lat="45.8238222222" lon="6.53511944444">
        <ele>987.411133</ele>
        <time>2008-06-11T03:03:40Z</time>
      </trkpt>
      <trkpt lat="45.8295805556" lon="6.55096388889">
        <ele>1010.002197</ele>
        <time>2008-06-11T03:10:05Z</time>
      </trkpt>
      <trkpt lat="45.8322" lon="6.55449444444">
        <ele>1008.560303</ele>
        <time>2008-06-11T03:11:56Z</time>
      </trkpt>
      <trkpt lat="45.8327805556" lon="6.55983888889">
        <ele>1011.444336</ele>
        <time>2008-06-11T03:13:52Z</time>
      </trkpt>
      <trkpt lat="45.8377833333" lon="6.57096944444">
        <ele>1030.189941</ele>
        <time>2008-06-11T03:18:37Z</time>
      </trkpt>
      <trkpt lat="45.8435333333" lon="6.59056944444">
        <ele>1050.377686</ele>
        <time>2008-06-11T03:26:15Z</time>
      </trkpt>
      <trkpt lat="45.8477638889" lon="6.59550833333">
        <ele>1060.952148</ele>
        <time>2008-06-11T03:29:03Z</time>
      </trkpt>
      <trkpt lat="45.8509333333" lon="6.60430277778">
        <ele>1072.96875</ele>
        <time>2008-06-11T03:32:36Z</time>
      </trkpt>
      <trkpt lat="45.8542333333" lon="6.60536388889">
        <ele>1073.449463</ele>
        <time>2008-06-11T03:34:21Z</time>
      </trkpt>
      <trkpt lat="45.8550861111" lon="6.60733611111">
        <ele>1078.255859</ele>
        <time>2008-06-11T03:35:11Z</time>
      </trkpt>
      <trkpt lat="45.856875" lon="6.60793055556">
        <ele>1084.504639</ele>
        <time>2008-06-11T03:36:07Z</time>
      </trkpt>
      <trkpt lat="45.8579194444" lon="6.61521944444">
        <ele>1096.040283</ele>
        <time>2008-06-11T03:38:48Z</time>
      </trkpt>
      <trkpt lat="45.8603583333" lon="6.62195555556">
        <ele>1100.366455</ele>
        <time>2008-06-11T03:41:31Z</time>
      </trkpt>
      <trkpt lat="45.8718694444" lon="6.63044444444">
        <ele>1098.924072</ele>
        <time>2008-06-11T03:48:11Z</time>
      </trkpt>
      <trkpt lat="45.882075" lon="6.64101111111">
        <ele>1049.896973</ele>
        <time>2008-06-11T03:54:39Z</time>
      </trkpt>
      <trkpt lat="45.885775" lon="6.64944444444">
        <ele>1030.189941</ele>
        <time>2008-06-11T03:58:13Z</time>
      </trkpt>
      <trkpt lat="45.8874027778" lon="6.65043055556">
        <ele>1023.460938</ele>
        <time>2008-06-11T03:59:08Z</time>
      </trkpt>
      <trkpt lat="45.8887111111" lon="6.64943333333">
        <ele>1020.576904</ele>
        <time>2008-06-11T03:59:54Z</time>
      </trkpt>
      <trkpt lat="45.8929305556" lon="6.65785555556">
        <ele>1003.272949</ele>
        <time>2008-06-11T04:03:37Z</time>
      </trkpt>
      <trkpt lat="45.8905111111" lon="6.67275277778">
        <ele>977.798096</ele>
        <time>2008-06-11T04:09:06Z</time>
      </trkpt>
      <trkpt lat="45.8903444444" lon="6.68314722222">
        <ele>938.864746</ele>
        <time>2008-06-11T04:12:49Z</time>
      </trkpt>
      <trkpt lat="45.8930777778" lon="6.68988333333">
        <ele>908.102783</ele>
        <time>2008-06-11T04:15:37Z</time>
      </trkpt>
      <trkpt lat="45.894475" lon="6.69929166667">
        <ele>865.804688</ele>
        <time>2008-06-11T04:19:04Z</time>
      </trkpt>
      <trkpt lat="45.8931083333" lon="6.70384722222">
        <ele>843.213379</ele>
        <time>2008-06-11T04:20:50Z</time>
      </trkpt>
      <trkpt lat="45.8890444444" lon="6.70802777778">
        <ele>823.506592</ele>
        <time>2008-06-11T04:23:25Z</time>
      </trkpt>
      <trkpt lat="45.8892" lon="6.71316111111">
        <ele>822.064453</ele>
        <time>2008-06-11T04:25:15Z</time>
      </trkpt>
      <trkpt lat="45.8910277778" lon="6.71326944444">
        <ele>828.313232</ele>
        <time>2008-06-11T04:26:12Z</time>
      </trkpt>
      <trkpt lat="45.8970222222" lon="6.70936666667">
        <ele>798.512207</ele>
        <time>2008-06-11T04:29:35Z</time>
      </trkpt>
      <trkpt lat="45.898725" lon="6.70967222222">
        <ele>784.573242</ele>
        <time>2008-06-11T04:30:28Z</time>
      </trkpt>
      <trkpt lat="45.9019555556" lon="6.71103888889">
        <ele>760.540039</ele>
        <time>2008-06-11T04:32:12Z</time>
      </trkpt>
      <trkpt lat="45.90225" lon="6.713075">
        <ele>746.120361</ele>
        <time>2008-06-11T04:32:57Z</time>
      </trkpt>
      <trkpt lat="45.9056444444" lon="6.71354444444">
        <ele>722.568115</ele>
        <time>2008-06-11T04:34:42Z</time>
      </trkpt>
      <trkpt lat="45.9101722222" lon="6.71811944444">
        <ele>685.076904</ele>
        <time>2008-06-11T04:37:33Z</time>
      </trkpt>
      <trkpt lat="45.9059833333" lon="6.70707777778">
        <ele>624.994385</ele>
        <time>2008-06-11T04:42:03Z</time>
      </trkpt>
      <trkpt lat="45.9060833333" lon="6.70369722222">
        <ele>604.806641</ele>
        <time>2008-06-11T04:43:16Z</time>
      </trkpt>
      <trkpt lat="45.9088361111" lon="6.70721388889">
        <ele>601.441895</ele>
        <time>2008-06-11T04:45:10Z</time>
      </trkpt>
      <trkpt lat="45.9100694444" lon="6.71220277778">
        <ele>603.845215</ele>
        <time>2008-06-11T04:47:03Z</time>
      </trkpt>
      <trkpt lat="45.9130666667" lon="6.71593611111">
        <ele>600.480713</ele>
        <time>2008-06-11T04:49:06Z</time>
      </trkpt>
      <trkpt lat="45.9162" lon="6.72277222222">
        <ele>604.806641</ele>
        <time>2008-06-11T04:52:02Z</time>
      </trkpt>
      <trkpt lat="45.9202916667" lon="6.72815">
        <ele>628.8396</ele>
        <time>2008-06-11T04:54:53Z</time>
      </trkpt>
      <trkpt lat="45.9269472222" lon="6.73338888889">
        <ele>682.67334</ele>
        <time>2008-06-11T04:58:47Z</time>
      </trkpt>
      <trkpt lat="45.9306388889" lon="6.73281388889">
        <ele>707.667725</ele>
        <time>2008-06-11T05:00:42Z</time>
      </trkpt>
      <trkpt lat="45.9322277778" lon="6.73441666667">
        <ele>721.126221</ele>
        <time>2008-06-11T05:01:42Z</time>
      </trkpt>
      <trkpt lat="45.932375" lon="6.73695555556">
        <ele>731.700439</ele>
        <time>2008-06-11T05:02:37Z</time>
      </trkpt>
      <trkpt lat="45.9266388889" lon="6.75105555556">
        <ele>807.164063</ele>
        <time>2008-06-11T05:08:28Z</time>
      </trkpt>
      <trkpt lat="45.9252888889" lon="6.76194444444">
        <ele>817.258057</ele>
        <time>2008-06-11T05:12:25Z</time>
      </trkpt>
      <trkpt lat="45.9158305556" lon="6.76458888889">
        <ele>851.384766</ele>
        <time>2008-06-11T05:17:23Z</time>
      </trkpt>
      <trkpt lat="45.9134194444" lon="6.772025">
        <ele>877.821045</ele>
        <time>2008-06-11T05:20:19Z</time>
      </trkpt>
      <trkpt lat="45.9101333333" lon="6.77412777778">
        <ele>898.008789</ele>
        <time>2008-06-11T05:22:10Z</time>
      </trkpt>
      <trkpt lat="45.9083083333" lon="6.77363611111">
        <ele>910.025146</ele>
        <time>2008-06-11T05:23:08Z</time>
      </trkpt>
      <trkpt lat="45.9034305556" lon="6.77765555556">
        <ele>937.422607</ele>
        <time>2008-06-11T05:26:01Z</time>
      </trkpt>
      <trkpt lat="45.8975277778" lon="6.78479166667">
        <ele>950.881104</ele>
        <time>2008-06-11T05:30:00Z</time>
      </trkpt>
      <trkpt lat="45.8939833333" lon="6.78707222222">
        <ele>953.765137</ele>
        <time>2008-06-11T05:32:00Z</time>
      </trkpt>
      <trkpt lat="45.8915888889" lon="6.79133333333">
        <ele>961.936523</ele>
        <time>2008-06-11T05:33:57Z</time>
      </trkpt>
      <trkpt lat="45.8918" lon="6.79658333333">
        <ele>975.875488</ele>
        <time>2008-06-11T05:35:50Z</time>
      </trkpt>
      <trkpt lat="45.8957305556" lon="6.8025">
        <ele>989.333984</ele>
        <time>2008-06-11T05:38:46Z</time>
      </trkpt>
      <trkpt lat="45.8976722222" lon="6.81014166667">
        <ele>989.333984</ele>
        <time>2008-06-11T05:41:41Z</time>
      </trkpt>
      <trkpt lat="45.8972222222" lon="6.82339166667">
        <ele>1008.560303</ele>
        <time>2008-06-11T05:46:26Z</time>
      </trkpt>
      <trkpt lat="45.9081611111" lon="6.84817777778">
        <ele>1053.742432</ele>
        <time>2008-06-11T05:56:57Z</time>
      </trkpt>
      <trkpt lat="45.9121444444" lon="6.86269444444">
        <ele>1056.626221</ele>
        <time>2008-06-11T06:02:32Z</time>
      </trkpt>
      <trkpt lat="45.9194694444" lon="6.87475833333">
        <ele>1048.935547</ele>
        <time>2008-06-11T06:08:17Z</time>
      </trkpt>
      <trkpt lat="45.9228694444" lon="6.876425">
        <ele>1043.167725</ele>
        <time>2008-06-11T06:10:07Z</time>
      </trkpt>
      <trkpt lat="45.9249027778" lon="6.87315555556">
        <ele>1036.438721</ele>
        <time>2008-06-11T06:11:42Z</time>
      </trkpt>
      <trkpt lat="45.927825" lon="6.87610277778">
        <ele>1043.167725</ele>
        <time>2008-06-11T06:13:32Z</time>
      </trkpt>
      <trkpt lat="45.9346111111" lon="6.88912222222">
        <ele>1066.239258</ele>
        <time>2008-06-11T06:19:22Z</time>
      </trkpt>
      <trkpt lat="45.9417638889" lon="6.88786111111">
        <ele>1064.31665</ele>
        <time>2008-06-11T06:23:04Z</time>
      </trkpt>
      <trkpt lat="45.9528166667" lon="6.90229722222">
        <ele>1097.482178</ele>
        <time>2008-06-11T06:30:45Z</time>
      </trkpt>
      <trkpt lat="45.9581972222" lon="6.90328333333">
        <ele>1135.935059</ele>
        <time>2008-06-11T06:33:33Z</time>
      </trkpt>
      <trkpt lat="45.9601527778" lon="6.90740555556">
        <ele>1156.603271</ele>
        <time>2008-06-11T06:35:20Z</time>
      </trkpt>
      <trkpt lat="45.9646055556" lon="6.91248611111">
        <ele>1177.752197</ele>
        <time>2008-06-11T06:38:16Z</time>
      </trkpt>
      <trkpt lat="45.9682138889" lon="6.91408055556">
        <ele>1188.326904</ele>
        <time>2008-06-11T06:40:12Z</time>
      </trkpt>
      <trkpt lat="45.976" lon="6.92096666667">
        <ele>1211.398438</ele>
        <time>2008-06-11T06:44:54Z</time>
      </trkpt>
      <trkpt lat="45.9763194444" lon="6.92053888889">
        <ele>1207.07251</ele>
        <time>2008-06-11T06:45:08Z</time>
      </trkpt>
      <trkpt lat="45.9825944444" lon="6.92621666667">
        <ele>1249.370605</ele>
        <time>2008-06-11T06:48:57Z</time>
      </trkpt>
      <trkpt lat="45.9899361111" lon="6.92878888889">
        <ele>1304.165771</ele>
        <time>2008-06-11T06:52:50Z</time>
      </trkpt>
      <trkpt lat="45.9908611111" lon="6.92761388889">
        <ele>1337.331055</ele>
        <time>2008-06-11T06:53:28Z</time>
      </trkpt>
      <trkpt lat="45.9891444444" lon="6.92739722222">
        <ele>1349.828369</ele>
        <time>2008-06-11T06:54:22Z</time>
      </trkpt>
      <trkpt lat="45.9898555556" lon="6.92628055556">
        <ele>1369.054688</ele>
        <time>2008-06-11T06:54:54Z</time>
      </trkpt>
      <trkpt lat="45.9954555556" lon="6.92653888889">
        <ele>1408.949463</ele>
        <time>2008-06-11T06:57:47Z</time>
      </trkpt>
      <trkpt lat="46.0015277778" lon="6.92300277778">
        <ele>1448.843994</ele>
        <time>2008-06-11T07:01:10Z</time>
      </trkpt>
      <trkpt lat="46.0107" lon="6.92339722222">
        <ele>1405.104248</ele>
        <time>2008-06-11T07:05:53Z</time>
      </trkpt>
      <trkpt lat="46.0153333333" lon="6.91911388889">
        <ele>1364.72876</ele>
        <time>2008-06-11T07:08:43Z</time>
      </trkpt>
      <trkpt lat="46.0221444444" lon="6.91898333333">
        <ele>1319.066162</ele>
        <time>2008-06-11T07:12:14Z</time>
      </trkpt>
      <trkpt lat="46.0252527778" lon="6.92176944444">
        <ele>1304.64624</ele>
        <time>2008-06-11T07:14:07Z</time>
      </trkpt>
      <trkpt lat="46.0273305556" lon="6.92615277778">
        <ele>1295.033203</ele>
        <time>2008-06-11T07:16:00Z</time>
      </trkpt>
      <trkpt lat="46.0320888889" lon="6.92987777778">
        <ele>1270.519531</ele>
        <time>2008-06-11T07:18:48Z</time>
      </trkpt>
      <trkpt lat="46.0356611111" lon="6.93560555556">
        <ele>1245.525391</ele>
        <time>2008-06-11T07:21:33Z</time>
      </trkpt>
      <trkpt lat="46.0492777778" lon="6.94408888889">
        <ele>1153.23877</ele>
        <time>2008-06-11T07:29:11Z</time>
      </trkpt>
      <trkpt lat="46.0612555556" lon="6.96461944444">
        <ele>1102.288818</ele>
        <time>2008-06-11T07:38:46Z</time>
      </trkpt>
      <trkpt lat="46.0714055556" lon="6.97508888889">
        <ele>1197.940186</ele>
        <time>2008-06-11T07:45:11Z</time>
      </trkpt>
      <trkpt lat="46.0651055556" lon="6.9883">
        <ele>1240.718506</ele>
        <time>2008-06-11T07:50:55Z</time>
      </trkpt>
      <trkpt lat="46.0568055556" lon="6.99593611111">
        <ele>1289.74585</ele>
        <time>2008-06-11T07:55:59Z</time>
      </trkpt>
      <trkpt lat="46.0448083333" lon="6.99778888889">
        <ele>1394.049072</ele>
        <time>2008-06-11T08:02:12Z</time>
      </trkpt>
      <trkpt lat="46.0582833333" lon="6.99985555556">
        <ele>1513.73291</ele>
        <time>2008-06-11T08:09:10Z</time>
      </trkpt>
      <trkpt lat="46.0613416667" lon="7.00884166667">
        <ele>1473.838379</ele>
        <time>2008-06-11T08:12:45Z</time>
      </trkpt>
      <trkpt lat="46.0652666667" lon="7.0148">
        <ele>1423.369385</ele>
        <time>2008-06-11T08:15:41Z</time>
      </trkpt>
      <trkpt lat="46.0717583333" lon="7.020875">
        <ele>1354.634766</ele>
        <time>2008-06-11T08:19:40Z</time>
      </trkpt>
      <trkpt lat="46.0735361111" lon="7.02182222222">
        <ele>1338.773193</ele>
        <time>2008-06-11T08:20:39Z</time>
      </trkpt>
      <trkpt lat="46.0753111111" lon="7.02069166667">
        <ele>1321.949951</ele>
        <time>2008-06-11T08:21:38Z</time>
      </trkpt>
      <trkpt lat="46.0721944444" lon="7.02198611111">
        <ele>1292.149414</ele>
        <time>2008-06-11T08:23:19Z</time>
      </trkpt>
      <trkpt lat="46.0656083333" lon="7.02010555556">
        <ele>1230.625</ele>
        <time>2008-06-11T08:26:46Z</time>
      </trkpt>
      <trkpt lat="46.0742527778" lon="7.02535555556">
        <ele>1149.874268</ele>
        <time>2008-06-11T08:31:36Z</time>
      </trkpt>
      <trkpt lat="46.0688305556" lon="7.02509444444">
        <ele>1094.598145</ele>
        <time>2008-06-11T08:34:23Z</time>
      </trkpt>
      <trkpt lat="46.0721944444" lon="7.02613611111">
        <ele>1063.355469</ele>
        <time>2008-06-11T08:36:10Z</time>
      </trkpt>
      <trkpt lat="46.0807083333" lon="7.03324722222">
        <ele>957.129883</ele>
        <time>2008-06-11T08:41:13Z</time>
      </trkpt>
      <trkpt lat="46.0820083333" lon="7.03768888889">
        <ele>923.00293</ele>
        <time>2008-06-11T08:42:57Z</time>
      </trkpt>
      <trkpt lat="46.0979833333" lon="7.05552222222">
        <ele>736.507324</ele>
        <time>2008-06-11T08:53:21Z</time>
      </trkpt>
      <trkpt lat="46.1029666667" lon="7.06361944444">
        <ele>665.850342</ele>
        <time>2008-06-11T08:57:13Z</time>
      </trkpt>
      <trkpt lat="46.0895833333" lon="7.05444722222">
        <ele>516.365234</ele>
        <time>2008-06-11T09:04:50Z</time>
      </trkpt>
      <trkpt lat="46.088025" lon="7.05521388889">
        <ele>506.752075</ele>
        <time>2008-06-11T09:05:41Z</time>
      </trkpt>
      <trkpt lat="46.0887861111" lon="7.05998888889">
        <ele>497.619629</ele>
        <time>2008-06-11T09:07:26Z</time>
      </trkpt>
      <trkpt lat="46.0870694444" lon="7.06740277778">
        <ele>488.967773</ele>
        <time>2008-06-11T09:10:14Z</time>
      </trkpt>
      <trkpt lat="46.0978138889" lon="7.08279166667">
        <ele>478.873901</ele>
        <time>2008-06-11T09:18:01Z</time>
      </trkpt>
      <trkpt lat="46.1032861111" lon="7.09420833333">
        <ele>475.028687</ele>
        <time>2008-06-11T09:22:59Z</time>
      </trkpt>
      <trkpt lat="46.1084666667" lon="7.09738888889">
        <ele>475.028687</ele>
        <time>2008-06-11T09:25:53Z</time>
      </trkpt>
      <trkpt lat="46.1140916667" lon="7.09706944444">
        <ele>471.66394</ele>
        <time>2008-06-11T09:28:47Z</time>
      </trkpt>
      <trkpt lat="46.1207777778" lon="7.11059444444">
        <ele>469.260742</ele>
        <time>2008-06-11T09:34:42Z</time>
      </trkpt>
      <trkpt lat="46.1502638889" lon="7.15673055556">
        <ele>476.470581</ele>
        <time>2008-06-11T09:57:06Z</time>
      </trkpt>
      <trkpt lat="46.1556944444" lon="7.16879166667">
        <ele>478.393188</ele>
        <time>2008-06-11T10:02:13Z</time>
      </trkpt>
      <trkpt lat="46.1599305556" lon="7.19093888889">
        <ele>480.315918</ele>
        <time>2008-06-11T10:10:25Z</time>
      </trkpt>
      <trkpt lat="46.1626722222" lon="7.19883888889">
        <ele>479.835083</ele>
        <time>2008-06-11T10:13:34Z</time>
      </trkpt>
      <trkpt lat="46.1788333333" lon="7.22410555556">
        <ele>487.525635</ele>
        <time>2008-06-11T10:25:50Z</time>
      </trkpt>
      <trkpt lat="46.1896027778" lon="7.24486111111">
        <ele>491.370972</ele>
        <time>2008-06-11T10:35:04Z</time>
      </trkpt>
      <trkpt lat="46.2029111111" lon="7.26255833333">
        <ele>488.487183</ele>
        <time>2008-06-11T10:44:23Z</time>
      </trkpt>
      <trkpt lat="46.208575" lon="7.27437777778">
        <ele>499.061523</ele>
        <time>2008-06-11T10:49:30Z</time>
      </trkpt>
      <trkpt lat="46.2122861111" lon="7.29018055556">
        <ele>487.525635</ele>
        <time>2008-06-11T10:55:27Z</time>
      </trkpt>
      <trkpt lat="46.2142277778" lon="7.32103888889">
        <ele>490.40979</ele>
        <time>2008-06-11T11:06:29Z</time>
      </trkpt>
      <trkpt lat="46.2240583333" lon="7.36422222222">
        <ele>504.829468</ele>
        <time>2008-06-11T11:22:41Z</time>
      </trkpt>
      <trkpt lat="46.2272416667" lon="7.37134166667">
        <ele>493.774292</ele>
        <time>2008-06-11T11:25:42Z</time>
      </trkpt>
      <trkpt lat="46.23815" lon="7.38777777778">
        <ele>508.674683</ele>
        <time>2008-06-11T11:33:49Z</time>
      </trkpt>
      <trkpt lat="46.2414527778" lon="7.39752777778">
        <ele>507.232788</ele>
        <time>2008-06-11T11:37:41Z</time>
      </trkpt>
      <trkpt lat="46.2481222222" lon="7.42779722222">
        <ele>507.713501</ele>
        <time>2008-06-11T11:48:59Z</time>
      </trkpt>
      <trkpt lat="46.2657972222" lon="7.46072777778">
        <ele>517.807251</ele>
        <time>2008-06-11T12:03:49Z</time>
      </trkpt>
      <trkpt lat="46.2745611111" lon="7.49315833333">
        <ele>525.978394</ele>
        <time>2008-06-11T12:16:13Z</time>
      </trkpt>
      <trkpt lat="46.2784027778" lon="7.51210555556">
        <ele>523.575195</ele>
        <time>2008-06-11T12:23:14Z</time>
      </trkpt>
      <trkpt lat="46.2837333333" lon="7.5243">
        <ele>528.862549</ele>
        <time>2008-06-11T12:28:22Z</time>
      </trkpt>
      <trkpt lat="46.2852777778" lon="7.55174444444">
        <ele>550.492188</ele>
        <time>2008-06-11T12:38:10Z</time>
      </trkpt>
      <trkpt lat="46.2899666667" lon="7.56295277778">
        <ele>563.950439</ele>
        <time>2008-06-11T12:42:50Z</time>
      </trkpt>
      <trkpt lat="46.2941416667" lon="7.58358888889">
        <ele>581.734863</ele>
        <time>2008-06-11T12:50:29Z</time>
      </trkpt>
      <trkpt lat="46.2965638889" lon="7.58789444444">
        <ele>573.563965</ele>
        <time>2008-06-11T12:52:27Z</time>
      </trkpt>
      <trkpt lat="46.2981055556" lon="7.59878333333">
        <ele>567.795654</ele>
        <time>2008-06-11T12:56:25Z</time>
      </trkpt>
      <trkpt lat="46.3061361111" lon="7.61025555556">
        <ele>599.038574</ele>
        <time>2008-06-11T13:02:13Z</time>
      </trkpt>
      <trkpt lat="46.3098472222" lon="7.62011666667">
        <ele>617.78418</ele>
        <time>2008-06-11T13:06:13Z</time>
      </trkpt>
      <trkpt lat="46.3097555556" lon="7.62825">
        <ele>634.126709</ele>
        <time>2008-06-11T13:09:06Z</time>
      </trkpt>
      <trkpt lat="46.3117194444" lon="7.63876388889">
        <ele>625.474854</ele>
        <time>2008-06-11T13:12:59Z</time>
      </trkpt>
      <trkpt lat="46.3106555556" lon="7.64633055556">
        <ele>634.126709</ele>
        <time>2008-06-11T13:15:43Z</time>
      </trkpt>
      <trkpt lat="46.3074527778" lon="7.65288055556">
        <ele>632.684814</ele>
        <time>2008-06-11T13:18:35Z</time>
      </trkpt>
      <trkpt lat="46.2997277778" lon="7.66052222222">
        <ele>632.204102</ele>
        <time>2008-06-11T13:23:23Z</time>
      </trkpt>
      <trkpt lat="46.2980194444" lon="7.66810277778">
        <ele>629.320068</ele>
        <time>2008-06-11T13:26:14Z</time>
      </trkpt>
      <trkpt lat="46.3076527778" lon="7.76219166667">
        <ele>641.33667</ele>
        <time>2008-06-11T14:00:03Z</time>
      </trkpt>
      <trkpt lat="46.3051277778" lon="7.77812777778">
        <ele>641.33667</ele>
        <time>2008-06-11T14:05:52Z</time>
      </trkpt>
      <trkpt lat="46.3039972222" lon="7.79680555556">
        <ele>641.817383</ele>
        <time>2008-06-11T14:12:32Z</time>
      </trkpt>
      <trkpt lat="46.3000527778" lon="7.82336388889">
        <ele>645.181885</ele>
        <time>2008-06-11T14:22:12Z</time>
      </trkpt>
      <trkpt lat="46.2973638889" lon="7.85886666667">
        <ele>654.795166</ele>
        <time>2008-06-11T14:34:54Z</time>
      </trkpt>
      <trkpt lat="46.2922888889" lon="7.87861944444">
        <ele>659.121094</ele>
        <time>2008-06-11T14:42:24Z</time>
      </trkpt>
      <trkpt lat="46.2919888889" lon="7.88652777778">
        <ele>653.353271</ele>
        <time>2008-06-11T14:45:13Z</time>
      </trkpt>
      <trkpt lat="46.2975444444" lon="7.92585555556">
        <ele>662.005127</ele>
        <time>2008-06-11T14:59:30Z</time>
      </trkpt>
      <trkpt lat="46.2969638889" lon="7.92843888889">
        <ele>665.850342</ele>
        <time>2008-06-11T15:00:28Z</time>
      </trkpt>
      <trkpt lat="46.3027861111" lon="7.94156944444">
        <ele>677.38623</ele>
        <time>2008-06-11T15:06:00Z</time>
      </trkpt>
      <trkpt lat="46.3031138889" lon="7.95873055556">
        <ele>677.866699</ele>
        <time>2008-06-11T15:12:07Z</time>
      </trkpt>
      <trkpt lat="46.3048055556" lon="7.96375277778">
        <ele>673.060303</ele>
        <time>2008-06-11T15:14:06Z</time>
      </trkpt>
      <trkpt lat="46.3114388889" lon="7.96726111111">
        <ele>672.57959</ele>
        <time>2008-06-11T15:17:44Z</time>
      </trkpt>
      <trkpt lat="46.3129111111" lon="7.96918055556">
        <ele>674.502197</ele>
        <time>2008-06-11T15:18:45Z</time>
      </trkpt>
      <trkpt lat="46.3151722222" lon="7.97736388889">
        <ele>674.98291</ele>
        <time>2008-06-11T15:21:53Z</time>
      </trkpt>
      <trkpt lat="46.3200333333" lon="7.98496944444">
        <ele>675.463379</ele>
        <time>2008-06-11T15:25:34Z</time>
      </trkpt>
      <trkpt lat="46.3205111111" lon="7.99048333333">
        <ele>684.596191</ele>
        <time>2008-06-11T15:27:33Z</time>
      </trkpt>
      <trkpt lat="46.3260416667" lon="8.01066944444">
        <ele>698.054443</ele>
        <time>2008-06-11T15:35:16Z</time>
      </trkpt>
      <trkpt lat="46.3276277778" lon="8.01220555556">
        <ele>700.458008</ele>
        <time>2008-06-11T15:36:15Z</time>
      </trkpt>
      <trkpt lat="46.333075" lon="8.01291111111">
        <ele>699.015625</ele>
        <time>2008-06-11T15:39:04Z</time>
      </trkpt>
      <trkpt lat="46.337475" lon="8.01748333333">
        <ele>707.187012</ele>
        <time>2008-06-11T15:41:51Z</time>
      </trkpt>
      <trkpt lat="46.3394166667" lon="8.02191388889">
        <ele>713.435547</ele>
        <time>2008-06-11T15:43:43Z</time>
      </trkpt>
      <trkpt lat="46.3456694444" lon="8.02813055556">
        <ele>728.81665</ele>
        <time>2008-06-11T15:47:37Z</time>
      </trkpt>
      <trkpt lat="46.3473888889" lon="8.032675">
        <ele>737.468506</ele>
        <time>2008-06-11T15:49:28Z</time>
      </trkpt>
      <trkpt lat="46.3616555556" lon="8.05351388889">
        <ele>783.131104</ele>
        <time>2008-06-11T15:59:54Z</time>
      </trkpt>
      <trkpt lat="46.3689861111" lon="8.06866388889">
        <ele>815.335449</ele>
        <time>2008-06-11T16:06:28Z</time>
      </trkpt>
      <trkpt lat="46.3712361111" lon="8.07538888889">
        <ele>828.793945</ele>
        <time>2008-06-11T16:09:07Z</time>
      </trkpt>
      <trkpt lat="46.3716888889" lon="8.08273888889">
        <ele>846.097656</ele>
        <time>2008-06-11T16:11:45Z</time>
      </trkpt>
      <trkpt lat="46.3752111111" lon="8.08927222222">
        <ele>860.517334</ele>
        <time>2008-06-11T16:14:41Z</time>
      </trkpt>
      <trkpt lat="46.3784444444" lon="8.09078055556">
        <ele>887.914795</ele>
        <time>2008-06-11T16:16:26Z</time>
      </trkpt>
      <trkpt lat="46.3784777778" lon="8.09494166667">
        <ele>920.599609</ele>
        <time>2008-06-11T16:17:55Z</time>
      </trkpt>
      <trkpt lat="46.3764305556" lon="8.09847222222">
        <ele>954.726318</ele>
        <time>2008-06-11T16:19:33Z</time>
      </trkpt>
      <trkpt lat="46.3772333333" lon="8.09751388889">
        <ele>982.604736</ele>
        <time>2008-06-11T16:20:05Z</time>
      </trkpt>
      <trkpt lat="46.3822972222" lon="8.10853888889">
        <ele>1065.278076</ele>
        <time>2008-06-11T16:24:48Z</time>
      </trkpt>
      <trkpt lat="46.3867194444" lon="8.11352222222">
        <ele>1065.758789</ele>
        <time>2008-06-11T16:27:41Z</time>
      </trkpt>
      <trkpt lat="46.3891138889" lon="8.12050277778">
        <ele>1047.493652</ele>
        <time>2008-06-11T16:30:27Z</time>
      </trkpt>
      <trkpt lat="46.3920055556" lon="8.12218055556">
        <ele>1034.515869</ele>
        <time>2008-06-11T16:32:03Z</time>
      </trkpt>
      <trkpt lat="46.3999527778" lon="8.13702777778">
        <ele>1074.410645</ele>
        <time>2008-06-11T16:38:43Z</time>
      </trkpt>
      <trkpt lat="46.4036083333" lon="8.13805">
        <ele>1119.112061</ele>
        <time>2008-06-11T16:40:38Z</time>
      </trkpt>
      <trkpt lat="46.403" lon="8.14045277778">
        <ele>1136.89624</ele>
        <time>2008-06-11T16:41:33Z</time>
      </trkpt>
      <trkpt lat="46.4040416667" lon="8.14256111111">
        <ele>1150.35498</ele>
        <time>2008-06-11T16:42:28Z</time>
      </trkpt>
      <trkpt lat="46.4109361111" lon="8.15152222222">
        <ele>1195.055908</ele>
        <time>2008-06-11T16:47:14Z</time>
      </trkpt>
      <trkpt lat="46.4202111111" lon="8.16846111111">
        <ele>1235.912109</ele>
        <time>2008-06-11T16:54:55Z</time>
      </trkpt>
      <trkpt lat="46.4300805556" lon="8.18044722222">
        <ele>1258.50293</ele>
        <time>2008-06-11T17:01:32Z</time>
      </trkpt>
      <trkpt lat="46.4397555556" lon="8.20028333333">
        <ele>1286.861816</ele>
        <time>2008-06-11T17:10:10Z</time>
      </trkpt>
      <trkpt lat="46.4446277778" lon="8.20375277778">
        <ele>1293.591309</ele>
        <time>2008-06-11T17:12:57Z</time>
      </trkpt>
      <trkpt lat="46.4536777778" lon="8.21346111111">
        <ele>1320.027344</ele>
        <time>2008-06-11T17:18:45Z</time>
      </trkpt>
      <trkpt lat="46.4542416667" lon="8.21591666667">
        <ele>1323.872559</ele>
        <time>2008-06-11T17:19:40Z</time>
      </trkpt>
      <trkpt lat="46.4568472222" lon="8.21855277778">
        <ele>1316.182129</ele>
        <time>2008-06-11T17:21:18Z</time>
      </trkpt>
      <trkpt lat="46.4571222222" lon="8.22392777778">
        <ele>1323.872559</ele>
        <time>2008-06-11T17:23:13Z</time>
      </trkpt>
      <trkpt lat="46.4590111111" lon="8.22875555556">
        <ele>1333.005127</ele>
        <time>2008-06-11T17:25:11Z</time>
      </trkpt>
      <trkpt lat="46.4619583333" lon="8.23215555556">
        <ele>1333.48584</ele>
        <time>2008-06-11T17:27:07Z</time>
      </trkpt>
      <trkpt lat="46.4654888889" lon="8.23355833333">
        <ele>1328.679443</ele>
        <time>2008-06-11T17:29:00Z</time>
      </trkpt>
      <trkpt lat="46.4733583333" lon="8.24835555556">
        <ele>1352.712158</ele>
        <time>2008-06-11T17:35:38Z</time>
      </trkpt>
      <trkpt lat="46.4803972222" lon="8.25710555556">
        <ele>1333.005127</ele>
        <time>2008-06-11T17:40:24Z</time>
      </trkpt>
      <trkpt lat="46.4867305556" lon="8.26206111111">
        <ele>1376.745361</ele>
        <time>2008-06-11T17:44:06Z</time>
      </trkpt>
      <trkpt lat="46.4895583333" lon="8.27421388889">
        <ele>1395.010254</ele>
        <time>2008-06-11T17:48:39Z</time>
      </trkpt>
      <trkpt lat="46.4921527778" lon="8.27824444444">
        <ele>1374.822754</ele>
        <time>2008-06-11T17:50:36Z</time>
      </trkpt>
      <trkpt lat="46.4955555556" lon="8.28033888889">
        <ele>1357.03833</ele>
        <time>2008-06-11T17:52:30Z</time>
      </trkpt>
      <trkpt lat="46.4969527778" lon="8.28511388889">
        <ele>1360.402832</ele>
        <time>2008-06-11T17:54:21Z</time>
      </trkpt>
      <trkpt lat="46.5001916667" lon="8.28767222222">
        <ele>1355.596191</ele>
        <time>2008-06-11T17:56:15Z</time>
      </trkpt>
      <trkpt lat="46.5019888889" lon="8.29500555556">
        <ele>1357.519043</ele>
        <time>2008-06-11T17:59:00Z</time>
      </trkpt>
      <trkpt lat="46.5050805556" lon="8.29816666667">
        <ele>1357.03833</ele>
        <time>2008-06-11T18:00:57Z</time>
      </trkpt>
      <trkpt lat="46.5068277778" lon="8.30566944444">
        <ele>1354.634766</ele>
        <time>2008-06-11T18:03:45Z</time>
      </trkpt>
      <trkpt lat="46.5136305556" lon="8.31845277778">
        <ele>1362.806152</ele>
        <time>2008-06-11T18:09:29Z</time>
      </trkpt>
      <trkpt lat="46.5136722222" lon="8.323575">
        <ele>1361.844971</ele>
        <time>2008-06-11T18:11:18Z</time>
      </trkpt>
      <trkpt lat="46.5235583333" lon="8.33054444444">
        <ele>1367.612549</ele>
        <time>2008-06-11T18:16:57Z</time>
      </trkpt>
      <trkpt lat="46.5285083333" lon="8.34029444444">
        <ele>1371.457764</ele>
        <time>2008-06-11T18:21:15Z</time>
      </trkpt>
      <trkpt lat="46.5321" lon="8.34336666667">
        <ele>1380.109863</ele>
        <time>2008-06-11T18:23:23Z</time>
      </trkpt>
      <trkpt lat="46.5410888889" lon="8.35893611111">
        <ele>1443.076172</ele>
        <time>2008-06-11T18:30:35Z</time>
      </trkpt>
      <trkpt lat="46.5385777778" lon="8.350925">
        <ele>1486.335693</ele>
        <time>2008-06-11T18:33:42Z</time>
      </trkpt>
      <trkpt lat="46.5428861111" lon="8.35726666667">
        <ele>1540.649902</ele>
        <time>2008-06-11T18:36:52Z</time>
      </trkpt>
      <trkpt lat="46.5444861111" lon="8.35494166667">
        <ele>1569.009033</ele>
        <time>2008-06-11T18:38:01Z</time>
      </trkpt>
      <trkpt lat="46.5484555556" lon="8.36043888889">
        <ele>1598.329102</ele>
        <time>2008-06-11T18:40:51Z</time>
      </trkpt>
      <trkpt lat="46.5560333333" lon="8.35531666667">
        <ele>1677.637939</ele>
        <time>2008-06-11T18:45:09Z</time>
      </trkpt>
      <trkpt lat="46.5592722222" lon="8.35654444444">
        <ele>1734.836426</ele>
        <time>2008-06-11T18:46:52Z</time>
      </trkpt>
      <trkpt lat="46.5623916667" lon="8.36268333333">
        <ele>1752.620605</ele>
        <time>2008-06-11T18:49:34Z</time>
      </trkpt>
      <trkpt lat="46.560025" lon="8.35828611111">
        <ele>1781.460205</ele>
        <time>2008-06-11T18:51:33Z</time>
      </trkpt>
      <trkpt lat="46.5626361111" lon="8.36801111111">
        <ele>1843.946045</ele>
        <time>2008-06-11T18:55:15Z</time>
      </trkpt>
      <trkpt lat="46.5611027778" lon="8.364725">
        <ele>1867.498047</ele>
        <time>2008-06-11T18:56:39Z</time>
      </trkpt>
      <trkpt lat="46.5610805556" lon="8.36626944444">
        <ele>1881.437256</ele>
        <time>2008-06-11T18:57:12Z</time>
      </trkpt>
      <trkpt lat="46.5647194444" lon="8.3789">
        <ele>1954.01709</ele>
        <time>2008-06-11T19:02:03Z</time>
      </trkpt>
      <trkpt lat="46.5703138889" lon="8.39022777778">
        <ele>2021.309082</ele>
        <time>2008-06-11T19:06:59Z</time>
      </trkpt>
      <trkpt lat="46.5704861111" lon="8.396025">
        <ele>2035.729004</ele>
        <time>2008-06-11T19:09:02Z</time>
      </trkpt>
      <trkpt lat="46.5715722222" lon="8.39593333333">
        <ele>2043.900146</ele>
        <time>2008-06-11T19:09:36Z</time>
      </trkpt>
      <trkpt lat="46.5728083333" lon="8.39041111111">
        <ele>2087.159424</ele>
        <time>2008-06-11T19:11:39Z</time>
      </trkpt>
      <trkpt lat="46.5725611111" lon="8.39577222222">
        <ele>2108.789307</ele>
        <time>2008-06-11T19:13:33Z</time>
      </trkpt>
      <trkpt lat="46.5734361111" lon="8.39031111111">
        <ele>2140.032227</ele>
        <time>2008-06-11T19:15:32Z</time>
      </trkpt>
      <trkpt lat="46.5761694444" lon="8.38688055556">
        <ele>2186.175293</ele>
        <time>2008-06-11T19:17:24Z</time>
      </trkpt>
      <trkpt lat="46.5743305556" lon="8.39048888889">
        <ele>2225.589355</ele>
        <time>2008-06-11T19:18:59Z</time>
      </trkpt>
      <trkpt lat="46.5766833333" lon="8.38843611111">
        <ele>2256.832275</ele>
        <time>2008-06-11T19:20:24Z</time>
      </trkpt>
      <trkpt lat="46.5748444444" lon="8.39281666667">
        <ele>2289.997803</ele>
        <time>2008-06-11T19:22:13Z</time>
      </trkpt>
      <trkpt lat="46.5759055556" lon="8.39093611111">
        <ele>2305.378906</ele>
        <time>2008-06-11T19:23:04Z</time>
      </trkpt>
      <trkpt lat="46.5745444444" lon="8.40380833333">
        <ele>2389.013428</ele>
        <time>2008-06-11T19:27:41Z</time>
      </trkpt>
      <trkpt lat="46.5716694444" lon="8.41040833333">
        <ele>2411.123779</ele>
        <time>2008-06-11T19:30:27Z</time>
      </trkpt>
      <trkpt lat="46.5719861111" lon="8.41311111111">
        <ele>2413.5271</ele>
        <time>2008-06-11T19:31:25Z</time>
      </trkpt>
      <trkpt lat="46.5775555556" lon="8.42368888889">
        <ele>2403.914063</ele>
        <time>2008-06-11T19:36:08Z</time>
      </trkpt>
      <trkpt lat="46.5879027778" lon="8.43251666667">
        <ele>2268.848877</ele>
        <time>2008-06-11T19:42:18Z</time>
      </trkpt>
      <trkpt lat="46.5881472222" lon="8.44273888889">
        <ele>2203.479004</ele>
        <time>2008-06-11T19:45:55Z</time>
      </trkpt>
      <trkpt lat="46.5913083333" lon="8.45281944444">
        <ele>2147.241943</ele>
        <time>2008-06-11T19:49:51Z</time>
      </trkpt>
      <trkpt lat="46.5943083333" lon="8.4556">
        <ele>2126.57373</ele>
        <time>2008-06-11T19:51:40Z</time>
      </trkpt>
      <trkpt lat="46.5945694444" lon="8.458075">
        <ele>2118.883057</ele>
        <time>2008-06-11T19:52:34Z</time>
      </trkpt>
      <trkpt lat="46.5924416667" lon="8.46229444444">
        <ele>2094.850098</ele>
        <time>2008-06-11T19:54:25Z</time>
      </trkpt>
      <trkpt lat="46.5913944444" lon="8.47041388889">
        <ele>2063.607178</ele>
        <time>2008-06-11T19:57:20Z</time>
      </trkpt>
      <trkpt lat="46.589025" lon="8.47716944444">
        <ele>2017.94458</ele>
        <time>2008-06-11T20:00:01Z</time>
      </trkpt>
      <trkpt lat="46.5896111111" lon="8.47963611111">
        <ele>2002.563477</ele>
        <time>2008-06-11T20:00:56Z</time>
      </trkpt>
      <trkpt lat="46.5875916667" lon="8.47773333333">
        <ele>1968.436768</ele>
        <time>2008-06-11T20:02:11Z</time>
      </trkpt>
      <trkpt lat="46.5871194444" lon="8.48031666667">
        <ele>1953.536377</ele>
        <time>2008-06-11T20:03:07Z</time>
      </trkpt>
      <trkpt lat="46.5875194444" lon="8.48297222222">
        <ele>1936.713135</ele>
        <time>2008-06-11T20:04:05Z</time>
      </trkpt>
      <trkpt lat="46.5900722222" lon="8.48606666667">
        <ele>1903.547852</ele>
        <time>2008-06-11T20:05:48Z</time>
      </trkpt>
      <trkpt lat="46.5887222222" lon="8.48666388889">
        <ele>1885.282715</ele>
        <time>2008-06-11T20:06:31Z</time>
      </trkpt>
      <trkpt lat="46.5871666667" lon="8.48518333333">
        <ele>1867.97876</ele>
        <time>2008-06-11T20:07:29Z</time>
      </trkpt>
      <trkpt lat="46.5873027778" lon="8.48608333333">
        <ele>1855.962402</ele>
        <time>2008-06-11T20:07:48Z</time>
      </trkpt>
      <trkpt lat="46.5885444444" lon="8.48801388889">
        <ele>1836.736084</ele>
        <time>2008-06-11T20:08:45Z</time>
      </trkpt>
      <trkpt lat="46.5920083333" lon="8.48805833333">
        <ele>1797.802734</ele>
        <time>2008-06-11T20:10:32Z</time>
      </trkpt>
      <trkpt lat="46.589725" lon="8.49010833333">
        <ele>1765.11792</ele>
        <time>2008-06-11T20:11:54Z</time>
      </trkpt>
      <trkpt lat="46.587925" lon="8.48964722222">
        <ele>1749.256104</ele>
        <time>2008-06-11T20:12:51Z</time>
      </trkpt>
      <trkpt lat="46.5886611111" lon="8.49093055556">
        <ele>1734.355713</ele>
        <time>2008-06-11T20:13:26Z</time>
      </trkpt>
      <trkpt lat="46.5911861111" lon="8.49138333333">
        <ele>1695.903076</ele>
        <time>2008-06-11T20:14:45Z</time>
      </trkpt>
      <trkpt lat="46.5895333333" lon="8.49234722222">
        <ele>1677.157471</ele>
        <time>2008-06-11T20:15:40Z</time>
      </trkpt>
      <trkpt lat="46.5930555556" lon="8.49488888889">
        <ele>1625.24585</ele>
        <time>2008-06-11T20:17:41Z</time>
      </trkpt>
      <trkpt lat="46.6008" lon="8.50541944444">
        <ele>1551.224609</ele>
        <time>2008-06-11T20:23:09Z</time>
      </trkpt>
      <trkpt lat="46.6029166667" lon="8.51585555556">
        <ele>1527.19165</ele>
        <time>2008-06-11T20:27:00Z</time>
      </trkpt>
      <trkpt lat="46.6109111111" lon="8.53714722222">
        <ele>1510.368408</ele>
        <time>2008-06-11T20:35:35Z</time>
      </trkpt>
      <trkpt lat="46.6106722222" lon="8.53993611111">
        <ele>1512.291016</ele>
        <time>2008-06-11T20:36:34Z</time>
      </trkpt>
      <trkpt lat="46.6187666667" lon="8.56934444444">
        <ele>1487.296875</ele>
        <time>2008-06-11T20:47:46Z</time>
      </trkpt>
      <trkpt lat="46.6230833333" lon="8.57473333333">
        <ele>1459.89917</ele>
        <time>2008-06-11T20:50:42Z</time>
      </trkpt>
      <trkpt lat="46.624575" lon="8.57960833333">
        <ele>1453.650879</ele>
        <time>2008-06-11T20:52:35Z</time>
      </trkpt>
      <trkpt lat="46.6302361111" lon="8.58653888889">
        <ele>1445.479492</ele>
        <time>2008-06-11T20:56:24Z</time>
      </trkpt>
      <trkpt lat="46.6406194444" lon="8.59220833333">
        <ele>1445.479492</ele>
        <time>2008-06-11T21:02:06Z</time>
      </trkpt>
      <trkpt lat="46.6348527778" lon="8.59624444444">
        <ele>1449.324707</ele>
        <time>2008-06-11T21:05:24Z</time>
      </trkpt>
      <trkpt lat="46.635325" lon="8.60159444444">
        <ele>1498.351807</ele>
        <time>2008-06-11T21:07:18Z</time>
      </trkpt>
      <trkpt lat="46.63655" lon="8.60159166667">
        <ele>1514.694336</ele>
        <time>2008-06-11T21:07:56Z</time>
      </trkpt>
      <trkpt lat="46.6374166667" lon="8.59971944444">
        <ele>1529.594727</ele>
        <time>2008-06-11T21:08:44Z</time>
      </trkpt>
      <trkpt lat="46.6355666667" lon="8.606975">
        <ele>1572.854248</ele>
        <time>2008-06-11T21:11:28Z</time>
      </trkpt>
      <trkpt lat="46.6392805556" lon="8.60105277778">
        <ele>1613.710205</ele>
        <time>2008-06-11T21:14:18Z</time>
      </trkpt>
      <trkpt lat="46.6372972222" lon="8.60539166667">
        <ele>1643.510986</ele>
        <time>2008-06-11T21:16:09Z</time>
      </trkpt>
      <trkpt lat="46.6377444444" lon="8.60964166667">
        <ele>1670.908691</ele>
        <time>2008-06-11T21:17:40Z</time>
      </trkpt>
      <trkpt lat="46.6399138889" lon="8.60363888889">
        <ele>1717.532471</ele>
        <time>2008-06-11T21:20:04Z</time>
      </trkpt>
      <trkpt lat="46.6396277778" lon="8.60927777778">
        <ele>1751.659424</ele>
        <time>2008-06-11T21:22:04Z</time>
      </trkpt>
      <trkpt lat="46.6402055556" lon="8.61169722222">
        <ele>1765.11792</ele>
        <time>2008-06-11T21:22:58Z</time>
      </trkpt>
      <trkpt lat="46.6411861111" lon="8.608425">
        <ele>1795.880127</ele>
        <time>2008-06-11T21:24:14Z</time>
      </trkpt>
      <trkpt lat="46.6433916667" lon="8.62149444444">
        <ele>1865.094971</ele>
        <time>2008-06-11T21:28:59Z</time>
      </trkpt>
      <trkpt lat="46.6553694444" lon="8.63890833333">
        <ele>1974.20459</ele>
        <time>2008-06-11T21:37:42Z</time>
      </trkpt>
      <trkpt lat="46.661275" lon="8.66182777778">
        <ele>2029.961182</ele>
        <time>2008-06-11T21:46:21Z</time>
      </trkpt>
      <trkpt lat="46.6615722222" lon="8.66871388889">
        <ele>2028.999756</ele>
        <time>2008-06-11T21:48:47Z</time>
      </trkpt>
      <trkpt lat="46.6605083333" lon="8.67087222222">
        <ele>2030.922607</ele>
        <time>2008-06-11T21:49:43Z</time>
      </trkpt>
      <trkpt lat="46.6588305556" lon="8.67115555556">
        <ele>2038.132324</ele>
        <time>2008-06-11T21:50:35Z</time>
      </trkpt>
      <trkpt lat="46.6523666667" lon="8.68143333333">
        <ele>1927.580566</ele>
        <time>2008-06-11T21:55:31Z</time>
      </trkpt>
      <trkpt lat="46.6521916667" lon="8.67953888889">
        <ele>1918.448242</ele>
        <time>2008-06-11T21:56:12Z</time>
      </trkpt>
      <trkpt lat="46.6509888889" lon="8.68372222222">
        <ele>1887.686035</ele>
        <time>2008-06-11T21:57:48Z</time>
      </trkpt>
      <trkpt lat="46.6510305556" lon="8.68103611111">
        <ele>1874.227539</ele>
        <time>2008-06-11T21:58:45Z</time>
      </trkpt>
      <trkpt lat="46.649375" lon="8.68618888889">
        <ele>1797.802734</ele>
        <time>2008-06-11T22:00:45Z</time>
      </trkpt>
      <trkpt lat="46.6493361111" lon="8.69321666667">
        <ele>1747.814209</ele>
        <time>2008-06-11T22:03:14Z</time>
      </trkpt>
      <trkpt lat="46.6536166667" lon="8.69887777778">
        <ele>1700.709473</ele>
        <time>2008-06-11T22:06:13Z</time>
      </trkpt>
      <trkpt lat="46.6554138889" lon="8.70919722222">
        <ele>1652.162842</ele>
        <time>2008-06-11T22:09:59Z</time>
      </trkpt>
      <trkpt lat="46.6618833333" lon="8.72275277778">
        <ele>1573.334961</ele>
        <time>2008-06-11T22:15:49Z</time>
      </trkpt>
      <trkpt lat="46.6650555556" lon="8.74100833333">
        <ele>1486.335693</ele>
        <time>2008-06-11T22:22:28Z</time>
      </trkpt>
      <trkpt lat="46.6671444444" lon="8.74539166667">
        <ele>1466.628418</ele>
        <time>2008-06-11T22:24:21Z</time>
      </trkpt>
      <trkpt lat="46.6697472222" lon="8.74395">
        <ele>1451.247314</ele>
        <time>2008-06-11T22:25:47Z</time>
      </trkpt>
      <trkpt lat="46.6715527778" lon="8.74460277778">
        <ele>1444.998779</ele>
        <time>2008-06-11T22:26:44Z</time>
      </trkpt>
      <trkpt lat="46.6753166667" lon="8.75053888889">
        <ele>1421.927246</ele>
        <time>2008-06-11T22:29:36Z</time>
      </trkpt>
      <trkpt lat="46.67745" lon="8.76036388889">
        <ele>1425.291748</ele>
        <time>2008-06-11T22:33:14Z</time>
      </trkpt>
      <trkpt lat="46.6805527778" lon="8.76252222222">
        <ele>1429.136963</ele>
        <time>2008-06-11T22:35:00Z</time>
      </trkpt>
      <trkpt lat="46.679" lon="8.77012222222">
        <ele>1423.369385</ele>
        <time>2008-06-11T22:37:48Z</time>
      </trkpt>
      <trkpt lat="46.6813305556" lon="8.77732222222">
        <ele>1419.043213</ele>
        <time>2008-06-11T22:40:37Z</time>
      </trkpt>
      <trkpt lat="46.6807722222" lon="8.78252777778">
        <ele>1420.004639</ele>
        <time>2008-06-11T22:42:29Z</time>
      </trkpt>
      <trkpt lat="46.6820194444" lon="8.78386111111">
        <ele>1418.081787</ele>
        <time>2008-06-11T22:43:16Z</time>
      </trkpt>
      <trkpt lat="46.6809027778" lon="8.78565833333">
        <ele>1420.966064</ele>
        <time>2008-06-11T22:44:08Z</time>
      </trkpt>
      <trkpt lat="46.6806666667" lon="8.8037">
        <ele>1375.303223</ele>
        <time>2008-06-11T22:50:30Z</time>
      </trkpt>
      <trkpt lat="46.6819194444" lon="8.82883055556">
        <ele>1318.104736</ele>
        <time>2008-06-11T22:59:24Z</time>
      </trkpt>
      <trkpt lat="46.6853805556" lon="8.83511111111">
        <ele>1292.630127</ele>
        <time>2008-06-11T23:02:15Z</time>
      </trkpt>
      <trkpt lat="46.6869444444" lon="8.83480277778">
        <ele>1283.016602</ele>
        <time>2008-06-11T23:03:04Z</time>
      </trkpt>
      <trkpt lat="46.6877638889" lon="8.83152777778">
        <ele>1267.635498</ele>
        <time>2008-06-11T23:04:17Z</time>
      </trkpt>
      <trkpt lat="46.6914" lon="8.83784166667">
        <ele>1260.906494</ele>
        <time>2008-06-11T23:07:12Z</time>
      </trkpt>
      <trkpt lat="46.6949416667" lon="8.83893888889">
        <ele>1246.006104</ele>
        <time>2008-06-11T23:09:04Z</time>
      </trkpt>
      <trkpt lat="46.6952027778" lon="8.84173333333">
        <ele>1241.199219</ele>
        <time>2008-06-11T23:10:04Z</time>
      </trkpt>
      <trkpt lat="46.7010277778" lon="8.84566666667">
        <ele>1206.111084</ele>
        <time>2008-06-11T23:13:22Z</time>
      </trkpt>
      <trkpt lat="46.7047027778" lon="8.85105277778">
        <ele>1174.868408</ele>
        <time>2008-06-11T23:16:03Z</time>
      </trkpt>
      <trkpt lat="46.7086277778" lon="8.86574722222">
        <ele>1148.432129</ele>
        <time>2008-06-11T23:21:37Z</time>
      </trkpt>
      <trkpt lat="46.7131444444" lon="8.874375">
        <ele>1115.266602</ele>
        <time>2008-06-11T23:25:27Z</time>
      </trkpt>
      <trkpt lat="46.7168277778" lon="8.88965833333">
        <ele>1072.007324</ele>
        <time>2008-06-11T23:31:10Z</time>
      </trkpt>
      <trkpt lat="46.7216777778" lon="8.89784166667">
        <ele>1046.532471</ele>
        <time>2008-06-11T23:34:59Z</time>
      </trkpt>
      <trkpt lat="46.7268638889" lon="8.93501111111">
        <ele>1059.029541</ele>
        <time>2008-06-11T23:48:22Z</time>
      </trkpt>
      <trkpt lat="46.7302472222" lon="8.94721388889">
        <ele>1032.593262</ele>
        <time>2008-06-11T23:53:01Z</time>
      </trkpt>
      <trkpt lat="46.7343444444" lon="8.95570833333">
        <ele>984.527344</ele>
        <time>2008-06-11T23:56:41Z</time>
      </trkpt>
      <trkpt lat="46.7342166667" lon="8.966525">
        <ele>952.322998</ele>
        <time>2008-06-12T00:00:30Z</time>
      </trkpt>
      <trkpt lat="46.7425138889" lon="8.98041111111">
        <ele>890.318115</ele>
        <time>2008-06-12T00:07:00Z</time>
      </trkpt>
      <trkpt lat="46.7422" lon="8.98554722222">
        <ele>881.66626</ele>
        <time>2008-06-12T00:08:49Z</time>
      </trkpt>
      <trkpt lat="46.7448527778" lon="9.00436111111">
        <ele>870.611084</ele>
        <time>2008-06-12T00:15:35Z</time>
      </trkpt>
      <trkpt lat="46.7425027778" lon="9.01724722222">
        <ele>849.942871</ele>
        <time>2008-06-12T00:20:18Z</time>
      </trkpt>
      <trkpt lat="46.7460833333" lon="9.032">
        <ele>853.788086</ele>
        <time>2008-06-12T00:25:49Z</time>
      </trkpt>
      <trkpt lat="46.7484638889" lon="9.03625833333">
        <ele>852.345947</ele>
        <time>2008-06-12T00:27:45Z</time>
      </trkpt>
      <trkpt lat="46.7524305556" lon="9.05470555556">
        <ele>826.871094</ele>
        <time>2008-06-12T00:34:34Z</time>
      </trkpt>
      <trkpt lat="46.7572583333" lon="9.06323333333">
        <ele>805.241455</ele>
        <time>2008-06-12T00:38:29Z</time>
      </trkpt>
      <trkpt lat="46.758375" lon="9.08809444444">
        <ele>786.49585</ele>
        <time>2008-06-12T00:47:16Z</time>
      </trkpt>
      <trkpt lat="46.765875" lon="9.10390833333">
        <ele>774.959961</ele>
        <time>2008-06-12T00:54:03Z</time>
      </trkpt>
      <trkpt lat="46.7748277778" lon="9.12878055556">
        <ele>761.020752</ele>
        <time>2008-06-12T01:03:57Z</time>
      </trkpt>
      <trkpt lat="46.7767416667" lon="9.13948611111">
        <ele>758.136963</ele>
        <time>2008-06-12T01:07:51Z</time>
      </trkpt>
      <trkpt lat="46.7755944444" lon="9.14730277778">
        <ele>761.501465</ele>
        <time>2008-06-12T01:10:40Z</time>
      </trkpt>
      <trkpt lat="46.7771527778" lon="9.15501944444">
        <ele>753.811035</ele>
        <time>2008-06-12T01:13:31Z</time>
      </trkpt>
      <trkpt lat="46.7760555556" lon="9.1603">
        <ele>750.927002</ele>
        <time>2008-06-12T01:15:27Z</time>
      </trkpt>
      <trkpt lat="46.7768527778" lon="9.17120555556">
        <ele>747.081543</ele>
        <time>2008-06-12T01:19:19Z</time>
      </trkpt>
      <trkpt lat="46.7734638889" lon="9.18126666667">
        <ele>729.777832</ele>
        <time>2008-06-12T01:23:16Z</time>
      </trkpt>
      <trkpt lat="46.7757611111" lon="9.2027">
        <ele>716.31958</ele>
        <time>2008-06-12T01:30:55Z</time>
      </trkpt>
      <trkpt lat="46.7755583333" lon="9.20463611111">
        <ele>712.954834</ele>
        <time>2008-06-12T01:31:37Z</time>
      </trkpt>
      <trkpt lat="46.7741472222" lon="9.20549444444">
        <ele>711.032227</ele>
        <time>2008-06-12T01:32:24Z</time>
      </trkpt>
      <trkpt lat="46.7744694444" lon="9.21640555556">
        <ele>717.281006</ele>
        <time>2008-06-12T01:36:15Z</time>
      </trkpt>
      <trkpt lat="46.7728777778" lon="9.22068333333">
        <ele>722.568115</ele>
        <time>2008-06-12T01:37:58Z</time>
      </trkpt>
      <trkpt lat="46.7755527778" lon="9.23012777778">
        <ele>734.104004</ele>
        <time>2008-06-12T01:41:34Z</time>
      </trkpt>
      <trkpt lat="46.7760666667" lon="9.23743611111">
        <ele>732.181396</ele>
        <time>2008-06-12T01:44:10Z</time>
      </trkpt>
      <trkpt lat="46.7793222222" lon="9.24382777778">
        <ele>728.81665</ele>
        <time>2008-06-12T01:46:58Z</time>
      </trkpt>
      <trkpt lat="46.7810527778" lon="9.257125">
        <ele>735.06543</ele>
        <time>2008-06-12T01:51:44Z</time>
      </trkpt>
      <trkpt lat="46.7861055556" lon="9.26775">
        <ele>775.44043</ele>
        <time>2008-06-12T01:56:18Z</time>
      </trkpt>
      <trkpt lat="46.7883861111" lon="9.28799722222">
        <ele>822.545166</ele>
        <time>2008-06-12T02:03:32Z</time>
      </trkpt>
      <trkpt lat="46.7840638889" lon="9.29633333333">
        <ele>820.141846</ele>
        <time>2008-06-12T02:07:13Z</time>
      </trkpt>
      <trkpt lat="46.7879777778" lon="9.29605">
        <ele>851.384766</ele>
        <time>2008-06-12T02:09:14Z</time>
      </trkpt>
      <trkpt lat="46.7916583333" lon="9.30627222222">
        <ele>907.141113</ele>
        <time>2008-06-12T02:13:18Z</time>
      </trkpt>
      <trkpt lat="46.7912888889" lon="9.3114">
        <ele>928.290283</ele>
        <time>2008-06-12T02:15:08Z</time>
      </trkpt>
      <trkpt lat="46.7946111111" lon="9.31765">
        <ele>936.941895</ele>
        <time>2008-06-12T02:17:55Z</time>
      </trkpt>
      <trkpt lat="46.7940527778" lon="9.33342222222">
        <ele>909.063965</ele>
        <time>2008-06-12T02:23:29Z</time>
      </trkpt>
      <trkpt lat="46.7921861111" lon="9.33763611111">
        <ele>909.063965</ele>
        <time>2008-06-12T02:25:15Z</time>
      </trkpt>
      <trkpt lat="46.7890027778" lon="9.33914722222">
        <ele>881.185791</ele>
        <time>2008-06-12T02:26:58Z</time>
      </trkpt>
      <trkpt lat="46.7886638889" lon="9.34090555556">
        <ele>869.169189</ele>
        <time>2008-06-12T02:27:37Z</time>
      </trkpt>
      <trkpt lat="46.7899666667" lon="9.34008333333">
        <ele>855.22998</ele>
        <time>2008-06-12T02:28:21Z</time>
      </trkpt>
      <trkpt lat="46.7914833333" lon="9.34153611111">
        <ele>838.406982</ele>
        <time>2008-06-12T02:29:17Z</time>
      </trkpt>
      <trkpt lat="46.7946694444" lon="9.33891666667">
        <ele>797.551025</ele>
        <time>2008-06-12T02:31:10Z</time>
      </trkpt>
      <trkpt lat="46.7934694444" lon="9.34058333333">
        <ele>774.479248</ele>
        <time>2008-06-12T02:32:01Z</time>
      </trkpt>
      <trkpt lat="46.7953805556" lon="9.34051666667">
        <ele>736.507324</ele>
        <time>2008-06-12T02:33:00Z</time>
      </trkpt>
      <trkpt lat="46.7977722222" lon="9.34476944444">
        <ele>746.601074</ele>
        <time>2008-06-12T02:34:56Z</time>
      </trkpt>
      <trkpt lat="46.7994833333" lon="9.34550277778">
        <ele>755.25293</ele>
        <time>2008-06-12T02:35:51Z</time>
      </trkpt>
      <trkpt lat="46.8041861111" lon="9.34118333333">
        <ele>773.518066</ele>
        <time>2008-06-12T02:38:43Z</time>
      </trkpt>
      <trkpt lat="46.8099361111" lon="9.34640555556">
        <ele>780.247314</ele>
        <time>2008-06-12T02:42:12Z</time>
      </trkpt>
      <trkpt lat="46.8132944444" lon="9.36441111111">
        <ele>720.164795</ele>
        <time>2008-06-12T02:48:47Z</time>
      </trkpt>
      <trkpt lat="46.8124388889" lon="9.40028333333">
        <ele>659.601807</ele>
        <time>2008-06-12T03:01:25Z</time>
      </trkpt>
      <trkpt lat="46.8153222222" lon="9.40338055556">
        <ele>644.220703</ele>
        <time>2008-06-12T03:03:16Z</time>
      </trkpt>
      <trkpt lat="46.8187388889" lon="9.40180555556">
        <ele>626.916992</ele>
        <time>2008-06-12T03:05:07Z</time>
      </trkpt>
      <trkpt lat="46.8222833333" lon="9.40325555556">
        <ele>602.883789</ele>
        <time>2008-06-12T03:07:00Z</time>
      </trkpt>
      <trkpt lat="46.8199972222" lon="9.40719444444">
        <ele>598.077393</ele>
        <time>2008-06-12T03:08:50Z</time>
      </trkpt>
      <trkpt lat="46.8198138889" lon="9.40605277778">
        <ele>601.441895</ele>
        <time>2008-06-12T03:09:14Z</time>
      </trkpt>
      <trkpt lat="46.821525" lon="9.40698055556">
        <ele>608.171387</ele>
        <time>2008-06-12T03:10:11Z</time>
      </trkpt>
      <trkpt lat="46.8228583333" lon="9.40876388889">
        <ele>606.729248</ele>
        <time>2008-06-12T03:11:06Z</time>
      </trkpt>
      <trkpt lat="46.8246222222" lon="9.41345555556">
        <ele>603.845215</ele>
        <time>2008-06-12T03:13:00Z</time>
      </trkpt>
      <trkpt lat="46.8278777778" lon="9.41645833333">
        <ele>612.016602</ele>
        <time>2008-06-12T03:14:59Z</time>
      </trkpt>
      <trkpt lat="46.8299583333" lon="9.42072222222">
        <ele>621.14917</ele>
        <time>2008-06-12T03:16:49Z</time>
      </trkpt>
      <trkpt lat="46.837825" lon="9.44980833333">
        <ele>595.193359</ele>
        <time>2008-06-12T03:27:50Z</time>
      </trkpt>
      <trkpt lat="46.8375888889" lon="9.45843333333">
        <ele>591.828857</ele>
        <time>2008-06-12T03:30:53Z</time>
      </trkpt>
      <trkpt lat="46.8424555556" lon="9.47425833333">
        <ele>587.502686</ele>
        <time>2008-06-12T03:36:59Z</time>
      </trkpt>
      <trkpt lat="46.8474055556" lon="9.50455277778">
        <ele>578.851074</ele>
        <time>2008-06-12T03:47:57Z</time>
      </trkpt>
      <trkpt lat="46.8491777778" lon="9.50604722222">
        <ele>579.812256</ele>
        <time>2008-06-12T03:49:00Z</time>
      </trkpt>
      <trkpt lat="46.8609222222" lon="9.50848611111">
        <ele>577.889648</ele>
        <time>2008-06-12T03:55:07Z</time>
      </trkpt>
      <trkpt lat="46.8639777778" lon="9.51203611111">
        <ele>578.851074</ele>
        <time>2008-06-12T03:57:07Z</time>
      </trkpt>
      <trkpt lat="46.8728638889" lon="9.53115833333">
        <ele>565.873291</ele>
        <time>2008-06-12T04:05:16Z</time>
      </trkpt>
      <trkpt lat="46.8763638889" lon="9.53379444444">
        <ele>571.640869</ele>
        <time>2008-06-12T04:07:17Z</time>
      </trkpt>
      <trkpt lat="46.8837222222" lon="9.53601944444">
        <ele>574.525146</ele>
        <time>2008-06-12T04:11:09Z</time>
      </trkpt>
      <trkpt lat="46.9060277778" lon="9.55595277778">
        <ele>561.547363</ele>
        <time>2008-06-12T04:24:37Z</time>
      </trkpt>
      <trkpt lat="46.9149888889" lon="9.56066666667">
        <ele>550.011475</ele>
        <time>2008-06-12T04:29:31Z</time>
      </trkpt>
      <trkpt lat="46.9227583333" lon="9.56243333333">
        <ele>550.972656</ele>
        <time>2008-06-12T04:33:33Z</time>
      </trkpt>
      <trkpt lat="46.928625" lon="9.56155277778">
        <ele>554.337402</ele>
        <time>2008-06-12T04:36:36Z</time>
      </trkpt>
      <trkpt lat="46.9322972222" lon="9.55911111111">
        <ele>553.375977</ele>
        <time>2008-06-12T04:38:40Z</time>
      </trkpt>
      <trkpt lat="46.9406611111" lon="9.54785833333">
        <ele>537.994995</ele>
        <time>2008-06-12T04:44:31Z</time>
      </trkpt>
      <trkpt lat="46.9445" lon="9.54593888889">
        <ele>537.033691</ele>
        <time>2008-06-12T04:46:36Z</time>
      </trkpt>
      <trkpt lat="46.9525055556" lon="9.54595833333">
        <ele>537.033691</ele>
        <time>2008-06-12T04:50:44Z</time>
      </trkpt>
      <trkpt lat="46.9679861111" lon="9.5524">
        <ele>529.82373</ele>
        <time>2008-06-12T04:59:01Z</time>
      </trkpt>
      <trkpt lat="46.972025" lon="9.55215">
        <ele>532.227051</ele>
        <time>2008-06-12T05:01:06Z</time>
      </trkpt>
      <trkpt lat="46.977225" lon="9.5488">
        <ele>525.017212</ele>
        <time>2008-06-12T05:04:01Z</time>
      </trkpt>
      <trkpt lat="46.9989472222" lon="9.52352777778">
        <ele>513.481445</ele>
        <time>2008-06-12T05:18:18Z</time>
      </trkpt>
      <trkpt lat="47.0112222222" lon="9.513775">
        <ele>509.155396</ele>
        <time>2008-06-12T05:25:29Z</time>
      </trkpt>
      <trkpt lat="47.013675" lon="9.50938055556">
        <ele>514.92334</ele>
        <time>2008-06-12T05:27:28Z</time>
      </trkpt>
      <trkpt lat="47.0154027778" lon="9.49812777778">
        <ele>500.022949</ele>
        <time>2008-06-12T05:31:31Z</time>
      </trkpt>
      <trkpt lat="47.0182944444" lon="9.49065">
        <ele>498.100342</ele>
        <time>2008-06-12T05:34:32Z</time>
      </trkpt>
      <trkpt lat="47.0315861111" lon="9.46884444444">
        <ele>488.967773</ele>
        <time>2008-06-12T05:44:48Z</time>
      </trkpt>
      <trkpt lat="47.0382611111" lon="9.46283888889">
        <ele>485.603027</ele>
        <time>2008-06-12T05:48:50Z</time>
      </trkpt>
      <trkpt lat="47.0485111111" lon="9.47043055556">
        <ele>492.332397</ele>
        <time>2008-06-12T05:54:45Z</time>
      </trkpt>
      <trkpt lat="47.0524611111" lon="9.47111666667">
        <ele>488.967773</ele>
        <time>2008-06-12T05:56:48Z</time>
      </trkpt>
      <trkpt lat="47.061975" lon="9.468975">
        <ele>483.199829</ele>
        <time>2008-06-12T06:01:45Z</time>
      </trkpt>
      <trkpt lat="47.0657694444" lon="9.47091666667">
        <ele>483.199829</ele>
        <time>2008-06-12T06:03:49Z</time>
      </trkpt>
      <trkpt lat="47.0844611111" lon="9.50846388889">
        <ele>472.625366</ele>
        <time>2008-06-12T06:20:07Z</time>
      </trkpt>
      <trkpt lat="47.0891222222" lon="9.514025">
        <ele>475.509277</ele>
        <time>2008-06-12T06:23:13Z</time>
      </trkpt>
      <trkpt lat="47.0968916667" lon="9.51794444444">
        <ele>471.18335</ele>
        <time>2008-06-12T06:27:27Z</time>
      </trkpt>
      <trkpt lat="47.1109638889" lon="9.51613611111">
        <ele>465.415527</ele>
        <time>2008-06-12T06:34:43Z</time>
      </trkpt>
      <trkpt lat="47.1316722222" lon="9.50935277778">
        <ele>460.128174</ele>
        <time>2008-06-12T06:45:38Z</time>
      </trkpt>
      <trkpt lat="47.1409305556" lon="9.50451666667">
        <ele>457.724976</ele>
        <time>2008-06-12T06:50:42Z</time>
      </trkpt>
      <trkpt lat="47.158475" lon="9.49203055556">
        <ele>451.476318</ele>
        <time>2008-06-12T07:00:44Z</time>
      </trkpt>
      <trkpt lat="47.1700361111" lon="9.48668055556">
        <ele>448.111816</ele>
        <time>2008-06-12T07:06:58Z</time>
      </trkpt>
      <trkpt lat="47.1834361111" lon="9.48423055556">
        <ele>447.150269</ele>
        <time>2008-06-12T07:13:55Z</time>
      </trkpt>
      <trkpt lat="47.1929138889" lon="9.48625">
        <ele>445.227661</ele>
        <time>2008-06-12T07:18:51Z</time>
      </trkpt>
      <trkpt lat="47.2086527778" lon="9.495825">
        <ele>442.343872</ele>
        <time>2008-06-12T07:27:37Z</time>
      </trkpt>
      <trkpt lat="47.2232444444" lon="9.50173888889">
        <ele>442.824463</ele>
        <time>2008-06-12T07:35:24Z</time>
      </trkpt>
      <trkpt lat="47.2386583333" lon="9.51426944444">
        <ele>439.459717</ele>
        <time>2008-06-12T07:44:28Z</time>
      </trkpt>
      <trkpt lat="47.2586944444" lon="9.52662777778">
        <ele>435.133911</ele>
        <time>2008-06-12T07:55:39Z</time>
      </trkpt>
      <trkpt lat="47.272075" lon="9.52965833333">
        <ele>437.056519</ele>
        <time>2008-06-12T08:02:37Z</time>
      </trkpt>
      <trkpt lat="47.2753277778" lon="9.53311388889">
        <ele>438.017822</ele>
        <time>2008-06-12T08:04:41Z</time>
      </trkpt>
      <trkpt lat="47.2827833333" lon="9.546725">
        <ele>431.769165</ele>
        <time>2008-06-12T08:10:48Z</time>
      </trkpt>
      <trkpt lat="47.288225" lon="9.55041388889">
        <ele>428.404663</ele>
        <time>2008-06-12T08:13:53Z</time>
      </trkpt>
      <trkpt lat="47.2963166667" lon="9.55314444444">
        <ele>427.92395</ele>
        <time>2008-06-12T08:18:09Z</time>
      </trkpt>
      <trkpt lat="47.2995638889" lon="9.55610555556">
        <ele>426.962769</ele>
        <time>2008-06-12T08:20:07Z</time>
      </trkpt>
      <trkpt lat="47.3164472222" lon="9.583975">
        <ele>423.598022</ele>
        <time>2008-06-12T08:33:10Z</time>
      </trkpt>
      <trkpt lat="47.3219305556" lon="9.58731111111">
        <ele>419.272217</ele>
        <time>2008-06-12T08:36:13Z</time>
      </trkpt>
      <trkpt lat="47.3451555556" lon="9.59643611111">
        <ele>418.791504</ele>
        <time>2008-06-12T08:48:35Z</time>
      </trkpt>
      <trkpt lat="47.3561166667" lon="9.60563888889">
        <ele>414.946167</ele>
        <time>2008-06-12T08:55:05Z</time>
      </trkpt>
      <trkpt lat="47.3728388889" lon="9.62919722222">
        <ele>407.736328</ele>
        <time>2008-06-12T09:06:59Z</time>
      </trkpt>
      <trkpt lat="47.3807583333" lon="9.63694444444">
        <ele>405.813721</ele>
        <time>2008-06-12T09:11:52Z</time>
      </trkpt>
      <trkpt lat="47.3910194444" lon="9.64453611111">
        <ele>405.813721</ele>
        <time>2008-06-12T09:17:47Z</time>
      </trkpt>
      <trkpt lat="47.3897305556" lon="9.64979166667">
        <ele>401.968506</ele>
        <time>2008-06-12T09:19:44Z</time>
      </trkpt>
      <trkpt lat="47.3844444444" lon="9.65716666667">
        <ele>401.487793</ele>
        <time>2008-06-12T09:23:28Z</time>
      </trkpt>
      <trkpt lat="47.3715972222" lon="9.68215833333">
        <ele>399.084351</ele>
        <time>2008-06-12T09:34:24Z</time>
      </trkpt>
      <trkpt lat="47.3675611111" lon="9.68765555556">
        <ele>406.294312</ele>
        <time>2008-06-12T09:37:14Z</time>
      </trkpt>
      <trkpt lat="47.3679055556" lon="9.68971944444">
        <ele>405.813721</ele>
        <time>2008-06-12T09:37:59Z</time>
      </trkpt>
      <trkpt lat="47.3713777778" lon="9.69172777778">
        <ele>401.487793</ele>
        <time>2008-06-12T09:39:54Z</time>
      </trkpt>
      <trkpt lat="47.3857416667" lon="9.71313611111">
        <ele>408.217041</ele>
        <time>2008-06-12T09:50:24Z</time>
      </trkpt>
      <trkpt lat="47.3912194444" lon="9.72745">
        <ele>415.907471</ele>
        <time>2008-06-12T09:56:08Z</time>
      </trkpt>
      <trkpt lat="47.3977694444" lon="9.73249722222">
        <ele>424.559448</ele>
        <time>2008-06-12T09:59:56Z</time>
      </trkpt>
      <trkpt lat="47.4063583333" lon="9.74263888889">
        <ele>434.172607</ele>
        <time>2008-06-12T10:05:36Z</time>
      </trkpt>
      <trkpt lat="47.4091888889" lon="9.75483611111">
        <ele>474.547974</ele>
        <time>2008-06-12T10:10:05Z</time>
      </trkpt>
      <trkpt lat="47.4121583333" lon="9.75671666667">
        <ele>508.674683</ele>
        <time>2008-06-12T10:11:45Z</time>
      </trkpt>
      <trkpt lat="47.4091055556" lon="9.75879166667">
        <ele>553.856689</ele>
        <time>2008-06-12T10:13:29Z</time>
      </trkpt>
      <trkpt lat="47.4129527778" lon="9.76268333333">
        <ele>609.613281</ele>
        <time>2008-06-12T10:15:53Z</time>
      </trkpt>
      <trkpt lat="47.4119944444" lon="9.76481111111">
        <ele>627.397705</ele>
        <time>2008-06-12T10:16:46Z</time>
      </trkpt>
      <trkpt lat="47.418375" lon="9.76958888889">
        <ele>684.115479</ele>
        <time>2008-06-12T10:20:27Z</time>
      </trkpt>
      <trkpt lat="47.4216055556" lon="9.769625">
        <ele>723.048828</ele>
        <time>2008-06-12T10:22:07Z</time>
      </trkpt>
      <trkpt lat="47.4238861111" lon="9.77358055556">
        <ele>750.927002</ele>
        <time>2008-06-12T10:23:56Z</time>
      </trkpt>
      <trkpt lat="47.4241611111" lon="9.77892777778">
        <ele>788.418457</ele>
        <time>2008-06-12T10:25:48Z</time>
      </trkpt>
      <trkpt lat="47.4269138889" lon="9.77908611111">
        <ele>829.274414</ele>
        <time>2008-06-12T10:27:13Z</time>
      </trkpt>
      <trkpt lat="47.4300388889" lon="9.78441666667">
        <ele>877.340576</ele>
        <time>2008-06-12T10:29:40Z</time>
      </trkpt>
      <trkpt lat="47.4291194444" lon="9.789725">
        <ele>916.273682</ele>
        <time>2008-06-12T10:31:35Z</time>
      </trkpt>
      <trkpt lat="47.4276083333" lon="9.79083333333">
        <ele>937.422607</ele>
        <time>2008-06-12T10:32:27Z</time>
      </trkpt>
      <trkpt lat="47.4260361111" lon="9.80067222222">
        <ele>1017.692627</ele>
        <time>2008-06-12T10:35:58Z</time>
      </trkpt>
      <trkpt lat="47.4272388889" lon="9.80860555556">
        <ele>1079.697754</ele>
        <time>2008-06-12T10:38:48Z</time>
      </trkpt>
      <trkpt lat="47.4218833333" lon="9.80916666667">
        <ele>1120.553955</ele>
        <time>2008-06-12T10:41:34Z</time>
      </trkpt>
      <trkpt lat="47.4168972222" lon="9.82061666667">
        <ele>1046.532471</ele>
        <time>2008-06-12T10:46:19Z</time>
      </trkpt>
      <trkpt lat="47.415175" lon="9.8218">
        <ele>1025.864014</ele>
        <time>2008-06-12T10:47:17Z</time>
      </trkpt>
      <trkpt lat="47.4144638889" lon="9.83553888889">
        <ele>919.157715</ele>
        <time>2008-06-12T10:52:05Z</time>
      </trkpt>
      <trkpt lat="47.4129722222" lon="9.8398">
        <ele>883.588867</ele>
        <time>2008-06-12T10:53:46Z</time>
      </trkpt>
      <trkpt lat="47.4146777778" lon="9.838625">
        <ele>863.881836</ele>
        <time>2008-06-12T10:54:44Z</time>
      </trkpt>
      <trkpt lat="47.4183472222" lon="9.839875">
        <ele>829.755127</ele>
        <time>2008-06-12T10:56:40Z</time>
      </trkpt>
      <trkpt lat="47.4142666667" lon="9.84518888889">
        <ele>786.015137</ele>
        <time>2008-06-12T10:59:28Z</time>
      </trkpt>
      <trkpt lat="47.4155194444" lon="9.84956666667">
        <ele>748.523682</ele>
        <time>2008-06-12T11:01:07Z</time>
      </trkpt>
      <trkpt lat="47.4173583333" lon="9.84920833333">
        <ele>728.335938</ele>
        <time>2008-06-12T11:02:05Z</time>
      </trkpt>
      <trkpt lat="47.4181055556" lon="9.85130277778">
        <ele>716.800293</ele>
        <time>2008-06-12T11:02:54Z</time>
      </trkpt>
      <trkpt lat="47.4145611111" lon="9.85185277778">
        <ele>693.728516</ele>
        <time>2008-06-12T11:04:44Z</time>
      </trkpt>
      <trkpt lat="47.4139694444" lon="9.853475">
        <ele>685.076904</ele>
        <time>2008-06-12T11:05:23Z</time>
      </trkpt>
      <trkpt lat="47.41715" lon="9.85585833333">
        <ele>660.562988</ele>
        <time>2008-06-12T11:07:13Z</time>
      </trkpt>
      <trkpt lat="47.4216416667" lon="9.86556944444">
        <ele>627.397705</ele>
        <time>2008-06-12T11:11:19Z</time>
      </trkpt>
      <trkpt lat="47.4246027778" lon="9.86807777778">
        <ele>629.800781</ele>
        <time>2008-06-12T11:13:04Z</time>
      </trkpt>
      <trkpt lat="47.4259472222" lon="9.87620555556">
        <ele>626.436279</ele>
        <time>2008-06-12T11:15:59Z</time>
      </trkpt>
      <trkpt lat="47.4291361111" lon="9.88274722222">
        <ele>603.845215</ele>
        <time>2008-06-12T11:18:47Z</time>
      </trkpt>
      <trkpt lat="47.4313777778" lon="9.89590555556">
        <ele>547.127441</ele>
        <time>2008-06-12T11:23:31Z</time>
      </trkpt>
      <trkpt lat="47.4321861111" lon="9.89673055556">
        <ele>535.110962</ele>
        <time>2008-06-12T11:24:01Z</time>
      </trkpt>
      <trkpt lat="47.4347527778" lon="9.89292777778">
        <ele>526.459106</ele>
        <time>2008-06-12T11:25:53Z</time>
      </trkpt>
      <trkpt lat="47.4358583333" lon="9.88775555556">
        <ele>531.265747</ele>
        <time>2008-06-12T11:27:47Z</time>
      </trkpt>
      <trkpt lat="47.4434416667" lon="9.88551111111">
        <ele>584.138184</ele>
        <time>2008-06-12T11:31:46Z</time>
      </trkpt>
      <trkpt lat="47.4462805556" lon="9.88155277778">
        <ele>596.154785</ele>
        <time>2008-06-12T11:33:46Z</time>
      </trkpt>
      <trkpt lat="47.4480611111" lon="9.88116666667">
        <ele>598.077393</ele>
        <time>2008-06-12T11:34:42Z</time>
      </trkpt>
      <trkpt lat="47.4494138889" lon="9.88301944444">
        <ele>602.883789</ele>
        <time>2008-06-12T11:35:39Z</time>
      </trkpt>
      <trkpt lat="47.4531555556" lon="9.87933055556">
        <ele>603.364502</ele>
        <time>2008-06-12T11:37:58Z</time>
      </trkpt>
      <trkpt lat="47.4521638889" lon="9.88178888889">
        <ele>588.945068</ele>
        <time>2008-06-12T11:38:57Z</time>
      </trkpt>
      <trkpt lat="47.4520833333" lon="9.89273055556">
        <ele>593.270752</ele>
        <time>2008-06-12T11:42:46Z</time>
      </trkpt>
      <trkpt lat="47.4486833333" lon="9.89896388889">
        <ele>609.132568</ele>
        <time>2008-06-12T11:45:33Z</time>
      </trkpt>
      <trkpt lat="47.4479027778" lon="9.90988055556">
        <ele>658.159912</ele>
        <time>2008-06-12T11:49:23Z</time>
      </trkpt>
      <trkpt lat="47.4490444444" lon="9.91156388889">
        <ele>662.005127</ele>
        <time>2008-06-12T11:50:12Z</time>
      </trkpt>
      <trkpt lat="47.4592472222" lon="9.913525">
        <ele>680.27002</ele>
        <time>2008-06-12T11:55:30Z</time>
      </trkpt>
      <trkpt lat="47.4594361111" lon="9.91083611111">
        <ele>685.076904</ele>
        <time>2008-06-12T11:56:27Z</time>
      </trkpt>
      <trkpt lat="47.4610222222" lon="9.90997222222">
        <ele>671.618164</ele>
        <time>2008-06-12T11:57:19Z</time>
      </trkpt>
      <trkpt lat="47.4604444444" lon="9.90760555556">
        <ele>682.67334</ele>
        <time>2008-06-12T11:58:11Z</time>
      </trkpt>
      <trkpt lat="47.4633416667" lon="9.90504166667">
        <ele>690.364014</ele>
        <time>2008-06-12T11:59:56Z</time>
      </trkpt>
      <trkpt lat="47.4657666667" lon="9.89791111111">
        <ele>686.999268</ele>
        <time>2008-06-12T12:02:42Z</time>
      </trkpt>
      <trkpt lat="47.4693194444" lon="9.89674722222">
        <ele>687.47998</ele>
        <time>2008-06-12T12:04:35Z</time>
      </trkpt>
      <trkpt lat="47.4723305556" lon="9.89922777778">
        <ele>691.325195</ele>
        <time>2008-06-12T12:06:21Z</time>
      </trkpt>
      <trkpt lat="47.4746861111" lon="9.90341666667">
        <ele>675.944092</ele>
        <time>2008-06-12T12:08:15Z</time>
      </trkpt>
      <trkpt lat="47.4797833333" lon="9.90695277778">
        <ele>701.899902</ele>
        <time>2008-06-12T12:11:09Z</time>
      </trkpt>
      <trkpt lat="47.4795805556" lon="9.92026111111">
        <ele>717.761475</ele>
        <time>2008-06-12T12:15:47Z</time>
      </trkpt>
      <trkpt lat="47.4833722222" lon="9.93459166667">
        <ele>722.087402</ele>
        <time>2008-06-12T12:21:08Z</time>
      </trkpt>
      <trkpt lat="47.4851027778" lon="9.93388611111">
        <ele>714.396729</ele>
        <time>2008-06-12T12:22:03Z</time>
      </trkpt>
      <trkpt lat="47.4903888889" lon="9.93614444444">
        <ele>681.711914</ele>
        <time>2008-06-12T12:24:53Z</time>
      </trkpt>
      <trkpt lat="47.4883694444" lon="9.94101666667">
        <ele>668.734375</ele>
        <time>2008-06-12T12:26:53Z</time>
      </trkpt>
      <trkpt lat="47.4903138889" lon="9.94481666667">
        <ele>680.27002</ele>
        <time>2008-06-12T12:28:32Z</time>
      </trkpt>
      <trkpt lat="47.4977333333" lon="9.94667222222">
        <ele>662.966309</ele>
        <time>2008-06-12T12:32:25Z</time>
      </trkpt>
      <trkpt lat="47.5052055556" lon="9.94570555556">
        <ele>662.966309</ele>
        <time>2008-06-12T12:36:16Z</time>
      </trkpt>
      <trkpt lat="47.5110138889" lon="9.95251944444">
        <ele>641.817383</ele>
        <time>2008-06-12T12:40:05Z</time>
      </trkpt>
      <trkpt lat="47.510975" lon="9.95501111111">
        <ele>644.220703</ele>
        <time>2008-06-12T12:40:57Z</time>
      </trkpt>
      <trkpt lat="47.5170777778" lon="9.962525">
        <ele>623.55249</ele>
        <time>2008-06-12T12:45:02Z</time>
      </trkpt>
      <trkpt lat="47.5194305556" lon="9.96915555556">
        <ele>643.259277</ele>
        <time>2008-06-12T12:47:39Z</time>
      </trkpt>
      <trkpt lat="47.5237111111" lon="9.97399722222">
        <ele>647.585205</ele>
        <time>2008-06-12T12:50:25Z</time>
      </trkpt>
      <trkpt lat="47.5258" lon="9.97867777778">
        <ele>656.237061</ele>
        <time>2008-06-12T12:52:22Z</time>
      </trkpt>
      <trkpt lat="47.5292111111" lon="9.98129722222">
        <ele>654.795166</ele>
        <time>2008-06-12T12:54:21Z</time>
      </trkpt>
      <trkpt lat="47.5412861111" lon="10.0130888889">
        <ele>651.911133</ele>
        <time>2008-06-12T13:07:01Z</time>
      </trkpt>
      <trkpt lat="47.5446861111" lon="10.0194055556">
        <ele>670.17627</ele>
        <time>2008-06-12T13:09:50Z</time>
      </trkpt>
      <trkpt lat="47.5476666667" lon="10.0217222222">
        <ele>690.364014</ele>
        <time>2008-06-12T13:11:34Z</time>
      </trkpt>
      <trkpt lat="47.548675" lon="10.0206722222">
        <ele>702.380371</ele>
        <time>2008-06-12T13:12:12Z</time>
      </trkpt>
      <trkpt lat="47.5476083333" lon="10.0155666667">
        <ele>727.855225</ele>
        <time>2008-06-12T13:14:03Z</time>
      </trkpt>
      <trkpt lat="47.5494583333" lon="10.0163166667">
        <ele>741.313721</ele>
        <time>2008-06-12T13:15:02Z</time>
      </trkpt>
      <trkpt lat="47.5522944444" lon="10.0230722222">
        <ele>770.15332</ele>
        <time>2008-06-12T13:17:48Z</time>
      </trkpt>
      <trkpt lat="47.5522777778" lon="10.0258055556">
        <ele>773.518066</ele>
        <time>2008-06-12T13:18:45Z</time>
      </trkpt>
      <trkpt lat="47.5491944444" lon="10.02855">
        <ele>789.379639</ele>
        <time>2008-06-12T13:20:36Z</time>
      </trkpt>
      <trkpt lat="47.549225" lon="10.0368555556">
        <ele>799.473633</ele>
        <time>2008-06-12T13:23:30Z</time>
      </trkpt>
      <trkpt lat="47.5516527778" lon="10.0445611111">
        <ele>778.805176</ele>
        <time>2008-06-12T13:26:27Z</time>
      </trkpt>
      <trkpt lat="47.5509222222" lon="10.0471944444">
        <ele>773.518066</ele>
        <time>2008-06-12T13:27:26Z</time>
      </trkpt>
      <trkpt lat="47.5546" lon="10.0566583333">
        <ele>753.330322</ele>
        <time>2008-06-12T13:31:14Z</time>
      </trkpt>
      <trkpt lat="47.554125" lon="10.0730194444">
        <ele>744.678223</ele>
        <time>2008-06-12T13:36:55Z</time>
      </trkpt>
      <trkpt lat="47.5561277778" lon="10.0808305556">
        <ele>743.717041</ele>
        <time>2008-06-12T13:39:49Z</time>
      </trkpt>
      <trkpt lat="47.5581694444" lon="10.1060861111">
        <ele>732.181396</ele>
        <time>2008-06-12T13:48:40Z</time>
      </trkpt>
      <trkpt lat="47.5568861111" lon="10.1196722222">
        <ele>738.910645</ele>
        <time>2008-06-12T13:53:26Z</time>
      </trkpt>
      <trkpt lat="47.5660694444" lon="10.1564388889">
        <ele>731.700439</ele>
        <time>2008-06-12T14:07:03Z</time>
      </trkpt>
      <trkpt lat="47.5692805556" lon="10.1867138889">
        <ele>731.219971</ele>
        <time>2008-06-12T14:17:41Z</time>
      </trkpt>
      <trkpt lat="47.5682" lon="10.1918388889">
        <ele>740.833008</ele>
        <time>2008-06-12T14:19:33Z</time>
      </trkpt>
      <trkpt lat="47.564" lon="10.1973472222">
        <ele>736.026611</ele>
        <time>2008-06-12T14:22:27Z</time>
      </trkpt>
      <trkpt lat="47.5607416667" lon="10.2071944444">
        <ele>728.335938</ele>
        <time>2008-06-12T14:26:15Z</time>
      </trkpt>
      <trkpt lat="47.5587777778" lon="10.2203083333">
        <ele>725.932617</ele>
        <time>2008-06-12T14:30:55Z</time>
      </trkpt>
      <trkpt lat="47.5740027778" lon="10.238625">
        <ele>733.623291</ele>
        <time>2008-06-12T14:41:01Z</time>
      </trkpt>
      <trkpt lat="47.5792944444" lon="10.2417416667">
        <ele>712.474121</ele>
        <time>2008-06-12T14:43:57Z</time>
      </trkpt>
      <trkpt lat="47.5846694444" lon="10.2412888889">
        <ele>715.838867</ele>
        <time>2008-06-12T14:46:43Z</time>
      </trkpt>
      <trkpt lat="47.5958083333" lon="10.2518666667">
        <ele>709.590332</ele>
        <time>2008-06-12T14:53:32Z</time>
      </trkpt>
      <trkpt lat="47.6041944444" lon="10.2570111111">
        <ele>708.628906</ele>
        <time>2008-06-12T14:58:12Z</time>
      </trkpt>
      <trkpt lat="47.6069361111" lon="10.2606833333">
        <ele>711.032227</ele>
        <time>2008-06-12T15:00:06Z</time>
      </trkpt>
      <trkpt lat="47.6083444444" lon="10.2685166667">
        <ele>709.590332</ele>
        <time>2008-06-12T15:02:55Z</time>
      </trkpt>
      <trkpt lat="47.61115" lon="10.2724388889">
        <ele>718.7229</ele>
        <time>2008-06-12T15:04:54Z</time>
      </trkpt>
      <trkpt lat="47.6145555556" lon="10.2744138889">
        <ele>732.181396</ele>
        <time>2008-06-12T15:06:47Z</time>
      </trkpt>
      <trkpt lat="47.6180527778" lon="10.2739416667">
        <ele>747.081543</ele>
        <time>2008-06-12T15:08:35Z</time>
      </trkpt>
      <trkpt lat="47.627025" lon="10.2776055556">
        <ele>746.120361</ele>
        <time>2008-06-12T15:13:23Z</time>
      </trkpt>
      <trkpt lat="47.6271666667" lon="10.2748472222">
        <ele>743.236328</ele>
        <time>2008-06-12T15:14:20Z</time>
      </trkpt>
      <trkpt lat="47.6286638889" lon="10.2735583333">
        <ele>740.352539</ele>
        <time>2008-06-12T15:15:14Z</time>
      </trkpt>
      <trkpt lat="47.6279888889" lon="10.2719444444">
        <ele>735.545898</ele>
        <time>2008-06-12T15:15:53Z</time>
      </trkpt>
    </trkseg>
  </trk>
</gpx>